# Wetter Temperatur Luftdruck Luftfeuchtigkeit Sichtweite Windgeschwindigkeit Windrichtung Zeit
1 Clear 18 1019 47 10000 3.09 330 05:23 02.10.2022
2 Clear 25 1015 28 9656 5.14 40 01:29 02.10.2022
3 Clouds 25 1015 25 9656 3.09 50 00:38 02.10.2022
4 Clouds 25 1015 25 9656 3.09 50 00:38 02.10.2022
5 Clouds 24 1016 27 9656 1.54 70 23:29 01.10.2022
6 Clouds 23 1023 27 10000 2.24 340 21:58 01.10.2022
7 Clear 20 1019 52 8047 3.58 77 19:30 01.10.2022
8 Clear 15 1017 68 6437 0.45 209 17:46 01.10.2022
9 Mist 11 1018 84 4828 3.6 90 16:24 01.10.2022
10 Fog 9 1017 88 1609 2.06 70 14:18 01.10.2022
11 Clear 11 1016 86 10000 3.09 60 12:35 01.10.2022
12 Clear 11 1019 85 10000 2.57 80 11:23 01.10.2022
13 Clear 11 1017 77 10000 2.24 70 10:53 01.10.2022
14 Clear 11 1020 79 10000 2.57 70 10:30 01.10.2022
15 Clear 11 1020 79 10000 2.57 70 10:30 01.10.2022
16 Clear 12 1020 73 10000 1.54 80 09:26 01.10.2022
17 Clear 13 1020 72 10000 3.09 310 08:39 01.10.2022
18 Clear 18 1018 45 10000 7.15 10 03:50 01.10.2022
19 Clear 19 1017 43 10000 7.2 10 03:22 01.10.2022
20 Clouds 22 1017 40 6437 2.57 30 23:22 30.09.2022
21 Clear 20 1018 42 6437 4.12 30 22:19 30.09.2022
22 Clear 20 1019 49 6437 0.89 41 21:22 30.09.2022
23 Clear 19 1020 54 6437 3.6 100 20:30 30.09.2022
24 Clouds 18 1017 66 10000 2.29 20 18:45 30.09.2022
25 Clouds 13 1011 74 10000 0.89 49 16:55 30.09.2022
26 Clouds 11 1020 73 10000 4.02 50 14:49 30.09.2022
27 Clouds 12 1020 70 10000 4.02 30 12:51 30.09.2022
28 Clouds 12 1020 70 10000 4.02 20 11:56 30.09.2022
29 Clouds 13 1023 65 10000 4.12 30 09:25 30.09.2022
30 Clouds 14 1022 62 10000 4.02 360 07:58 30.09.2022
31 Clouds 16 1023 58 10000 7.2 360 04:21 30.09.2022
32 Clouds 18 1021 53 10000 8.23 360 02:21 30.09.2022
33 Clouds 19 1029 37 10000 4.47 20 21:53 29.09.2022
34 Clouds 19 1023 40 10000 4.63 20 21:24 29.09.2022
35 Clouds 18 1014 51 10000 2.24 323 19:58 29.09.2022
36 Clouds 15 1026 56 10000 4.12 50 18:30 29.09.2022
37 Clouds 12 1026 70 10000 7.2 30 16:29 29.09.2022
38 Clouds 12 1026 74 10000 6.17 40 15:37 29.09.2022
39 Clouds 12 1023 77 10000 4.02 30 14:59 29.09.2022
40 Clouds 12 1024 80 10000 2.57 30 12:45 29.09.2022
41 Clouds 13 1023 83 10000 4.47 30 08:47 29.09.2022
42 Clouds 15 1017 74 10000 8.23 10 04:46 29.09.2022
43 Clouds 18 1022 65 10000 7.72 360 02:36 29.09.2022
44 Clouds 20 1021 57 10000 6.71 360 23:26 28.09.2022
45 Clouds 21 1023 50 10000 4.12 360 21:40 28.09.2022
46 Clouds 21 1023 50 10000 4.12 360 21:22 28.09.2022
47 Clouds 18 1012 62 10000 1.34 355 19:56 28.09.2022
48 Clouds 15 1024 70 10000 4.63 340 16:46 28.09.2022
49 Clouds 14 1023 80 10000 3.09 350 14:19 28.09.2022
50 Clouds 15 1020 77 10000 2.68 20 11:45 28.09.2022
51 Clouds 15 1023 76 10000 3.09 340 09:37 28.09.2022
52 Clouds 15 1023 73 10000 3.58 348 07:43 28.09.2022
53 Clouds 16 1023 70 10000 3.09 340 05:48 28.09.2022
54 Clouds 19 1017 58 10000 4.92 360 01:44 28.09.2022
55 Clouds 19 1019 56 10000 4.12 330 00:36 28.09.2022
56 Clouds 19 1017 60 10000 1.79 344 22:40 27.09.2022
57 Clouds 18 1021 58 10000 5.66 300 21:20 27.09.2022
58 Clouds 18 1022 58 10000 2.57 330 20:34 27.09.2022
59 Clouds 17 1023 58 10000 3.09 320 19:40 27.09.2022
60 Clouds 16 1028 55 10000 2.24 340 17:47 27.09.2022
61 Clouds 15 1020 62 10000 2.68 360 16:56 27.09.2022
62 Clouds 14 1021 76 10000 4.47 335 15:18 27.09.2022
63 Clouds 14 1017 86 10000 4.02 360 13:53 27.09.2022
64 Clouds 14 1020 84 10000 3.6 360 12:37 27.09.2022
65 Clouds 14 1020 84 10000 3.6 360 12:37 27.09.2022
66 Clouds 15 1020 77 10000 2.57 20 10:35 27.09.2022
67 Clouds 15 1019 69 10000 7.6 30 07:55 27.09.2022
68 Clouds 17 1017 67 10000 8.05 40 04:52 27.09.2022
69 Clouds 20 1016 52 10000 8.23 30 01:40 27.09.2022
70 Clouds 21 1022 46 10000 4.92 340 23:52 26.09.2022
71 Clouds 21 1016 50 10000 5.14 340 23:24 26.09.2022
72 Clouds 21 1017 49 10000 3.6 350 21:20 26.09.2022
73 Clouds 18 1026 55 10000 5.81 30 19:49 26.09.2022
74 Clouds 18 1018 61 10000 4.92 50 18:55 26.09.2022
75 Clouds 17 1020 67 10000 5.66 30 17:25 26.09.2022
76 Clouds 15 1018 83 8047 5.14 50 15:23 26.09.2022
77 Clouds 16 1018 72 10000 2.57 360 12:31 26.09.2022
78 Clouds 16 1018 72 10000 2.06 10 10:42 26.09.2022
79 Clouds 16 1018 72 10000 2.06 10 10:23 26.09.2022
80 Clouds 16 1017 68 10000 2.68 360 09:57 26.09.2022
81 Clouds 16 1019 72 10000 3.09 360 09:27 26.09.2022
82 Clouds 16 1018 71 10000 3.58 330 08:59 26.09.2022
83 Clouds 18 1019 73 10000 4.12 360 05:30 26.09.2022
84 Clouds 19 1017 64 10000 3.09 60 02:28 26.09.2022
85 Clouds 23 1016 43 10000 1.34 284 23:24 25.09.2022
86 Clouds 23 1015 49 10000 2.57 360 21:44 25.09.2022
87 Clouds 22 1007 52 10000 1.34 81 20:59 25.09.2022
88 Clouds 21 1016 55 9656 2.68 42 20:34 25.09.2022
89 Clouds 19 1018 67 9656 0.89 106 18:49 25.09.2022
90 Clouds 17 1021 77 9656 3.09 250 18:24 25.09.2022
91 Clouds 16 1021 82 9656 0.45 335 17:22 25.09.2022
92 Clouds 15 1018 87 10000 1.79 30 15:50 25.09.2022
93 Clouds 15 1020 89 9656 2.24 355 14:35 25.09.2022
94 Clouds 15 1018 90 10000 2.24 70 13:58 25.09.2022
95 Clouds 15 1020 93 10000 0.45 299 10:38 25.09.2022
96 Clouds 15 1021 93 10000 0.45 298 09:37 25.09.2022
97 Clouds 15 1023 92 9656 3.6 290 06:53 25.09.2022
98 Thunderstorm 15 1017 96 4828 2.57 320 04:28 25.09.2022
99 Clouds 23 1017 42 10000 3.09 60 23:36 24.09.2022
100 Clouds 23 1020 46 8047 3.09 110 21:19 24.09.2022
101 Clouds 21 1022 58 8047 1.54 350 19:33 24.09.2022
102 Clouds 19 1023 64 8047 2.06 80 18:44 24.09.2022
103 Clouds 16 1023 78 9656 3.09 50 16:43 24.09.2022
104 Clouds 15 1022 84 9656 2.57 60 15:23 24.09.2022
105 Clouds 15 1021 86 9656 3.09 80 14:27 24.09.2022
106 Clouds 15 1019 81 10000 0.89 329 12:59 24.09.2022
107 Clouds 15 1021 85 10000 0.89 51 12:22 24.09.2022
108 Clouds 15 1022 81 10000 2.06 260 09:58 24.09.2022
109 Clouds 15 1023 82 9656 1.54 320 08:51 24.09.2022
110 Clouds 15 1022 86 10000 2.57 20 07:40 24.09.2022
111 Rain 16 1016 76 9656 6.17 10 04:50 24.09.2022
112 Clouds 18 1015 68 10000 10.28 40 03:44 24.09.2022
113 Clouds 23 1025 33 10000 2.68 300 22:54 23.09.2022
114 Clouds 22 1020 40 10000 2.06 10 21:33 23.09.2022
115 Clouds 22 1025 38 10000 5.14 340 20:57 23.09.2022
116 Clouds 20 1021 45 10000 2.57 80 20:26 23.09.2022
117 Clouds 19 1022 50 10000 4.12 350 19:19 23.09.2022
118 Clouds 15 1021 76 9656 3.09 10 15:29 23.09.2022
119 Clouds 15 1018 74 10000 2.68 290 11:47 23.09.2022
120 Clouds 15 1021 75 10000 2.06 310 09:36 23.09.2022
121 Clouds 17 1021 62 10000 3.09 20 06:39 23.09.2022
122 Clouds 24 1016 34 10000 7.72 30 00:41 23.09.2022
123 Clouds 24 1017 31 10000 6.71 40 23:22 22.09.2022
124 Clouds 23 1018 31 10000 6.17 40 22:27 22.09.2022
125 Clouds 21 1019 37 10000 4.63 350 21:19 22.09.2022
126 Clouds 19 1019 46 10000 4.02 340 19:58 22.09.2022
127 Clouds 16 1021 69 10000 5.14 30 17:38 22.09.2022
128 Clouds 15 1020 70 10000 4.12 20 13:20 22.09.2022
129 Clouds 16 1020 67 10000 4.12 340 10:37 22.09.2022
130 Clouds 16 1027 63 10000 3.58 290 08:58 22.09.2022
131 Clouds 16 1021 65 10000 2.68 321 07:27 22.09.2022
132 Clouds 18 1019 54 10000 8.23 40 04:36 22.09.2022
133 Clouds 24 1016 32 10000 3.09 70 23:32 21.09.2022
134 Clouds 23 1018 35 10000 2.57 150 21:51 21.09.2022
135 Clouds 20 1017 45 10000 2.68 80 20:40 21.09.2022
136 Clouds 17 1019 60 10000 4.02 15 17:51 21.09.2022
137 Clouds 16 1008 74 10000 0.45 71 16:55 21.09.2022
138 Clouds 15 1018 71 10000 2.68 341 14:52 21.09.2022
139 Clouds 15 1019 74 10000 2.68 334 13:24 21.09.2022
140 Clouds 15 1019 80 10000 2.57 30 11:30 21.09.2022
141 Clouds 16 1019 75 10000 2.57 360 10:33 21.09.2022
142 Clouds 16 1020 74 10000 2.57 360 09:36 21.09.2022
143 Clouds 16 1014 71 10000 4.92 330 07:58 21.09.2022
144 Clouds 21 1023 52 10000 5.81 50 02:51 21.09.2022
145 Clouds 21 1017 59 10000 6.17 50 02:29 21.09.2022
146 Clouds 22 1021 39 10000 6.17 160 00:57 21.09.2022
147 Clouds 24 1017 36 10000 5.14 20 23:19 20.09.2022
148 Clouds 23 1019 40 10000 3.09 350 21:21 20.09.2022
149 Clouds 20 1021 51 10000 3.09 350 19:43 20.09.2022
150 Clouds 16 1021 69 10000 2.06 90 17:38 20.09.2022
151 Clouds 14 1018 77 10000 2.24 320 14:53 20.09.2022
152 Clouds 15 1018 77 10000 2.24 290 13:52 20.09.2022
153 Clouds 15 1018 77 10000 1.79 270 10:41 20.09.2022
154 Clouds 16 1020 75 10000 2.06 330 08:29 20.09.2022
155 Clouds 16 1018 73 10000 6.17 10 06:22 20.09.2022
156 Clouds 17 1017 73 10000 4.12 330 04:29 20.09.2022
157 Rain 20 1016 60 10000 5.81 230 23:49 19.09.2022
158 Clouds 23 1016 46 10000 3.09 310 22:28 19.09.2022
159 Clouds 22 1025 49 10000 3.58 270 20:58 19.09.2022
160 Clouds 22 1019 52 9656 3.6 270 20:39 19.09.2022
161 Clouds 17 1017 77 10000 3.58 350 17:55 19.09.2022
162 Clouds 15 1019 93 10000 3.13 15 15:53 19.09.2022
163 Clouds 15 1018 94 9656 0.89 342 13:35 19.09.2022
164 Clouds 15 1018 93 8047 2.24 300 11:30 19.09.2022
165 Clouds 16 1020 90 10000 3.09 310 09:20 19.09.2022
166 Clouds 16 1020 90 10000 1.54 300 08:19 19.09.2022
167 Rain 18 1016 82 10000 7.15 30 02:18 19.09.2022
168 Clouds 22 1023 49 10000 0 0 23:24 18.09.2022
169 Clouds 19 1014 74 10000 1.9 155 21:45 18.09.2022
170 Clouds 20 1026 64 9656 4.12 270 20:33 18.09.2022
171 Clouds 17 1021 83 9656 2.57 50 18:41 18.09.2022
172 Clouds 17 1020 82 8047 2.57 340 17:43 18.09.2022
173 Clouds 15 1017 90 10000 2.24 290 15:56 18.09.2022
174 Clouds 15 1018 92 6437 1.54 300 14:30 18.09.2022
175 Clouds 15 1018 92 6437 1.54 260 12:36 18.09.2022
176 Clouds 15 1018 92 6437 1.54 280 11:39 18.09.2022
177 Clouds 18 1019 72 9656 3.09 310 06:30 18.09.2022
178 Clouds 20 1016 59 10000 6.71 160 01:30 18.09.2022
179 Clouds 20 1016 63 10000 6.17 130 00:42 18.09.2022
180 Clouds 24 1024 38 10000 1.79 220 21:54 17.09.2022
181 Clouds 22 1019 48 10000 2.24 320 20:29 17.09.2022
182 Clouds 20 1020 53 10000 3.6 320 19:19 17.09.2022
183 Clouds 15 1026 77 10000 3.58 5 16:57 17.09.2022
184 Clouds 15 1016 79 10000 2.68 340 13:59 17.09.2022
185 Clouds 15 1016 81 10000 2.24 290 11:55 17.09.2022
186 Clouds 16 1019 77 10000 2.06 350 09:40 17.09.2022
187 Clouds 17 1019 76 10000 3.58 350 06:27 17.09.2022
188 Clouds 17 1014 75 9656 6.69 40 02:34 17.09.2022
189 Clouds 22 1024 46 10000 4.92 40 22:56 16.09.2022
190 Clouds 21 1025 49 10000 3.09 30 21:32 16.09.2022
191 Clouds 21 1020 52 10000 2.06 290 20:24 16.09.2022
192 Clouds 17 1018 66 10000 3.58 19 17:52 16.09.2022
193 Clouds 17 1018 66 10000 3.58 19 17:52 16.09.2022
194 Smoke 15 1020 77 9656 3.09 290 15:43 16.09.2022
195 Clouds 15 1019 78 8047 3.09 290 14:28 16.09.2022
196 Clouds 16 1017 71 10000 1.79 290 11:46 16.09.2022
197 Clouds 16 1020 71 9656 3.09 340 09:21 16.09.2022
198 Clouds 16 1020 72 10000 2.57 360 07:20 16.09.2022
199 Clouds 16 1017 73 10000 2.68 340 06:47 16.09.2022
200 Clouds 17 1018 74 10000 7.72 50 02:59 16.09.2022
201 Clouds 20 1014 56 10000 4.02 360 23:48 15.09.2022
202 Clouds 22 1018 47 10000 4.63 50 21:19 15.09.2022
203 Clouds 21 1019 49 10000 2.24 19 20:23 15.09.2022
204 Clouds 19 1020 57 10000 4.63 30 18:30 15.09.2022
205 Clouds 18 1020 63 10000 2.06 70 17:33 15.09.2022
206 Clouds 17 1018 64 10000 2.68 20 16:51 15.09.2022
207 Clouds 15 1019 75 10000 2.24 9 14:41 15.09.2022
208 Clouds 16 1019 69 10000 1.54 40 12:30 15.09.2022
209 Clouds 16 1020 70 10000 4.63 320 10:21 15.09.2022
210 Clouds 17 1018 67 10000 4.47 320 07:51 15.09.2022
211 Clouds 18 1014 68 10000 3.94 19 03:58 15.09.2022
212 Clouds 23 1015 42 10000 5.14 20 01:27 15.09.2022
213 Clouds 22 1005 51 10000 0.89 33 21:54 14.09.2022
214 Clouds 20 1020 52 10000 4.12 40 19:55 14.09.2022
215 Clouds 18 1020 59 10000 4.12 30 19:20 14.09.2022
216 Clouds 16 1016 74 10000 1.79 60 16:57 14.09.2022
217 Clouds 15 1016 77 10000 2.24 348 15:49 14.09.2022
218 Clouds 15 1018 81 9656 2.57 10 14:33 14.09.2022
219 Clouds 15 1018 72 10000 3.09 50 11:39 14.09.2022
220 Clouds 15 1017 73 10000 3.58 20 09:48 14.09.2022
221 Clouds 17 1020 65 10000 4.12 360 07:29 14.09.2022
222 Clouds 17 1019 67 10000 2.57 10 06:46 14.09.2022
223 Clouds 18 1018 61 10000 6.17 70 04:33 14.09.2022
224 Clouds 21 1021 43 10000 8.94 20 01:47 14.09.2022
225 Clouds 21 1015 46 10000 9.26 20 01:27 14.09.2022
226 Dust 21 1021 49 10000 10.29 40 00:42 14.09.2022
227 Clouds 23 1021 43 10000 12.86 60 23:54 13.09.2022
228 Clouds 24 1022 33 10000 3.09 300 23:36 13.09.2022
229 Clouds 24 1016 38 10000 3.09 300 23:18 13.09.2022
230 Clouds 22 1015 47 10000 3.13 97 21:45 13.09.2022
231 Clouds 20 1020 56 9656 1.54 360 19:38 13.09.2022
232 Clouds 16 1017 72 10000 3.58 50 17:41 13.09.2022
233 Clouds 15 1018 74 10000 4.02 30 15:55 13.09.2022
234 Clouds 15 1019 75 10000 2.57 40 14:35 13.09.2022
235 Clouds 15 1014 75 10000 2.57 360 12:32 13.09.2022
236 Clouds 17 1021 67 10000 3.09 20 08:43 13.09.2022
237 Clouds 18 1020 60 10000 6.17 360 05:22 13.09.2022
238 Clouds 21 1019 46 10000 3.09 320 23:37 12.09.2022
239 Clouds 22 1026 37 10000 4.02 310 22:49 12.09.2022
240 Clouds 21 1021 48 9656 6.17 300 21:37 12.09.2022
241 Clouds 20 1022 52 10000 3.58 349 20:25 12.09.2022
242 Clouds 18 1023 58 10000 4.12 40 18:43 12.09.2022
243 Clouds 16 1023 62 9656 2.57 360 16:32 12.09.2022
244 Clouds 16 1023 62 9656 2.57 360 16:32 12.09.2022
245 Clouds 16 1023 62 9656 2.57 360 16:32 12.09.2022
246 Clouds 15 1020 67 10000 4.92 30 13:57 12.09.2022
247 Clouds 15 1022 72 10000 4.12 360 11:29 12.09.2022
248 Clouds 16 1024 64 10000 3.6 10 09:45 12.09.2022
249 Clouds 19 1028 48 10000 4.92 40 04:49 12.09.2022
250 Clouds 19 1022 52 10000 5.14 40 04:20 12.09.2022
251 Clouds 24 1019 31 10000 3.09 360 23:23 11.09.2022
252 Clouds 23 1028 33 10000 4.02 310 21:59 11.09.2022
253 Clouds 22 1029 37 10000 1.79 30 20:47 11.09.2022
254 Clouds 21 1009 51 10000 2.06 60 19:53 11.09.2022
255 Clouds 19 1023 52 10000 2.06 60 19:22 11.09.2022
256 Clouds 18 1023 57 10000 2.06 290 18:20 11.09.2022
257 Clouds 16 1023 66 10000 1.34 270 16:34 11.09.2022
258 Clouds 15 1021 70 10000 3.58 300 14:19 11.09.2022
259 Clouds 16 1021 66 10000 2.57 280 12:33 11.09.2022
260 Clouds 18 1018 62 10000 3.58 20 08:48 11.09.2022
261 Clouds 18 1027 55 10000 4.92 360 06:56 11.09.2022
262 Clouds 26 1022 24 10000 5.14 300 00:50 11.09.2022
263 Clouds 25 1024 29 10000 2.24 40 22:55 10.09.2022
264 Clouds 23 1026 33 10000 2.68 90 20:59 10.09.2022
265 Clouds 21 1026 40 10000 2.68 140 19:46 10.09.2022
266 Clouds 21 1020 42 10000 3.09 140 19:28 10.09.2022
267 Clouds 19 1020 54 10000 2.06 40 18:22 10.09.2022
268 Clouds 15 1015 75 10000 2.57 70 15:49 10.09.2022
269 Clouds 13 1018 80 10000 1.54 70 14:42 10.09.2022
270 Clouds 14 1014 73 10000 1.79 80 12:52 10.09.2022
271 Clear 15 1017 74 10000 2.68 40 10:46 10.09.2022
272 Clouds 17 1017 62 10000 2.06 300 09:28 10.09.2022
273 Clouds 18 1017 61 10000 2.06 280 08:27 10.09.2022
274 Clouds 18 1017 62 10000 3.6 40 06:41 10.09.2022
275 Clouds 24 1013 31 10000 5.14 20 00:19 10.09.2022
276 Clouds 24 1013 32 10000 3.6 50 23:31 09.09.2022
277 Clouds 23 1015 34 10000 3.6 60 21:38 09.09.2022
278 Clouds 21 1016 37 10000 1.54 170 20:41 09.09.2022
279 Clouds 20 1017 44 10000 3.09 80 19:24 09.09.2022
280 Clouds 20 1017 47 10000 2.06 320 18:38 09.09.2022
281 Clouds 15 1017 79 9656 3.09 80 16:21 09.09.2022
282 Clouds 14 1012 85 10000 1.34 90 13:48 09.09.2022
283 Clouds 15 1013 80 10000 0.89 326 11:58 09.09.2022
284 Clouds 16 1017 77 10000 2.06 340 09:22 09.09.2022
285 Clouds 19 1016 67 10000 5.14 10 04:29 09.09.2022
286 Clouds 21 1019 49 10000 6.17 350 00:46 09.09.2022
287 Clouds 20 1015 59 10000 4.47 40 21:52 08.09.2022
288 Clouds 20 1016 60 10000 2.24 290 20:51 08.09.2022
289 Clouds 20 1018 60 10000 2.57 290 20:29 08.09.2022
290 Clouds 20 1016 66 10000 2.57 60 19:44 08.09.2022
291 Clouds 17 1020 80 10000 3.6 60 17:44 08.09.2022
292 Clouds 15 1020 88 10000 3.09 310 16:19 08.09.2022
293 Clouds 16 1019 82 10000 2.57 290 14:37 08.09.2022
294 Clouds 16 1017 78 10000 2.24 310 12:51 08.09.2022
295 Clouds 16 1019 85 10000 0.89 349 11:36 08.09.2022
296 Clouds 16 1018 82 10000 2.68 320 09:58 08.09.2022
297 Clouds 16 1021 88 10000 3.09 10 07:45 08.09.2022
298 Clouds 18 1019 73 10000 2.24 360 05:51 08.09.2022
299 Clouds 18 1025 78 10000 1.03 180 02:36 08.09.2022
300 Clouds 18 1025 78 10000 1.03 180 02:36 08.09.2022
301 Clouds 18 1025 78 10000 1.03 180 02:18 08.09.2022
302 Clouds 18 1018 70 10000 4.12 240 00:22 08.09.2022
303 Clouds 23 1020 52 9656 3.6 70 22:19 07.09.2022
304 Clouds 22 1021 56 10000 4.12 80 21:39 07.09.2022
305 Clouds 21 1022 61 10000 3.6 70 20:31 07.09.2022
306 Clouds 19 1023 65 10000 1.79 332 19:26 07.09.2022
307 Clouds 17 1025 80 9656 1.54 270 17:22 07.09.2022
308 Clouds 14 1023 87 10000 0.89 27 11:32 07.09.2022
309 Clouds 14 1015 91 10000 1.79 80 10:45 07.09.2022
310 Clouds 14 1025 92 10000 0 0 08:33 07.09.2022
311 Clouds 14 1025 92 10000 0.89 343 06:50 07.09.2022
312 Clouds 18 1020 68 9656 7.72 120 00:53 07.09.2022
313 Clouds 21 1021 58 10000 5.14 270 22:28 06.09.2022
314 Clouds 23 1018 48 9656 2.06 40 21:38 06.09.2022
315 Clouds 21 1019 58 9656 2.06 80 19:40 06.09.2022
316 Clouds 19 1023 64 10000 2.57 30 18:40 06.09.2022
317 Clouds 17 1021 73 10000 1.79 60 17:51 06.09.2022
318 Clouds 16 1021 75 10000 2.24 110 16:53 06.09.2022
319 Clouds 16 1022 77 10000 2.57 110 16:25 06.09.2022
320 Clouds 15 1021 78 10000 1.54 80 14:49 06.09.2022
321 Clouds 15 1018 78 10000 1.79 100 13:44 06.09.2022
322 Clouds 15 1020 81 10000 2.06 100 13:19 06.09.2022
323 Clouds 16 1018 76 10000 0.64 172 10:56 06.09.2022
324 Clouds 16 1019 76 10000 1.79 140 09:49 06.09.2022
325 Clouds 16 1021 78 10000 4.12 150 08:18 06.09.2022
326 Clouds 16 1021 78 10000 5.14 140 06:22 06.09.2022
327 Clouds 22 1015 54 10000 7.2 130 01:22 06.09.2022
328 Clouds 23 1024 46 10000 4.92 160 22:57 05.09.2022
329 Clouds 22 1018 52 10000 5.66 150 21:39 05.09.2022
330 Clouds 22 1019 53 10000 6.17 150 20:30 05.09.2022
331 Clouds 20 1026 60 10000 4.92 120 18:53 05.09.2022
332 Clouds 20 1020 61 10000 5.14 120 18:26 05.09.2022
333 Clouds 18 1017 68 10000 4.02 150 17:53 05.09.2022
334 Fog 17 1005 80 2414 0.45 94 15:54 05.09.2022
335 Clouds 16 1015 85 10000 1.79 100 14:48 05.09.2022
336 Clouds 16 1015 79 10000 1.79 80 12:53 05.09.2022
337 Clouds 16 1017 83 10000 2.06 80 11:21 05.09.2022
338 Clouds 16 1016 83 10000 4.02 150 08:52 05.09.2022
339 Clouds 18 1022 72 10000 5.81 110 03:57 05.09.2022
340 Clouds 22 1020 46 10000 2.06 330 01:19 05.09.2022
341 Clouds 23 1022 43 10000 5.14 260 22:29 04.09.2022
342 Clouds 22 1023 40 10000 1.79 30 21:57 04.09.2022
343 Clouds 22 1024 43 10000 0 0 20:26 04.09.2022
344 Clouds 19 1016 55 10000 2.06 60 18:39 04.09.2022
345 Clouds 17 1020 58 10000 2.06 330 17:43 04.09.2022
346 Clouds 15 1020 61 10000 4.12 280 16:24 04.09.2022
347 Clouds 14 1019 73 10000 2.57 290 14:25 04.09.2022
348 Clouds 15 1018 72 10000 2.57 340 12:40 04.09.2022
349 Clouds 16 1013 71 10000 2.24 330 10:59 04.09.2022
350 Clouds 16 1017 72 10000 2.57 360 09:38 04.09.2022
351 Clouds 17 1019 65 10000 6.17 40 06:35 04.09.2022
352 Clouds 19 1014 58 10000 8.23 20 03:18 04.09.2022
353 Clouds 22 1024 46 10000 5.81 40 22:53 03.09.2022
354 Clouds 22 1018 50 10000 6.17 10 21:42 03.09.2022
355 Clouds 22 1018 50 10000 6.17 10 21:22 03.09.2022
356 Clouds 18 1021 64 10000 4.63 340 18:41 03.09.2022
357 Clouds 17 1021 64 10000 5.14 20 17:19 03.09.2022
358 Clouds 17 1017 68 10000 4.02 10 15:49 03.09.2022
359 Clouds 16 1019 70 10000 2.57 360 14:42 03.09.2022
360 Clouds 16 1016 71 10000 4.02 360 13:50 03.09.2022
361 Clouds 16 1018 69 10000 2.06 330 11:33 03.09.2022
362 Clouds 17 1015 69 10000 2.57 360 09:36 03.09.2022
363 Clouds 18 1006 72 10000 0.45 5 07:53 03.09.2022
364 Clouds 19 1024 55 10000 5.81 10 04:55 03.09.2022
365 Clouds 21 1021 53 10000 6.71 20 02:49 03.09.2022
366 Clouds 23 1023 40 10000 5.36 20 23:46 02.09.2022
367 Clouds 23 1017 43 10000 6.17 20 22:23 02.09.2022
368 Clouds 22 1019 50 10000 3.09 40 20:42 02.09.2022
369 Clouds 22 1019 50 10000 3.09 40 20:18 02.09.2022
370 Clouds 20 1026 52 10000 4.02 30 18:51 02.09.2022
371 Clouds 20 1019 56 10000 4.12 30 18:26 02.09.2022
372 Clouds 18 1019 63 10000 3.6 360 17:25 02.09.2022
373 Clouds 17 1019 67 10000 2.57 360 16:32 02.09.2022
374 Clouds 16 1016 71 10000 2.68 360 13:42 02.09.2022
375 Clouds 16 1019 73 10000 3.09 360 11:36 02.09.2022
376 Clouds 17 1016 70 10000 4.02 360 09:46 02.09.2022
377 Clouds 18 1016 67 10000 3.58 360 08:47 02.09.2022
378 Clouds 19 1025 59 10000 4.92 360 06:48 02.09.2022
379 Clouds 19 1019 61 10000 5.14 360 06:22 02.09.2022
380 Clouds 25 1015 39 10000 7.2 40 00:26 02.09.2022
381 Clouds 24 1017 43 10000 5.66 360 22:21 01.09.2022
382 Clouds 24 1019 43 10000 4.63 340 21:38 01.09.2022
383 Clouds 23 1019 43 10000 4.63 340 21:19 01.09.2022
384 Clouds 22 1020 47 10000 4.12 80 20:26 01.09.2022
385 Clouds 20 1021 53 10000 1.34 236 18:34 01.09.2022
386 Clouds 17 1027 59 10000 1.79 337 16:55 01.09.2022
387 Clouds 15 1020 78 10000 2.06 320 15:22 01.09.2022
388 Clouds 16 1019 74 10000 2.06 20 13:33 01.09.2022
389 Clouds 16 1016 84 10000 2.24 320 12:55 01.09.2022
390 Clouds 17 1020 78 10000 0 0 11:51 01.09.2022
391 Clouds 17 1019 81 10000 2.68 344 11:20 01.09.2022
392 Clouds 16 1019 85 10000 2.06 320 09:32 01.09.2022
393 Clouds 16 1020 85 10000 3.09 300 06:41 01.09.2022
394 Clouds 22 1016 56 10000 3.6 360 02:39 01.09.2022
395 Clouds 24 1022 41 10000 6.17 40 01:30 01.09.2022
396 Clouds 24 1022 41 10000 6.17 40 01:30 01.09.2022
397 Clouds 24 1022 41 10000 6.17 40 01:30 01.09.2022
398 Clouds 24 1022 41 10000 6.17 40 01:30 01.09.2022
399 Clouds 24 1022 41 10000 6.17 40 01:30 01.09.2022
400 Clouds 24 1022 41 10000 6.17 40 01:30 01.09.2022
401 Clouds 24 1022 41 10000 6.17 40 01:30 01.09.2022
402 Clouds 24 1022 41 10000 6.17 40 01:30 01.09.2022
403 Clouds 24 1022 41 10000 6.17 40 01:30 01.09.2022
404 Clouds 25 1025 36 10000 2.24 110 22:50 31.08.2022
405 Clouds 23 1025 49 9656 2.06 60 20:43 31.08.2022
406 Clouds 21 1026 60 9656 2.24 26 18:46 31.08.2022
407 Clouds 17 1021 78 9656 1.34 9 16:41 31.08.2022
408 Clouds 16 1020 86 9656 1.79 250 15:25 31.08.2022
409 Clouds 16 1020 88 9656 2.57 230 13:28 31.08.2022
410 Clouds 16 1017 85 10000 1.34 240 11:54 31.08.2022
411 Clouds 16 1020 90 10000 1.54 220 09:36 31.08.2022
412 Clouds 16 1020 90 10000 1.54 220 09:36 31.08.2022
413 Clouds 18 1027 67 10000 2.06 360 07:39 31.08.2022
414 Clouds 20 1024 56 10000 6.17 60 02:58 31.08.2022
415 Clouds 22 1018 47 10000 2.57 90 22:24 30.08.2022
416 Clouds 23 1019 47 10000 10.29 120 21:28 30.08.2022
417 Clouds 22 1020 50 10000 3.6 80 20:26 30.08.2022
418 Clouds 18 1018 72 10000 1.79 20 16:48 30.08.2022
419 Clouds 15 1016 85 10000 1.79 70 13:51 30.08.2022
420 Clouds 16 1017 82 10000 0.54 150 11:58 30.08.2022
421 Clouds 16 1019 85 10000 0.89 61 11:20 30.08.2022
422 Clouds 16 1019 82 10000 2.06 290 09:33 30.08.2022
423 Clouds 16 1019 86 10000 3.58 280 06:26 30.08.2022
424 Clouds 24 1015 41 9656 3.09 310 00:33 30.08.2022
425 Clouds 22 1018 48 8047 0.45 94 22:37 29.08.2022
426 Clouds 21 1016 52 10000 4.02 70 21:51 29.08.2022
427 Clouds 21 1019 56 8047 2.57 30 20:35 29.08.2022
428 Clouds 19 1026 68 10000 2.68 39 18:58 29.08.2022
429 Clouds 18 1019 76 8047 1.54 30 17:32 29.08.2022
430 Clouds 16 1017 80 10000 3.58 60 16:57 29.08.2022
431 Clouds 16 1018 83 8047 1.54 50 15:18 29.08.2022
432 Clouds 15 1016 84 8047 0.89 319 13:42 29.08.2022
433 Clouds 16 1016 82 8047 2.06 150 12:20 29.08.2022
434 Clouds 16 1014 82 8047 3.09 140 10:42 29.08.2022
435 Clouds 16 1017 89 9656 2.24 150 09:18 29.08.2022
436 Clouds 17 1015 82 10000 2.68 270 06:52 29.08.2022
437 Clouds 22 1020 64 10000 7.2 60 02:25 29.08.2022
438 Clouds 24 1021 44 10000 3.09 40 23:33 28.08.2022
439 Clouds 23 1014 49 10000 2.24 100 21:47 28.08.2022
440 Clouds 23 1017 48 9656 2.57 100 21:25 28.08.2022
441 Clouds 23 1017 48 9656 2.57 100 21:25 28.08.2022
442 Clouds 21 1018 60 9656 2.06 100 20:18 28.08.2022
443 Clouds 20 1019 65 10000 1.79 65 18:22 28.08.2022
444 Clouds 19 1006 73 10000 0.45 144 17:50 28.08.2022
445 Clouds 16 1019 84 6437 1.54 80 16:44 28.08.2022
446 Clouds 15 1016 90 10000 0.45 117 15:00 28.08.2022
447 Clouds 15 1015 91 10000 1.79 170 12:57 28.08.2022
448 Rain 15 1018 92 9656 2.06 150 11:24 28.08.2022
449 Clouds 15 1018 92 9656 0.45 334 10:20 28.08.2022
450 Thunderstorm 16 1015 86 6437 2.06 310 08:49 28.08.2022
451 Rain 18 1016 68 10000 2.68 258 07:51 28.08.2022
452 Clouds 18 1017 65 10000 2.57 180 04:55 28.08.2022
453 Clouds 23 1012 45 9656 5.14 280 00:34 28.08.2022
454 Clouds 23 1015 45 10000 1.34 250 22:50 27.08.2022
455 Clouds 23 1017 43 9656 1.79 250 22:24 27.08.2022
456 Clouds 23 1019 47 9656 3.09 90 20:34 27.08.2022
457 Clouds 20 1007 64 10000 0.45 59 18:50 27.08.2022
458 Clear 16 1021 79 8047 2.06 70 16:26 27.08.2022
459 Mist 14 1021 83 6437 2.06 70 15:30 27.08.2022
460 Clouds 15 1018 82 10000 0.45 327 12:55 27.08.2022
461 Clouds 15 1020 79 10000 2.06 70 11:58 27.08.2022
462 Clouds 15 1021 80 10000 2.06 70 10:26 27.08.2022
463 Clouds 16 1021 76 10000 2.06 60 09:25 27.08.2022
464 Clouds 17 1019 72 10000 1.34 290 05:59 27.08.2022
465 Thunderstorm 20 1023 54 9656 10.29 360 00:51 27.08.2022
466 Clouds 23 1018 39 10000 5.14 120 23:35 26.08.2022
467 Clouds 22 1012 46 10000 3.6 330 21:45 26.08.2022
468 Clouds 20 1028 52 10000 1.79 60 19:50 26.08.2022
469 Clouds 17 1028 63 10000 2.24 30 17:49 26.08.2022
470 Clouds 14 1021 83 10000 2.06 100 15:40 26.08.2022
471 Clouds 15 1019 74 10000 1.79 360 14:59 26.08.2022
472 Clouds 15 1019 71 10000 1.79 342 12:56 26.08.2022
473 Clouds 15 1025 72 10000 2.06 360 11:43 26.08.2022
474 Clouds 15 1020 73 10000 2.06 360 11:21 26.08.2022
475 Clouds 18 1028 59 10000 4.92 360 07:56 26.08.2022
476 Clouds 18 1024 63 10000 8.23 60 02:57 26.08.2022
477 Clouds 24 1025 31 10000 3.58 355 23:47 25.08.2022
478 Clouds 24 1020 34 10000 3.58 40 22:20 25.08.2022
479 Clouds 22 1028 40 10000 3.58 70 20:53 25.08.2022
480 Clouds 21 1021 43 10000 3.09 330 19:35 25.08.2022
481 Clouds 20 1022 57 9656 1.34 5 18:29 25.08.2022
482 Clouds 18 1022 64 9656 1.79 330 17:31 25.08.2022
483 Clouds 16 1022 74 10000 2.06 50 16:40 25.08.2022
484 Clouds 15 1021 77 10000 2.57 80 15:29 25.08.2022
485 Clouds 16 1018 68 10000 1.79 20 13:51 25.08.2022
486 Clouds 17 1018 68 10000 4.02 5 10:49 25.08.2022
487 Clouds 17 1027 63 10000 2.68 320 09:52 25.08.2022
488 Clouds 18 1021 57 10000 2.57 30 07:35 25.08.2022
489 Clouds 20 1013 58 10000 4.47 350 02:51 25.08.2022
490 Clouds 24 1017 39 9656 2.06 350 23:36 24.08.2022
491 Clouds 23 1013 40 10000 2.68 333 22:55 24.08.2022
492 Clouds 23 1005 48 10000 0.89 170 21:53 24.08.2022
493 Clouds 22 1015 47 9656 4.47 73 21:28 24.08.2022
494 Clouds 21 1025 56 8047 1.34 5 19:52 24.08.2022
495 Clouds 17 1007 73 10000 1.34 329 16:51 24.08.2022
496 Clouds 14 1020 83 8047 2.06 70 15:53 24.08.2022
497 Clear 14 1018 82 10000 1.34 80 14:58 24.08.2022
498 Clear 15 1016 79 10000 1.79 50 12:48 24.08.2022
499 Clouds 15 1019 77 10000 2.06 60 11:18 24.08.2022
500 Clear 17 1026 59 10000 0.43 269 08:45 24.08.2022
501 Clouds 19 1025 55 10000 4.12 130 05:26 24.08.2022
502 Clouds 22 1016 44 10000 8.23 140 00:41 24.08.2022
503 Clouds 23 1024 39 10000 7.72 120 22:35 23.08.2022
504 Clouds 23 1014 42 10000 5.36 130 21:49 23.08.2022
505 Clouds 22 1018 44 10000 3.6 120 20:40 23.08.2022
506 Clouds 20 1026 52 10000 1.79 340 18:58 23.08.2022
507 Clouds 19 1016 60 10000 1.34 80 17:56 23.08.2022
508 Clear 18 1019 62 10000 1.54 80 17:21 23.08.2022
509 Clear 16 1019 79 8047 0 0 15:52 23.08.2022
510 Clouds 14 1024 87 10000 0.54 354 13:54 23.08.2022
511 Clouds 15 1024 77 10000 0.62 24 12:46 23.08.2022
512 Clouds 15 1025 87 10000 1.79 60 10:57 23.08.2022
513 Clouds 16 1018 84 10000 2.06 60 10:32 23.08.2022
514 Clouds 17 1026 63 10000 2.24 140 08:55 23.08.2022
515 Clouds 17 1020 65 10000 2.57 140 08:22 23.08.2022
516 Clouds 18 1026 59 10000 2.24 180 07:52 23.08.2022
517 Clouds 18 1020 62 10000 2.57 180 07:25 23.08.2022
518 Clouds 18 1020 61 10000 2.06 210 06:22 23.08.2022
519 Clouds 17 1023 72 9656 12.86 20 01:44 23.08.2022
520 Clouds 25 1016 31 9656 3.6 110 00:26 23.08.2022
521 Clouds 25 1016 34 9656 3.09 360 23:32 22.08.2022
522 Haze 22 1018 46 4828 3.09 20 22:19 22.08.2022
523 Clouds 20 1028 60 10000 3.58 90 19:56 22.08.2022
524 Clouds 21 1028 59 6437 3.6 90 19:36 22.08.2022
525 Clouds 20 1028 65 6437 2.06 160 18:36 22.08.2022
526 Clouds 15 1028 82 8047 1.54 310 15:45 22.08.2022
527 Clouds 14 1028 87 6437 3.09 80 15:18 22.08.2022
528 Clouds 15 1027 82 10000 0 0 11:39 22.08.2022
529 Clouds 15 1028 82 10000 0 0 09:24 22.08.2022
530 Clouds 17 1021 82 10000 2.57 330 05:44 22.08.2022
531 Clouds 18 1016 75 8716 0.76 253 00:56 22.08.2022
532 Clouds 22 1027 46 10000 4.12 80 00:36 22.08.2022
533 Rain 22 1027 43 10000 4.92 50 22:57 21.08.2022
534 Clouds 21 1015 52 10000 1.34 70 21:50 21.08.2022
535 Clouds 21 1021 52 9656 1.54 70 21:18 21.08.2022
536 Clouds 20 1014 64 9656 1.54 300 19:42 21.08.2022
537 Clouds 17 1031 82 8047 1.54 50 18:35 21.08.2022
538 Clouds 16 1030 82 6437 1.54 80 16:34 21.08.2022
539 Clouds 15 1029 87 10000 1.34 230 15:51 21.08.2022
540 Clouds 15 1029 87 8047 2.68 60 14:41 21.08.2022
541 Clouds 15 1029 87 8047 3.09 60 13:44 21.08.2022
542 Clouds 15 1028 93 10000 2.68 60 12:53 21.08.2022
543 Clouds 15 1029 87 10000 1.34 260 09:57 21.08.2022
544 Rain 15 1029 93 8047 1.54 280 08:56 21.08.2022
545 Rain 15 1030 93 9656 2.06 240 08:38 21.08.2022
546 Clouds 15 1019 87 10000 1.79 210 07:50 21.08.2022
547 Thunderstorm 17 1023 67 10000 10.29 30 04:28 21.08.2022
548 Clouds 23 1026 43 10000 4.12 220 00:54 21.08.2022
549 Clouds 20 1021 55 10000 5.14 200 23:20 20.08.2022
550 Clouds 22 1018 46 9282 4.47 90 21:46 20.08.2022
551 Clouds 21 1029 52 10000 4.02 100 20:48 20.08.2022
552 Clouds 21 1029 49 10000 4.12 90 19:42 20.08.2022
553 Clouds 20 1029 52 10000 2.06 80 18:44 20.08.2022
554 Clouds 20 1029 52 10000 2.06 80 18:25 20.08.2022
555 Clouds 19 1029 55 10000 2.06 180 17:20 20.08.2022
556 Clouds 14 1027 82 10000 2.24 70 15:52 20.08.2022
557 Clouds 14 1026 82 10000 3.09 100 13:39 20.08.2022
558 Clouds 16 1026 72 10000 1.79 230 11:53 20.08.2022
559 Clouds 16 1026 72 10000 3.09 260 10:39 20.08.2022
560 Clouds 17 1024 67 10000 3.09 290 09:18 20.08.2022
561 Clouds 18 1020 61 10000 2.06 20 06:40 20.08.2022
562 Clouds 19 1019 61 10000 5.14 30 04:40 20.08.2022
563 Clouds 18 1013 63 10000 3.96 178 00:53 20.08.2022
564 Clouds 22 1018 42 9656 3.09 270 23:21 19.08.2022
565 Clouds 21 1018 47 9656 2.57 50 22:36 19.08.2022
566 Clouds 21 1020 53 8047 3.6 90 20:30 19.08.2022
567 Clouds 20 1009 61 10000 1.34 59 18:53 19.08.2022
568 Clouds 13 1026 87 10000 1.34 70 15:54 19.08.2022
569 Clouds 13 1024 82 9656 2.06 340 13:40 19.08.2022
570 Clouds 13 1020 88 9656 0 0 11:40 19.08.2022
571 Clouds 13 1020 88 10000 2.06 340 10:30 19.08.2022
572 Clouds 15 1021 82 10000 2.57 240 07:25 19.08.2022
573 Rain 15 1019 83 6437 6.69 310 02:23 19.08.2022
574 Rain 19 1018 64 10000 3.09 270 00:32 19.08.2022
575 Rain 20 1018 51 10000 3.09 90 23:48 18.08.2022
576 Thunderstorm 23 1017 45 10000 7.72 80 22:52 18.08.2022
577 Clouds 24 1018 43 9656 4.12 60 22:18 18.08.2022
578 Clouds 23 1019 45 9656 3.09 20 21:40 18.08.2022
579 Clouds 22 1020 48 8047 2.06 30 20:32 18.08.2022
580 Clouds 21 1021 58 8047 3.09 100 19:32 18.08.2022
581 Clouds 19 1021 60 9656 2.06 30 18:19 18.08.2022
582 Clouds 17 1021 68 9656 2.06 280 17:19 18.08.2022
583 Clouds 15 1021 83 10000 1.03 210 15:27 18.08.2022
584 Clouds 15 1021 83 10000 2.68 80 14:20 18.08.2022
585 Clouds 16 1020 80 10000 3.09 80 13:36 18.08.2022
586 Clouds 16 1020 81 10000 2.57 290 12:26 18.08.2022
587 Clouds 16 1021 78 10000 2.57 40 10:25 18.08.2022
588 Clouds 17 1021 74 10000 3.09 310 09:42 18.08.2022
589 Clouds 18 1028 75 10000 3.09 160 07:24 18.08.2022
590 Clouds 16 1017 96 10000 0.29 260 04:47 18.08.2022
591 Clouds 22 1013 52 10000 0.95 57 23:49 17.08.2022
592 Clouds 23 1019 43 10000 4.02 86 21:54 17.08.2022
593 Clouds 20 1022 52 8047 2.57 40 20:20 17.08.2022
594 Clouds 20 1023 59 8047 3.09 90 19:32 17.08.2022
595 Clouds 17 1022 71 8047 2.06 70 17:39 17.08.2022
596 Clouds 15 1028 82 10000 1.34 81 16:47 17.08.2022
597 Clouds 14 1022 89 9656 2.57 60 15:30 17.08.2022
598 Clouds 14 1019 84 10000 1.79 260 13:52 17.08.2022
599 Clouds 15 1021 83 10000 2.57 280 11:42 17.08.2022
600 Clouds 15 1016 82 10000 2.06 260 10:22 17.08.2022
601 Clouds 15 1021 88 10000 2.57 60 08:24 17.08.2022
602 Clouds 18 1016 69 10000 3.58 300 03:52 17.08.2022
603 Clouds 19 1014 68 10000 4.12 300 00:38 17.08.2022
604 Thunderstorm 20 1018 62 10000 5.14 210 22:42 16.08.2022
605 Clouds 21 1026 60 7265 1.34 120 20:59 16.08.2022
606 Clouds 20 1018 64 7690 1.34 250 19:54 16.08.2022
607 Clouds 20 1020 65 10000 1.54 250 19:19 16.08.2022
608 Clouds 17 1019 77 10000 1.79 56 17:54 16.08.2022
609 Clouds 15 1015 85 10000 0.89 96 16:18 16.08.2022
610 Clouds 14 1020 88 10000 0 0 14:55 16.08.2022
611 Clouds 14 1020 89 10000 0 0 14:37 16.08.2022
612 Clouds 14 1017 91 10000 0.6 86 13:54 16.08.2022
613 Clouds 15 1019 88 10000 3.09 120 11:39 16.08.2022
614 Clouds 15 1017 82 10000 4.02 130 09:52 16.08.2022
615 Clouds 16 1017 83 10000 2.24 90 08:48 16.08.2022
616 Clouds 16 1020 82 10000 2.57 90 08:19 16.08.2022
617 Rain 16 1019 80 10000 0 0 05:18 16.08.2022
618 Thunderstorm 17 1024 82 8047 6.17 90 22:56 15.08.2022
619 Clouds 23 1004 52 4828 5.14 180 21:56 15.08.2022
620 Clouds 21 1014 58 8047 5.14 180 21:36 15.08.2022
621 Clouds 23 1018 47 9656 2.57 190 20:29 15.08.2022
622 Clouds 20 1019 60 9656 2.06 170 18:46 15.08.2022
623 Clouds 18 1026 67 10000 1.34 300 17:47 15.08.2022
624 Clouds 18 1014 69 10000 1.54 330 16:22 15.08.2022
625 Clouds 16 1018 77 10000 2.06 240 14:40 15.08.2022
626 Clouds 16 1018 80 10000 1.54 140 13:18 15.08.2022
627 Clouds 16 1019 75 10000 2.06 100 10:23 15.08.2022
628 Clouds 17 1017 66 10000 3.58 150 08:53 15.08.2022
629 Clouds 18 1026 59 10000 3.09 120 06:39 15.08.2022
630 Clouds 20 1014 53 10000 4.12 140 03:34 15.08.2022
631 Clouds 20 1018 57 10000 3.6 140 23:27 14.08.2022
632 Clouds 22 1019 47 8047 5.66 80 21:43 14.08.2022
633 Clouds 21 1020 50 9656 2.06 100 20:41 14.08.2022
634 Clouds 21 1018 54 10000 2.68 90 19:45 14.08.2022
635 Clouds 19 1021 61 10000 0 0 18:21 14.08.2022
636 Clouds 17 1021 65 10000 3.09 130 17:31 14.08.2022
637 Clouds 16 1020 74 10000 2.06 100 16:23 14.08.2022
638 Clouds 15 1020 78 10000 2.06 100 15:34 14.08.2022
639 Clouds 15 1017 82 10000 1.79 170 13:51 14.08.2022
640 Clouds 15 1020 79 10000 2.06 170 13:31 14.08.2022
641 Clouds 15 1015 82 10000 2.06 190 12:42 14.08.2022
642 Clouds 16 1020 85 10000 0.45 169 11:23 14.08.2022
643 Clouds 16 1019 76 10000 1.34 70 08:57 14.08.2022
644 Clouds 18 1017 73 10000 4.63 110 06:40 14.08.2022
645 Clouds 18 1021 74 10000 0 0 05:37 14.08.2022
646 Thunderstorm 19 1025 67 10000 10.29 50 01:36 14.08.2022
647 Clouds 24 1026 41 10000 4.92 40 22:56 13.08.2022
648 Clouds 24 1026 41 10000 5.14 40 22:27 13.08.2022
649 Clouds 22 1028 46 10000 1.34 120 20:50 13.08.2022
650 Clouds 20 1028 64 9656 2.57 60 19:49 13.08.2022
651 Clouds 20 1028 64 9656 2.06 80 19:18 13.08.2022
652 Clouds 17 1028 77 9656 2.06 80 17:21 13.08.2022
653 Clouds 15 1017 87 10000 2.24 60 14:50 13.08.2022
654 Clouds 15 1021 91 8047 2.57 60 13:50 13.08.2022
655 Clouds 15 1021 91 8047 2.57 60 13:28 13.08.2022
656 Clouds 15 1021 91 9656 2.06 90 11:29 13.08.2022
657 Clouds 15 1022 92 10000 2.06 60 09:23 13.08.2022
658 Clouds 16 1020 84 10000 1.34 310 06:54 13.08.2022
659 Clouds 21 1017 51 10000 6.17 290 01:51 13.08.2022
660 Clouds 21 1015 55 10000 3.6 270 23:32 12.08.2022
661 Clouds 23 1020 41 10000 2.06 40 21:37 12.08.2022
662 Clouds 21 1028 40 10000 2.24 70 19:48 12.08.2022
663 Clouds 21 1021 44 10000 2.57 70 19:23 12.08.2022
664 Clouds 20 1028 46 10000 2.24 340 18:26 12.08.2022
665 Clouds 16 1018 76 10000 3.09 30 16:27 12.08.2022
666 Clouds 15 1018 83 10000 3.6 70 15:19 12.08.2022
667 Clouds 16 1013 82 10000 2.24 50 13:47 12.08.2022
668 Clouds 16 1021 78 10000 2.06 330 12:38 12.08.2022
669 Clouds 15 1023 81 10000 0.89 242 08:57 12.08.2022
670 Rain 16 1019 78 10000 2.57 80 07:46 12.08.2022
671 Clouds 17 1018 72 10000 4.63 10 06:23 12.08.2022
672 Clouds 21 1014 49 10000 3.01 24 00:49 12.08.2022
673 Clouds 22 1013 43 10000 4.73 47 23:59 11.08.2022
674 Clouds 25 1018 33 10000 4.12 80 23:25 11.08.2022
675 Clouds 23 1021 37 10000 2.06 270 21:53 11.08.2022
676 Clouds 23 1021 37 10000 2.06 270 21:28 11.08.2022
677 Clouds 22 1022 41 10000 3.09 90 20:31 11.08.2022
678 Clouds 21 1022 50 10000 1.54 300 19:34 11.08.2022
679 Clouds 20 1019 54 10000 1.34 301 18:57 11.08.2022
680 Clouds 18 1023 65 10000 3.09 100 17:22 11.08.2022
681 Clouds 15 1021 76 10000 2.68 80 15:48 11.08.2022
682 Clouds 15 1023 77 10000 2.24 327 14:46 11.08.2022
683 Clouds 16 1021 67 10000 3.58 290 11:59 11.08.2022
684 Clouds 16 1024 66 10000 3.09 290 09:22 11.08.2022
685 Clouds 18 1029 55 10000 3.58 30 06:52 11.08.2022
686 Clouds 22 1026 40 10000 6.17 20 03:23 11.08.2022
687 Clouds 25 1020 32 10000 3.6 360 00:19 11.08.2022
688 Clouds 22 1029 43 10000 1.34 110 21:56 10.08.2022
689 Clouds 22 1023 44 10000 1.54 110 21:19 10.08.2022
690 Clouds 21 1024 50 9656 3.09 330 20:42 10.08.2022
691 Clouds 18 1022 68 9656 3.09 300 18:53 10.08.2022
692 Clouds 16 1024 80 9656 3.09 20 17:28 10.08.2022
693 Clouds 14 1023 88 9656 2.57 210 15:26 10.08.2022
694 Clouds 14 1019 92 10000 1.54 140 13:34 10.08.2022
695 Clouds 15 1020 84 10000 1.59 15 11:47 10.08.2022
696 Clouds 15 1024 83 10000 2.57 90 08:44 10.08.2022
697 Clouds 15 1024 86 10000 0 0 07:36 10.08.2022
698 Thunderstorm 14 1023 92 6437 2.06 190 05:46 10.08.2022
699 Clouds 18 1020 71 10000 4.02 270 02:22 10.08.2022
700 Clouds 23 1019 42 9656 5.14 140 23:33 09.08.2022
701 Clouds 23 1017 43 10000 4.47 80 22:48 09.08.2022
702 Clouds 22 1021 45 9656 3.13 88 21:33 09.08.2022
703 Clouds 21 1019 53 9656 2.06 200 19:33 09.08.2022
704 Clouds 18 1011 68 10000 1.34 38 17:53 09.08.2022
705 Clouds 16 1023 71 10000 3.6 60 17:26 09.08.2022
706 Clouds 16 1023 73 10000 0.45 21 16:33 09.08.2022
707 Clouds 15 1023 81 10000 1.54 80 15:26 09.08.2022
708 Clouds 15 1021 82 10000 1.54 90 12:20 09.08.2022
709 Clouds 15 1020 84 10000 2.24 280 08:54 09.08.2022
710 Clouds 15 1021 83 10000 2.24 270 07:59 09.08.2022
711 Clouds 15 1023 87 10000 2.57 270 07:18 09.08.2022
712 Rain 15 1017 85 9656 4.12 230 02:27 09.08.2022
713 Clouds 22 1019 43 10000 6.17 60 23:26 08.08.2022
714 Clouds 23 1026 38 10000 4.02 360 22:52 08.08.2022
715 Clouds 22 1018 45 10000 4.02 30 21:47 08.08.2022
716 Clouds 21 1028 46 10000 2.68 350 20:51 08.08.2022
717 Clouds 20 1028 52 10000 1.34 67 19:50 08.08.2022
718 Clouds 18 1023 58 10000 2.06 300 18:19 08.08.2022
719 Clouds 15 1021 75 10000 2.68 40 15:57 08.08.2022
720 Clouds 14 1023 78 10000 3.09 40 15:38 08.08.2022
721 Clouds 15 1022 77 10000 2.06 350 12:35 08.08.2022
722 Clouds 15 1020 78 10000 2.68 300 10:50 08.08.2022
723 Clouds 15 1023 78 10000 3.6 340 08:26 08.08.2022
724 Clouds 15 1022 85 10000 2.57 300 05:33 08.08.2022
725 Clouds 19 1019 73 10000 0.45 207 01:47 08.08.2022
726 Clouds 22 1027 40 10000 1.79 79 21:49 07.08.2022
727 Clouds 22 1021 42 10000 1.54 360 21:30 07.08.2022
728 Clouds 21 1022 45 10000 1.34 32 20:25 07.08.2022
729 Clouds 20 1029 49 10000 1.34 240 19:53 07.08.2022
730 Clouds 20 1023 51 10000 1.54 240 19:24 07.08.2022
731 Clouds 18 1024 58 10000 2.68 220 17:58 07.08.2022
732 Clouds 16 1020 68 10000 1.34 270 16:53 07.08.2022
733 Clouds 15 1022 72 10000 2.57 20 15:45 07.08.2022
734 Clouds 14 1021 75 10000 2.06 80 14:32 07.08.2022
735 Clouds 16 1019 68 10000 4.02 280 12:50 07.08.2022
736 Clouds 16 1020 68 10000 1.79 320 10:54 07.08.2022
737 Clouds 16 1022 69 10000 2.06 320 10:21 07.08.2022
738 Clouds 19 1017 60 10000 4.02 330 04:41 07.08.2022
739 Clouds 22 1018 48 10000 5.66 350 02:35 07.08.2022
740 Clouds 25 1023 31 10000 4.12 80 22:40 06.08.2022
741 Clouds 25 1019 34 10000 4.12 80 22:18 06.08.2022
742 Clouds 22 1020 42 10000 2.57 60 20:19 06.08.2022
743 Clouds 22 1021 43 9656 3.6 60 19:37 06.08.2022
744 Clouds 17 1028 59 10000 1.34 60 17:52 06.08.2022
745 Clouds 15 1022 72 9656 2.57 80 16:30 06.08.2022
746 Clouds 13 1017 82 10000 2.24 280 13:52 06.08.2022
747 Clear 14 1017 77 10000 2.24 270 12:46 06.08.2022
748 Clear 15 1020 72 10000 3.09 70 11:21 06.08.2022
749 Clear 16 1019 69 10000 4.02 260 09:49 06.08.2022
750 Clouds 18 1021 60 10000 3.09 320 07:35 06.08.2022
751 Clouds 23 1023 33 10000 7.6 360 01:59 06.08.2022
752 Clouds 24 1019 31 10000 6.17 320 22:37 05.08.2022
753 Clouds 23 1020 33 10000 3.09 320 21:36 05.08.2022
754 Clear 20 1021 40 10000 1.54 260 19:22 05.08.2022
755 Clear 20 1022 51 9656 2.06 120 18:44 05.08.2022
756 Clear 15 1027 72 10000 0.45 99 16:55 05.08.2022
757 Clear 16 1021 71 10000 0.45 160 16:37 05.08.2022
758 Clouds 13 1021 79 10000 2.06 70 15:19 05.08.2022
759 Clear 14 1020 76 9656 1.54 60 13:39 05.08.2022
760 Clear 14 1020 76 9656 1.54 60 13:20 05.08.2022
761 Clouds 14 1020 76 10000 1.54 90 12:23 05.08.2022
762 Clouds 16 1021 69 10000 2.57 270 10:25 05.08.2022
763 Clouds 17 1019 64 10000 1.79 20 07:58 05.08.2022
764 Clouds 18 1020 58 10000 3.6 280 05:20 05.08.2022
765 Rain 23 1017 41 10000 10.28 20 23:50 04.08.2022
766 Rain 23 1017 41 10000 10.28 20 23:50 04.08.2022
767 Clouds 24 1019 40 10000 2.06 330 21:39 04.08.2022
768 Clouds 24 1019 41 10000 2.06 330 21:21 04.08.2022
769 Clouds 23 1020 43 9656 2.06 330 20:40 04.08.2022
770 Clouds 22 1021 49 9656 2.06 30 19:21 04.08.2022
771 Clouds 21 1021 57 9656 2.06 100 18:34 04.08.2022
772 Clear 17 1027 67 10000 0.89 190 16:54 04.08.2022
773 Clouds 15 1020 81 10000 0 0 13:34 04.08.2022
774 Clouds 17 1020 74 10000 0.45 325 11:46 04.08.2022
775 Clouds 17 1021 80 10000 0 0 10:27 04.08.2022
776 Clouds 16 1018 78 10000 1.79 240 07:50 04.08.2022
777 Rain 19 1024 66 10000 6.17 110 03:33 04.08.2022
778 Clouds 25 1018 29 10000 3.6 50 01:42 04.08.2022
779 Clouds 25 1018 28 9656 4.12 70 23:41 03.08.2022
780 Clouds 24 1021 31 9656 2.57 270 21:34 03.08.2022
781 Clouds 22 1021 38 9656 3.09 70 20:22 03.08.2022
782 Clouds 21 1018 49 9656 2.06 80 19:28 03.08.2022
783 Clouds 18 1022 67 8047 1.34 76 17:20 03.08.2022
784 Clouds 16 1022 76 8047 1.54 110 16:23 03.08.2022
785 Clouds 14 1022 86 8047 1.54 90 14:23 03.08.2022
786 Clouds 15 1019 84 10000 1.34 170 11:46 03.08.2022
787 Clouds 18 1021 67 10000 1.34 250 07:55 03.08.2022
788 Clouds 18 1019 70 10000 2.68 300 04:46 03.08.2022
789 Clouds 18 1020 70 10000 4.12 280 03:26 03.08.2022
790 Clouds 18 1020 74 10000 2.57 290 01:18 03.08.2022
791 Clouds 24 1027 36 10000 1.34 280 22:53 02.08.2022
792 Clouds 24 1026 37 8047 1.54 0 21:53 02.08.2022
793 Clouds 21 1023 50 8047 1.34 176 20:37 02.08.2022
794 Clouds 19 1030 63 10000 1.34 170 18:42 02.08.2022
795 Clouds 14 1024 87 9656 3.09 70 15:36 02.08.2022
796 Clouds 15 1022 87 10000 2.57 60 11:32 02.08.2022
797 Clouds 15 1024 83 10000 2.68 80 09:18 02.08.2022
798 Clouds 16 1015 72 10000 3.58 290 07:52 02.08.2022
799 Clouds 16 1023 75 10000 3.09 310 06:42 02.08.2022
800 Clouds 17 1020 71 10000 2.68 20 04:54 02.08.2022
801 Clouds 20 1020 58 10000 7.2 150 23:38 01.08.2022
802 Clouds 21 1018 54 10000 8.75 130 22:24 01.08.2022
803 Clouds 21 1022 47 10000 2.06 50 20:52 01.08.2022
804 Clouds 20 1023 51 10000 2.06 30 19:25 01.08.2022
805 Clouds 20 1024 52 10000 2.06 90 18:31 01.08.2022
806 Clouds 15 1030 72 10000 1.79 60 16:53 01.08.2022
807 Clouds 14 1021 74 10000 2.68 80 15:52 01.08.2022
808 Clouds 14 1024 76 10000 3.09 80 15:30 01.08.2022
809 Clouds 13 1023 78 10000 1.54 80 14:20 01.08.2022
810 Clouds 15 1021 70 10000 2.68 300 11:50 01.08.2022
811 Clouds 16 1020 71 10000 2.57 340 09:40 01.08.2022
812 Clouds 16 1024 69 10000 5.14 350 08:25 01.08.2022
813 Clouds 19 1023 52 10000 5.14 340 04:48 01.08.2022
814 Clouds 19 1020 61 10000 3.6 50 02:32 01.08.2022
815 Clouds 24 1025 31 10000 0 0 00:23 01.08.2022
816 Clouds 23 1021 38 10000 3.09 340 22:38 31.07.2022
817 Clouds 22 1022 40 10000 3.09 20 21:27 31.07.2022
818 Clouds 20 1023 50 10000 2.06 70 19:41 31.07.2022
819 Clouds 18 1021 61 10000 0.45 323 17:48 31.07.2022
820 Smoke 15 1024 75 10000 2.24 5 15:37 31.07.2022
821 Clouds 15 1023 74 10000 2.06 240 13:42 31.07.2022
822 Clouds 15 1021 77 10000 4.02 290 11:58 31.07.2022
823 Clouds 15 1020 76 10000 4.47 310 09:43 31.07.2022
824 Clouds 17 1024 68 10000 1.79 340 07:38 31.07.2022
825 Clouds 19 1016 60 10000 3.67 35 02:58 31.07.2022
826 Clouds 24 1020 31 10000 3.6 10 23:36 30.07.2022
827 Clouds 23 1021 35 10000 3.13 84 22:19 30.07.2022
828 Clouds 22 1028 37 10000 1.79 140 21:48 30.07.2022
829 Clouds 21 1029 46 10000 2.24 110 20:57 30.07.2022
830 Clouds 20 1028 52 9656 2.06 60 19:58 30.07.2022
831 Clouds 18 1012 64 10000 0.89 42 18:53 30.07.2022
832 Clouds 15 1024 75 9656 0.45 286 17:44 30.07.2022
833 Clouds 13 1024 82 9656 3.6 60 15:50 30.07.2022
834 Clouds 13 1023 85 9656 3.09 80 15:22 30.07.2022
835 Clouds 15 1019 72 10000 1.79 270 12:59 30.07.2022
836 Clouds 15 1019 77 10000 4.02 270 11:55 30.07.2022
837 Clouds 15 1021 82 9656 3.09 280 10:31 30.07.2022
838 Clouds 16 1020 75 10000 2.24 320 09:47 30.07.2022
839 Clouds 17 1022 74 9656 3.09 10 07:55 30.07.2022
840 Clouds 17 1019 78 10000 3.6 260 02:37 30.07.2022
841 Clouds 17 1017 81 10000 2.24 230 01:49 30.07.2022
842 Clouds 17 1027 80 9656 5.14 200 22:25 29.07.2022
843 Rain 19 1027 70 8047 7.2 310 21:23 29.07.2022
844 Clouds 21 1027 54 8047 2.06 300 20:35 29.07.2022
845 Clouds 18 1019 76 10000 1.34 120 17:59 29.07.2022
846 Clouds 15 1021 83 8047 1.54 60 15:27 29.07.2022
847 Clouds 15 1020 90 8047 2.06 40 13:18 29.07.2022
848 Clouds 15 1021 86 9656 2.57 60 10:42 29.07.2022
849 Clouds 16 1019 84 10000 2.24 60 08:50 29.07.2022
850 Clouds 16 1013 84 10000 4.02 70 07:54 29.07.2022
851 Clouds 21 1023 46 10000 10.29 50 01:52 29.07.2022
852 Clouds 20 1026 52 9656 7.72 200 22:49 28.07.2022
853 Clouds 22 1026 47 9656 4.12 50 21:20 28.07.2022
854 Clouds 21 1022 51 8047 4.12 30 20:31 28.07.2022
855 Clouds 20 1022 58 8047 2.06 60 19:43 28.07.2022
856 Clouds 19 1020 60 10000 1.79 80 18:50 28.07.2022
857 Mist 18 1022 67 6437 1.54 340 17:43 28.07.2022
858 Clouds 17 1028 77 10000 1.34 290 16:51 28.07.2022
859 Mist 14 1022 87 6437 2.06 60 15:30 28.07.2022
860 Clouds 14 1019 83 10000 1.34 250 12:58 28.07.2022
861 Clouds 14 1022 87 10000 0 0 10:37 28.07.2022
862 Clouds 15 1022 85 10000 2.06 80 06:42 28.07.2022
863 Clouds 15 1022 84 10000 2.57 220 05:29 28.07.2022
864 Thunderstorm 14 1017 89 8047 5.14 330 00:49 28.07.2022
865 Clouds 20 1026 61 9656 4.12 170 22:40 27.07.2022
866 Clouds 23 1019 43 10000 5.14 50 21:28 27.07.2022
867 Clouds 21 1021 50 9656 2.06 340 19:41 27.07.2022
868 Clouds 19 1022 63 9656 2.06 110 17:49 27.07.2022
869 Clouds 16 1018 75 10000 4.47 80 15:52 27.07.2022
870 Clouds 15 1018 76 10000 2.24 320 14:57 27.07.2022
871 Clouds 15 1021 74 10000 2.57 320 14:34 27.07.2022
872 Clouds 16 1021 74 10000 3.09 280 12:49 27.07.2022
873 Clouds 19 1028 55 7278 2.68 40 07:53 27.07.2022
874 Clouds 19 1027 55 10000 4.63 360 06:21 27.07.2022
875 Clouds 25 1024 33 10000 6.17 90 01:35 27.07.2022
876 Clouds 24 1020 37 10000 3.09 120 22:26 26.07.2022
877 Clouds 23 1021 39 10000 2.57 80 21:20 26.07.2022
878 Clouds 22 1022 39 10000 1.54 40 20:28 26.07.2022
879 Clouds 20 1023 52 10000 1.54 240 18:43 26.07.2022
880 Clouds 18 1029 67 10000 1.79 80 17:58 26.07.2022
881 Clouds 15 1020 80 10000 1.79 70 15:59 26.07.2022
882 Clouds 14 1022 84 10000 2.06 70 15:18 26.07.2022
883 Clear 14 1021 85 10000 2.06 80 13:38 26.07.2022
884 Clouds 15 1021 77 10000 2.57 280 11:20 26.07.2022
885 Clouds 17 1020 71 10000 4.47 310 08:55 26.07.2022
886 Clouds 18 1021 67 10000 2.57 360 05:53 26.07.2022
887 Clouds 22 1024 43 10000 7.72 40 00:37 26.07.2022
888 Clouds 22 1026 40 10000 3.58 100 22:53 25.07.2022
889 Clouds 22 1020 42 9656 3.6 100 22:25 25.07.2022
890 Clouds 23 1021 44 9656 5.14 20 21:41 25.07.2022
891 Clouds 21 1021 53 9656 4.63 20 20:41 25.07.2022
892 Clouds 21 1022 54 9656 2.06 40 19:33 25.07.2022
893 Clouds 19 1028 59 10000 2.57 90 18:19 25.07.2022
894 Clouds 18 1022 69 10000 2.57 70 17:27 25.07.2022
895 Clouds 15 1019 82 10000 0.45 329 14:59 25.07.2022
896 Clouds 15 1021 81 10000 2.06 280 12:22 25.07.2022
897 Clouds 15 1020 85 10000 2.24 290 09:50 25.07.2022
898 Thunderstorm 15 1018 90 9656 4.12 20 04:25 25.07.2022
899 Clouds 23 1025 35 10000 2.68 120 23:54 24.07.2022
900 Clouds 23 1026 38 10000 0.45 49 22:59 24.07.2022
901 Clouds 23 1020 40 10000 1.34 325 22:29 24.07.2022
902 Clouds 22 1021 45 10000 3.09 360 21:23 24.07.2022
903 Clouds 21 1028 46 10000 4.02 100 20:50 24.07.2022
904 Clouds 21 1022 48 10000 4.12 100 20:26 24.07.2022
905 Clouds 19 1020 60 10000 3.09 30 18:46 24.07.2022
906 Clouds 16 1023 78 9656 2.24 248 16:29 24.07.2022
907 Clouds 15 1020 85 10000 1.34 90 15:50 24.07.2022
908 Clouds 14 1022 88 9656 1.54 90 14:29 24.07.2022
909 Clouds 14 1020 89 10000 2.24 60 12:54 24.07.2022
910 Clouds 14 1022 88 10000 1.54 250 11:40 24.07.2022
911 Clouds 14 1022 88 10000 1.54 250 11:18 24.07.2022
912 Rain 14 1024 89 8047 0 0 08:33 24.07.2022
913 Rain 14 1022 90 10000 1.79 70 07:52 24.07.2022
914 Thunderstorm 18 1023 60 10000 6.17 360 05:49 24.07.2022
915 Clouds 21 1021 43 10000 6.17 250 00:29 24.07.2022
916 Clouds 24 1020 36 9656 3.09 20 21:37 23.07.2022
917 Clouds 22 1022 43 10000 4.63 40 20:19 23.07.2022
918 Clouds 21 1028 49 10000 0.89 146 18:50 23.07.2022
919 Clouds 19 1022 58 10000 2.57 70 17:28 23.07.2022
920 Clouds 17 1022 67 10000 2.06 270 16:35 23.07.2022
921 Clouds 15 1022 76 9656 1.34 50 15:22 23.07.2022
922 Clouds 15 1020 79 10000 2.24 80 14:58 23.07.2022
923 Clouds 14 1022 80 10000 2.57 80 14:27 23.07.2022
924 Clouds 14 1021 81 10000 3.09 90 13:26 23.07.2022
925 Clouds 16 1018 73 10000 2.24 340 10:45 23.07.2022
926 Clouds 16 1021 71 10000 2.24 340 10:21 23.07.2022
927 Clouds 17 1022 63 10000 3.09 350 08:31 23.07.2022
928 Clouds 21 1019 48 10000 4.12 80 03:39 23.07.2022
929 Clouds 25 1024 27 10000 8.23 20 00:49 23.07.2022
930 Clouds 26 1018 29 10000 3.09 30 22:42 22.07.2022
931 Clouds 23 1027 40 10000 4.02 91 20:52 22.07.2022
932 Clouds 22 1021 48 8047 3.09 100 19:35 22.07.2022
933 Clouds 20 1019 53 10000 1.79 70 18:28 22.07.2022
934 Clouds 18 1021 57 9656 1.54 90 16:49 22.07.2022
935 Clouds 14 1018 72 10000 2.24 70 14:51 22.07.2022
936 Clouds 17 1020 61 10000 2.06 260 11:22 22.07.2022
937 Clear 18 1020 55 10000 3.09 270 09:25 22.07.2022
938 Clear 19 1020 51 10000 3.09 280 08:29 22.07.2022
939 Clouds 22 1025 37 10000 5.14 40 05:18 22.07.2022
940 Clouds 29 1016 19 10000 7.2 360 00:40 22.07.2022
941 Clouds 26 1018 23 10000 3.6 360 22:25 21.07.2022
942 Clouds 25 1019 25 10000 5.66 60 21:29 21.07.2022
943 Clouds 22 1021 36 10000 2.24 41 19:26 21.07.2022
944 Clouds 20 1022 38 10000 2.06 240 17:39 21.07.2022
945 Clouds 19 1021 42 10000 2.06 240 17:19 21.07.2022
946 Clouds 16 1018 48 10000 2.24 260 14:55 21.07.2022
947 Clouds 16 1020 54 10000 2.57 260 14:29 21.07.2022
948 Clouds 16 1020 56 10000 2.06 300 12:28 21.07.2022
949 Clouds 18 1018 46 10000 4.02 310 10:56 21.07.2022
950 Clouds 19 1020 49 10000 3.6 280 09:27 21.07.2022
951 Clouds 20 1018 40 10000 2.24 360 08:49 21.07.2022
952 Clouds 20 1021 40 10000 2.57 30 07:32 21.07.2022
953 Clouds 21 1015 56 10000 1.26 45 04:46 21.07.2022
954 Clouds 27 1018 30 10000 3.6 20 00:35 21.07.2022
955 Clouds 26 1020 29 10000 4.63 340 22:21 20.07.2022
956 Clouds 24 1028 38 10000 2.68 50 20:54 20.07.2022
957 Clouds 23 1027 43 10000 4.63 340 19:50 20.07.2022
958 Clouds 23 1022 45 10000 4.63 340 19:24 20.07.2022
959 Clouds 22 1023 48 10000 2.57 80 18:33 20.07.2022
960 Clouds 20 1021 58 10000 1.79 80 17:55 20.07.2022
961 Clouds 18 1021 65 10000 1.79 20 16:42 20.07.2022
962 Clouds 17 1023 71 10000 1.54 40 15:31 20.07.2022
963 Clouds 16 1022 75 10000 1.54 50 14:18 20.07.2022
964 Clouds 17 1022 70 10000 2.06 330 11:33 20.07.2022
965 Clouds 18 1021 63 10000 1.34 180 08:50 20.07.2022
966 Clouds 19 1021 69 10000 7.2 260 03:47 20.07.2022
967 Clouds 27 1025 28 10000 3.6 50 00:49 20.07.2022
968 Clouds 27 1017 29 10000 2.24 60 23:41 19.07.2022
969 Clouds 26 1021 30 10000 3.09 40 22:31 19.07.2022
970 Clouds 25 1022 35 9656 3.6 40 21:31 19.07.2022
971 Clouds 24 1023 40 8047 3.13 84 20:28 19.07.2022
972 Clouds 20 1021 63 6437 1.54 150 18:44 19.07.2022
973 Clear 20 1012 66 10000 0.89 119 17:58 19.07.2022
974 Clouds 16 1021 77 9656 2.57 50 16:37 19.07.2022
975 Clear 14 1021 85 10000 1.79 60 14:52 19.07.2022
976 Clouds 15 1023 79 10000 0 0 11:39 19.07.2022
977 Clouds 15 1021 76 10000 1.79 310 10:47 19.07.2022
978 Clouds 16 1024 70 10000 2.06 300 09:22 19.07.2022
979 Clouds 17 1024 69 10000 2.57 310 08:32 19.07.2022
980 Clouds 17 1024 65 10000 2.06 300 07:19 19.07.2022
981 Rain 18 1023 62 10000 2.57 250 05:27 19.07.2022
982 Clouds 17 1019 79 10000 1.74 347 04:48 19.07.2022
983 Clouds 22 1021 46 9656 2.06 40 00:38 19.07.2022
984 Clouds 22 1021 48 8047 3.09 310 23:36 18.07.2022
985 Clouds 22 1021 47 8047 3.09 310 23:18 18.07.2022
986 Clouds 22 1010 56 10000 0.45 324 21:58 18.07.2022
987 Clouds 20 1021 58 10000 2.24 330 20:51 18.07.2022
988 Clouds 19 1023 67 6437 0.89 320 19:26 18.07.2022
989 Clouds 16 1023 82 6437 0.45 326 17:31 18.07.2022
990 Clouds 14 1020 87 10000 0.45 88 15:52 18.07.2022
991 Clouds 14 1022 90 8047 0.45 165 14:34 18.07.2022
992 Clouds 14 1015 87 10000 1.79 160 12:58 18.07.2022
993 Clouds 14 1022 90 10000 2.06 240 11:30 18.07.2022
994 Clouds 14 1021 87 10000 4.02 80 08:57 18.07.2022
995 Clouds 15 1019 85 10000 2.57 360 07:38 18.07.2022
996 Thunderstorm 19 1017 55 10000 4.12 330 01:24 18.07.2022
997 Clouds 24 1019 37 10000 0.89 53 22:42 17.07.2022
998 Clouds 23 1026 38 10000 3.58 360 21:57 17.07.2022
999 Clouds 23 1020 39 10000 3.6 360 21:21 17.07.2022
1000 Clouds 22 1020 39 10000 3.58 76 20:44 17.07.2022
1001 Clouds 21 1021 41 10000 4.12 100 19:32 17.07.2022
1002 Clouds 20 1021 48 10000 0.45 355 18:30 17.07.2022
1003 Clouds 18 1021 57 10000 1.79 72 17:38 17.07.2022
1004 Clouds 16 1018 63 10000 1.34 90 16:51 17.07.2022
1005 Clouds 16 1018 63 10000 1.34 90 16:51 17.07.2022
1006 Clouds 16 1019 65 10000 1.54 90 16:26 17.07.2022
1007 Clouds 15 1019 76 10000 2.68 110 14:58 17.07.2022
1008 Clouds 15 1021 84 10000 0 0 13:31 17.07.2022
1009 Clouds 16 1021 79 10000 0.45 63 11:41 17.07.2022
1010 Clouds 15 1022 83 10000 2.06 220 09:24 17.07.2022
1011 Clouds 18 1020 67 10000 4.63 30 05:25 17.07.2022
1012 Clouds 21 1024 52 10000 7.2 60 02:32 17.07.2022
1013 Clouds 22 1020 43 10000 2.57 140 23:20 16.07.2022
1014 Clouds 23 1021 43 9656 5.14 130 21:32 16.07.2022
1015 Clouds 21 1022 53 9656 1.54 40 19:40 16.07.2022
1016 Clouds 20 1022 58 9656 2.06 110 18:32 16.07.2022
1017 Clouds 16 1027 82 10000 3.58 70 16:53 16.07.2022
1018 Clouds 15 1018 87 10000 0.45 355 13:56 16.07.2022
1019 Clouds 15 1028 93 10000 1.79 240 10:55 16.07.2022
1020 Clouds 15 1022 87 9656 2.06 270 09:33 16.07.2022
1021 Clouds 16 1023 80 9656 4.12 270 08:44 16.07.2022
1022 Clouds 16 1023 80 9656 4.12 270 08:23 16.07.2022
1023 Clouds 15 1021 84 8047 4.63 250 04:21 16.07.2022
1024 Clouds 20 1021 63 9656 4.12 360 02:49 16.07.2022
1025 Clouds 21 1020 48 9656 0.89 109 23:30 15.07.2022
1026 Clouds 21 1021 48 9656 3.09 200 22:40 15.07.2022
1027 Clouds 21 1021 48 9656 2.57 180 21:29 15.07.2022
1028 Clouds 21 1021 53 9656 3.09 220 20:26 15.07.2022
1029 Clouds 19 1022 64 9656 3.09 30 18:40 15.07.2022
1030 Clouds 18 1022 70 10000 4.12 60 17:37 15.07.2022
1031 Clouds 16 1027 77 10000 1.79 40 14:54 15.07.2022
1032 Clouds 16 1027 77 10000 2.24 40 12:58 15.07.2022
1033 Clouds 16 1021 78 10000 1.54 40 11:27 15.07.2022
1034 Clouds 17 1022 70 10000 3.6 280 09:44 15.07.2022
1035 Clouds 17 1023 70 10000 3.09 350 06:24 15.07.2022
1036 Clouds 20 1024 52 10000 8.05 30 00:53 15.07.2022
1037 Clouds 21 1018 53 10000 8.23 30 00:21 15.07.2022
1038 Clouds 21 1014 53 10000 4.33 37 22:50 14.07.2022
1039 Clouds 23 1027 40 10000 2.24 80 21:47 14.07.2022
1040 Clouds 23 1021 42 10000 2.57 80 21:29 14.07.2022
1041 Clouds 22 1018 44 10000 3.58 340 20:45 14.07.2022
1042 Clouds 22 1021 43 10000 3.6 340 20:21 14.07.2022
1043 Clouds 21 1021 47 10000 1.54 20 19:18 14.07.2022
1044 Clouds 17 1019 70 10000 2.57 310 16:23 14.07.2022
1045 Clouds 16 1019 78 10000 1.54 50 15:32 14.07.2022
1046 Clouds 14 1027 82 10000 0.45 159 13:59 14.07.2022
1047 Clouds 14 1027 82 10000 1.79 60 12:58 14.07.2022
1048 Clouds 14 1027 82 10000 1.79 70 11:54 14.07.2022
1049 Clouds 14 1021 83 10000 2.06 70 11:23 14.07.2022
1050 Clouds 14 1022 84 10000 2.06 150 10:24 14.07.2022
1051 Rain 16 1028 82 8047 4.12 130 07:50 14.07.2022
1052 Clouds 22 1017 52 10000 12.35 70 01:26 14.07.2022
1053 Clouds 24 1023 33 10000 7.2 20 00:53 14.07.2022
1054 Clouds 25 1019 34 10000 1.79 24 22:33 13.07.2022
1055 Clouds 24 1027 36 10000 1.79 340 21:59 13.07.2022
1056 Clouds 24 1020 37 10000 2.06 340 21:18 13.07.2022
1057 Clouds 21 1021 48 10000 3.09 100 19:34 13.07.2022
1058 Clouds 18 1028 63 10000 3.58 90 17:51 13.07.2022
1059 Clouds 17 1022 67 10000 1.54 80 16:43 13.07.2022
1060 Clouds 16 1021 72 10000 2.06 40 15:26 13.07.2022
1061 Clouds 15 1026 72 10000 0.45 355 12:56 13.07.2022
1062 Clouds 17 1017 67 10000 1.79 280 10:46 13.07.2022
1063 Clouds 17 1020 66 10000 2.06 280 10:25 13.07.2022
1064 Clouds 18 1020 63 10000 2.57 280 09:26 13.07.2022
1065 Clouds 20 1027 45 10000 3.58 20 07:52 13.07.2022
1066 Clouds 23 1017 40 10000 10.29 50 03:19 13.07.2022
1067 Clouds 26 1022 26 10000 4.12 100 23:52 12.07.2022
1068 Clouds 25 1019 26 10000 3.6 50 22:18 12.07.2022
1069 Clouds 24 1019 37 10000 2.06 330 21:35 12.07.2022
1070 Clouds 23 1021 41 9656 2.57 330 20:42 12.07.2022
1071 Clouds 22 1021 47 9656 3.6 40 19:37 12.07.2022
1072 Clouds 21 1008 57 10000 1.34 79 17:55 12.07.2022
1073 Clouds 16 1021 69 10000 3.09 60 16:20 12.07.2022
1074 Clear 14 1020 76 10000 2.06 90 14:31 12.07.2022
1075 Clear 15 1019 69 10000 0.45 165 13:21 12.07.2022
1076 Clear 15 1020 68 10000 0.89 153 11:42 12.07.2022
1077 Clear 16 1020 72 10000 0.45 196 10:18 12.07.2022
1078 Clouds 16 1021 67 10000 0 0 08:38 12.07.2022
1079 Clouds 17 1022 64 10000 2.06 110 07:38 12.07.2022
1080 Clouds 19 1017 57 10000 3.09 270 05:44 12.07.2022
1081 Clouds 14 1018 85 10000 2.29 229 03:50 12.07.2022
1082 Clouds 23 1024 46 8047 3.09 100 23:43 11.07.2022
1083 Clouds 23 1015 49 9656 6.17 120 22:36 11.07.2022
1084 Clouds 23 1027 46 10000 2.24 50 20:54 11.07.2022
1085 Clouds 23 1020 47 9656 2.57 50 20:26 11.07.2022
1086 Clouds 22 1020 55 9656 1.79 22 18:39 11.07.2022
1087 Clouds 20 1027 64 10000 2.24 210 17:57 11.07.2022
1088 Clouds 18 1021 71 10000 1.54 70 16:22 11.07.2022
1089 Clouds 16 1017 78 10000 1.79 80 14:52 11.07.2022
1090 Clouds 17 1020 75 10000 0 0 12:28 11.07.2022
1091 Clouds 16 1013 80 10000 1.59 18 10:54 11.07.2022
1092 Clouds 17 1008 80 10000 0.45 340 09:54 11.07.2022
1093 Clouds 17 1022 70 10000 2.57 50 08:36 11.07.2022
1094 Thunderstorm 18 1019 72 10000 3.6 30 07:32 11.07.2022
1095 Clouds 26 1025 26 10000 1.79 20 00:47 11.07.2022
1096 Clouds 27 1025 25 10000 2.06 80 23:53 10.07.2022
1097 Clouds 24 1021 33 10000 2.06 60 22:34 10.07.2022
1098 Clear 22 1029 43 10000 0.89 210 20:55 10.07.2022
1099 Clear 21 1030 49 10000 1.34 336 20:00 10.07.2022
1100 Clouds 21 1024 50 8047 0.89 340 19:21 10.07.2022
1101 Clear 18 1031 63 10000 0.89 51 17:51 10.07.2022
1102 Clouds 15 1031 77 10000 1.79 50 16:59 10.07.2022
1103 Clouds 15 1025 77 9656 2.06 50 16:20 10.07.2022
1104 Clouds 14 1024 85 10000 2.06 100 14:43 10.07.2022
1105 Clouds 16 1020 76 10000 2.24 342 12:42 10.07.2022
1106 Clear 16 1023 69 10000 0 0 11:36 10.07.2022
1107 Clear 17 1021 65 10000 2.68 320 09:44 10.07.2022
1108 Clear 18 1031 55 10000 1.79 300 08:43 10.07.2022
1109 Clouds 17 1024 64 10000 3.09 40 06:36 10.07.2022
1110 Clouds 25 1027 31 10000 1.03 30 23:44 09.07.2022
1111 Clouds 24 1021 40 10000 2.57 60 22:26 09.07.2022
1112 Clouds 23 1023 41 10000 3.09 330 21:41 09.07.2022
1113 Clouds 21 1024 51 10000 2.06 310 19:44 09.07.2022
1114 Clouds 20 1025 56 10000 2.06 30 18:26 09.07.2022
1115 Clouds 19 1025 62 10000 0.89 329 17:21 09.07.2022
1116 Clouds 16 1031 72 10000 2.24 330 15:58 09.07.2022
1117 Clouds 16 1025 73 10000 2.57 330 15:38 09.07.2022
1118 Clouds 16 1024 74 10000 2.57 300 14:22 09.07.2022
1119 Clouds 16 1020 75 10000 2.24 38 13:47 09.07.2022
1120 Clouds 17 1020 71 10000 4.02 290 11:45 09.07.2022
1121 Clouds 18 1024 67 10000 3.6 290 10:26 09.07.2022
1122 Clouds 18 1024 64 10000 2.57 310 09:38 09.07.2022
1123 Clouds 19 1025 59 10000 2.06 40 07:44 09.07.2022
1124 Clouds 19 1021 65 10000 3.09 190 04:41 09.07.2022
1125 Clouds 26 1020 29 10000 2.57 310 23:41 08.07.2022
1126 Clouds 25 1019 34 10000 2.24 270 22:33 08.07.2022
1127 Clouds 23 1022 41 10000 3.09 40 21:26 08.07.2022
1128 Clouds 23 1022 46 10000 2.24 336 20:35 08.07.2022
1129 Clouds 21 1023 55 9656 2.57 60 19:38 08.07.2022
1130 Clouds 19 1029 63 10000 0.89 294 17:45 08.07.2022
1131 Clouds 17 1024 74 9656 2.06 70 16:29 08.07.2022
1132 Clouds 16 1028 82 10000 1.79 10 14:50 08.07.2022
1133 Clouds 16 1021 83 10000 2.06 250 12:42 08.07.2022
1134 Clouds 16 1019 82 10000 2.24 260 10:47 08.07.2022
1135 Clouds 16 1028 87 10000 2.24 230 09:58 08.07.2022
1136 Rain 16 1027 87 10000 4.12 250 06:59 08.07.2022
1137 Thunderstorm 16 1022 87 10000 7.2 230 05:33 08.07.2022
1138 Clouds 21 1019 47 10000 2.06 140 00:30 08.07.2022
1139 Clouds 23 1026 40 10000 1.79 70 22:50 07.07.2022
1140 Clouds 23 1017 42 10000 2.68 30 21:46 07.07.2022
1141 Clouds 21 1021 51 9656 3.6 120 19:34 07.07.2022
1142 Clouds 18 1022 67 9656 2.57 80 17:43 07.07.2022
1143 Clouds 16 1022 75 9656 3.6 80 16:21 07.07.2022
1144 Clouds 16 1020 69 10000 1.54 250 13:40 07.07.2022
1145 Clouds 16 1020 69 10000 2.06 270 12:41 07.07.2022
1146 Clouds 16 1020 69 10000 2.06 270 12:22 07.07.2022
1147 Clouds 16 1020 72 10000 2.57 300 11:32 07.07.2022
1148 Clouds 17 1026 67 10000 4.02 310 10:45 07.07.2022
1149 Clouds 17 1025 67 10000 4.12 310 10:27 07.07.2022
1150 Clouds 17 1021 65 10000 2.06 350 08:40 07.07.2022
1151 Clouds 18 1025 63 10000 5.36 30 05:57 07.07.2022
1152 Clouds 24 1025 36 10000 4.02 70 00:18 07.07.2022
1153 Clouds 24 1025 36 10000 4.02 70 23:36 06.07.2022
1154 Clouds 24 1025 36 10000 4.02 70 23:18 06.07.2022
1155 Clouds 24 1016 38 10000 4.02 70 22:47 06.07.2022
1156 Clouds 24 1025 36 10000 4.02 70 22:47 06.07.2022
1157 Clouds 24 1019 39 9656 4.12 70 22:28 06.07.2022
1158 Clouds 22 1008 56 10000 0.89 24 19:46 06.07.2022
1159 Clouds 20 1027 57 8047 1.79 340 18:45 06.07.2022
1160 Clouds 16 1019 78 10000 2.68 261 16:58 06.07.2022
1161 Clouds 14 1021 85 9656 2.57 60 15:44 06.07.2022
1162 Clouds 16 1025 72 10000 2.06 300 12:44 06.07.2022
1163 Clouds 16 1027 67 10000 1.79 300 11:49 06.07.2022
1164 Clouds 16 1021 70 10000 3.09 310 10:33 06.07.2022
1165 Clouds 17 1022 68 10000 3.09 280 08:43 06.07.2022
1166 Clouds 17 1022 72 10000 2.06 310 07:39 06.07.2022
1167 Clouds 17 1020 76 10000 2.57 60 05:37 06.07.2022
1168 Clouds 25 1025 38 10000 4.12 140 22:49 05.07.2022
1169 Clouds 25 1018 39 10000 4.12 140 22:27 05.07.2022
1170 Clouds 23 1021 43 10000 3.09 140 20:42 05.07.2022
1171 Clouds 22 1021 48 10000 1.79 75 19:44 05.07.2022
1172 Clouds 21 1022 52 10000 3.13 80 19:25 05.07.2022
1173 Clouds 18 1029 63 10000 2.68 80 17:48 05.07.2022
1174 Clouds 17 1017 67 10000 2.24 50 16:57 05.07.2022
1175 Clouds 17 1022 69 10000 1.54 60 15:38 05.07.2022
1176 Clouds 16 1022 73 10000 0 0 14:33 05.07.2022
1177 Clouds 16 1021 71 10000 2.24 160 12:48 05.07.2022
1178 Clouds 17 1028 63 10000 2.24 160 11:52 05.07.2022
1179 Clouds 17 1022 69 10000 1.54 80 10:42 05.07.2022
1180 Clouds 17 1019 63 10000 2.57 60 09:24 05.07.2022
1181 Clouds 17 1019 80 10000 1.1 172 07:52 05.07.2022
1182 Clouds 20 1027 52 10000 2.06 100 05:29 05.07.2022
1183 Clouds 20 1026 52 10000 2.06 80 04:25 05.07.2022
1184 Rain 21 1021 43 10000 6.17 100 00:37 05.07.2022
1185 Rain 22 1026 40 10000 4.12 90 23:34 04.07.2022
1186 Clouds 25 1012 40 10000 1.67 121 22:47 04.07.2022
1187 Clouds 21 1028 43 10000 3.6 110 21:46 04.07.2022
1188 Clouds 21 1028 43 10000 4.02 70 20:53 04.07.2022
1189 Clouds 21 1028 43 10000 4.12 70 20:33 04.07.2022
1190 Clouds 20 1029 49 10000 2.24 90 19:54 04.07.2022
1191 Clouds 20 1029 49 10000 2.57 90 19:35 04.07.2022
1192 Clouds 18 1029 55 10000 1.79 50 17:58 04.07.2022
1193 Clouds 16 1028 63 10000 2.24 320 15:58 04.07.2022
1194 Clouds 16 1028 63 10000 2.57 320 15:33 04.07.2022
1195 Clouds 16 1027 63 10000 2.06 310 13:29 04.07.2022
1196 Clouds 16 1027 67 10000 3.6 350 12:21 04.07.2022
1197 Clouds 18 1027 59 10000 4.12 20 10:34 04.07.2022
1198 Clouds 17 1027 67 10000 4.12 290 09:41 04.07.2022
1199 Clouds 19 1028 59 10000 5.14 270 07:33 04.07.2022
1200 Clouds 23 1021 46 10000 7.2 360 03:36 04.07.2022
1201 Clouds 27 1024 24 10000 3.09 70 00:36 04.07.2022
1202 Clouds 25 1026 33 10000 4.47 40 22:59 03.07.2022
1203 Clouds 25 1013 32 10000 2.17 8 20:58 03.07.2022
1204 Clouds 22 1027 46 9656 3.6 80 20:26 03.07.2022
1205 Clouds 22 1028 49 9656 2.06 120 19:27 03.07.2022
1206 Clouds 21 1028 52 9656 0 0 18:35 03.07.2022
1207 Clouds 19 1028 63 9656 1.54 80 17:43 03.07.2022
1208 Clouds 16 1017 77 10000 3.58 80 15:49 03.07.2022
1209 Clouds 16 1013 77 10000 2.24 280 14:59 03.07.2022
1210 Clouds 16 1021 78 10000 2.57 280 14:18 03.07.2022
1211 Clouds 16 1019 82 10000 4.02 280 13:48 03.07.2022
1212 Clouds 16 1018 81 10000 4.12 280 12:33 03.07.2022
1213 Clouds 17 1020 73 10000 3.6 290 11:20 03.07.2022
1214 Clouds 17 1018 73 10000 1.54 250 10:38 03.07.2022
1215 Clouds 17 1018 71 10000 5.14 270 09:31 03.07.2022
1216 Clouds 17 1018 71 10000 4.47 320 07:34 03.07.2022
1217 Clouds 21 1023 56 9656 7.15 360 02:49 03.07.2022
1218 Clouds 27 1023 28 9656 2.57 70 00:20 03.07.2022
1219 Clouds 25 1018 38 9656 5.14 100 22:33 02.07.2022
1220 Clouds 24 1025 50 9656 3.09 60 20:50 02.07.2022
1221 Clouds 23 1008 53 10000 1.34 49 19:52 02.07.2022
1222 Clouds 21 1021 53 8047 3.6 60 19:20 02.07.2022
1223 Clouds 19 1018 69 9656 1.54 90 17:41 02.07.2022
1224 Clouds 19 1009 71 10000 0.89 61 16:49 02.07.2022
1225 Clouds 15 1025 86 9656 1.54 60 13:52 02.07.2022
1226 Clear 16 1020 80 10000 0 0 12:21 02.07.2022
1227 Clear 16 1020 84 10000 0 0 11:26 02.07.2022
1228 Clouds 16 1020 84 10000 0 0 10:37 02.07.2022
1229 Clouds 16 1027 82 10000 0.81 76 08:55 02.07.2022
1230 Clouds 16 1021 79 10000 2.68 30 08:20 02.07.2022
1231 Clouds 17 1027 72 10000 4.02 310 06:59 02.07.2022
1232 Thunderstorm 18 1021 63 8047 9.26 360 01:45 02.07.2022
1233 Clouds 26 1014 32 10000 3.58 340 23:56 01.07.2022
1234 Clouds 26 1015 38 10000 4.12 360 22:41 01.07.2022
1235 Clouds 25 1015 41 10000 2.24 300 21:47 01.07.2022
1236 Clouds 25 1016 42 10000 2.57 300 21:27 01.07.2022
1237 Clouds 24 1021 45 9656 3.6 50 20:38 01.07.2022
1238 Clouds 23 1021 48 9656 2.06 160 19:42 01.07.2022
1239 Clouds 20 1009 65 10000 2.24 54 17:53 01.07.2022
1240 Clouds 18 1009 72 10000 0.89 116 15:54 01.07.2022
1241 Clouds 15 1027 72 10000 0.89 340 13:54 01.07.2022
1242 Clouds 16 1027 67 10000 3.58 70 11:56 01.07.2022
1243 Clouds 18 1021 67 10000 3.09 280 10:20 01.07.2022
1244 Clouds 18 1021 67 10000 3.09 280 10:20 01.07.2022
1245 Clouds 18 1022 67 10000 2.57 280 09:43 01.07.2022
1246 Clouds 20 1016 56 10000 6.69 60 04:49 01.07.2022
1247 Clouds 26 1019 24 10000 3.6 330 00:26 01.07.2022
1248 Clouds 25 1027 33 10000 2.68 130 22:59 30.06.2022
1249 Clouds 25 1021 33 9656 3.09 130 22:41 30.06.2022
1250 Clouds 25 1021 33 9656 3.09 130 22:23 30.06.2022
1251 Clear 24 1022 36 9656 2.57 130 21:41 30.06.2022
1252 Clouds 21 1023 47 9656 2.06 110 20:30 30.06.2022
1253 Clouds 20 1030 49 10000 2.24 330 19:54 30.06.2022
1254 Clouds 20 1024 51 9656 2.57 330 19:25 30.06.2022
1255 Clouds 19 1024 53 9656 1.54 0 18:42 30.06.2022
1256 Clouds 17 1024 63 9656 1.54 100 17:44 30.06.2022
1257 Clouds 15 1030 67 10000 2.24 80 16:55 30.06.2022
1258 Clouds 15 1024 76 10000 1.54 100 15:39 30.06.2022
1259 Clouds 15 1018 71 10000 2.68 360 13:36 30.06.2022
1260 Clouds 15 1018 70 10000 3.09 360 12:35 30.06.2022
1261 Clouds 16 1029 64 10000 2.06 340 11:43 30.06.2022
1262 Clouds 17 1031 59 10000 2.24 320 09:55 30.06.2022
1263 Clouds 17 1025 62 10000 2.57 320 09:35 30.06.2022
1264 Clouds 17 1025 61 10000 3.09 310 08:18 30.06.2022
1265 Clouds 18 1025 56 10000 4.12 340 07:18 30.06.2022
1266 Clouds 25 1025 28 10000 4.12 360 01:47 30.06.2022
1267 Clouds 24 1022 32 10000 4.12 50 23:34 29.06.2022
1268 Clouds 23 1023 37 10000 3.09 80 22:40 29.06.2022
1269 Clouds 22 1021 47 10000 1.54 340 21:39 29.06.2022
1270 Clouds 21 1022 51 10000 3.09 100 20:34 29.06.2022
1271 Clouds 19 1023 56 9656 1.54 240 19:39 29.06.2022
1272 Clouds 16 1032 67 10000 1.34 260 17:54 29.06.2022
1273 Clouds 15 1013 71 10000 2.24 360 16:47 29.06.2022
1274 Clouds 15 1025 77 10000 4.02 320 15:32 29.06.2022
1275 Clouds 14 1014 82 10000 1.34 313 12:49 29.06.2022
1276 Clouds 15 1023 79 10000 2.06 80 11:47 29.06.2022
1277 Clouds 16 1020 84 10000 3.6 40 09:34 29.06.2022
1278 Clouds 16 1025 86 10000 2.06 20 08:42 29.06.2022
1279 Clouds 16 1021 82 10000 1.34 137 05:19 29.06.2022
1280 Clouds 16 1011 78 8047 5.14 280 01:48 29.06.2022
1281 Thunderstorm 17 1021 76 9656 6.17 30 00:37 29.06.2022
1282 Thunderstorm 22 1015 46 9656 7.6 50 22:56 28.06.2022
1283 Clouds 23 1022 42 10000 4.12 40 22:34 28.06.2022
1284 Clouds 22 1029 43 10000 1.79 80 21:55 28.06.2022
1285 Clouds 22 1023 44 10000 2.06 80 21:33 28.06.2022
1286 Clouds 22 1029 43 10000 3.13 91 20:50 28.06.2022
1287 Clouds 21 1024 56 10000 2.06 330 19:34 28.06.2022
1288 Clouds 21 1024 56 10000 2.06 330 19:34 28.06.2022
1289 Clouds 18 1030 63 10000 2.24 240 18:53 28.06.2022
1290 Clouds 18 1022 66 10000 2.24 240 17:44 28.06.2022
1291 Clouds 16 1025 73 10000 2.06 50 16:24 28.06.2022
1292 Clouds 15 1022 77 10000 3.58 346 15:53 28.06.2022
1293 Clouds 14 1024 82 10000 2.06 330 14:21 28.06.2022
1294 Clouds 14 1029 82 10000 1.79 360 13:54 28.06.2022
1295 Clouds 14 1024 82 10000 2.06 360 13:20 28.06.2022
1296 Clouds 15 1024 78 10000 2.06 340 11:21 28.06.2022
1297 Clouds 14 1024 96 10000 3.09 320 09:36 28.06.2022
1298 Clouds 15 1024 87 10000 2.06 310 08:44 28.06.2022
1299 Clouds 14 1024 92 10000 2.06 280 07:43 28.06.2022
1300 Clouds 14 1024 92 10000 2.06 280 07:19 28.06.2022
1301 Clouds 21 1020 54 10000 6.17 40 01:33 28.06.2022
1302 Clouds 22 1020 40 10000 2.24 71 23:44 27.06.2022
1303 Clouds 22 1027 37 10000 1.79 45 22:54 27.06.2022
1304 Clouds 22 1022 40 10000 1.54 320 21:38 27.06.2022
1305 Clouds 21 1028 44 10000 3.09 70 20:53 27.06.2022
1306 Clouds 20 1024 50 10000 2.57 250 19:40 27.06.2022
1307 Clouds 20 1019 53 10000 3.6 310 18:33 27.06.2022
1308 Clouds 15 1020 68 10000 2.57 270 16:36 27.06.2022
1309 Clouds 15 1019 73 10000 2.57 310 15:24 27.06.2022
1310 Clouds 15 1023 70 10000 4.63 330 13:39 27.06.2022
1311 Clouds 15 1014 74 10000 2.24 320 12:56 27.06.2022
1312 Clouds 16 1019 66 10000 2.24 338 10:35 27.06.2022
1313 Clouds 16 1024 68 10000 3.09 60 09:21 27.06.2022
1314 Clouds 16 1029 67 10000 2.57 80 08:31 27.06.2022
1315 Clouds 16 1019 68 10000 4.47 210 07:38 27.06.2022
1316 Clouds 16 1019 78 8427 2.43 300 03:58 27.06.2022
1317 Clouds 22 1012 36 10000 4.63 350 01:18 27.06.2022
1318 Clouds 23 1022 39 10000 4.02 50 22:22 26.06.2022
1319 Clouds 21 1027 43 10000 3.6 360 20:48 26.06.2022
1320 Clouds 20 1020 56 6437 3.6 80 19:42 26.06.2022
1321 Clouds 18 1024 61 6437 1.54 260 18:31 26.06.2022
1322 Clouds 17 1012 72 9656 0.45 338 16:47 26.06.2022
1323 Mist 14 1023 80 6437 2.57 330 15:27 26.06.2022
1324 Clouds 14 1028 87 10000 0.45 331 13:53 26.06.2022
1325 Clouds 14 1022 85 6437 0 0 13:20 26.06.2022
1326 Clouds 14 1027 87 8047 0.89 336 11:26 26.06.2022
1327 Clouds 14 1023 86 8047 3.09 60 10:28 26.06.2022
1328 Clouds 15 1023 76 8047 1.54 90 09:39 26.06.2022
1329 Clouds 15 1012 82 8047 1.54 220 07:45 26.06.2022
1330 Thunderstorm 14 1026 82 8047 7.2 270 02:28 26.06.2022
1331 Clouds 23 1018 38 10000 7.2 120 00:21 26.06.2022
1332 Clouds 24 1018 38 9656 5.14 80 23:49 25.06.2022
1333 Clouds 24 1018 37 9656 5.14 80 23:23 25.06.2022
1334 Clouds 23 1019 39 8047 2.06 310 22:27 25.06.2022
1335 Clouds 22 1020 40 8047 1.54 10 21:41 25.06.2022
1336 Clouds 22 1020 41 8047 1.54 10 21:18 25.06.2022
1337 Clouds 21 1026 43 8047 3.58 316 20:27 25.06.2022
1338 Clouds 20 1022 52 8047 1.54 170 19:21 25.06.2022
1339 Clouds 17 1028 67 10000 2.24 53 17:57 25.06.2022
1340 Clouds 17 1022 66 6437 1.54 60 17:22 25.06.2022
1341 Clouds 14 1019 79 6437 2.57 60 15:36 25.06.2022
1342 Clouds 14 1021 81 10000 2.57 70 13:34 25.06.2022
1343 Clouds 14 1020 80 10000 0.45 329 12:38 25.06.2022
1344 Clouds 15 1020 80 10000 2.57 60 10:35 25.06.2022
1345 Clouds 16 1027 63 10000 2.24 40 08:59 25.06.2022
1346 Clouds 16 1021 66 10000 2.57 40 08:36 25.06.2022
1347 Clouds 17 1027 63 10000 2.68 330 07:54 25.06.2022
1348 Clouds 19 1019 53 10000 7.72 50 03:33 25.06.2022
1349 Clouds 23 1017 35 10000 4.12 110 00:34 25.06.2022
1350 Clouds 24 1024 31 10000 4.92 120 22:54 24.06.2022
1351 Clouds 23 1013 36 8047 4.12 130 21:41 24.06.2022
1352 Clouds 22 1025 40 8047 2.68 96 20:45 24.06.2022
1353 Clouds 22 1020 42 8047 2.06 140 20:18 24.06.2022
1354 Clouds 21 1020 48 8047 2.68 96 19:21 24.06.2022
1355 Clouds 18 1027 59 10000 2.24 110 18:48 24.06.2022
1356 Haze 19 1021 59 6437 2.57 110 18:30 24.06.2022
1357 Haze 16 1021 73 6437 2.24 80 17:19 24.06.2022
1358 Mist 13 1022 84 8047 2.24 70 15:29 24.06.2022
1359 Clouds 13 1021 85 8047 2.57 70 14:27 24.06.2022
1360 Clouds 13 1026 82 10000 2.24 60 13:55 24.06.2022
1361 Clouds 14 1025 71 9656 2.06 290 11:44 24.06.2022
1362 Clouds 15 1026 67 10000 1.79 270 10:55 24.06.2022
1363 Clouds 15 1026 67 10000 4.02 300 09:49 24.06.2022
1364 Clouds 15 1021 69 9656 4.12 300 09:28 24.06.2022
1365 Clouds 16 1026 63 10000 4.92 290 08:51 24.06.2022
1366 Clouds 16 1026 63 9656 3.6 280 06:48 24.06.2022
1367 Clouds 17 1020 59 9656 3.6 340 06:30 24.06.2022
1368 Clouds 18 1025 55 10000 3.58 360 05:52 24.06.2022
1369 Clouds 23 1016 33 10000 5.14 120 01:21 24.06.2022
1370 Clouds 23 1019 34 10000 3.09 200 22:44 23.06.2022
1371 Clouds 23 1024 33 10000 3.6 220 21:54 23.06.2022
1372 Clouds 20 1027 42 10000 1.34 290 20:54 23.06.2022
1373 Clouds 20 1021 44 10000 1.54 290 20:32 23.06.2022
1374 Clouds 18 1018 56 10000 2.57 290 18:44 23.06.2022
1375 Clouds 16 1022 61 10000 2.06 350 17:45 23.06.2022
1376 Clouds 14 1022 72 10000 1.54 120 16:36 23.06.2022
1377 Clouds 14 1019 73 10000 2.06 340 15:29 23.06.2022
1378 Clouds 14 1026 71 10000 3.58 300 14:59 23.06.2022
1379 Clouds 15 1020 70 10000 2.06 300 12:39 23.06.2022
1380 Clouds 15 1020 70 10000 3.09 310 11:19 23.06.2022
1381 Clouds 15 1021 72 10000 2.68 40 09:30 23.06.2022
1382 Clouds 16 1019 69 10000 4.92 40 07:51 23.06.2022
1383 Clouds 18 1018 64 10000 8.23 40 01:29 23.06.2022
1384 Clouds 19 1015 57 10000 11.32 50 00:25 23.06.2022
1385 Clouds 20 1019 53 10000 4.12 40 23:23 22.06.2022
1386 Clouds 20 1017 55 10000 3.58 80 21:45 22.06.2022
1387 Clouds 20 1017 55 10000 3.58 80 21:45 22.06.2022
1388 Clouds 18 1027 59 10000 2.68 311 20:57 22.06.2022
1389 Clouds 19 1021 59 10000 3.13 101 20:20 22.06.2022
1390 Clouds 17 1011 61 10000 2.68 10 19:44 22.06.2022
1391 Clouds 15 1026 77 10000 4.47 280 17:50 22.06.2022
1392 Clouds 15 1027 72 10000 2.24 229 16:50 22.06.2022
1393 Clouds 15 1019 75 10000 3.58 340 15:46 22.06.2022
1394 Clouds 15 1022 75 10000 3.6 340 15:22 22.06.2022
1395 Clouds 14 1025 82 10000 3.09 330 13:50 22.06.2022
1396 Clouds 14 1017 84 10000 4.92 360 13:25 22.06.2022
1397 Clouds 14 1020 81 10000 5.14 360 12:37 22.06.2022
1398 Clouds 14 1025 76 10000 4.12 10 11:46 22.06.2022
1399 Clouds 15 1014 72 10000 2.24 360 10:53 22.06.2022
1400 Clouds 15 1022 82 10000 4.12 280 09:44 22.06.2022
1401 Clouds 15 1028 82 10000 2.68 300 07:51 22.06.2022
1402 Clouds 16 1026 87 9656 6.17 40 03:25 22.06.2022
1403 Clouds 18 1025 77 10000 2.06 50 01:21 22.06.2022
1404 Clouds 21 1019 63 10000 5.14 340 23:19 21.06.2022
1405 Clouds 21 1021 57 10000 7.2 50 21:31 21.06.2022
1406 Clouds 18 1022 69 10000 3.09 330 19:43 21.06.2022
1407 Clouds 16 1028 77 10000 3.58 320 17:57 21.06.2022
1408 Clouds 16 1029 77 10000 4.02 40 16:52 21.06.2022
1409 Clouds 15 1021 82 10000 3.09 350 12:36 21.06.2022
1410 Clouds 15 1026 82 10000 2.57 20 10:55 21.06.2022
1411 Clouds 17 1026 64 10000 3.09 360 09:40 21.06.2022
1412 Clouds 18 1028 59 10000 4.02 360 07:56 21.06.2022
1413 Clouds 19 1021 52 10000 3.09 10 05:37 21.06.2022
1414 Clouds 23 1019 43 10000 4.12 360 00:37 21.06.2022
1415 Clouds 23 1017 40 10000 4.92 5 22:23 20.06.2022
1416 Clouds 22 1010 44 10000 1.34 234 21:49 20.06.2022
1417 Clouds 19 1022 45 10000 3.6 60 20:32 20.06.2022
1418 Clouds 18 1023 48 10000 3.6 120 19:38 20.06.2022
1419 Clouds 17 1023 52 10000 1.54 80 18:44 20.06.2022
1420 Clouds 16 1029 55 10000 1.79 130 17:50 20.06.2022
1421 Clouds 15 1021 64 10000 1.79 345 16:55 20.06.2022
1422 Clouds 13 1020 71 10000 2.24 351 15:52 20.06.2022
1423 Clouds 13 1020 69 10000 3.09 290 12:38 20.06.2022
1424 Clouds 14 1019 66 10000 2.24 300 10:32 20.06.2022
1425 Clouds 15 1027 54 10000 4.02 310 08:57 20.06.2022
1426 Clouds 15 1027 54 10000 4.02 310 08:57 20.06.2022
1427 Clouds 15 1021 58 10000 4.12 310 08:21 20.06.2022
1428 Clouds 17 1021 53 10000 4.12 340 05:35 20.06.2022
1429 Clouds 19 1023 61 10000 4.12 120 01:44 20.06.2022
1430 Clouds 19 1017 64 10000 5.14 350 00:26 20.06.2022
1431 Clouds 24 1022 39 10000 3.09 220 22:50 19.06.2022
1432 Clouds 22 1025 43 10000 0.89 337 21:57 19.06.2022
1433 Clouds 22 1019 46 10000 0.89 32 21:39 19.06.2022
1434 Clouds 21 1020 51 10000 2.57 300 20:38 19.06.2022
1435 Clouds 19 1026 53 10000 3.6 340 19:47 19.06.2022
1436 Clouds 19 1009 62 10000 3.09 70 18:45 19.06.2022
1437 Clouds 17 1009 67 10000 0.45 336 17:54 19.06.2022
1438 Clouds 18 1018 64 10000 1.54 340 17:22 19.06.2022
1439 Clouds 16 1018 69 10000 2.06 340 16:35 19.06.2022
1440 Clouds 15 1010 77 10000 2.06 340 15:41 19.06.2022
1441 Clouds 15 1026 67 10000 2.68 310 14:57 19.06.2022
1442 Clouds 15 1020 71 10000 3.09 310 14:19 19.06.2022
1443 Clouds 15 1020 71 10000 3.58 360 13:21 19.06.2022
1444 Clouds 15 1013 72 10000 0.89 319 10:55 19.06.2022
1445 Clouds 16 1018 74 10000 4.02 330 09:46 19.06.2022
1446 Clouds 16 1018 73 10000 2.68 320 08:47 19.06.2022
1447 Clouds 16 1023 70 10000 3.09 10 07:59 19.06.2022
1448 Clouds 17 1021 71 10000 5.14 40 05:37 19.06.2022
1449 Clouds 22 1017 43 10000 7.2 40 01:29 19.06.2022
1450 Clouds 21 1017 46 10000 5.14 250 00:24 19.06.2022
1451 Clouds 21 1018 43 9656 10.29 120 23:36 18.06.2022
1452 Clouds 24 1018 35 8047 5.14 30 22:36 18.06.2022
1453 Clouds 21 1026 46 10000 1.34 65 20:57 18.06.2022
1454 Clouds 21 1020 47 8047 0.89 274 20:38 18.06.2022
1455 Clear 20 1021 54 9656 1.54 230 19:38 18.06.2022
1456 Clouds 19 1026 59 8047 1.54 60 18:45 18.06.2022
1457 Clouds 16 1021 71 8047 2.06 310 17:34 18.06.2022
1458 Clouds 16 1027 67 10000 0.89 323 16:47 18.06.2022
1459 Clouds 15 1021 74 10000 1.03 250 15:31 18.06.2022
1460 Clouds 15 1020 74 10000 1.79 350 14:44 18.06.2022
1461 Clouds 15 1020 73 10000 2.57 320 13:22 18.06.2022
1462 Clouds 15 1020 73 10000 3.09 330 11:39 18.06.2022
1463 Clouds 15 1026 77 10000 2.24 300 10:47 18.06.2022
1464 Clouds 15 1021 80 10000 2.57 300 09:23 18.06.2022
1465 Clouds 15 1021 81 10000 3.6 290 08:24 18.06.2022
1466 Clouds 15 1021 84 10000 4.12 330 06:46 18.06.2022
1467 Clouds 17 1019 67 10000 4.12 40 03:30 18.06.2022
1468 Thunderstorm 19 1015 65 9656 6.71 355 01:25 18.06.2022
1469 Clouds 22 1022 38 10000 9.26 40 00:48 18.06.2022
1470 Clouds 23 1024 33 10000 2.68 300 23:52 17.06.2022
1471 Clouds 23 1018 36 10000 3.09 300 23:20 17.06.2022
1472 Clouds 22 1025 38 9656 3.09 60 20:56 17.06.2022
1473 Clouds 19 1021 48 9656 2.57 50 19:31 17.06.2022
1474 Clouds 18 1022 54 8047 2.68 98 18:44 17.06.2022
1475 Clouds 16 1022 64 8047 3.09 20 17:43 17.06.2022
1476 Clouds 15 1020 73 10000 4.02 70 16:43 17.06.2022
1477 Clouds 14 1022 76 10000 3.09 270 15:43 17.06.2022
1478 Clouds 14 1022 76 10000 3.09 270 15:20 17.06.2022
1479 Clouds 14 1021 77 10000 2.57 330 14:20 17.06.2022
1480 Clouds 14 1019 76 10000 1.34 310 13:46 17.06.2022
1481 Clouds 14 1027 82 10000 1.79 300 12:57 17.06.2022
1482 Clouds 15 1026 77 10000 2.68 300 11:57 17.06.2022
1483 Clouds 15 1021 77 10000 3.09 300 11:36 17.06.2022
1484 Clouds 15 1027 77 10000 3.58 300 10:51 17.06.2022
1485 Clouds 16 1022 77 10000 3.09 330 08:30 17.06.2022
1486 Clouds 16 1020 70 10000 3.58 10 07:47 17.06.2022
1487 Clouds 18 1021 60 10000 2.57 50 05:57 17.06.2022
1488 Clouds 21 1023 41 10000 5.14 220 02:52 17.06.2022
1489 Clouds 22 1018 39 9656 5.14 150 00:42 17.06.2022
1490 Clouds 22 1018 39 9656 5.14 150 00:42 17.06.2022
1491 Clouds 22 1020 43 9656 1.54 0 22:45 16.06.2022
1492 Clouds 22 1020 42 9656 2.68 90 22:20 16.06.2022
1493 Clouds 22 1026 37 10000 2.68 100 21:19 16.06.2022
1494 Clouds 22 1026 37 10000 2.68 100 20:50 16.06.2022
1495 Clouds 21 1027 46 10000 1.79 280 19:57 16.06.2022
1496 Clouds 18 1021 54 10000 3.09 280 18:34 16.06.2022
1497 Clouds 17 1021 57 10000 2.57 290 17:44 16.06.2022
1498 Clouds 15 1027 67 10000 1.79 70 16:46 16.06.2022
1499 Clouds 14 1021 68 10000 3.09 310 15:37 16.06.2022
1500 Clouds 14 1021 70 10000 3.58 260 15:18 16.06.2022
1501 Clouds 14 1026 71 10000 3.58 300 13:46 16.06.2022
1502 Clouds 15 1019 70 10000 3.6 290 12:38 16.06.2022
1503 Clouds 16 1025 59 10000 3.58 330 11:54 16.06.2022
1504 Clouds 16 1019 64 10000 3.6 330 11:19 16.06.2022
1505 Clouds 16 1019 65 10000 3.6 340 10:34 16.06.2022
1506 Clouds 16 1019 66 10000 3.6 20 09:26 16.06.2022
1507 Clouds 17 1020 80 10000 2.06 180 08:46 16.06.2022
1508 Clouds 17 1020 83 10000 3.09 200 07:29 16.06.2022
1509 Clouds 17 1018 83 10000 3.09 320 05:42 16.06.2022
1510 Clouds 16 1015 86 8047 4.12 220 03:23 16.06.2022
1511 Thunderstorm 18 1015 72 9656 7.72 90 01:51 16.06.2022
1512 Thunderstorm 19 1014 78 9656 3.09 230 01:22 16.06.2022
1513 Clouds 26 1021 34 10000 3.6 100 23:58 15.06.2022
1514 Clouds 23 1022 43 10000 1.34 180 22:47 15.06.2022
1515 Clouds 23 1014 45 10000 2.06 160 21:29 15.06.2022
1516 Clouds 23 1024 49 10000 4.02 220 20:57 15.06.2022
1517 Clouds 23 1018 51 10000 4.12 220 20:35 15.06.2022
1518 Clouds 21 1018 53 10000 4.12 210 19:49 15.06.2022
1519 Clouds 19 1019 63 10000 2.57 360 18:30 15.06.2022
1520 Clouds 18 1019 66 10000 4.12 20 17:42 15.06.2022
1521 Clouds 17 1016 70 10000 3.09 20 16:20 15.06.2022
1522 Clouds 16 1018 75 10000 2.57 360 14:37 15.06.2022
1523 Clouds 16 1016 75 10000 3.6 360 13:20 15.06.2022
1524 Clouds 16 1016 75 10000 2.57 360 12:39 15.06.2022
1525 Clouds 16 1018 79 10000 3.09 20 11:22 15.06.2022
1526 Clouds 16 1016 81 10000 2.57 320 10:21 15.06.2022
1527 Clouds 16 1025 87 10000 2.24 310 08:58 15.06.2022
1528 Rain 16 1017 84 10000 3.6 310 07:32 15.06.2022
1529 Rain 17 1018 83 10000 2.57 190 05:24 15.06.2022
1530 Rain 19 1016 70 10000 5.14 320 02:40 15.06.2022
1531 Clouds 20 1015 62 10000 5.14 320 01:36 15.06.2022
1532 Clouds 22 1014 50 10000 5.14 310 00:18 15.06.2022
1533 Clouds 23 1016 47 9656 4.12 330 23:38 14.06.2022
1534 Clouds 23 1015 47 10000 2.24 360 22:45 14.06.2022
1535 Clouds 22 1015 45 9656 2.06 330 21:43 14.06.2022
1536 Clouds 21 1025 46 10000 2.68 30 20:58 14.06.2022
1537 Clouds 21 1019 49 9656 3.09 30 20:36 14.06.2022
1538 Clouds 20 1020 49 9656 0 0 19:32 14.06.2022
1539 Clouds 19 1016 60 9656 4.12 40 18:32 14.06.2022
1540 Clouds 16 1012 79 10000 3.58 70 16:50 14.06.2022
1541 Clouds 16 1016 83 10000 4.02 60 15:52 14.06.2022
1542 Clouds 15 1019 84 10000 4.12 60 15:34 14.06.2022
1543 Clouds 15 1019 84 10000 4.12 60 15:34 14.06.2022
1544 Clouds 15 1016 81 10000 1.34 280 14:53 14.06.2022
1545 Clouds 15 1025 82 10000 0.43 92 13:53 14.06.2022
1546 Clouds 15 1025 82 10000 1.79 240 12:56 14.06.2022
1547 Clouds 15 1025 82 10000 1.79 220 11:52 14.06.2022
1548 Clouds 15 1025 82 10000 2.68 290 10:50 14.06.2022
1549 Clouds 15 1019 81 6437 3.09 290 10:25 14.06.2022
1550 Rain 16 1026 77 10000 4.92 290 08:52 14.06.2022
1551 Clouds 16 1021 78 9656 5.14 290 08:23 14.06.2022
1552 Thunderstorm 17 1020 75 9656 5.66 280 06:19 14.06.2022
1553 Clouds 21 1022 43 10000 5.14 180 03:39 14.06.2022
1554 Clouds 23 1022 35 10000 6.17 210 01:36 14.06.2022
1555 Clouds 24 1023 31 10000 4.92 180 23:53 13.06.2022
1556 Clouds 24 1018 30 10000 5.14 140 22:27 13.06.2022
1557 Clouds 23 1025 29 10000 2.68 350 21:59 13.06.2022
1558 Clouds 23 1019 31 10000 3.09 350 21:24 13.06.2022
1559 Clouds 22 1017 37 10000 5.14 20 19:42 13.06.2022
1560 Clouds 21 1010 46 10000 2.24 38 18:45 13.06.2022
1561 Clouds 19 1021 47 10000 2.68 90 17:52 13.06.2022
1562 Clouds 19 1021 48 10000 1.54 10 17:21 13.06.2022
1563 Clouds 16 1018 61 10000 2.06 50 16:22 13.06.2022
1564 Clouds 15 1018 62 10000 0.93 33 14:48 13.06.2022
1565 Clouds 15 1020 60 10000 0 0 14:18 13.06.2022
1566 Clouds 14 1020 65 10000 0.45 270 13:23 13.06.2022
1567 Clouds 14 1020 64 10000 2.06 50 11:45 13.06.2022
1568 Clouds 15 1020 60 10000 3.09 60 10:34 13.06.2022
1569 Clouds 16 1017 58 10000 1.79 280 09:42 13.06.2022
1570 Clouds 16 1020 54 10000 2.57 110 08:27 13.06.2022
1571 Clouds 17 1020 49 10000 0.45 136 06:34 13.06.2022
1572 Clouds 17 1017 61 10000 5.14 280 04:18 13.06.2022
1573 Thunderstorm 21 1015 42 10000 10.29 90 01:44 13.06.2022
1574 Thunderstorm 24 1022 33 10000 6.17 50 01:18 13.06.2022
1575 Clouds 25 1016 27 10000 2.06 100 23:37 12.06.2022
1576 Clouds 25 1014 31 10000 4.12 110 22:29 12.06.2022
1577 Clouds 23 1015 34 10000 4.12 60 21:41 12.06.2022
1578 Clouds 23 1019 34 10000 3.6 120 20:43 12.06.2022
1579 Clouds 22 1019 37 10000 3.09 310 19:42 12.06.2022
1580 Clouds 20 1025 45 10000 2.06 60 18:46 12.06.2022
1581 Clouds 19 1008 55 10000 0.89 17 16:57 12.06.2022
1582 Clouds 15 1016 69 10000 2.57 50 15:33 12.06.2022
1583 Clouds 15 1015 69 10000 2.06 100 14:41 12.06.2022
1584 Clouds 15 1015 69 10000 2.06 100 14:18 12.06.2022
1585 Clouds 16 1005 60 10000 2.57 60 13:43 12.06.2022
1586 Clouds 15 1023 62 10000 2.06 80 11:58 12.06.2022
1587 Clouds 17 1025 55 10000 1.79 270 10:46 12.06.2022
1588 Clouds 18 1019 54 10000 3.6 280 09:36 12.06.2022
1589 Clouds 19 1024 46 10000 4.12 290 08:49 12.06.2022
1590 Clouds 20 1025 40 10000 2.68 10 07:49 12.06.2022
1591 Clouds 21 1015 46 10000 5.81 40 05:51 12.06.2022
1592 Clouds 23 1016 39 10000 3.09 120 03:38 12.06.2022
1593 Clouds 24 1022 33 10000 10.28 80 01:49 12.06.2022
1594 Clouds 24 1015 35 10000 10.29 80 01:22 12.06.2022
1595 Clouds 24 1012 39 10000 10.29 90 00:36 12.06.2022
1596 Clouds 26 1015 30 10000 10.29 80 00:18 12.06.2022
1597 Clear 26 1023 22 10000 3.58 50 22:53 11.06.2022
1598 Clouds 26 1023 22 10000 3.6 50 22:29 11.06.2022
1599 Clear 24 1025 36 10000 0.45 313 20:55 11.06.2022
1600 Clouds 24 1019 38 9656 1.34 355 20:26 11.06.2022
1601 Clouds 22 1020 45 9656 1.79 80 19:33 11.06.2022
1602 Clouds 21 1017 55 9656 2.06 30 18:37 11.06.2022
1603 Clouds 21 1017 55 9656 2.06 30 18:37 11.06.2022
1604 Clouds 20 1008 61 10000 1.79 169 17:58 11.06.2022
1605 Clouds 19 1018 66 10000 0.45 323 17:38 11.06.2022
1606 Clouds 18 1021 68 10000 0.89 94 17:19 11.06.2022
1607 Clouds 17 1018 73 10000 1.54 150 16:38 11.06.2022
1608 Clouds 18 1008 69 10000 0.45 194 15:46 11.06.2022
1609 Clouds 14 1017 87 10000 1.34 40 13:54 11.06.2022
1610 Clear 14 1019 89 10000 1.54 40 13:36 11.06.2022
1611 Clear 14 1020 89 10000 1.54 50 11:36 11.06.2022
1612 Clouds 15 1020 85 10000 0 0 10:29 11.06.2022
1613 Clouds 16 1018 81 10000 0.91 16 09:40 11.06.2022
1614 Clouds 17 1009 80 10000 0.45 66 07:58 11.06.2022
1615 Clouds 16 1027 82 10000 4.63 230 06:31 11.06.2022
1616 Clouds 15 1026 82 10000 0 0 05:26 11.06.2022
1617 Clouds 21 1018 51 10000 5.36 346 02:34 11.06.2022
1618 Clouds 25 1015 39 10000 7.2 20 01:41 11.06.2022
1619 Clouds 26 1017 56 10000 3.09 190 00:34 11.06.2022
1620 Clouds 25 1018 34 9656 3.6 110 22:38 10.06.2022
1621 Clouds 24 1025 33 10000 3.58 78 21:56 10.06.2022
1622 Clouds 23 1026 35 10000 2.24 320 20:55 10.06.2022
1623 Clouds 23 1020 38 9656 3.58 84 20:36 10.06.2022
1624 Clouds 23 1020 38 9656 2.57 320 20:18 10.06.2022
1625 Clouds 21 1021 49 9656 1.79 246 19:18 10.06.2022
1626 Clouds 21 1021 49 9656 1.79 246 19:18 10.06.2022
1627 Clouds 19 1022 59 9656 2.06 70 18:20 10.06.2022
1628 Clouds 18 1022 62 9656 1.54 110 17:36 10.06.2022
1629 Clouds 16 1028 67 10000 1.34 90 16:58 10.06.2022
1630 Clouds 16 1022 70 9656 1.54 90 16:20 10.06.2022
1631 Clouds 15 1021 74 9656 2.06 60 15:36 10.06.2022
1632 Clouds 14 1026 76 10000 1.34 320 13:52 10.06.2022
1633 Clouds 15 1020 78 10000 2.06 280 12:41 10.06.2022
1634 Clouds 15 1020 77 10000 3.6 300 11:40 10.06.2022
1635 Clouds 16 1021 72 10000 1.54 280 10:43 10.06.2022
1636 Clouds 16 1019 77 10000 2.06 300 09:44 10.06.2022
1637 Clouds 16 1021 77 10000 2.57 280 08:30 10.06.2022
1638 Clouds 16 1020 77 10000 3.6 290 07:20 10.06.2022
1639 Clouds 17 1020 74 10000 3.09 300 06:43 10.06.2022
1640 Clouds 17 1020 74 10000 3.09 300 06:24 10.06.2022
1641 Clouds 17 1016 73 10000 3.58 280 03:50 10.06.2022
1642 Clouds 17 1023 77 10000 4.12 310 01:41 10.06.2022
1643 Clouds 18 1024 75 9656 4.63 10 00:27 10.06.2022
1644 Thunderstorm 21 1013 55 6437 6.17 30 23:28 09.06.2022
1645 Clouds 22 1023 46 8047 2.06 150 21:58 09.06.2022
1646 Clouds 22 1018 47 9656 2.24 148 21:32 09.06.2022
1647 Clouds 21 1019 50 9656 5.14 120 20:54 09.06.2022
1648 Clouds 21 1019 50 9656 5.14 120 20:54 09.06.2022
1649 Clouds 22 1016 49 10000 2.24 80 19:59 09.06.2022
1650 Clouds 20 1026 56 10000 1.34 340 18:54 09.06.2022
1651 Clouds 20 1020 56 9656 3.09 250 18:21 09.06.2022
1652 Clouds 19 1016 64 10000 3.58 260 16:48 09.06.2022
1653 Clouds 17 1017 68 10000 1.79 340 15:48 09.06.2022
1654 Clouds 17 1019 73 10000 1.54 20 14:35 09.06.2022
1655 Clouds 17 1017 69 10000 2.68 350 13:48 09.06.2022
1656 Clouds 17 1019 74 10000 3.09 350 13:27 09.06.2022
1657 Clouds 17 1016 69 10000 1.79 40 11:54 09.06.2022
1658 Clouds 17 1016 72 10000 0.89 60 10:53 09.06.2022
1659 Clouds 17 1016 78 10000 2.24 20 09:42 09.06.2022
1660 Clouds 18 1019 76 10000 2.57 20 09:23 09.06.2022
1661 Clouds 18 1019 79 9656 1.54 0 07:44 09.06.2022
1662 Clouds 18 1015 82 10000 4.02 230 05:47 09.06.2022
1663 Rain 19 1022 72 8047 10.29 50 02:20 09.06.2022
1664 Clouds 26 1014 32 10000 3.09 90 23:34 08.06.2022
1665 Clouds 26 1022 27 10000 2.68 130 22:56 08.06.2022
1666 Clouds 26 1015 31 10000 3.09 130 22:26 08.06.2022
1667 Clouds 26 1014 32 10000 1.34 320 21:52 08.06.2022
1668 Clouds 26 1021 30 8047 2.06 20 20:57 08.06.2022
1669 Clouds 24 1024 38 10000 1.34 360 19:50 08.06.2022
1670 Clouds 24 1018 42 8047 1.54 360 19:18 08.06.2022
1671 Clouds 23 1018 46 8047 2.68 30 18:42 08.06.2022
1672 Clouds 18 1019 57 6437 3.09 90 16:34 08.06.2022
1673 Clouds 16 1019 65 6437 3.6 80 15:27 08.06.2022
1674 Clouds 16 1018 63 8047 2.57 70 13:37 08.06.2022
1675 Clouds 19 1015 51 10000 2.68 360 11:51 08.06.2022
1676 Clouds 19 1017 53 8047 3.09 360 11:24 08.06.2022
1677 Clouds 19 1016 51 10000 3.58 310 09:47 08.06.2022
1678 Clouds 19 1018 54 8047 3.6 310 09:20 08.06.2022
1679 Clouds 19 1018 60 9656 2.06 100 08:18 08.06.2022
1680 Thunderstorm 19 1017 65 9656 3.09 180 05:36 08.06.2022
1681 Clouds 26 1014 32 10000 6.17 120 02:39 08.06.2022
1682 Clouds 29 1014 14 10000 3.09 50 00:21 08.06.2022
1683 Clouds 29 1015 13 10000 2.06 260 23:25 07.06.2022
1684 Clouds 28 1015 14 9656 3.6 60 22:42 07.06.2022
1685 Clouds 27 1023 11 10000 1.34 50 21:59 07.06.2022
1686 Clouds 27 1017 14 8047 1.54 50 21:27 07.06.2022
1687 Clouds 24 1014 16 10000 2.24 323 20:46 07.06.2022
1688 Clouds 24 1017 15 8047 2.06 280 20:24 07.06.2022
1689 Clouds 23 1018 21 8047 0.45 286 19:24 07.06.2022
1690 Clouds 21 1005 42 10000 1.34 11 17:57 07.06.2022
1691 Clouds 19 1019 40 9656 1.54 60 17:19 07.06.2022
1692 Clouds 19 1015 45 9656 2.06 90 16:39 07.06.2022
1693 Clouds 17 1015 48 10000 3.09 70 15:42 07.06.2022
1694 Clouds 16 1015 49 10000 3.09 70 15:23 07.06.2022
1695 Clouds 15 1014 51 10000 2.06 60 14:46 07.06.2022
1696 Clear 15 1014 50 10000 2.06 60 13:50 07.06.2022
1697 Clear 15 1014 49 10000 2.06 60 13:29 07.06.2022
1698 Clear 16 1013 49 10000 2.57 80 12:39 07.06.2022
1699 Clear 16 1013 46 10000 2.06 70 11:22 07.06.2022
1700 Clear 17 1016 41 10000 1.54 60 10:19 07.06.2022
1701 Clear 19 1017 36 10000 3.09 30 08:36 07.06.2022
1702 Clear 20 1018 34 10000 3.09 60 07:22 07.06.2022
1703 Clear 22 1017 26 10000 5.14 50 05:48 07.06.2022
1704 Clouds 27 1019 10 10000 7.2 10 02:48 07.06.2022
1705 Clouds 29 1014 12 10000 7.2 350 00:35 07.06.2022
1706 Clouds 29 1014 13 10000 7.2 20 23:34 06.06.2022
1707 Clouds 28 1015 14 10000 5.14 20 22:41 06.06.2022
1708 Clouds 27 1016 14 10000 5.66 20 21:41 06.06.2022
1709 Clouds 26 1017 19 9656 4.63 270 20:19 06.06.2022
1710 Clouds 24 1018 22 9656 1.54 150 19:23 06.06.2022
1711 Clouds 23 1018 24 9656 0.45 5 18:46 06.06.2022
1712 Clouds 22 1006 35 9656 0.45 300 17:51 06.06.2022
1713 Clouds 19 1015 46 10000 4.12 70 16:39 06.06.2022
1714 Clouds 18 1018 41 10000 2.57 330 15:40 06.06.2022
1715 Clouds 17 1015 43 10000 1.79 20 14:56 06.06.2022
1716 Clouds 17 1017 42 10000 0 0 13:31 06.06.2022
1717 Clouds 17 1017 41 10000 2.06 70 12:44 06.06.2022
1718 Clouds 17 1017 39 10000 2.06 70 12:26 06.06.2022
1719 Clouds 17 1017 39 10000 0 0 11:45 06.06.2022
1720 Clouds 20 1017 40 10000 2.57 310 09:43 06.06.2022
1721 Clouds 20 1017 39 10000 2.57 320 08:35 06.06.2022
1722 Clouds 20 1018 37 10000 4.12 20 07:41 06.06.2022
1723 Clouds 22 1014 38 10000 5.81 30 05:48 06.06.2022
1724 Clouds 24 1021 25 10000 6.17 60 03:47 06.06.2022
1725 Clouds 27 1013 18 10000 5.14 20 01:30 06.06.2022
1726 Clouds 27 1018 24 10000 5.14 320 00:43 06.06.2022
1727 Clouds 27 1014 21 10000 5.14 320 00:19 06.06.2022
1728 Clouds 28 1021 20 10000 5.81 30 22:58 05.06.2022
1729 Clouds 27 1022 21 10000 3.09 360 21:56 05.06.2022
1730 Clouds 24 1024 29 10000 5.14 10 20:23 05.06.2022
1731 Clouds 22 1018 41 9656 2.06 260 18:47 05.06.2022
1732 Clouds 21 1015 48 10000 1.79 90 17:58 05.06.2022
1733 Clear 21 1018 48 9656 2.06 90 17:38 05.06.2022
1734 Clear 21 1018 48 9656 2.06 90 17:19 05.06.2022
1735 Clouds 18 1024 48 10000 1.34 40 16:46 05.06.2022
1736 Clouds 16 1016 58 10000 3.58 70 14:59 05.06.2022
1737 Clouds 16 1014 64 10000 1.79 70 13:55 05.06.2022
1738 Clouds 17 1015 59 10000 3.58 60 11:57 05.06.2022
1739 Clouds 18 1013 59 10000 2.24 310 10:45 05.06.2022
1740 Clouds 18 1017 58 9656 2.57 310 10:24 05.06.2022
1741 Clouds 19 1018 55 10000 0.89 329 09:21 05.06.2022
1742 Clouds 19 1018 52 10000 3.6 360 08:22 05.06.2022
1743 Clouds 22 1017 44 10000 6.17 40 05:24 05.06.2022
1744 Clouds 22 1016 43 10000 7.2 60 04:36 05.06.2022
1745 Clouds 26 1014 27 10000 6.17 360 02:19 05.06.2022
1746 Smoke 27 1014 22 10000 5.14 340 01:23 05.06.2022
1747 Smoke 27 1014 22 10000 5.14 340 01:23 05.06.2022
1748 Clouds 27 1013 25 10000 7.15 40 22:48 04.06.2022
1749 Clouds 26 1017 27 10000 3.09 70 21:24 04.06.2022
1750 Clouds 22 1024 36 8047 2.06 270 18:58 04.06.2022
1751 Clouds 19 1008 53 10000 1.54 60 16:48 04.06.2022
1752 Clouds 16 1020 51 10000 1.54 60 16:20 04.06.2022
1753 Clouds 14 1016 61 10000 3.6 90 15:35 04.06.2022
1754 Clouds 14 1015 63 10000 3.6 80 13:57 04.06.2022
1755 Clear 15 1018 61 10000 2.57 70 11:28 04.06.2022
1756 Clear 16 1016 58 10000 0.45 340 10:52 04.06.2022
1757 Clear 16 1019 54 10000 3.6 50 09:46 04.06.2022
1758 Clear 18 1019 50 10000 4.12 320 08:59 04.06.2022
1759 Clear 18 1019 51 10000 4.12 320 08:37 04.06.2022
1760 Clear 19 1019 47 10000 5.14 360 06:25 04.06.2022
1761 Clear 22 1016 35 10000 8.75 40 03:37 04.06.2022
1762 Clouds 27 1015 16 10000 5.66 360 00:21 04.06.2022
1763 Clear 25 1022 27 10000 5.36 30 22:56 03.06.2022
1764 Clear 24 1023 16 10000 6.71 40 21:52 03.06.2022
1765 Clouds 23 1018 30 10000 3.09 40 20:40 03.06.2022
1766 Clouds 22 1019 38 10000 3.6 50 19:33 03.06.2022
1767 Clouds 18 1024 56 10000 2.24 244 16:56 03.06.2022
1768 Clear 14 1024 71 10000 2.68 80 15:52 03.06.2022
1769 Clouds 15 1016 72 10000 2.68 50 13:58 03.06.2022
1770 Clouds 16 1016 64 10000 1.79 30 11:54 03.06.2022
1771 Clouds 16 1017 65 10000 2.68 40 09:56 03.06.2022
1772 Clouds 16 1019 65 10000 3.09 40 09:29 03.06.2022
1773 Clouds 18 1020 58 10000 4.63 360 07:45 03.06.2022
1774 Clouds 18 1017 58 10000 4.47 30 06:49 03.06.2022
1775 Clouds 18 1019 57 10000 4.63 30 06:27 03.06.2022
1776 Clouds 22 1020 38 10000 9.26 360 02:58 03.06.2022
1777 Clouds 25 1016 32 10000 4.12 30 23:39 02.06.2022
1778 Clear 24 1015 33 10000 4.92 10 21:58 02.06.2022
1779 Clouds 23 1018 34 10000 3.6 10 20:38 02.06.2022
1780 Clouds 21 1007 44 10000 1.79 343 19:55 02.06.2022
1781 Clouds 21 1016 42 10000 5.14 40 19:37 02.06.2022
1782 Clouds 20 1008 48 10000 2.06 350 18:41 02.06.2022
1783 Clouds 16 1019 59 10000 4.12 80 16:28 02.06.2022
1784 Clear 16 1016 61 10000 2.24 50 15:47 02.06.2022
1785 Clouds 15 1018 66 10000 3.09 360 13:31 02.06.2022
1786 Clear 15 1016 65 10000 3.58 340 12:49 02.06.2022
1787 Clouds 16 1018 65 10000 3.6 360 10:36 02.06.2022
1788 Clouds 16 1019 65 10000 4.12 30 09:29 02.06.2022
1789 Clouds 17 1019 62 10000 5.14 360 08:44 02.06.2022
1790 Clouds 17 1019 62 10000 5.14 360 08:23 02.06.2022
1791 Clouds 18 1018 57 10000 6.17 20 06:21 02.06.2022
1792 Clouds 21 1016 44 10000 7.2 50 03:50 02.06.2022
1793 Clouds 22 1019 43 10000 8.75 10 00:47 02.06.2022
1794 Clouds 26 1002 36 10000 6.69 30 22:57 01.06.2022
1795 Clouds 25 1022 29 10000 4.02 270 21:59 01.06.2022
1796 Clouds 25 1016 32 10000 4.12 270 21:24 01.06.2022
1797 Clouds 24 1017 35 10000 3.6 310 20:38 01.06.2022
1798 Clouds 23 1022 36 10000 4.63 60 19:51 01.06.2022
1799 Clouds 20 1018 48 10000 2.24 325 18:28 01.06.2022
1800 Clouds 18 1007 64 10000 1.79 86 16:56 01.06.2022
1801 Clear 16 1016 66 10000 3.6 90 15:42 01.06.2022
1802 Clear 15 1015 74 10000 2.57 30 14:46 01.06.2022
1803 Clear 14 1015 73 10000 3.09 60 13:18 01.06.2022
1804 Clear 16 1018 61 10000 1.54 340 10:44 01.06.2022
1805 Clear 16 1018 62 10000 2.57 70 09:28 01.06.2022
1806 Clouds 18 1024 55 10000 4.47 110 07:59 01.06.2022
1807 Clouds 19 1017 50 10000 4.63 110 07:20 01.06.2022
1808 Clouds 21 1013 40 10000 3.58 60 03:55 01.06.2022
1809 Clouds 26 1018 28 10000 7.72 80 23:47 31.05.2022
1810 Clouds 27 1014 23 10000 7.2 330 22:38 31.05.2022
1811 Clouds 27 1014 23 10000 7.2 330 22:19 31.05.2022
1812 Clouds 26 1015 26 10000 1.54 300 21:23 31.05.2022
1813 Clouds 25 1015 28 10000 2.06 290 20:43 31.05.2022
1814 Clouds 23 1016 34 10000 2.06 280 19:22 31.05.2022
1815 Clouds 21 1017 41 9656 1.79 327 18:19 31.05.2022
1816 Clouds 20 1013 46 10000 2.57 120 17:37 31.05.2022
1817 Clouds 17 1012 51 10000 2.57 100 15:45 31.05.2022
1818 Clouds 16 1016 53 10000 2.57 100 15:22 31.05.2022
1819 Clouds 17 1015 49 10000 3.09 40 12:41 31.05.2022
1820 Clouds 18 1015 47 10000 3.09 40 12:18 31.05.2022
1821 Clouds 18 1015 47 10000 3.09 50 10:22 31.05.2022
1822 Clouds 20 1014 34 10000 4.02 340 07:46 31.05.2022
1823 Clouds 21 1015 37 10000 5.14 30 06:19 31.05.2022
1824 Clouds 22 1013 38 10000 6.17 80 03:49 31.05.2022
1825 Clouds 28 1008 19 10000 5.81 20 23:45 30.05.2022
1826 Clouds 28 1011 18 10000 6.17 20 23:23 30.05.2022
1827 Clouds 27 1012 17 10000 6.17 20 22:33 30.05.2022
1828 Clouds 27 1013 19 10000 2.06 20 21:40 30.05.2022
1829 Clouds 25 1010 33 10000 1.79 20 20:43 30.05.2022
1830 Clouds 25 1014 33 9656 2.57 100 19:40 30.05.2022
1831 Clouds 21 1019 49 10000 2.06 120 17:53 30.05.2022
1832 Clouds 21 1015 51 10000 2.06 120 17:20 30.05.2022
1833 Clouds 19 1015 59 10000 3.09 90 15:51 30.05.2022
1834 Clouds 17 1015 61 10000 3.09 80 13:26 30.05.2022
1835 Clouds 18 1015 65 10000 2.06 150 11:39 30.05.2022
1836 Clouds 18 1013 59 10000 4.92 140 09:45 30.05.2022
1837 Clouds 20 1016 53 10000 5.14 150 07:34 30.05.2022
1838 Clouds 22 1012 44 10000 4.92 160 05:54 30.05.2022
1839 Clouds 25 1013 33 10000 5.14 140 03:22 30.05.2022
1840 Clouds 26 1019 22 10000 4.02 10 23:58 29.05.2022
1841 Clouds 26 1014 23 10000 4.12 30 22:40 29.05.2022
1842 Clouds 25 1013 28 10000 2.68 250 21:44 29.05.2022
1843 Clouds 24 1016 31 10000 7.2 360 20:21 29.05.2022
1844 Clouds 22 1017 38 10000 2.68 343 19:28 29.05.2022
1845 Clouds 19 1023 48 10000 1.79 50 17:56 29.05.2022
1846 Clouds 17 1017 59 10000 2.57 80 16:20 29.05.2022
1847 Clouds 17 1014 62 10000 3.6 70 15:41 29.05.2022
1848 Clouds 15 1014 66 10000 2.06 80 14:49 29.05.2022
1849 Clouds 16 1017 61 10000 2.06 20 12:33 29.05.2022
1850 Clouds 17 1017 58 10000 2.06 80 11:19 29.05.2022
1851 Clouds 18 1024 48 10000 4.12 310 09:54 29.05.2022
1852 Clouds 18 1016 52 10000 4.92 50 07:55 29.05.2022
1853 Clouds 20 1022 45 10000 4.63 60 04:58 29.05.2022
1854 Clouds 22 1017 36 10000 7.72 40 04:32 29.05.2022
1855 Clouds 27 1021 25 10000 7.6 360 00:53 29.05.2022
1856 Clouds 27 1022 24 10000 4.92 340 23:47 28.05.2022
1857 Clouds 27 1016 21 10000 5.14 340 23:18 28.05.2022
1858 Clouds 26 1023 31 10000 4.92 339 21:52 28.05.2022
1859 Clouds 23 1026 27 10000 3.58 350 20:46 28.05.2022
1860 Clouds 21 1020 37 10000 4.12 50 19:19 28.05.2022
1861 Clouds 20 1026 41 10000 3.6 350 18:21 28.05.2022
1862 Clouds 18 1021 51 10000 4.12 40 17:30 28.05.2022
1863 Clouds 14 1020 63 10000 2.24 346 15:45 28.05.2022
1864 Clouds 15 1020 63 10000 2.06 340 15:19 28.05.2022
1865 Clear 14 1020 66 10000 1.54 80 13:29 28.05.2022
1866 Clear 14 1020 62 10000 0 0 12:42 28.05.2022
1867 Clear 15 1020 59 10000 2.06 320 11:28 28.05.2022
1868 Clear 16 1020 59 10000 2.06 300 10:34 28.05.2022
1869 Clouds 17 1018 58 10000 2.24 300 09:46 28.05.2022
1870 Clouds 18 1020 56 10000 4.92 310 07:56 28.05.2022
1871 Clouds 19 1021 48 10000 5.14 320 06:33 28.05.2022
1872 Clouds 21 1025 40 10000 7.2 20 04:43 28.05.2022
1873 Clouds 27 1023 23 10000 11.62 50 01:46 28.05.2022
1874 Clouds 27 1024 13 10000 8.49 340 23:55 27.05.2022
1875 Clear 27 1019 15 10000 8.23 10 22:38 27.05.2022
1876 Clear 27 1020 15 10000 8.75 20 21:22 27.05.2022
1877 Clear 26 1020 18 10000 7.72 70 20:42 27.05.2022
1878 Clear 25 1021 19 10000 7.72 30 20:18 27.05.2022
1879 Clear 24 1021 26 10000 9.26 360 19:36 27.05.2022
1880 Clear 22 1022 30 10000 4.12 360 19:18 27.05.2022
1881 Clouds 18 1023 52 9656 5.66 30 16:43 27.05.2022
1882 Clouds 16 1023 58 9656 3.6 340 15:47 27.05.2022
1883 Clear 16 1022 60 9656 2.57 330 14:47 27.05.2022
1884 Clouds 16 1022 61 9656 4.47 355 13:40 27.05.2022
1885 Clouds 17 1019 54 10000 4.02 360 11:53 27.05.2022
1886 Clouds 17 1021 54 10000 4.12 360 11:27 27.05.2022
1887 Clouds 17 1021 53 10000 3.6 10 10:37 27.05.2022
1888 Clouds 18 1020 47 10000 4.02 20 09:52 27.05.2022
1889 Clouds 18 1022 48 10000 4.12 20 09:28 27.05.2022
1890 Clouds 21 1019 36 10000 1.79 321 06:58 27.05.2022
1891 Clouds 26 1015 21 10000 10.28 40 02:59 27.05.2022
1892 Clouds 29 1023 9 10000 7.15 20 00:57 27.05.2022
1893 Clouds 29 1017 19 10000 7.2 70 23:23 26.05.2022
1894 Clouds 26 1016 24 10000 3.58 10 21:48 26.05.2022
1895 Clouds 25 1027 27 10000 2.24 360 20:59 26.05.2022
1896 Clouds 22 1022 38 6437 2.57 320 19:30 26.05.2022
1897 Clouds 21 1023 50 6437 1.79 35 18:24 26.05.2022
1898 Clouds 19 1019 58 6437 2.06 220 17:34 26.05.2022
1899 Clouds 17 1010 71 10000 3.58 5 15:58 26.05.2022
1900 Clouds 16 1021 66 8047 1.54 80 15:18 26.05.2022
1901 Clouds 16 1017 68 10000 3.58 70 13:46 26.05.2022
1902 Clouds 17 1020 67 9656 3.6 290 11:47 26.05.2022
1903 Clouds 18 1020 72 10000 3.6 280 10:39 26.05.2022
1904 Clouds 19 1020 56 10000 3.09 320 09:37 26.05.2022
1905 Clouds 19 1020 56 10000 4.12 340 08:38 26.05.2022
1906 Clouds 21 1018 46 10000 10.29 40 05:26 26.05.2022
1907 Clouds 28 1015 16 10000 6.17 340 02:19 26.05.2022
1908 Clouds 28 1016 18 10000 5.14 10 23:41 25.05.2022
1909 Clouds 27 1021 18 10000 3.09 360 22:51 25.05.2022
1910 Clouds 26 1018 21 9656 5.66 40 21:39 25.05.2022
1911 Clouds 25 1018 25 8047 2.06 60 20:43 25.05.2022
1912 Clouds 24 1019 34 8047 3.6 10 19:32 25.05.2022
1913 Clouds 23 1019 39 8047 3.6 40 18:23 25.05.2022
1914 Clouds 18 1016 56 9656 2.06 80 16:42 25.05.2022
1915 Clouds 18 1016 57 9656 2.06 80 16:21 25.05.2022
1916 Clouds 16 1016 64 9656 0.89 178 15:24 25.05.2022
1917 Clouds 15 1015 67 9656 1.54 20 14:38 25.05.2022
1918 Clouds 15 1018 65 9656 1.54 20 14:19 25.05.2022
1919 Clear 16 1006 68 10000 0.89 164 12:52 25.05.2022
1920 Clouds 16 1023 59 10000 0.45 176 11:31 25.05.2022
1921 Clear 16 1014 62 10000 0 0 10:22 25.05.2022
1922 Clouds 18 1024 52 10000 1.5 172 08:45 25.05.2022
1923 Clouds 19 1024 45 10000 2.68 340 07:23 25.05.2022
1924 Clouds 19 1018 49 10000 3.09 20 05:23 25.05.2022
1925 Thunderstorm 18 1022 59 8047 6.17 230 00:31 25.05.2022
1926 Thunderstorm 23 1020 29 8047 4.12 290 23:47 24.05.2022
1927 Rain 22 1020 40 8047 7.2 300 22:53 24.05.2022
1928 Clouds 26 1014 28 10000 3.58 250 21:46 24.05.2022
1929 Clouds 25 1016 28 9656 3.6 250 21:22 24.05.2022
1930 Clouds 26 1017 27 8047 3.09 310 20:44 24.05.2022
1931 Clear 23 1023 38 8047 0.89 86 18:59 24.05.2022
1932 Clear 19 1019 55 8047 1.54 80 17:19 24.05.2022
1933 Clear 17 1016 61 9656 3.6 60 16:29 24.05.2022
1934 Clear 15 1018 68 10000 2.06 200 15:27 24.05.2022
1935 Clouds 14 1014 74 9656 2.57 210 14:36 24.05.2022
1936 Clouds 15 1017 75 10000 2.57 210 13:34 24.05.2022
1937 Clouds 15 1017 71 10000 0 0 12:18 24.05.2022
1938 Clouds 16 1025 63 10000 0.89 180 09:50 24.05.2022
1939 Rain 16 1019 67 10000 1.54 160 08:51 24.05.2022
1940 Clouds 16 1020 66 10000 1.54 230 07:32 24.05.2022
1941 Clouds 15 1021 69 10000 2.57 280 06:27 24.05.2022
1942 Rain 16 1025 73 9656 5.14 280 02:58 24.05.2022
1943 Rain 18 1023 60 8047 5.14 270 01:44 24.05.2022
1944 Thunderstorm 21 1014 44 8047 12.86 90 00:21 24.05.2022
1945 Clouds 27 1017 25 8047 3.09 80 22:24 23.05.2022
1946 Clouds 26 1016 29 10000 2.24 50 21:45 23.05.2022
1947 Clear 25 1017 33 10000 4.02 100 20:45 23.05.2022
1948 Clear 24 1027 36 10000 1.34 30 19:47 23.05.2022
1949 Clear 24 1027 36 6437 1.54 30 19:18 23.05.2022
1950 Clear 23 1027 40 6437 1.54 210 18:40 23.05.2022
1951 Clear 21 1027 44 6437 1.54 80 17:56 23.05.2022
1952 Clear 18 1027 55 6437 0 0 15:55 23.05.2022
1953 Mist 16 1027 63 6437 2.57 260 14:18 23.05.2022
1954 Clouds 15 1027 62 10000 2.68 70 11:52 23.05.2022
1955 Clear 15 1027 62 8047 3.6 60 10:47 23.05.2022
1956 Clouds 17 1028 55 9656 2.06 100 09:47 23.05.2022
1957 Clouds 18 1028 59 9656 3.09 30 08:46 23.05.2022
1958 Clouds 18 1028 59 9656 3.09 30 08:46 23.05.2022
1959 Clouds 18 1029 59 9656 4.12 20 07:24 23.05.2022
1960 Clouds 18 1029 63 10000 3.6 70 06:39 23.05.2022
1961 Clouds 21 1028 35 10000 3.09 350 03:27 23.05.2022
1962 Clouds 24 1012 36 10000 2.48 168 01:52 23.05.2022
1963 Clouds 20 1027 45 10000 6.17 220 01:26 23.05.2022
1964 Dust 22 1028 35 6437 10.29 80 22:49 22.05.2022
1965 Dust 22 1028 35 6437 10.29 80 22:22 22.05.2022
1966 Clouds 29 1026 20 10000 1.79 300 21:51 22.05.2022
1967 Clouds 29 1027 20 8047 2.06 340 20:43 22.05.2022
1968 Clouds 27 1027 22 8047 2.06 150 20:20 22.05.2022
1969 Clear 27 1028 26 6437 1.54 80 19:19 22.05.2022
1970 Clear 25 1028 31 6437 1.03 180 18:46 22.05.2022
1971 Clear 25 1028 31 6437 1.03 180 18:21 22.05.2022
1972 Clear 22 1028 37 6437 0 0 16:51 22.05.2022
1973 Clear 17 1028 45 6437 2.57 80 15:25 22.05.2022
1974 Smoke 15 1027 55 8047 3.09 80 14:47 22.05.2022
1975 Clear 18 1026 45 10000 1.34 80 12:55 22.05.2022
1976 Clear 18 1026 45 9656 1.54 80 12:33 22.05.2022
1977 Clear 20 1026 42 10000 2.24 60 10:53 22.05.2022
1978 Clouds 21 1027 40 9656 1.54 90 09:31 22.05.2022
1979 Clouds 23 1022 33 9656 5.14 300 07:49 22.05.2022
1980 Clouds 23 1021 33 9656 5.14 300 07:20 22.05.2022
1981 Clouds 26 1025 24 9656 5.66 120 04:30 22.05.2022
1982 Clouds 30 1022 15 9656 4.12 90 01:19 22.05.2022
1983 Clear 31 1023 11 10000 4.47 120 23:57 21.05.2022
1984 Clouds 31 1023 11 9656 4.63 120 23:29 21.05.2022
1985 Clear 29 1025 16 10000 2.24 80 21:59 21.05.2022
1986 Clear 29 1025 16 8047 2.57 80 21:38 21.05.2022
1987 Clear 28 1025 17 10000 2.68 270 20:47 21.05.2022
1988 Clear 28 1025 17 8047 1.54 90 19:59 21.05.2022
1989 Clear 26 1026 19 8047 2.57 280 19:21 21.05.2022
1990 Clear 23 1026 31 6437 1.54 320 17:29 21.05.2022
1991 Clear 18 1025 39 10000 0.82 180 14:58 21.05.2022
1992 Clouds 18 1025 39 6437 0 0 14:24 21.05.2022
1993 Clouds 20 1024 37 8047 1.54 140 13:34 21.05.2022
1994 Clouds 20 1023 37 8047 2.06 260 12:39 21.05.2022
1995 Clouds 20 1023 37 8047 2.06 270 11:45 21.05.2022
1996 Clouds 21 1023 35 8047 0 0 10:22 21.05.2022
1997 Clouds 22 1024 30 8047 1.54 180 09:18 21.05.2022
1998 Clouds 23 1024 29 9656 2.57 230 08:39 21.05.2022
1999 Clouds 24 1023 27 10000 5.81 120 06:21 21.05.2022
2000 Clouds 29 1020 25 10000 3.77 242 01:59 21.05.2022
2001 Clouds 28 1022 16 9656 2.24 40 23:36 20.05.2022
2002 Clouds 28 1022 17 10000 2.24 40 22:41 20.05.2022
2003 Clouds 28 1022 17 9656 2.57 40 22:18 20.05.2022
2004 Clouds 28 1022 20 9656 4.63 40 21:19 20.05.2022
2005 Clouds 27 1023 21 10000 2.24 330 20:47 20.05.2022
2006 Clear 26 1024 24 8047 1.54 150 19:54 20.05.2022
2007 Clouds 24 1005 37 10000 1.34 144 18:58 20.05.2022
2008 Clear 23 1018 34 8047 3.09 70 18:23 20.05.2022
2009 Clear 19 1023 45 9656 2.57 20 16:27 20.05.2022
2010 Clouds 18 1024 48 10000 1.34 100 15:54 20.05.2022
2011 Clear 18 1018 50 9656 1.54 100 15:20 20.05.2022
2012 Clear 17 1017 52 9656 3.09 110 14:27 20.05.2022
2013 Clouds 18 1016 50 10000 2.57 110 12:45 20.05.2022
2014 Clouds 19 1013 46 10000 0.89 250 10:48 20.05.2022
2015 Clouds 19 1014 49 10000 1.54 250 09:31 20.05.2022
2016 Clouds 19 1015 51 10000 1.34 254 08:27 20.05.2022
2017 Clouds 20 1015 47 10000 6.17 30 06:43 20.05.2022
2018 Clouds 21 1022 37 10000 8.75 60 05:40 20.05.2022
2019 Smoke 27 1020 22 9656 7.2 170 02:41 20.05.2022
2020 Clouds 30 1014 12 10000 3.13 299 23:47 19.05.2022
2021 Clouds 29 1016 15 10000 4.12 110 22:36 19.05.2022
2022 Clouds 28 1023 11 10000 3.58 88 21:50 19.05.2022
2023 Clouds 28 1017 14 10000 2.57 90 21:24 19.05.2022
2024 Clouds 28 1022 15 10000 2.06 260 20:52 19.05.2022
2025 Clouds 25 1025 25 10000 2.68 330 19:54 19.05.2022
2026 Clear 25 1018 25 10000 3.09 330 19:18 19.05.2022
2027 Clouds 22 1026 35 10000 2.24 90 17:46 19.05.2022
2028 Clouds 19 1020 41 9656 1.54 140 15:58 19.05.2022
2029 Clear 17 1016 47 8047 2.06 60 14:49 19.05.2022
2030 Clear 17 1016 48 8047 2.06 60 14:20 19.05.2022
2031 Clouds 18 1026 39 10000 2.68 90 11:55 19.05.2022
2032 Clouds 19 1020 40 9656 3.09 80 10:31 19.05.2022
2033 Clouds 21 1021 30 10000 2.57 50 08:46 19.05.2022
2034 Clouds 22 1021 30 10000 4.63 30 07:24 19.05.2022
2035 Clouds 25 1023 24 10000 6.17 40 03:52 19.05.2022
2036 Clouds 28 1024 13 10000 2.68 40 00:58 19.05.2022
2037 Clouds 29 1018 14 10000 4.12 360 23:43 18.05.2022
2038 Clouds 28 1019 15 10000 3.09 20 22:44 18.05.2022
2039 Clouds 27 1017 17 10000 4.47 50 21:45 18.05.2022
2040 Clear 27 1020 16 10000 4.63 50 21:23 18.05.2022
2041 Clear 26 1026 19 9656 2.57 330 20:21 18.05.2022
2042 Clear 24 1027 23 9656 2.24 350 18:56 18.05.2022
2043 Clear 22 1010 34 10000 1.79 28 17:57 18.05.2022
2044 Clear 21 1019 35 9656 1.34 60 17:36 18.05.2022
2045 Clear 21 1023 34 9656 0.45 108 17:18 18.05.2022
2046 Clear 20 1010 40 9656 1.54 60 15:58 18.05.2022
2047 Clear 18 1019 37 9656 1.54 60 15:35 18.05.2022
2048 Clear 15 1019 45 10000 2.06 70 14:21 18.05.2022
2049 Clouds 18 1010 41 10000 0.86 195 12:55 18.05.2022
2050 Clouds 16 1018 42 10000 1.54 80 12:24 18.05.2022
2051 Clouds 17 1019 40 10000 2.57 50 11:33 18.05.2022
2052 Clouds 18 1019 37 10000 2.68 40 10:43 18.05.2022
2053 Clouds 21 1023 23 10000 3.09 10 08:19 18.05.2022
2054 Clouds 21 1023 21 10000 1.03 0 07:27 18.05.2022
2055 Clouds 27 1025 10 10000 5.14 10 03:40 18.05.2022
2056 Clouds 28 1024 8 10000 4.12 50 00:51 18.05.2022
2057 Clouds 27 1020 10 10000 5.14 50 23:33 17.05.2022
2058 Clouds 26 1022 16 10000 2.57 190 21:21 17.05.2022
2059 Clouds 25 1022 17 9656 3.09 80 20:43 17.05.2022
2060 Clear 24 1023 23 9656 1.79 62 19:31 17.05.2022
2061 Clear 24 1023 27 9656 1.54 180 18:46 17.05.2022
2062 Clear 21 1024 34 9656 2.57 50 17:34 17.05.2022
2063 Clouds 19 1021 39 9656 2.06 70 16:57 17.05.2022
2064 Clear 19 1012 45 10000 0.45 81 15:58 17.05.2022
2065 Clear 17 1011 50 10000 0.47 183 14:55 17.05.2022
2066 Clear 15 1020 46 9656 1.34 167 14:28 17.05.2022
2067 Clear 14 1019 45 10000 2.57 70 12:39 17.05.2022
2068 Clear 17 1023 44 10000 1.54 70 10:39 17.05.2022
2069 Clouds 19 1029 37 10000 2.24 20 08:51 17.05.2022
2070 Clouds 19 1029 37 10000 2.68 20 07:55 17.05.2022
2071 Clear 20 1022 37 10000 7.2 20 06:23 17.05.2022
2072 Clouds 28 1018 5 10000 5.14 330 01:23 17.05.2022
2073 Clouds 27 1024 3 10000 4.12 340 23:44 16.05.2022
2074 Clear 26 1020 5 10000 3.09 340 22:33 16.05.2022
2075 Clear 26 1021 8 10000 5.14 20 21:24 16.05.2022
2076 Clear 24 1022 12 10000 2.57 70 20:42 16.05.2022
2077 Clear 23 1028 16 10000 2.06 130 18:51 16.05.2022
2078 Clear 19 1023 29 9656 2.06 80 17:18 16.05.2022
2079 Clear 19 1023 29 9656 2.06 80 17:18 16.05.2022
2080 Clear 15 1020 38 10000 2.57 60 15:29 16.05.2022
2081 Clouds 16 1010 42 10000 0.89 82 13:48 16.05.2022
2082 Clear 15 1018 39 10000 2.57 70 12:41 16.05.2022
2083 Clouds 16 1021 41 10000 3.09 80 10:36 16.05.2022
2084 Clear 20 1028 39 10000 2.24 330 07:59 16.05.2022
2085 Clouds 21 1021 28 10000 6.71 40 05:46 16.05.2022
2086 Clouds 27 1017 14 10000 5.14 10 01:43 16.05.2022
2087 Clouds 27 1019 14 10000 4.12 340 22:44 15.05.2022
2088 Clear 26 1026 14 10000 7.6 50 21:59 15.05.2022
2089 Clouds 26 1020 16 10000 7.72 50 21:36 15.05.2022
2090 Clear 26 1020 17 10000 4.12 50 20:43 15.05.2022
2091 Clear 22 1018 26 10000 3.58 346 18:39 15.05.2022
2092 Clear 20 1010 38 10000 2.06 90 16:54 15.05.2022
2093 Clouds 14 1017 45 10000 3.09 70 14:33 15.05.2022
2094 Clouds 17 1008 36 10000 0.89 81 13:46 15.05.2022
2095 Clouds 15 1025 30 10000 2.06 70 11:59 15.05.2022
2096 Clouds 19 1026 20 10000 2.24 280 10:49 15.05.2022
2097 Clouds 19 1023 18 10000 1.54 250 09:51 15.05.2022
2098 Clouds 21 1021 23 10000 4.12 360 07:23 15.05.2022
2099 Clouds 21 1026 15 10000 3.58 20 06:55 15.05.2022
2100 Clouds 27 1022 13 10000 7.15 360 02:54 15.05.2022
2101 Clouds 28 1016 13 10000 9.26 30 00:24 15.05.2022
2102 Clouds 29 1017 12 10000 5.14 20 23:36 14.05.2022
2103 Clear 26 1019 14 10000 3.6 50 21:50 14.05.2022
2104 Clear 26 1019 14 10000 3.6 50 21:26 14.05.2022
2105 Clear 25 1020 15 10000 3.6 20 20:26 14.05.2022
2106 Clear 24 1020 24 10000 0.89 40 19:20 14.05.2022
2107 Clear 23 1025 24 10000 0 0 18:57 14.05.2022
2108 Clear 20 1017 35 10000 1.54 80 17:44 14.05.2022
2109 Clouds 18 1008 42 10000 0.89 95 15:58 14.05.2022
2110 Clouds 15 1017 47 10000 0.89 34 14:38 14.05.2022
2111 Clouds 15 1016 42 10000 2.06 60 13:27 14.05.2022
2112 Clouds 17 1006 44 10000 0.95 33 11:46 14.05.2022
2113 Clear 17 1016 42 10000 2.57 70 10:44 14.05.2022
2114 Clear 17 1016 42 10000 2.57 70 10:18 14.05.2022
2115 Clear 18 1020 37 10000 2.57 40 09:23 14.05.2022
2116 Clear 20 1020 37 10000 2.06 20 07:32 14.05.2022
2117 Clouds 23 1017 20 10000 9.26 50 04:35 14.05.2022
2118 Clouds 28 1016 12 10000 3.6 330 00:27 14.05.2022
2119 Clouds 27 1017 12 10000 7.2 10 23:25 13.05.2022
2120 Clouds 27 1024 8 10000 5.36 60 22:55 13.05.2022
2121 Clouds 27 1018 10 10000 5.66 60 22:21 13.05.2022
2122 Clouds 25 1025 20 10000 2.24 320 20:59 13.05.2022
2123 Clouds 25 1019 21 10000 3.58 346 20:37 13.05.2022
2124 Clouds 25 1019 22 10000 2.57 320 20:19 13.05.2022
2125 Clouds 23 1025 30 10000 3.6 300 18:56 13.05.2022
2126 Clouds 19 1021 41 10000 1.34 76 17:42 13.05.2022
2127 Clouds 19 1021 42 10000 0.89 129 17:22 13.05.2022
2128 Clouds 15 1026 54 10000 1.79 90 15:46 13.05.2022
2129 Clear 15 1020 56 10000 1.54 180 14:39 13.05.2022
2130 Clouds 14 1025 58 10000 1.79 60 12:53 13.05.2022
2131 Clouds 14 1025 58 10000 2.24 30 11:56 13.05.2022
2132 Clouds 15 1025 54 10000 4.12 60 09:55 13.05.2022
2133 Clouds 17 1021 54 10000 2.06 300 09:29 13.05.2022
2134 Clouds 18 1027 34 10000 1.79 360 07:52 13.05.2022
2135 Clouds 18 1021 41 10000 2.06 360 07:18 13.05.2022
2136 Clouds 20 1021 39 10000 7.2 30 05:23 13.05.2022
2137 Clouds 27 1023 11 10000 4.92 360 00:59 13.05.2022
2138 Clear 27 1024 11 10000 4.92 230 22:59 12.05.2022
2139 Clear 27 1019 14 10000 5.14 230 22:34 12.05.2022
2140 Clear 24 1021 21 10000 3.58 30 21:24 12.05.2022
2141 Clear 22 1026 25 10000 2.57 60 19:51 12.05.2022
2142 Clear 19 1023 43 10000 3.09 320 18:27 12.05.2022
2143 Clouds 16 1021 59 10000 2.06 70 16:44 12.05.2022
2144 Clear 13 1028 66 10000 2.24 40 14:57 12.05.2022
2145 Clear 14 1020 69 10000 2.24 40 13:50 12.05.2022
2146 Clear 14 1028 62 10000 2.24 360 11:55 12.05.2022
2147 Clear 15 1022 61 10000 2.57 360 10:32 12.05.2022
2148 Clear 16 1029 59 10000 3.58 360 08:53 12.05.2022
2149 Clear 16 1023 60 10000 3.6 360 08:35 12.05.2022
2150 Clear 17 1024 52 10000 3.6 20 07:25 12.05.2022
2151 Clouds 21 1022 33 10000 8.23 50 04:32 12.05.2022
2152 Clouds 24 1019 21 10000 6.17 50 01:30 12.05.2022
2153 Clouds 25 1020 27 10000 7.2 350 23:18 11.05.2022
2154 Clouds 25 1021 34 10000 6.17 50 22:18 11.05.2022
2155 Clouds 24 1022 33 10000 6.71 10 21:25 11.05.2022
2156 Clouds 23 1022 41 10000 5.14 340 20:20 11.05.2022
2157 Clouds 17 1021 61 10000 4.12 30 17:37 11.05.2022
2158 Clouds 17 1024 61 10000 4.63 40 16:27 11.05.2022
2159 Clear 15 1028 67 10000 2.24 290 14:48 11.05.2022
2160 Clear 15 1028 67 9656 2.57 290 14:25 11.05.2022
2161 Clouds 16 1028 59 10000 2.24 350 12:54 11.05.2022
2162 Clouds 17 1027 59 10000 2.68 300 11:48 11.05.2022
2163 Clear 18 1029 59 9656 4.63 320 09:30 11.05.2022
2164 Clouds 21 1022 44 10000 3.6 340 06:36 11.05.2022
2165 Clouds 28 1017 8 10000 11.32 30 02:18 11.05.2022
2166 Clouds 30 1024 11 10000 4.92 60 22:58 10.05.2022
2167 Clouds 30 1018 12 10000 5.14 60 22:30 10.05.2022
2168 Clouds 28 1019 13 10000 4.63 360 21:40 10.05.2022
2169 Clouds 27 1020 16 10000 4.12 50 20:34 10.05.2022
2170 Clouds 25 1026 20 10000 2.57 20 18:49 10.05.2022
2171 Clouds 23 1021 33 10000 1.54 20 17:38 10.05.2022
2172 Clouds 20 1018 39 10000 1.54 70 16:35 10.05.2022
2173 Clouds 22 1023 30 10000 3.58 140 13:31 10.05.2022
2174 Clouds 21 1016 40 10000 3.58 140 11:54 10.05.2022
2175 Clouds 21 1016 40 10000 3.58 140 11:32 10.05.2022
2176 Clouds 20 1006 51 10000 0.89 164 10:56 10.05.2022
2177 Clouds 22 1024 30 10000 3.58 140 09:36 10.05.2022
2178 Clouds 22 1024 30 10000 3.58 140 08:18 10.05.2022
2179 Clouds 22 1019 34 10000 3.6 140 06:20 10.05.2022
2180 Clouds 26 1021 26 10000 9.26 130 01:54 10.05.2022
2181 Clouds 30 1015 17 10000 3.09 260 23:45 09.05.2022
2182 Clouds 29 1016 19 10000 5.14 40 22:35 09.05.2022
2183 Clouds 28 1017 21 10000 2.06 100 21:38 09.05.2022
2184 Clear 27 1023 21 9656 3.6 240 19:56 09.05.2022
2185 Clear 24 1019 35 8047 1.54 330 18:25 09.05.2022
2186 Clear 21 1016 47 8047 2.57 70 17:25 09.05.2022
2187 Clouds 20 1016 49 8047 2.57 80 16:18 09.05.2022
2188 Clouds 20 1005 52 9656 2.57 60 15:47 09.05.2022
2189 Clear 17 1018 57 8047 0.45 116 14:36 09.05.2022
2190 Clouds 17 1024 59 10000 1.34 300 13:57 09.05.2022
2191 Clouds 17 1024 55 10000 1.79 50 12:55 09.05.2022
2192 Clouds 18 1024 52 10000 0.45 165 11:52 09.05.2022
2193 Clouds 19 1024 52 10000 1.34 300 10:47 09.05.2022
2194 Clouds 19 1018 53 10000 1.54 300 10:20 09.05.2022
2195 Clouds 20 1026 42 10000 1.34 90 07:56 09.05.2022
2196 Thunderstorm 20 1022 50 10000 3.6 180 04:52 09.05.2022
2197 Clouds 29 1014 19 10000 2.57 10 00:30 09.05.2022
2198 Clouds 30 1015 17 10000 3.09 300 23:28 08.05.2022
2199 Clouds 29 1016 20 10000 5.14 40 22:29 08.05.2022
2200 Clouds 28 1024 20 10000 4.02 27 20:54 08.05.2022
2201 Clear 28 1017 22 9656 1.54 350 20:22 08.05.2022
2202 Clear 26 1018 26 9656 2.06 360 19:32 08.05.2022
2203 Clear 24 1019 34 9656 2.06 120 18:35 08.05.2022
2204 Clear 21 1019 44 9656 0 0 17:22 08.05.2022
2205 Clear 21 1005 51 9656 0.45 150 15:46 08.05.2022
2206 Clear 18 1018 54 9656 0.89 120 15:21 08.05.2022
2207 Clouds 19 1014 53 10000 0.89 280 12:46 08.05.2022
2208 Clouds 20 1024 45 10000 1.34 130 10:56 08.05.2022
2209 Clouds 20 1017 48 10000 1.54 130 10:22 08.05.2022
2210 Clouds 20 1026 49 10000 4.47 200 09:51 08.05.2022
2211 Clouds 20 1018 48 10000 5.14 220 07:41 08.05.2022
2212 Clouds 21 1019 42 10000 4.12 110 05:22 08.05.2022
2213 Thunderstorm 26 1016 27 10000 6.69 170 03:20 08.05.2022
2214 Clouds 30 1015 14 10000 4.12 310 00:31 08.05.2022
2215 Clear 30 1023 21 10000 4.02 320 23:54 07.05.2022
2216 Clear 29 1024 17 10000 2.24 150 22:58 07.05.2022
2217 Clouds 29 1018 18 10000 2.57 150 22:34 07.05.2022
2218 Clouds 29 1018 21 9656 2.57 230 21:44 07.05.2022
2219 Clouds 27 1019 22 9656 1.54 210 21:20 07.05.2022
2220 Clear 25 1027 36 10000 0.45 21 19:59 07.05.2022
2221 Clear 22 1018 47 9656 2.06 180 18:38 07.05.2022
2222 Clear 18 1009 67 10000 0.45 170 15:58 07.05.2022
2223 Clouds 16 1008 77 10000 2.06 340 14:46 07.05.2022
2224 Clouds 16 1016 70 10000 2.06 280 11:19 07.05.2022
2225 Clouds 16 1017 69 10000 3.09 340 09:39 07.05.2022
2226 Clouds 16 1022 67 10000 10.28 240 07:54 07.05.2022
2227 Rain 16 1021 75 8047 12.35 240 06:44 07.05.2022
2228 Rain 16 1023 75 8047 4.12 250 05:34 07.05.2022
2229 Thunderstorm 16 1016 84 3219 8.23 270 03:32 07.05.2022
2230 Clouds 29 1016 18 8047 2.57 50 23:39 06.05.2022
2231 Clouds 29 1017 20 8047 5.66 60 22:33 06.05.2022
2232 Clouds 28 1018 23 8047 4.63 30 21:47 06.05.2022
2233 Clouds 28 1019 26 8047 2.06 360 20:37 06.05.2022
2234 Clear 26 1020 29 8047 2.57 240 19:42 06.05.2022
2235 Clear 25 1020 29 8047 2.57 240 19:19 06.05.2022
2236 Clouds 24 1016 33 8047 2.57 100 18:24 06.05.2022
2237 Clouds 22 1007 43 9656 1.54 90 16:57 06.05.2022
2238 Clouds 21 1006 47 10000 0.89 105 15:47 06.05.2022
2239 Clouds 20 1006 48 10000 1.79 161 14:54 06.05.2022
2240 Clouds 18 1019 48 10000 2.06 50 13:26 06.05.2022
2241 Clouds 18 1018 45 10000 2.06 60 12:40 06.05.2022
2242 Clouds 19 1015 45 10000 1.34 40 11:49 06.05.2022
2243 Clouds 19 1025 45 10000 2.57 60 10:34 06.05.2022
2244 Clouds 21 1016 42 10000 1.79 100 09:46 06.05.2022
2245 Clouds 21 1019 39 10000 0.45 309 08:43 06.05.2022
2246 Clouds 23 1024 31 10000 1.34 280 06:50 06.05.2022
2247 Clouds 23 1026 31 10000 4.12 350 05:37 06.05.2022
2248 Clouds 29 1021 19 10000 7.2 80 02:51 06.05.2022
2249 Clouds 30 1015 16 9656 4.12 80 01:31 06.05.2022
2250 Clouds 29 1017 18 8047 2.68 333 22:32 05.05.2022
2251 Clouds 28 1018 18 8047 4.12 30 21:22 05.05.2022
2252 Clear 28 1024 20 8047 1.79 323 19:55 05.05.2022
2253 Clouds 24 1020 27 8047 2.57 330 18:35 05.05.2022
2254 Clouds 20 1017 37 8047 1.54 70 16:35 05.05.2022
2255 Clouds 18 1006 45 10000 0.45 159 14:51 05.05.2022
2256 Clouds 17 1018 39 8047 0.45 159 13:24 05.05.2022
2257 Clouds 18 1024 36 10000 1.79 210 12:49 05.05.2022
2258 Clouds 20 1025 34 10000 0.89 134 10:48 05.05.2022
2259 Clear 20 1019 39 9656 2.06 120 09:40 05.05.2022
2260 Clear 22 1020 35 9656 2.57 40 07:35 05.05.2022
2261 Clouds 23 1025 28 10000 2.57 250 05:19 05.05.2022
2262 Clouds 28 1022 17 10000 4.12 190 01:56 05.05.2022
2263 Clouds 28 1015 20 10000 4.12 190 01:27 05.05.2022
2264 Clouds 29 1023 16 10000 2.68 120 23:50 04.05.2022
2265 Clouds 30 1017 18 9656 3.09 140 22:42 04.05.2022
2266 Clouds 30 1017 18 9656 3.09 140 22:42 04.05.2022
2267 Clouds 27 1022 19 9656 3.58 350 21:50 04.05.2022
2268 Clouds 27 1018 21 9656 3.6 350 21:29 04.05.2022
2269 Clouds 27 1018 22 9656 1.79 60 20:25 04.05.2022
2270 Clear 25 1026 25 10000 2.24 50 19:53 04.05.2022
2271 Clear 24 1019 29 8047 2.57 60 18:56 04.05.2022
2272 Clear 24 1019 30 8047 2.57 60 18:22 04.05.2022
2273 Clouds 22 1019 35 8047 2.57 40 17:42 04.05.2022
2274 Clouds 18 1015 47 10000 1.54 60 15:41 04.05.2022
2275 Clouds 17 1015 49 10000 1.54 60 15:23 04.05.2022
2276 Clouds 17 1015 50 10000 2.57 60 14:21 04.05.2022
2277 Clear 17 1018 43 10000 3.09 60 13:33 04.05.2022
2278 Clear 18 1018 41 10000 2.06 210 12:33 04.05.2022
2279 Clear 20 1018 34 10000 0.45 334 10:41 04.05.2022
2280 Clouds 21 1019 33 10000 2.06 320 09:43 04.05.2022
2281 Clouds 21 1016 34 10000 1.34 340 08:47 04.05.2022
2282 Clouds 23 1016 34 10000 2.24 20 06:47 04.05.2022
2283 Clouds 28 1022 15 10000 2.68 330 02:59 04.05.2022
2284 Clouds 28 1016 18 8047 2.06 40 00:38 04.05.2022
2285 Clouds 28 1018 20 8047 2.06 210 22:37 03.05.2022
2286 Clouds 27 1016 21 10000 2.68 10 21:46 03.05.2022
2287 Clouds 26 1026 19 10000 2.68 120 20:54 03.05.2022
2288 Clouds 25 1025 27 9656 1.54 310 19:59 03.05.2022
2289 Clouds 24 1008 31 10000 1.34 59 18:54 03.05.2022
2290 Clouds 22 1021 28 8047 2.06 80 18:21 03.05.2022
2291 Clouds 20 1017 37 10000 0.89 42 16:44 03.05.2022
2292 Clouds 19 1017 40 9656 1.54 200 15:38 03.05.2022
2293 Clouds 18 1025 34 10000 1.79 160 12:47 03.05.2022
2294 Clouds 18 1018 37 10000 2.06 160 12:27 03.05.2022
2295 Clouds 19 1025 37 10000 1.32 216 10:57 03.05.2022
2296 Clouds 21 1025 22 10000 2.57 250 09:35 03.05.2022
2297 Clouds 22 1020 22 10000 4.12 230 07:33 03.05.2022
2298 Clouds 23 1009 23 10000 4.92 220 06:45 03.05.2022
2299 Clouds 28 1020 16 9656 4.12 330 01:47 03.05.2022
2300 Clouds 29 1017 18 9656 2.06 140 22:39 02.05.2022
2301 Clouds 27 1025 18 10000 2.68 170 21:54 02.05.2022
2302 Clouds 27 1026 21 10000 1.79 125 20:51 02.05.2022
2303 Clear 23 1021 32 9656 3.09 90 18:44 02.05.2022
2304 Clear 23 1021 32 9656 3.09 90 18:25 02.05.2022
2305 Clear 21 1027 37 9656 0 0 17:37 02.05.2022
2306 Clear 19 1020 44 10000 1.03 180 16:23 02.05.2022
2307 Clear 17 1020 50 10000 2.06 200 15:31 02.05.2022
2308 Clouds 17 1016 47 10000 2.68 80 13:52 02.05.2022
2309 Clear 17 1019 46 10000 0.45 330 12:20 02.05.2022
2310 Clear 18 1024 45 10000 0.45 72 10:51 02.05.2022
2311 Clear 19 1019 33 10000 2.06 180 09:29 02.05.2022
2312 Clouds 21 1026 46 10000 4.02 270 07:51 02.05.2022
2313 Clouds 24 1017 32 10000 4.12 180 04:36 02.05.2022
2314 Clouds 26 1016 27 10000 5.14 180 00:25 02.05.2022
2315 Clouds 26 1016 29 10000 7.2 140 23:52 01.05.2022
2316 Clouds 26 1017 21 10000 3.09 120 22:33 01.05.2022
2317 Clouds 26 1018 23 10000 3.6 60 21:22 01.05.2022
2318 Clouds 24 1019 24 10000 2.06 360 20:19 01.05.2022
2319 Clouds 22 1026 40 10000 1.79 130 18:59 01.05.2022
2320 Clouds 22 1020 38 9656 2.06 130 18:39 01.05.2022
2321 Clouds 20 1020 44 9656 2.06 360 17:38 01.05.2022
2322 Clouds 19 1020 41 9656 2.06 310 16:23 01.05.2022
2323 Clouds 17 1019 55 9656 1.79 300 15:36 01.05.2022
2324 Clouds 17 1023 63 10000 3.58 140 13:47 01.05.2022
2325 Clouds 19 1022 48 10000 2.57 180 11:28 01.05.2022
2326 Clouds 20 1017 38 10000 2.57 220 09:32 01.05.2022
2327 Clouds 20 1018 38 10000 3.09 260 08:42 01.05.2022
2328 Clouds 23 1015 35 10000 7.72 60 03:44 01.05.2022
2329 Clouds 26 1014 27 10000 4.63 200 00:29 01.05.2022
2330 Clouds 26 1023 26 10000 2.68 220 21:49 30.04.2022
2331 Haze 26 1017 28 8047 3.09 220 21:18 30.04.2022
2332 Haze 25 1018 31 8047 2.06 40 19:42 30.04.2022
2333 Haze 22 1019 39 8047 1.03 40 18:28 30.04.2022
2334 Clouds 20 1007 54 10000 0.89 66 16:50 30.04.2022
2335 Clouds 18 1006 58 10000 1.79 171 15:48 30.04.2022
2336 Clouds 16 1023 48 10000 1.79 230 14:53 30.04.2022
2337 Clouds 16 1016 57 10000 2.06 300 13:20 30.04.2022
2338 Clouds 16 1016 60 10000 0 0 11:34 30.04.2022
2339 Clouds 17 1024 55 10000 1.79 110 10:49 30.04.2022
2340 Clouds 18 1023 52 10000 1.79 250 09:48 30.04.2022
2341 Clouds 19 1023 45 10000 1.79 130 06:48 30.04.2022
2342 Clouds 21 1020 37 10000 9.26 230 02:55 30.04.2022
2343 Clouds 26 1015 26 8047 1.54 300 23:37 29.04.2022
2344 Clouds 26 1016 27 8047 2.68 71 22:31 29.04.2022
2345 Clouds 25 1023 23 10000 2.68 110 21:53 29.04.2022
2346 Clouds 24 1018 33 9656 2.06 20 20:49 29.04.2022
2347 Clouds 23 1019 37 9656 2.06 20 19:47 29.04.2022
2348 Haze 20 1020 44 8047 1.03 280 18:36 29.04.2022
2349 Haze 18 1020 60 8047 3.09 80 17:25 29.04.2022
2350 Clear 17 1008 68 9656 2.06 80 15:50 29.04.2022
2351 Clear 14 1015 78 10000 2.06 80 14:23 29.04.2022
2352 Clouds 15 1015 74 10000 2.06 60 13:22 29.04.2022
2353 Clouds 15 1024 67 10000 1.79 180 11:50 29.04.2022
2354 Clouds 16 1008 67 10000 0.89 241 08:53 29.04.2022
2355 Clouds 14 1027 77 10000 3.6 70 07:28 29.04.2022
2356 Clouds 15 1018 76 10000 11.32 60 06:45 29.04.2022
2357 Clouds 21 1024 36 10000 1.79 333 04:53 29.04.2022
2358 Clouds 25 1021 20 10000 5.14 10 00:45 29.04.2022
2359 Clouds 25 1022 20 10000 2.06 320 23:28 28.04.2022
2360 Clouds 25 1023 23 10000 2.06 60 22:41 28.04.2022
2361 Clouds 24 1025 27 10000 3.58 30 21:47 28.04.2022
2362 Clouds 24 1019 28 9656 3.6 30 21:21 28.04.2022
2363 Clouds 22 1017 33 8047 3.09 320 20:35 28.04.2022
2364 Clouds 22 1010 43 10000 1.34 116 19:45 28.04.2022
2365 Clouds 21 1021 42 8047 2.57 70 19:22 28.04.2022
2366 Clouds 20 1019 50 8047 2.06 70 18:36 28.04.2022
2367 Clear 18 1019 63 9656 2.06 70 17:24 28.04.2022
2368 Clear 16 1022 74 9656 2.24 38 16:40 28.04.2022
2369 Clear 16 1022 74 9656 0.45 72 16:18 28.04.2022
2370 Clear 14 1019 80 10000 0.45 119 15:28 28.04.2022
2371 Clear 13 1018 84 10000 1.54 90 14:19 28.04.2022
2372 Clouds 13 1018 84 10000 0 0 12:44 28.04.2022
2373 Clouds 14 1011 82 10000 0.53 279 11:58 28.04.2022
2374 Clouds 13 1012 82 10000 0.45 55 10:46 28.04.2022
2375 Clouds 14 1012 83 10000 0.89 74 09:54 28.04.2022
2376 Clouds 13 1021 83 10000 0 0 08:31 28.04.2022
2377 Clouds 13 1024 82 10000 2.57 190 07:19 28.04.2022
2378 Rain 13 1028 77 10000 2.57 180 05:56 28.04.2022
2379 Rain 12 1022 91 9656 3.09 260 05:38 28.04.2022
2380 Thunderstorm 12 1021 90 9656 3.09 290 04:39 28.04.2022
2381 Clouds 25 1018 25 10000 4.12 320 00:30 28.04.2022
2382 Clear 23 1018 33 10000 1.34 180 22:39 27.04.2022
2383 Clouds 23 1025 30 10000 1.54 180 21:54 27.04.2022
2384 Clouds 22 1026 31 10000 3.09 70 20:59 27.04.2022
2385 Clouds 22 1023 34 10000 3.09 70 20:37 27.04.2022
2386 Clouds 19 1028 39 10000 4.12 30 19:37 27.04.2022
2387 Clouds 19 1024 42 10000 1.54 30 18:56 27.04.2022
2388 Clouds 17 1025 47 10000 1.54 30 18:22 27.04.2022
2389 Clouds 15 1024 59 10000 2.06 340 16:29 27.04.2022
2390 Clouds 13 1024 69 10000 3.09 50 14:31 27.04.2022
2391 Clouds 13 1021 69 10000 3.58 340 11:45 27.04.2022
2392 Clouds 13 1024 69 10000 3.6 340 11:20 27.04.2022
2393 Clouds 13 1025 65 10000 3.6 330 09:19 27.04.2022
2394 Clear 15 1025 54 10000 3.58 344 07:18 27.04.2022
2395 Clouds 18 1022 42 10000 5.14 20 04:30 27.04.2022
2396 Clouds 20 1021 36 10000 3.6 360 01:32 27.04.2022
2397 Clouds 20 1021 38 10000 3.09 40 00:36 27.04.2022
2398 Clouds 20 1027 34 10000 6.17 50 23:25 26.04.2022
2399 Clouds 23 1013 33 10000 5.5 35 22:58 26.04.2022
2400 Clouds 19 1028 42 10000 7.2 40 22:39 26.04.2022
2401 Clouds 20 1028 37 10000 8.23 40 21:26 26.04.2022
2402 Clouds 20 1028 37 10000 8.23 40 21:26 26.04.2022
2403 Rain 21 1028 37 10000 5.14 30 20:41 26.04.2022
2404 Clouds 20 1029 42 10000 4.02 30 19:53 26.04.2022
2405 Clouds 20 1024 45 10000 4.12 30 19:32 26.04.2022
2406 Clouds 20 1024 50 10000 3.6 20 18:44 26.04.2022
2407 Clouds 17 1013 63 10000 1.79 84 17:54 26.04.2022
2408 Clouds 16 1028 63 8047 2.06 330 16:48 26.04.2022
2409 Clouds 15 1011 74 10000 0.89 309 13:59 26.04.2022
2410 Clouds 14 1018 72 10000 3.6 80 13:32 26.04.2022
2411 Clouds 15 1017 60 10000 3.58 50 11:49 26.04.2022
2412 Clouds 16 1020 58 10000 2.06 60 10:37 26.04.2022
2413 Clouds 17 1020 54 10000 2.24 323 09:25 26.04.2022
2414 Clouds 18 1020 52 10000 2.24 300 07:22 26.04.2022
2415 Clouds 18 1015 53 10000 0.89 144 04:23 26.04.2022
2416 Clouds 26 1016 21 10000 5.81 50 01:25 26.04.2022
2417 Clouds 28 1015 20 10000 3.09 20 00:26 26.04.2022
2418 Clouds 26 1017 20 10000 3.09 20 22:33 25.04.2022
2419 Clouds 25 1018 26 10000 2.06 60 21:40 25.04.2022
2420 Clear 25 1018 27 9656 3.09 150 20:39 25.04.2022
2421 Clear 22 1020 38 9656 1.54 290 18:55 25.04.2022
2422 Clear 20 1025 45 9656 1.34 339 17:52 25.04.2022
2423 Clear 19 1009 55 10000 0.89 46 16:55 25.04.2022
2424 Clouds 16 1016 60 10000 0.45 344 15:29 25.04.2022
2425 Clear 15 1016 65 10000 1.54 80 14:38 25.04.2022
2426 Clouds 15 1015 65 10000 2.06 90 13:32 25.04.2022
2427 Clouds 16 1015 63 10000 3.09 50 11:37 25.04.2022
2428 Clouds 16 1015 61 10000 0 0 10:23 25.04.2022
2429 Clouds 17 1015 59 10000 0.89 145 08:35 25.04.2022
2430 Clouds 16 1018 55 10000 2.68 37 06:39 25.04.2022
2431 Thunderstorm 18 1015 62 10000 4.12 160 03:47 25.04.2022
2432 Clouds 27 1013 20 10000 5.14 340 00:43 25.04.2022
2433 Clouds 28 1013 20 10000 5.14 30 23:51 24.04.2022
2434 Clouds 27 1015 21 10000 3.6 280 22:41 24.04.2022
2435 Clouds 27 1015 22 10000 4.02 327 22:18 24.04.2022
2436 Clouds 26 1016 25 10000 4.02 65 21:24 24.04.2022
2437 Clear 25 1013 27 10000 2.24 50 20:48 24.04.2022
2438 Clear 25 1016 28 9656 2.57 50 20:22 24.04.2022
2439 Clear 23 1017 37 9656 3.58 313 19:19 24.04.2022
2440 Clear 22 1017 42 9656 1.79 43 18:20 24.04.2022
2441 Clear 20 1018 47 9656 2.57 210 17:27 24.04.2022
2442 Clear 18 1024 55 10000 0.45 93 16:58 24.04.2022
2443 Clear 18 1015 57 9656 1.34 65 16:30 24.04.2022
2444 Clear 18 1005 63 10000 0.89 130 15:53 24.04.2022
2445 Clear 15 1023 62 10000 1.08 179 14:57 24.04.2022
2446 Clear 16 1014 61 10000 1.79 100 13:45 24.04.2022
2447 Clear 16 1017 61 10000 2.06 100 13:23 24.04.2022
2448 Clear 17 1004 57 10000 0.45 254 11:55 24.04.2022
2449 Clear 16 1013 57 10000 3.09 70 11:22 24.04.2022
2450 Clear 17 1022 48 10000 3.09 60 09:51 24.04.2022
2451 Clear 19 1018 43 10000 0 0 08:31 24.04.2022
2452 Clouds 21 1015 34 10000 4.47 60 05:46 24.04.2022
2453 Clouds 24 1020 18 10000 7.72 310 02:59 24.04.2022
2454 Clouds 26 1010 19 10000 5.81 360 00:55 24.04.2022
2455 Clouds 27 1015 22 10000 8.23 20 23:55 23.04.2022
2456 Clouds 27 1015 23 10000 2.57 360 23:25 23.04.2022
2457 Clouds 26 1017 24 10000 5.14 40 22:42 23.04.2022
2458 Clouds 25 1024 27 10000 4.47 50 21:48 23.04.2022
2459 Clouds 25 1018 27 9656 4.63 50 21:30 23.04.2022
2460 Clouds 24 1019 31 9656 1.54 210 20:27 23.04.2022
2461 Clear 23 1020 39 9656 2.24 321 19:21 23.04.2022
2462 Clear 22 1025 38 9656 2.57 270 18:54 23.04.2022
2463 Clear 20 1020 45 9656 1.54 250 18:32 23.04.2022
2464 Clouds 20 1009 54 10000 0.49 332 17:47 23.04.2022
2465 Clouds 18 1010 61 10000 0.89 146 16:46 23.04.2022
2466 Clouds 15 1025 67 9656 0.45 65 15:52 23.04.2022
2467 Clouds 15 1025 67 9656 0.45 65 15:52 23.04.2022
2468 Clouds 14 1017 77 9656 2.06 60 13:33 23.04.2022
2469 Clouds 14 1018 70 9656 2.06 50 11:30 23.04.2022
2470 Clear 15 1018 70 10000 3.6 80 10:32 23.04.2022
2471 Clear 17 1022 60 10000 3.09 310 08:27 23.04.2022
2472 Clouds 19 1021 50 10000 6.71 30 04:18 23.04.2022
2473 Clouds 20 1020 49 10000 8.75 50 03:27 23.04.2022
2474 Clouds 24 1019 27 10000 3.6 50 23:37 22.04.2022
2475 Clouds 24 1019 28 10000 3.6 50 23:18 22.04.2022
2476 Clouds 23 1027 33 10000 2.68 30 21:58 22.04.2022
2477 Clouds 23 1022 33 10000 3.09 30 21:39 22.04.2022
2478 Clouds 21 1027 40 10000 1.03 300 20:34 22.04.2022
2479 Clouds 20 1024 45 10000 3.6 30 19:26 22.04.2022
2480 Clouds 20 1029 45 10000 3.6 10 18:56 22.04.2022
2481 Clouds 18 1024 58 10000 2.57 70 18:24 22.04.2022
2482 Clouds 16 1013 70 10000 2.24 49 16:54 22.04.2022
2483 Clouds 15 1012 78 10000 0.89 146 15:58 22.04.2022
2484 Clouds 13 1023 78 10000 1.54 100 15:24 22.04.2022
2485 Clouds 12 1020 85 10000 3.09 240 14:38 22.04.2022
2486 Clouds 11 1030 87 10000 2.06 290 13:41 22.04.2022
2487 Clouds 11 1030 93 10000 2.06 180 12:36 22.04.2022
2488 Thunderstorm 10 1031 100 6437 5.14 360 11:23 22.04.2022
2489 Rain 11 1031 87 4828 10.8 360 10:56 22.04.2022
2490 Rain 15 1024 75 10000 3.09 320 10:32 22.04.2022
2491 Clouds 15 1002 72 10000 2.24 220 09:54 22.04.2022
2492 Rain 15 1023 74 10000 4.12 160 08:56 22.04.2022
2493 Rain 15 1023 74 10000 4.12 160 08:36 22.04.2022
2494 Thunderstorm 15 1014 75 10000 4.12 200 06:21 22.04.2022
2495 Clouds 27 1023 15 10000 2.68 90 00:56 22.04.2022
2496 Clouds 28 1018 18 10000 4.12 20 23:31 21.04.2022
2497 Clouds 27 1019 20 10000 5.14 10 22:36 21.04.2022
2498 Clouds 26 1020 25 10000 4.12 60 21:25 21.04.2022
2499 Clear 25 1021 29 9656 3.6 40 20:29 21.04.2022
2500 Clear 24 1022 34 10000 4.12 120 18:49 21.04.2022
2501 Clear 24 1027 32 10000 4.12 120 18:49 21.04.2022
2502 Clear 22 1028 37 10000 3.09 100 18:19 21.04.2022
2503 Clear 19 1023 49 9656 2.06 80 17:19 21.04.2022
2504 Clear 16 1021 61 10000 1.54 310 15:24 21.04.2022
2505 Clear 17 1010 59 10000 0.67 225 14:52 21.04.2022
2506 Clouds 17 1009 62 10000 0.89 254 13:59 21.04.2022
2507 Clouds 15 1017 65 10000 2.06 40 13:21 21.04.2022
2508 Clouds 17 1008 60 10000 0.45 205 11:46 21.04.2022
2509 Clouds 18 1016 49 10000 2.57 230 09:24 21.04.2022
2510 Clouds 18 1023 50 10000 2.57 200 08:29 21.04.2022
2511 Clouds 18 1023 56 10000 6.17 80 06:26 21.04.2022
2512 Rain 21 1017 35 10000 9.77 280 03:39 21.04.2022
2513 Rain 21 1017 35 10000 9.77 280 03:39 21.04.2022
2514 Rain 22 1017 28 10000 6.71 280 03:18 21.04.2022
2515 Rain 23 1024 27 10000 1.54 290 02:43 21.04.2022
2516 Clouds 26 1016 24 10000 6.17 260 00:27 21.04.2022
2517 Clouds 28 1017 22 10000 3.09 300 23:25 20.04.2022
2518 Clouds 28 1024 18 10000 3.58 300 22:58 20.04.2022
2519 Clouds 28 1018 20 10000 3.6 300 22:32 20.04.2022
2520 Clouds 27 1019 23 10000 4.12 290 21:35 20.04.2022
2521 Clouds 27 1020 25 10000 3.6 330 20:43 20.04.2022
2522 Clear 25 1021 27 10000 2.06 50 20:20 20.04.2022
2523 Clear 24 1021 31 10000 2.06 60 19:38 20.04.2022
2524 Clear 23 1022 35 10000 2.06 100 18:42 20.04.2022
2525 Clear 20 1011 52 10000 1.34 83 16:59 20.04.2022
2526 Clear 18 1022 55 10000 2.06 210 16:39 20.04.2022
2527 Clear 16 1010 68 10000 1.36 192 14:52 20.04.2022
2528 Clouds 15 1018 66 10000 0.45 69 12:18 20.04.2022
2529 Clouds 15 1021 63 10000 3.09 150 11:36 20.04.2022
2530 Clouds 16 1022 63 10000 2.57 90 10:30 20.04.2022
2531 Clouds 16 1022 63 10000 2.06 80 09:27 20.04.2022
2532 Clouds 17 1020 61 10000 1.34 75 08:25 20.04.2022
2533 Clouds 17 1020 61 10000 1.34 75 08:25 20.04.2022
2534 Clouds 17 1019 62 10000 2.57 90 07:44 20.04.2022
2535 Clouds 17 1022 65 10000 3.09 130 05:19 20.04.2022
2536 Clouds 22 1023 49 10000 5.14 180 01:20 20.04.2022
2537 Clouds 22 1023 49 10000 5.14 180 01:20 20.04.2022
2538 Clouds 25 1012 28 10000 5.14 150 00:21 20.04.2022
2539 Clouds 27 1018 26 10000 3.09 360 22:44 19.04.2022
2540 Clouds 27 1018 26 10000 3.09 360 22:22 19.04.2022
2541 Clouds 26 1019 28 9656 5.14 40 21:38 19.04.2022
2542 Clouds 26 1025 29 9656 4.02 57 20:57 19.04.2022
2543 Clouds 26 1020 32 9656 3.09 40 20:36 19.04.2022
2544 Clear 23 1021 37 8047 2.06 260 19:32 19.04.2022
2545 Clear 23 1022 43 9656 3.09 80 18:26 19.04.2022
2546 Clouds 19 1019 59 10000 1.79 223 16:47 19.04.2022
2547 Clouds 18 1022 60 9656 1.54 110 16:25 19.04.2022
2548 Clouds 16 1022 68 9656 2.06 80 15:23 19.04.2022
2549 Clouds 16 1022 71 10000 3.6 70 14:40 19.04.2022
2550 Clouds 16 1010 67 10000 2.24 320 12:52 19.04.2022
2551 Clouds 16 1016 68 10000 2.57 320 12:29 19.04.2022
2552 Clouds 16 1027 67 10000 2.06 300 11:23 19.04.2022
2553 Clouds 18 1023 55 10000 4.12 320 09:28 19.04.2022
2554 Clouds 18 1016 52 10000 3.6 10 07:37 19.04.2022
2555 Clouds 22 1014 40 10000 3.09 70 04:23 19.04.2022
2556 Thunderstorm 28 1016 21 10000 8.05 10 01:24 19.04.2022
2557 Clouds 30 1017 13 10000 4.12 60 23:44 18.04.2022
2558 Clouds 28 1024 13 10000 4.02 110 21:57 18.04.2022
2559 Clear 28 1019 15 10000 4.12 110 21:25 18.04.2022
2560 Clear 27 1020 17 10000 1.54 90 20:39 18.04.2022
2561 Clear 27 1024 21 10000 1.54 160 19:59 18.04.2022
2562 Clear 25 1020 21 9656 3.09 20 19:30 18.04.2022
2563 Clear 24 1020 25 10000 2.68 349 18:37 18.04.2022
2564 Clear 22 1020 28 10000 2.06 60 17:39 18.04.2022
2565 Clear 22 1020 27 10000 2.06 60 17:19 18.04.2022
2566 Clear 21 1020 31 10000 1.54 80 16:38 18.04.2022
2567 Clear 19 1019 35 10000 1.54 210 15:30 18.04.2022
2568 Clear 18 1019 36 10000 0 0 14:22 18.04.2022
2569 Clouds 20 1005 34 10000 1.79 337 12:54 18.04.2022
2570 Clouds 19 1015 34 10000 2.06 110 12:23 18.04.2022
2571 Clouds 20 1016 20 10000 1.34 90 10:46 18.04.2022
2572 Clouds 21 1016 28 10000 0.45 193 09:32 18.04.2022
2573 Clouds 21 1019 24 10000 2.57 60 08:46 18.04.2022
2574 Clouds 24 1016 26 10000 3.58 330 06:52 18.04.2022
2575 Clouds 30 1015 12 10000 6.17 330 02:29 18.04.2022
2576 Clouds 31 1016 12 10000 2.68 327 23:21 17.04.2022
2577 Clouds 30 1017 13 10000 5.14 100 22:36 17.04.2022
2578 Clear 29 1018 15 10000 3.09 10 21:34 17.04.2022
2579 Clear 28 1025 20 10000 2.68 240 20:51 17.04.2022
2580 Clear 28 1019 20 10000 3.09 240 20:18 17.04.2022
2581 Clouds 25 1016 24 10000 1.79 90 18:45 17.04.2022
2582 Clear 23 1020 29 10000 0.89 221 17:26 17.04.2022
2583 Smoke 19 1016 41 10000 1.54 60 15:34 17.04.2022
2584 Clouds 18 1006 43 10000 0.89 106 14:45 17.04.2022
2585 Clear 18 1015 36 10000 2.06 100 13:28 17.04.2022
2586 Clouds 20 1005 39 10000 0.89 132 12:45 17.04.2022
2587 Clear 21 1005 36 10000 1.54 50 10:51 17.04.2022
2588 Clouds 21 1016 29 10000 2.68 300 10:29 17.04.2022
2589 Clouds 22 1026 24 10000 2.68 300 09:51 17.04.2022
2590 Clear 22 1019 27 10000 3.09 300 09:20 17.04.2022
2591 Clouds 22 1020 25 10000 2.06 320 08:31 17.04.2022
2592 Clouds 24 1019 24 10000 9.26 50 05:33 17.04.2022
2593 Clouds 29 1022 17 10000 4.92 20 01:52 17.04.2022
2594 Clouds 30 1015 18 10000 5.14 50 00:37 17.04.2022
2595 Clouds 29 1016 19 10000 4.12 360 23:19 16.04.2022
2596 Clouds 28 1025 20 10000 2.68 320 21:47 16.04.2022
2597 Clouds 27 1026 24 10000 4.47 300 20:54 16.04.2022
2598 Clouds 25 1020 34 10000 3.6 40 19:24 16.04.2022
2599 Clear 24 1021 39 10000 1.34 36 18:43 16.04.2022
2600 Clear 22 1007 50 10000 1.54 50 16:51 16.04.2022
2601 Clouds 20 1007 56 10000 2.06 70 15:51 16.04.2022
2602 Clear 20 1006 54 10000 0.45 336 14:58 16.04.2022
2603 Clouds 17 1016 56 10000 4.12 70 14:37 16.04.2022
2604 Clouds 19 1016 51 10000 2.24 340 13:49 16.04.2022
2605 Clouds 19 1018 51 10000 2.06 30 12:43 16.04.2022
2606 Clouds 20 1018 49 10000 2.06 280 11:33 16.04.2022
2607 Clouds 20 1019 45 10000 2.57 290 10:33 16.04.2022
2608 Clouds 21 1019 43 10000 2.57 300 09:37 16.04.2022
2609 Clouds 21 1026 40 10000 2.24 350 08:51 16.04.2022
2610 Clouds 21 1019 42 10000 4.12 360 07:21 16.04.2022
2611 Clouds 23 1015 41 10000 5.81 60 04:58 16.04.2022
2612 Clouds 29 1015 20 10000 2.57 320 01:23 16.04.2022
2613 Clouds 28 1016 24 10000 3.09 290 23:45 15.04.2022
2614 Clouds 28 1024 23 10000 2.68 280 22:48 15.04.2022
2615 Clouds 28 1017 25 10000 3.09 280 22:28 15.04.2022
2616 Clouds 26 1018 29 10000 5.36 308 21:21 15.04.2022
2617 Clouds 25 1019 34 10000 2.57 330 20:38 15.04.2022
2618 Clouds 24 1020 36 10000 1.79 35 19:43 15.04.2022
2619 Clouds 23 1026 40 10000 2.24 110 18:58 15.04.2022
2620 Clouds 23 1020 41 9656 2.57 110 18:26 15.04.2022
2621 Clouds 21 1026 46 10000 1.79 83 17:57 15.04.2022
2622 Clouds 21 1020 47 10000 0.89 314 17:24 15.04.2022
2623 Clouds 19 1019 53 10000 0.89 321 16:24 15.04.2022
2624 Clouds 18 1015 56 10000 1.03 190 15:45 15.04.2022
2625 Clouds 17 1024 59 10000 2.68 80 13:55 15.04.2022
2626 Clouds 17 1024 59 10000 2.24 90 12:52 15.04.2022
2627 Clouds 18 1014 59 9656 2.57 90 12:24 15.04.2022
2628 Clouds 18 1024 55 10000 2.68 70 11:50 15.04.2022
2629 Clouds 19 1023 52 10000 2.68 290 10:46 15.04.2022
2630 Clouds 20 1023 49 10000 4.02 300 09:59 15.04.2022
2631 Clouds 20 1018 52 9656 4.12 300 09:22 15.04.2022
2632 Clouds 21 1018 49 10000 2.68 347 08:39 15.04.2022
2633 Clouds 21 1024 46 10000 2.68 10 06:48 15.04.2022
2634 Clouds 23 1016 43 10000 5.14 20 04:43 15.04.2022
2635 Clouds 28 1014 23 10000 3.09 360 00:34 15.04.2022
2636 Clouds 28 1014 24 10000 4.02 76 23:22 14.04.2022
2637 Clouds 27 1015 25 10000 4.12 340 22:45 14.04.2022
2638 Clouds 27 1015 25 10000 4.12 340 22:27 14.04.2022
2639 Clouds 26 1019 26 10000 3.58 80 21:50 14.04.2022
2640 Clouds 24 1018 55 9656 0.89 128 19:41 14.04.2022
2641 Clouds 24 1019 37 9656 0.89 116 19:20 14.04.2022
2642 Clouds 22 1006 49 10000 1.34 101 17:45 14.04.2022
2643 Clouds 21 1006 53 10000 2.57 90 16:51 14.04.2022
2644 Clouds 19 1006 51 10000 0.6 19 15:52 14.04.2022
2645 Clouds 17 1011 56 10000 1.79 40 13:53 14.04.2022
2646 Clouds 17 1015 56 10000 2.06 40 13:21 14.04.2022
2647 Clouds 17 1017 55 10000 2.06 50 12:32 14.04.2022
2648 Clouds 18 1023 48 10000 0 0 11:43 14.04.2022
2649 Clouds 18 1017 47 10000 0 0 11:18 14.04.2022
2650 Clouds 18 1017 47 10000 2.06 40 10:31 14.04.2022
2651 Clouds 19 1014 47 10000 0 0 09:30 14.04.2022
2652 Clouds 20 1018 61 10000 0.45 336 08:24 14.04.2022
2653 Clouds 23 1023 27 10000 2.24 130 05:57 14.04.2022
2654 Clouds 27 1020 19 10000 1.34 20 00:59 14.04.2022
2655 Clouds 27 1015 22 10000 1.54 100 22:38 13.04.2022
2656 Clouds 27 1015 22 10000 1.54 100 22:38 13.04.2022
2657 Clouds 26 1016 23 10000 2.68 224 21:43 13.04.2022
2658 Clouds 25 1014 26 10000 2.68 90 20:45 13.04.2022
2659 Clouds 24 1023 27 10000 2.06 190 19:54 13.04.2022
2660 Clouds 21 1019 37 10000 3.09 50 18:39 13.04.2022
2661 Clouds 20 1015 46 10000 3.6 70 17:41 13.04.2022
2662 Clouds 19 1019 47 10000 3.6 70 17:23 13.04.2022
2663 Clouds 17 1015 56 10000 3.09 120 16:18 13.04.2022
2664 Clouds 16 1015 61 10000 2.57 80 15:29 13.04.2022
2665 Clouds 15 1014 63 10000 3.09 80 14:43 13.04.2022
2666 Clouds 17 1005 52 10000 1.17 309 13:54 13.04.2022
2667 Clouds 18 1004 50 10000 0.45 74 12:57 13.04.2022
2668 Clear 17 1013 49 10000 1.54 300 12:19 13.04.2022
2669 Clouds 19 1023 42 10000 1.54 230 10:41 13.04.2022
2670 Clouds 20 1024 37 10000 1.79 190 08:49 13.04.2022
2671 Clouds 20 1018 39 10000 2.06 190 08:24 13.04.2022
2672 Clouds 21 1024 35 10000 4.02 240 06:50 13.04.2022
2673 Clouds 21 1018 37 10000 4.12 240 06:24 13.04.2022
2674 Clouds 25 1015 33 10000 6.17 180 02:27 13.04.2022
2675 Clouds 26 1015 29 10000 5.14 140 00:20 13.04.2022
2676 Clouds 26 1017 29 10000 5.14 160 22:36 12.04.2022
2677 Clouds 26 1024 26 10000 4.02 250 21:56 12.04.2022
2678 Clouds 25 1023 29 10000 3.6 30 20:49 12.04.2022
2679 Clouds 25 1023 29 10000 3.6 30 20:49 12.04.2022
2680 Clouds 25 1018 31 10000 4.47 60 20:22 12.04.2022
2681 Clouds 23 1019 36 9656 3.09 100 19:40 12.04.2022
2682 Clouds 23 1019 36 9656 3.09 100 19:18 12.04.2022
2683 Clouds 21 1020 44 10000 2.57 210 17:49 12.04.2022
2684 Clouds 19 1009 52 10000 1.79 190 16:48 12.04.2022
2685 Clouds 17 1019 55 10000 1.54 140 15:39 12.04.2022
2686 Clouds 17 1019 55 10000 1.54 140 15:20 12.04.2022
2687 Clouds 18 1024 45 10000 1.79 230 13:53 12.04.2022
2688 Clouds 18 1018 48 10000 2.06 230 13:27 12.04.2022
2689 Clouds 18 1018 48 10000 2.06 230 13:27 12.04.2022
2690 Clouds 18 1018 48 10000 2.57 210 12:26 12.04.2022
2691 Clouds 18 1019 51 10000 3.6 210 11:39 12.04.2022
2692 Clouds 19 1025 48 10000 1.79 310 09:59 12.04.2022
2693 Clouds 19 1025 48 10000 2.24 360 08:53 12.04.2022
2694 Clouds 20 1019 40 10000 3.6 30 07:21 12.04.2022
2695 Clouds 22 1018 31 10000 2.57 270 05:42 12.04.2022
2696 Rain 23 1016 31 10000 6.17 230 02:49 12.04.2022
2697 Clouds 28 1016 23 10000 5.14 220 23:25 11.04.2022
2698 Clouds 26 1016 28 9656 3.09 170 22:43 11.04.2022
2699 Clouds 25 1018 30 9656 3.09 80 21:35 11.04.2022
2700 Clouds 24 1020 32 9656 0.45 148 20:37 11.04.2022
2701 Clouds 24 1020 32 9656 0.89 90 20:19 11.04.2022
2702 Clouds 24 1020 35 9656 2.24 46 19:27 11.04.2022
2703 Clouds 21 1025 40 8047 0.89 331 18:56 11.04.2022
2704 Clouds 20 1010 52 10000 0.45 331 17:58 11.04.2022
2705 Clouds 19 1018 55 8047 2.06 80 17:39 11.04.2022
2706 Clouds 19 1018 55 8047 2.06 80 17:39 11.04.2022
2707 Clouds 16 1018 65 9656 2.57 80 16:36 11.04.2022
2708 Clouds 15 1010 67 10000 1.26 219 14:59 11.04.2022
2709 Clouds 14 1017 68 10000 1.54 60 13:37 11.04.2022
2710 Clouds 15 1017 66 10000 0 0 12:40 11.04.2022
2711 Clouds 15 1017 65 10000 0 0 12:21 11.04.2022
2712 Clouds 16 1020 59 10000 2.06 210 10:41 11.04.2022
2713 Clouds 16 1026 51 10000 1.34 200 09:57 11.04.2022
2714 Clouds 17 1026 48 10000 1.74 55 07:59 11.04.2022
2715 Thunderstorm 19 1020 48 10000 5.14 40 04:36 11.04.2022
2716 Clouds 25 1018 29 10000 6.17 180 23:30 10.04.2022
2717 Clouds 25 1016 29 9656 2.68 183 22:27 10.04.2022
2718 Clouds 25 1009 29 10000 1.34 70 21:52 10.04.2022
2719 Clouds 24 1025 27 10000 0.46 19 20:52 10.04.2022
2720 Clouds 23 1012 36 9656 0.89 122 19:57 10.04.2022
2721 Clouds 22 1019 40 8047 1.54 280 19:34 10.04.2022
2722 Clouds 20 1026 45 8047 1.79 13 18:48 10.04.2022
2723 Clouds 20 1026 45 8047 1.79 13 18:48 10.04.2022
2724 Clouds 20 1020 73 8047 2.24 80 18:25 10.04.2022
2725 Clouds 17 1020 56 8047 2.06 110 17:43 10.04.2022
2726 Clouds 17 1013 60 10000 0.45 69 16:52 10.04.2022
2727 Mist 13 1019 77 8047 1.54 220 15:38 10.04.2022
2728 Clouds 12 1019 82 8047 0.45 164 14:40 10.04.2022
2729 Clouds 12 1019 82 8047 0.45 131 13:22 10.04.2022
2730 Clouds 12 1019 81 8047 0 0 12:26 10.04.2022
2731 Clouds 13 1012 77 8047 1.54 140 11:35 10.04.2022
2732 Clouds 13 1012 76 9656 3.09 70 10:58 10.04.2022
2733 Clouds 12 1020 81 9656 3.09 70 10:23 10.04.2022
2734 Clouds 14 1022 76 10000 0 0 09:41 10.04.2022
2735 Clouds 14 1023 73 10000 0 0 08:26 10.04.2022
2736 Clouds 14 1028 71 10000 0.14 74 07:47 10.04.2022
2737 Clouds 15 1023 73 10000 2.06 220 06:43 10.04.2022
2738 Clouds 14 1027 77 6437 5.14 280 02:48 10.04.2022
2739 Clouds 16 1021 68 4828 6.17 320 01:29 10.04.2022
2740 Thunderstorm 21 1023 33 8047 8.75 220 23:52 09.04.2022
2741 Clouds 23 1017 28 8047 7.72 190 22:52 09.04.2022
2742 Clouds 23 1025 31 6437 4.12 360 21:48 09.04.2022
2743 Clouds 23 1026 34 6437 3.09 80 20:57 09.04.2022
2744 Clouds 21 1023 39 6437 3.09 90 20:26 09.04.2022
2745 Clouds 20 1024 46 6437 2.06 40 19:42 09.04.2022
2746 Clouds 20 1029 45 6437 2.06 40 19:18 09.04.2022
2747 Clear 17 1025 56 6437 2.06 360 18:22 09.04.2022
2748 Clouds 16 1023 58 8047 1.54 330 17:40 09.04.2022
2749 Clouds 15 1028 62 8047 2.06 340 16:55 09.04.2022
2750 Clouds 13 1022 69 8047 2.57 70 16:24 09.04.2022
2751 Clouds 14 1016 68 8047 3.6 70 15:43 09.04.2022
2752 Clouds 12 1021 73 8047 2.06 70 14:44 09.04.2022
2753 Clouds 12 1021 72 8047 2.06 70 14:44 09.04.2022
2754 Clouds 12 1021 72 8047 2.06 70 14:23 09.04.2022
2755 Clouds 13 1021 72 8047 1.03 250 13:21 09.04.2022
2756 Clouds 14 1028 76 10000 2.24 50 12:51 09.04.2022
2757 Clouds 14 1024 75 8047 2.57 50 11:40 09.04.2022
2758 Haze 15 1021 74 8047 0.89 200 10:21 09.04.2022
2759 Clouds 15 1018 77 10000 0.89 200 09:52 09.04.2022
2760 Clouds 15 1029 72 10000 2.24 200 08:57 09.04.2022
2761 Clouds 15 1025 71 9656 3.09 200 07:32 09.04.2022
2762 Clouds 15 1026 77 10000 3.58 210 02:58 09.04.2022
2763 Clouds 15 1028 77 6437 6.69 180 00:25 09.04.2022
2764 Clouds 22 1019 33 6437 3.6 120 22:57 08.04.2022
2765 Clouds 22 1027 37 6437 1.54 130 21:34 08.04.2022
2766 Clouds 21 1023 41 6437 1.54 120 20:41 08.04.2022
2767 Clear 18 1024 50 6437 2.57 70 19:39 08.04.2022
2768 Clear 16 1025 55 8047 2.06 80 18:31 08.04.2022
2769 Clouds 15 1015 62 10000 0.45 109 17:53 08.04.2022
2770 Clouds 13 1025 63 8047 2.57 90 17:26 08.04.2022
2771 Clouds 13 1015 67 10000 0.89 76 16:51 08.04.2022
2772 Clear 11 1024 71 8047 2.06 70 16:20 08.04.2022
2773 Clouds 11 1024 75 8047 2.06 90 15:27 08.04.2022
2774 Clouds 11 1023 75 8047 3.09 80 14:40 08.04.2022
2775 Clouds 10 1028 71 10000 2.68 100 13:55 08.04.2022
2776 Clear 11 1023 71 8047 3.09 100 13:29 08.04.2022
2777 Clouds 11 1022 72 9656 3.58 60 12:32 08.04.2022
2778 Clouds 12 1022 64 10000 2.06 80 10:38 08.04.2022
2779 Clouds 12 1023 66 10000 1.54 50 09:39 08.04.2022
2780 Clouds 14 1028 58 10000 4.47 270 08:58 08.04.2022
2781 Clouds 14 1023 57 10000 3.6 340 07:38 08.04.2022
2782 Clouds 14 1023 57 10000 6.17 30 06:38 08.04.2022
2783 Dust 22 1024 35 8047 8.23 20 02:27 08.04.2022
2784 Clouds 26 1016 27 8047 3.09 350 00:26 08.04.2022
2785 Clouds 27 1017 23 9656 3.09 60 23:38 07.04.2022
2786 Clouds 26 1018 24 8047 3.09 360 22:40 07.04.2022
2787 Clouds 26 1018 24 8047 3.09 360 22:22 07.04.2022
2788 Clouds 25 1025 23 10000 3.58 40 21:56 07.04.2022
2789 Clouds 25 1019 27 8047 3.6 40 21:19 07.04.2022
2790 Clouds 23 1021 32 8047 2.06 270 20:41 07.04.2022
2791 Clear 20 1027 38 8047 5.14 330 18:54 07.04.2022
2792 Clouds 17 1022 51 9656 6.17 10 17:27 07.04.2022
2793 Clouds 17 1010 57 10000 4.02 12 16:45 07.04.2022
2794 Clouds 16 1022 54 9656 3.6 20 16:23 07.04.2022
2795 Clouds 16 1021 53 9656 4.92 360 15:19 07.04.2022
2796 Clouds 18 1025 22 10000 2.68 320 13:45 07.04.2022
2797 Clouds 18 1019 26 10000 3.09 320 13:22 07.04.2022
2798 Clouds 18 1019 28 10000 4.02 11 11:40 07.04.2022
2799 Clouds 19 1019 28 10000 2.06 360 10:27 07.04.2022
2800 Clouds 21 1020 29 10000 2.06 300 08:39 07.04.2022
2801 Clouds 21 1025 34 10000 4.92 50 06:57 07.04.2022
2802 Clouds 26 1021 23 10000 7.15 150 03:59 07.04.2022
2803 Clouds 28 1015 15 8047 1.54 210 02:28 07.04.2022
2804 Clouds 29 1015 12 8047 4.12 340 00:42 07.04.2022
2805 Clouds 28 1022 11 10000 3.58 120 22:54 06.04.2022
2806 Clouds 28 1016 12 8047 3.6 120 22:30 06.04.2022
2807 Clouds 26 1017 14 8047 3.09 100 21:45 06.04.2022
2808 Clouds 25 1019 18 8047 3.09 190 20:40 06.04.2022
2809 Clouds 25 1024 16 8047 2.06 160 19:57 06.04.2022
2810 Clouds 23 1024 21 8047 2.06 110 18:52 06.04.2022
2811 Clouds 23 1019 22 8047 2.06 110 18:34 06.04.2022
2812 Clear 20 1016 30 8047 2.06 100 17:35 06.04.2022
2813 Clear 18 1019 33 8047 1.54 70 16:39 06.04.2022
2814 Clouds 19 1007 37 10000 0.45 188 15:49 06.04.2022
2815 Clear 16 1015 37 9656 2.06 110 15:30 06.04.2022
2816 Clear 15 1017 40 10000 2.06 80 13:30 06.04.2022
2817 Clear 16 1016 38 10000 0 0 12:28 06.04.2022
2818 Clear 18 1022 31 10000 0.45 167 10:54 06.04.2022
2819 Clear 18 1016 33 10000 0.89 257 10:32 06.04.2022
2820 Clear 19 1017 32 10000 0.45 293 09:42 06.04.2022
2821 Clouds 19 1017 31 10000 0 0 08:36 06.04.2022
2822 Clouds 19 1017 31 10000 0 0 08:36 06.04.2022
2823 Clouds 19 1022 34 10000 1.34 344 07:55 06.04.2022
2824 Clear 23 1020 23 10000 4.63 160 04:42 06.04.2022
2825 Clear 30 1019 12 10000 7.15 180 23:57 05.04.2022
2826 Clouds 29 1014 15 10000 7.2 180 23:22 05.04.2022
2827 Clouds 27 1015 18 10000 1.79 44 21:31 05.04.2022
2828 Clouds 26 1016 19 10000 4.12 140 20:44 05.04.2022
2829 Clouds 26 1016 19 10000 4.12 140 20:19 05.04.2022
2830 Clear 23 1018 25 10000 2.06 110 18:24 05.04.2022
2831 Clear 19 1024 33 10000 1.34 120 16:55 05.04.2022
2832 Clear 19 1024 27 10000 1.54 120 16:35 05.04.2022
2833 Clear 18 1006 39 10000 1.54 160 15:49 05.04.2022
2834 Clear 16 1017 37 10000 1.54 160 15:29 05.04.2022
2835 Clear 17 1021 30 10000 1.54 190 13:42 05.04.2022
2836 Clear 17 1022 34 10000 0.45 255 11:51 05.04.2022
2837 Clear 17 1022 34 10000 0.45 255 11:51 05.04.2022
2838 Clear 17 1021 33 10000 0 0 11:33 05.04.2022
2839 Clouds 18 1022 34 10000 2.24 230 10:57 05.04.2022
2840 Clear 19 1016 31 10000 1.03 180 09:29 05.04.2022
2841 Clear 20 1017 26 10000 2.06 230 07:32 05.04.2022
2842 Dust 25 1013 24 9656 5.14 180 02:43 05.04.2022
2843 Clouds 28 1013 20 9656 4.12 100 23:18 04.04.2022
2844 Clouds 28 1014 19 9656 3.09 80 22:29 04.04.2022
2845 Clear 27 1015 20 9656 4.12 90 21:22 04.04.2022
2846 Clear 26 1022 19 10000 2.68 110 20:53 04.04.2022
2847 Clouds 26 1016 21 9656 5.36 56 20:35 04.04.2022
2848 Clouds 25 1017 23 9656 2.57 130 19:26 04.04.2022
2849 Clouds 23 1018 26 9656 3.6 120 18:39 04.04.2022
2850 Clear 20 1017 32 10000 1.54 100 17:19 04.04.2022
2851 Clouds 18 1017 36 10000 1.54 80 16:26 04.04.2022
2852 Clouds 17 1004 44 10000 2.06 80 15:33 04.04.2022
2853 Clouds 17 1004 45 10000 3.09 60 14:46 04.04.2022
2854 Clear 16 1021 38 10000 1.34 80 13:58 04.04.2022
2855 Clear 17 1015 38 10000 2.06 230 12:41 04.04.2022
2856 Clear 18 1016 34 10000 0.45 163 11:29 04.04.2022
2857 Clear 20 1023 30 10000 0.67 198 09:53 04.04.2022
2858 Clouds 23 1016 28 10000 4.12 170 05:34 04.04.2022
2859 Clouds 25 1019 22 10000 4.63 180 02:51 04.04.2022
2860 Clouds 28 1023 12 10000 2.68 130 22:54 03.04.2022
2861 Clouds 27 1024 13 10000 2.68 360 21:59 03.04.2022
2862 Clouds 27 1017 16 10000 3.09 360 21:25 03.04.2022
2863 Clouds 26 1019 19 10000 4.12 50 20:21 03.04.2022
2864 Clouds 24 1020 27 10000 3.09 60 18:46 03.04.2022
2865 Clouds 21 1025 33 9656 1.03 130 17:55 03.04.2022
2866 Clouds 21 1020 36 9656 1.03 130 17:35 03.04.2022
2867 Clouds 20 1007 48 10000 0.45 159 16:49 03.04.2022
2868 Clouds 17 1016 51 9656 2.57 70 15:46 03.04.2022
2869 Clear 16 1015 53 10000 4.12 80 14:20 03.04.2022
2870 Clear 16 1024 41 10000 2.24 70 12:59 03.04.2022
2871 Clouds 17 1018 39 10000 3.6 60 11:39 03.04.2022
2872 Clear 20 1025 34 10000 2.68 290 09:52 03.04.2022
2873 Clear 21 1025 32 10000 4.02 300 08:57 03.04.2022
2874 Clouds 23 1018 25 10000 1.79 170 05:45 03.04.2022
2875 Clouds 24 1011 26 10000 2.47 45 02:55 03.04.2022
2876 Clouds 29 1017 12 10000 3.09 50 23:35 02.04.2022
2877 Clouds 28 1018 11 9656 2.06 310 22:43 02.04.2022
2878 Clouds 27 1025 12 10000 1.79 120 21:55 02.04.2022
2879 Clouds 27 1019 14 9656 2.06 120 21:20 02.04.2022
2880 Clouds 27 1019 15 9656 1.54 40 20:36 02.04.2022
2881 Clouds 25 1026 18 9656 1.79 30 18:47 02.04.2022
2882 Clouds 21 1027 28 10000 1.79 110 18:19 02.04.2022
2883 Clouds 21 1009 35 10000 0.89 71 16:50 02.04.2022
2884 Clouds 17 1017 39 10000 0.45 165 15:44 02.04.2022
2885 Clouds 16 1017 40 10000 0.45 172 15:19 02.04.2022
2886 Clouds 15 1017 43 10000 2.06 100 14:31 02.04.2022
2887 Clouds 17 1007 42 10000 0.45 182 13:34 02.04.2022
2888 Clouds 18 1007 31 10000 0.33 192 12:21 02.04.2022
2889 Clouds 20 1025 30 10000 1.34 180 10:31 02.04.2022
2890 Clouds 22 1016 19 10000 2.24 250 07:52 02.04.2022
2891 Clouds 24 1023 16 10000 4.47 210 04:59 02.04.2022
2892 Clouds 27 1015 21 9656 3.6 180 02:37 02.04.2022
2893 Clouds 29 1020 21 10000 2.24 160 23:54 01.04.2022
2894 Dust 29 1015 19 10000 5.14 60 22:47 01.04.2022
2895 Clouds 28 1016 18 10000 5.14 110 21:22 01.04.2022
2896 Clouds 27 1017 20 10000 5.14 160 20:46 01.04.2022
2897 Clear 26 1005 24 9656 2.24 63 19:46 01.04.2022
2898 Clear 26 1014 22 9656 2.06 360 19:26 01.04.2022
2899 Clear 22 1018 23 9656 2.06 60 18:38 01.04.2022
2900 Clear 19 1023 25 9656 2.06 90 17:39 01.04.2022
2901 Clear 18 1018 33 9656 3.09 60 16:24 01.04.2022
2902 Clear 16 1005 40 10000 0.97 187 14:56 01.04.2022
2903 Clear 16 1013 39 10000 2.06 80 13:42 01.04.2022
2904 Clear 16 1013 39 10000 2.06 80 13:20 01.04.2022
2905 Clear 16 1013 42 10000 3.09 60 12:24 01.04.2022
2906 Clear 17 1020 33 10000 2.57 70 10:52 01.04.2022
2907 Clouds 20 1021 25 10000 2.06 270 09:41 01.04.2022
2908 Clouds 21 1016 24 10000 3.09 240 07:41 01.04.2022
2909 Clouds 22 1015 21 10000 3.6 120 05:38 01.04.2022
2910 Clouds 23 1014 22 10000 6.17 150 04:41 01.04.2022
2911 Clouds 25 1013 18 10000 5.14 170 03:19 01.04.2022
2912 Dust 27 1016 13 10000 6.71 180 01:51 01.04.2022
2913 Dust 29 1012 11 9656 7.72 100 22:34 31.03.2022
2914 Clouds 29 1010 10 10000 5.81 120 21:44 31.03.2022
2915 Clouds 28 1011 10 10000 1.79 110 20:51 31.03.2022
2916 Clouds 28 1015 10 10000 2.06 110 20:28 31.03.2022
2917 Clouds 26 1015 12 10000 1.54 210 19:43 31.03.2022
2918 Clouds 24 1016 15 9656 1.79 79 18:34 31.03.2022
2919 Clear 18 1013 24 10000 2.06 110 16:53 31.03.2022
2920 Clear 18 1004 27 10000 3.09 120 15:57 31.03.2022
2921 Clear 15 1013 29 10000 2.06 90 15:29 31.03.2022
2922 Clear 16 1003 29 10000 0.45 163 14:49 31.03.2022
2923 Clear 16 1003 26 10000 2.06 90 13:53 31.03.2022
2924 Clear 17 1014 22 10000 1.34 99 11:31 31.03.2022
2925 Clear 18 1015 18 10000 0 0 10:27 31.03.2022
2926 Clear 19 1015 19 10000 2.06 130 09:40 31.03.2022
2927 Clouds 21 1012 17 10000 0.45 156 07:49 31.03.2022
2928 Clouds 25 1009 13 10000 4.02 180 03:48 31.03.2022
2929 Clouds 31 1012 7 10000 3.6 320 23:25 30.03.2022
2930 Clouds 30 1013 7 10000 3.6 210 22:19 30.03.2022
2931 Clouds 30 1015 8 10000 3.09 190 21:31 30.03.2022
2932 Clouds 28 1015 9 10000 5.14 220 20:44 30.03.2022
2933 Clouds 26 1023 10 10000 6.71 250 19:48 30.03.2022
2934 Clouds 25 1017 15 10000 8.75 240 18:44 30.03.2022
2935 Clouds 22 1022 21 10000 3.6 210 17:52 30.03.2022
2936 Clouds 22 1018 22 10000 3.6 210 17:23 30.03.2022
2937 Clouds 18 1017 31 10000 3.09 180 16:41 30.03.2022
2938 Clouds 17 1017 35 10000 3.09 180 16:18 30.03.2022
2939 Clear 16 1016 37 10000 2.06 140 14:42 30.03.2022
2940 Clear 17 1016 30 10000 3.58 252 13:23 30.03.2022
2941 Clear 17 1016 33 10000 2.06 140 12:32 30.03.2022
2942 Clear 18 1023 31 10000 1.34 110 10:48 30.03.2022
2943 Clear 19 1023 29 10000 1.79 140 09:58 30.03.2022
2944 Clear 20 1018 31 10000 2.57 120 08:27 30.03.2022
2945 Clear 20 1019 28 10000 3.58 210 07:28 30.03.2022
2946 Clouds 21 1015 28 10000 4.02 200 05:40 30.03.2022
2947 Clouds 26 1014 21 10000 4.12 180 02:32 30.03.2022
2948 Clear 27 1014 17 10000 2.24 200 22:42 29.03.2022
2949 Clear 26 1024 15 10000 3.58 40 21:52 29.03.2022
2950 Clear 26 1018 17 9656 3.6 40 21:34 29.03.2022
2951 Clear 25 1020 19 9656 4.47 51 20:26 29.03.2022
2952 Clear 23 1021 22 9656 2.06 130 19:32 29.03.2022
2953 Clear 22 1027 27 10000 1.34 280 18:53 29.03.2022
2954 Clear 21 1022 28 9656 0.89 101 17:52 29.03.2022
2955 Clear 19 1019 32 10000 2.06 110 17:18 29.03.2022
2956 Clear 20 1011 34 10000 0.84 184 16:52 29.03.2022
2957 Clear 14 1018 42 10000 2.57 20 15:29 29.03.2022
2958 Clear 15 1020 40 10000 0 0 14:43 29.03.2022
2959 Clear 15 1020 35 10000 0.45 172 13:34 29.03.2022
2960 Clear 15 1020 31 10000 0 0 12:21 29.03.2022
2961 Clear 17 1011 29 10000 0.45 190 10:59 29.03.2022
2962 Clear 18 1027 25 10000 0.44 194 09:51 29.03.2022
2963 Clear 19 1022 26 10000 2.06 10 08:43 29.03.2022
2964 Clouds 20 1019 26 10000 3.58 60 06:48 29.03.2022
2965 Clear 25 1018 16 9656 2.57 140 02:27 29.03.2022
2966 Clear 26 1019 13 10000 3.09 320 23:26 28.03.2022
2967 Clear 26 1019 13 10000 3.09 320 23:26 28.03.2022
2968 Clear 25 1025 12 10000 5.36 20 22:57 28.03.2022
2969 Clear 25 1020 13 10000 5.66 20 22:31 28.03.2022
2970 Clouds 25 1021 13 10000 4.63 60 21:38 28.03.2022
2971 Clouds 23 1022 17 10000 2.06 110 20:32 28.03.2022
2972 Clear 22 1028 15 10000 4.02 10 19:48 28.03.2022
2973 Clear 22 1023 18 9656 4.12 10 19:30 28.03.2022
2974 Clear 22 1023 18 9656 2.68 65 18:44 28.03.2022
2975 Clear 18 1020 27 9656 1.54 70 17:41 28.03.2022
2976 Clear 18 1013 32 10000 3.09 70 16:47 28.03.2022
2977 Clear 12 1019 37 10000 0.45 92 14:56 28.03.2022
2978 Clear 13 1019 34 10000 0 0 14:23 28.03.2022
2979 Clear 13 1018 31 10000 0.45 154 13:18 28.03.2022
2980 Clear 14 1019 30 10000 1.34 100 11:43 28.03.2022
2981 Clear 17 1026 23 10000 2.24 290 09:55 28.03.2022
2982 Clear 17 1021 26 10000 2.57 290 09:20 28.03.2022
2983 Clear 18 1022 21 10000 2.57 300 08:23 28.03.2022
2984 Clouds 18 1026 13 10000 3.58 360 07:59 28.03.2022
2985 Clear 18 1021 18 10000 5.14 30 06:30 28.03.2022
2986 Clouds 25 1017 11 10000 2.06 10 00:19 28.03.2022
2987 Clouds 24 1019 14 10000 4.12 10 22:34 27.03.2022
2988 Clouds 23 1020 13 10000 7.72 320 21:43 27.03.2022
2989 Clouds 23 1024 12 10000 6.17 40 20:58 27.03.2022
2990 Clouds 22 1021 18 10000 2.06 280 20:21 27.03.2022
2991 Clouds 20 1026 17 10000 2.57 230 19:36 27.03.2022
2992 Clouds 17 1023 24 10000 2.57 90 18:30 27.03.2022
2993 Clouds 18 1014 29 10000 1.34 180 17:55 27.03.2022
2994 Clouds 16 1023 27 10000 1.34 60 17:35 27.03.2022
2995 Clouds 16 1023 27 10000 1.34 60 17:35 27.03.2022
2996 Clouds 12 1013 40 10000 2.06 70 15:47 27.03.2022
2997 Clouds 12 1012 41 10000 0.89 81 13:57 27.03.2022
2998 Clouds 13 1012 41 10000 0.89 83 12:58 27.03.2022
2999 Clear 12 1019 39 10000 2.57 80 11:30 27.03.2022
3000 Clear 13 1020 33 10000 2.57 50 09:37 27.03.2022
3001 Clouds 16 1027 25 10000 3.58 30 06:58 27.03.2022
3002 Clear 20 1020 18 10000 5.66 20 03:39 27.03.2022
3003 Clear 25 1018 10 10000 5.14 360 00:25 27.03.2022
3004 Clear 25 1019 10 10000 1.79 53 22:45 26.03.2022
3005 Clouds 23 1025 13 10000 3.13 306 21:51 26.03.2022
3006 Clear 23 1020 14 10000 0.89 316 21:28 26.03.2022
3007 Clear 20 1023 20 10000 0.45 245 19:32 26.03.2022
3008 Clear 19 1024 24 10000 1.54 320 18:40 26.03.2022
3009 Clouds 19 1024 32 10000 1.54 170 17:34 26.03.2022
3010 Clouds 14 1022 45 10000 1.54 100 16:33 26.03.2022
3011 Clouds 12 1022 49 10000 3.09 70 15:37 26.03.2022
3012 Clouds 11 1014 56 10000 0.89 95 13:55 26.03.2022
3013 Clouds 10 1020 55 10000 2.57 80 13:19 26.03.2022
3014 Clouds 11 1020 57 10000 4.12 60 11:42 26.03.2022
3015 Clouds 11 1020 50 10000 3.6 60 10:44 26.03.2022
3016 Clouds 14 1027 44 10000 4.12 310 08:46 26.03.2022
3017 Clouds 16 1024 39 10000 2.57 330 06:37 26.03.2022
3018 Clouds 16 1024 40 10000 4.12 40 05:29 26.03.2022
3019 Clouds 25 1022 11 10000 2.24 40 00:54 26.03.2022
3020 Clouds 25 1023 11 10000 4.12 40 21:58 25.03.2022
3021 Clouds 22 1026 11 10000 4.92 360 20:47 25.03.2022
3022 Clouds 22 1022 15 9656 5.14 360 20:24 25.03.2022
3023 Clouds 20 1027 13 9656 4.12 60 18:59 25.03.2022
3024 Clouds 17 1028 26 10000 2.57 20 17:53 25.03.2022
3025 Clouds 16 1025 31 10000 2.57 30 17:27 25.03.2022
3026 Clouds 14 1025 39 10000 2.06 20 16:21 25.03.2022
3027 Clear 13 1015 48 10000 2.06 80 14:54 25.03.2022
3028 Clear 10 1021 51 10000 3.09 70 13:26 25.03.2022
3029 Clear 12 1022 46 10000 2.24 337 10:35 25.03.2022
3030 Clear 13 1023 41 10000 3.09 260 09:28 25.03.2022
3031 Clear 14 1023 37 10000 2.57 300 08:36 25.03.2022
3032 Clear 15 1022 40 10000 4.12 300 07:30 25.03.2022
3033 Clear 16 1022 34 10000 3.09 300 06:29 25.03.2022
3034 Clear 22 1006 28 10000 1.79 355 01:57 25.03.2022
3035 Clear 25 1021 9 10000 2.68 38 22:56 24.03.2022
3036 Clear 24 1022 11 10000 2.68 27 21:52 24.03.2022
3037 Clear 23 1018 13 10000 2.06 270 20:40 24.03.2022
3038 Clear 22 1025 13 10000 3.13 82 19:48 24.03.2022
3039 Clear 21 1025 19 10000 2.06 60 18:22 24.03.2022
3040 Clouds 18 1018 33 10000 3.09 50 17:29 24.03.2022
3041 Clear 16 1010 36 10000 0.89 76 15:52 24.03.2022
3042 Clear 13 1009 38 10000 2.24 15 14:50 24.03.2022
3043 Clear 12 1016 35 10000 1.54 80 14:20 24.03.2022
3044 Clear 13 1016 34 10000 2.06 100 13:24 24.03.2022
3045 Clouds 13 1022 35 10000 2.57 60 11:59 24.03.2022
3046 Clear 16 1017 32 10000 1.54 60 10:28 24.03.2022
3047 Clouds 17 1017 28 10000 2.57 60 09:22 24.03.2022
3048 Clouds 18 1024 27 10000 3.09 160 07:39 24.03.2022
3049 Clouds 20 1018 19 10000 3.09 230 04:34 24.03.2022
3050 Clouds 26 1014 14 10000 8.23 170 23:21 23.03.2022
3051 Clouds 27 1019 11 10000 7.2 140 21:53 23.03.2022
3052 Clouds 26 1015 13 10000 7.2 140 21:20 23.03.2022
3053 Clouds 25 1016 15 10000 3.09 320 19:46 23.03.2022
3054 Clear 22 1024 19 10000 2.68 50 18:59 23.03.2022
3055 Clouds 20 1018 24 10000 2.06 120 17:39 23.03.2022
3056 Clouds 20 1008 29 10000 2.57 90 16:53 23.03.2022
3057 Clear 16 1008 41 10000 0.45 35 14:52 23.03.2022
3058 Clouds 14 1015 39 10000 1.54 60 14:32 23.03.2022
3059 Clouds 13 1018 37 10000 0.45 219 13:21 23.03.2022
3060 Clouds 16 1017 32 10000 0 0 10:20 23.03.2022
3061 Clouds 17 1018 28 10000 0.89 174 07:44 23.03.2022
3062 Clouds 20 1018 21 10000 2.57 260 05:27 23.03.2022
3063 Clouds 24 1014 22 10000 4.12 270 01:18 23.03.2022
3064 Clouds 24 1014 22 10000 5.14 290 00:23 23.03.2022
3065 Clouds 25 1016 18 10000 3.09 230 21:31 22.03.2022
3066 Clouds 25 1022 15 10000 2.24 200 20:51 22.03.2022
3067 Clouds 24 1023 19 10000 2.68 170 19:52 22.03.2022
3068 Clouds 24 1018 21 10000 3.09 170 19:25 22.03.2022
3069 Clouds 24 1018 22 10000 3.09 180 18:45 22.03.2022
3070 Clouds 21 1019 26 10000 3.58 140 17:42 22.03.2022
3071 Clouds 18 1019 34 10000 2.06 160 16:32 22.03.2022
3072 Clouds 16 1018 38 10000 1.54 90 15:23 22.03.2022
3073 Clear 17 1007 42 10000 0.89 147 14:59 22.03.2022
3074 Clouds 14 1015 43 10000 2.57 80 14:41 22.03.2022
3075 Clouds 14 1017 42 10000 3.09 230 13:36 22.03.2022
3076 Clear 15 1022 33 10000 1.79 240 11:52 22.03.2022
3077 Clear 16 1014 40 10000 1.34 170 10:46 22.03.2022
3078 Clear 18 1018 33 10000 3.6 230 08:40 22.03.2022
3079 Clear 19 1015 30 10000 5.81 270 06:58 22.03.2022
3080 Clouds 22 1022 30 10000 4.92 240 03:54 22.03.2022
3081 Clouds 25 1014 26 10000 4.63 180 00:34 22.03.2022
3082 Clouds 27 1015 22 10000 6.71 150 22:42 21.03.2022
3083 Clouds 26 1016 23 10000 3.09 200 21:18 21.03.2022
3084 Clouds 26 1016 24 10000 3.09 200 21:18 21.03.2022
3085 Clouds 25 1018 24 10000 2.57 100 20:41 21.03.2022
3086 Clear 25 1025 22 10000 2.24 340 19:59 21.03.2022
3087 Clouds 25 1019 25 10000 2.57 340 19:34 21.03.2022
3088 Clouds 24 1026 25 10000 3.09 200 18:36 21.03.2022
3089 Clear 21 1021 32 10000 2.57 120 17:31 21.03.2022
3090 Clear 19 1027 39 10000 0.89 280 16:53 21.03.2022
3091 Clear 19 1021 41 10000 1.03 280 16:24 21.03.2022
3092 Clear 17 1021 49 10000 1.54 120 15:21 21.03.2022
3093 Clouds 15 1021 54 10000 1.54 60 14:28 21.03.2022
3094 Clouds 16 1020 51 10000 2.06 120 12:43 21.03.2022
3095 Clouds 17 1025 48 10000 1.79 170 11:54 21.03.2022
3096 Clouds 17 1020 48 10000 2.57 140 10:49 21.03.2022
3097 Clouds 18 1019 39 10000 2.24 150 09:21 21.03.2022
3098 Clouds 21 1027 30 10000 2.24 110 06:59 21.03.2022
3099 Clouds 22 1020 29 10000 5.14 180 03:29 21.03.2022
3100 Clouds 25 1018 26 10000 5.14 180 00:36 21.03.2022
3101 Clouds 27 1023 19 10000 5.14 240 22:56 20.03.2022
3102 Clouds 24 1026 23 10000 3.58 50 21:57 20.03.2022
3103 Clouds 24 1020 25 10000 3.6 50 21:30 20.03.2022
3104 Clouds 24 1019 27 10000 3.58 50 20:47 20.03.2022
3105 Clouds 23 1022 27 10000 3.6 50 20:24 20.03.2022
3106 Clouds 22 1023 28 9656 3.09 50 19:43 20.03.2022
3107 Clouds 20 1029 40 10000 2.24 61 18:48 20.03.2022
3108 Clear 18 1024 56 8047 1.54 10 17:38 20.03.2022
3109 Clouds 18 1014 61 10000 0.45 200 16:59 20.03.2022
3110 Clouds 16 1014 70 10000 1.34 48 15:56 20.03.2022
3111 Mist 12 1021 82 8047 3.6 100 14:36 20.03.2022
3112 Clouds 12 1020 82 8047 2.06 80 13:20 20.03.2022
3113 Clouds 15 1011 73 9656 2.06 90 11:51 20.03.2022
3114 Clouds 15 1028 67 10000 1.34 270 09:58 20.03.2022
3115 Clouds 15 1020 69 10000 1.79 270 07:51 20.03.2022
3116 Clouds 17 1011 66 10000 4.63 310 05:49 20.03.2022
3117 Rain 20 1024 49 10000 6.71 40 03:18 20.03.2022
3118 Clouds 24 1023 23 10000 7.15 130 00:51 20.03.2022
3119 Clouds 24 1017 27 10000 6.17 110 23:35 19.03.2022
3120 Clouds 26 1023 23 10000 2.57 150 21:54 19.03.2022
3121 Clouds 24 1019 27 10000 3.09 180 21:20 19.03.2022
3122 Clouds 24 1021 31 8047 1.34 57 19:22 19.03.2022
3123 Clear 21 1022 41 8047 2.57 10 18:30 19.03.2022
3124 Clear 19 1022 53 6437 3.09 110 17:45 19.03.2022
3125 Clear 16 1022 68 6437 3.13 17 16:40 19.03.2022
3126 Clear 15 1019 66 6437 2.06 80 15:22 19.03.2022
3127 Clear 14 1010 65 6437 2.57 120 13:40 19.03.2022
3128 Clear 14 1017 74 8047 2.06 80 12:42 19.03.2022
3129 Clear 14 1017 74 8047 2.06 80 12:19 19.03.2022
3130 Clear 14 1020 71 8047 2.06 100 11:42 19.03.2022
3131 Clear 16 1026 63 10000 2.68 290 08:57 19.03.2022
3132 Clouds 21 1019 35 10000 4.12 210 04:42 19.03.2022
3133 Clouds 23 1017 49 10000 4.63 180 02:32 19.03.2022
3134 Clouds 25 1025 28 10000 4.47 180 23:50 18.03.2022
3135 Clouds 26 1017 21 10000 4.12 170 22:43 18.03.2022
3136 Clouds 25 1017 22 10000 4.12 170 22:20 18.03.2022
3137 Clouds 25 1019 24 10000 3.6 140 20:25 18.03.2022
3138 Clouds 25 1019 24 10000 3.6 140 20:25 18.03.2022
3139 Clouds 24 1020 26 10000 3.6 30 19:24 18.03.2022
3140 Clouds 23 1021 29 10000 2.24 88 18:35 18.03.2022
3141 Clouds 19 1022 39 10000 1.54 100 16:53 18.03.2022
3142 Clouds 19 1022 40 10000 1.54 100 16:18 18.03.2022
3143 Clouds 13 1020 55 10000 1.54 220 14:26 18.03.2022
3144 Clouds 14 1020 53 10000 2.57 200 13:36 18.03.2022
3145 Clouds 15 1019 50 10000 2.06 190 11:29 18.03.2022
3146 Clouds 15 1023 47 10000 2.06 200 09:52 18.03.2022
3147 Clouds 18 1025 39 10000 0.89 245 08:45 18.03.2022
3148 Clouds 18 1018 40 10000 4.92 220 06:45 18.03.2022
3149 Clouds 18 1018 40 10000 4.92 220 06:45 18.03.2022
3150 Clouds 19 1019 36 10000 5.14 240 04:38 18.03.2022
3151 Clouds 22 1020 33 10000 7.2 160 00:55 18.03.2022
3152 Clouds 22 1016 34 10000 5.14 180 23:52 17.03.2022
3153 Clouds 22 1016 34 10000 5.14 180 23:52 17.03.2022
3154 Clouds 22 1020 35 10000 5.14 180 23:52 17.03.2022
3155 Clouds 22 1016 34 10000 5.14 180 23:52 17.03.2022
3156 Clouds 22 1020 35 10000 5.14 180 23:52 17.03.2022
3157 Clouds 25 1016 23 10000 5.14 230 22:43 17.03.2022
3158 Clouds 25 1016 24 10000 5.14 230 22:18 17.03.2022
3159 Clouds 24 1017 24 10000 0.45 243 21:27 17.03.2022
3160 Clouds 24 1024 22 10000 4.92 280 20:52 17.03.2022
3161 Clouds 24 1018 25 10000 5.14 280 20:18 17.03.2022
3162 Clouds 23 1019 28 10000 4.12 280 19:37 17.03.2022
3163 Clear 22 1025 30 10000 2.68 180 18:51 17.03.2022
3164 Clear 20 1021 42 10000 2.06 90 17:27 17.03.2022
3165 Clear 16 1025 55 10000 0.45 86 15:57 17.03.2022
3166 Clear 16 1020 58 10000 0 0 15:36 17.03.2022
3167 Clear 13 1024 66 10000 1.34 82 14:58 17.03.2022
3168 Clear 13 1019 66 10000 0.89 224 13:28 17.03.2022
3169 Clear 13 1019 65 10000 2.06 100 12:38 17.03.2022
3170 Clear 14 1019 64 10000 2.06 110 11:31 17.03.2022
3171 Clouds 14 1020 67 10000 0 0 10:41 17.03.2022
3172 Clouds 14 1021 67 10000 2.06 60 08:46 17.03.2022
3173 Clouds 15 1018 67 10000 2.06 60 08:18 17.03.2022
3174 Clouds 16 1026 55 10000 4.02 60 05:49 17.03.2022
3175 Clouds 16 1021 55 10000 6.17 60 04:24 17.03.2022
3176 Clouds 20 1018 39 9656 5.14 220 00:24 17.03.2022
3177 Clouds 24 1023 25 10000 3.58 360 22:52 16.03.2022
3178 Clouds 24 1018 28 10000 3.6 360 22:33 16.03.2022
3179 Clouds 24 1022 36 10000 5.14 290 21:55 16.03.2022
3180 Clouds 23 1021 33 9656 3.09 40 20:40 16.03.2022
3181 Clouds 22 1022 37 9656 2.06 260 19:23 16.03.2022
3182 Clear 21 1023 39 8047 3.13 59 18:42 16.03.2022
3183 Clear 19 1024 47 8047 3.09 90 17:45 16.03.2022
3184 Clear 19 1024 47 8047 3.09 90 17:27 16.03.2022
3185 Clear 14 1027 62 8047 0 0 15:56 16.03.2022
3186 Clear 11 1021 78 8047 1.54 70 14:35 16.03.2022
3187 Clear 12 1020 76 10000 1.03 80 13:35 16.03.2022
3188 Clear 12 1019 75 10000 0 0 12:18 16.03.2022
3189 Clear 12 1019 75 10000 2.06 60 11:23 16.03.2022
3190 Clear 12 1020 74 10000 1.54 50 10:28 16.03.2022
3191 Clear 12 1028 71 10000 2.24 70 09:55 16.03.2022
3192 Clouds 14 1022 66 10000 1.79 250 06:47 16.03.2022
3193 Clouds 16 1022 60 10000 4.47 250 02:29 16.03.2022
3194 Clouds 23 1025 29 9656 4.63 40 22:54 15.03.2022
3195 Clouds 23 1019 31 9656 5.66 40 22:33 15.03.2022
3196 Clear 23 1022 33 9656 4.12 30 20:42 15.03.2022
3197 Clear 22 1023 36 9656 3.09 50 19:27 15.03.2022
3198 Clear 19 1024 48 8047 2.57 340 17:35 15.03.2022
3199 Clear 17 1024 56 8047 1.54 100 16:34 15.03.2022
3200 Clear 15 1020 66 8047 2.06 80 15:21 15.03.2022
3201 Clear 16 1012 64 10000 1.3 31 14:46 15.03.2022
3202 Clear 15 1012 71 10000 0.82 53 13:55 15.03.2022
3203 Clear 15 1011 74 10000 0.45 80 12:46 15.03.2022
3204 Clear 14 1018 74 10000 2.57 60 11:32 15.03.2022
3205 Clear 17 1011 66 10000 0 0 09:54 15.03.2022
3206 Clear 16 1020 64 10000 0.93 351 08:49 15.03.2022
3207 Clear 17 1020 60 10000 1.34 320 07:52 15.03.2022
3208 Clouds 17 1023 59 10000 1.54 320 07:34 15.03.2022
3209 Thunderstorm 19 1023 51 6437 9.77 360 04:20 15.03.2022
3210 Rain 24 1023 30 10000 7.2 200 23:57 14.03.2022
3211 Clouds 24 1015 33 10000 5.14 200 23:24 14.03.2022
3212 Clouds 26 1019 26 9656 4.12 160 22:30 14.03.2022
3213 Clouds 27 1019 23 8047 3.09 330 21:35 14.03.2022
3214 Clouds 26 1025 23 8047 3.09 100 20:54 14.03.2022
3215 Clouds 26 1020 25 8047 3.09 100 20:20 14.03.2022
3216 Clear 22 1029 30 10000 1.34 310 18:55 14.03.2022
3217 Clear 22 1028 31 9656 1.79 92 17:55 14.03.2022
3218 Clear 19 1024 41 10000 2.57 80 17:23 14.03.2022
3219 Clear 17 1024 46 10000 2.06 100 15:56 14.03.2022
3220 Clear 14 1020 59 10000 1.03 80 14:41 14.03.2022
3221 Clear 15 1026 47 10000 0.89 230 12:51 14.03.2022
3222 Clear 16 1026 44 10000 0.45 163 10:54 14.03.2022
3223 Clear 17 1027 42 10000 0.89 170 09:52 14.03.2022
3224 Clear 17 1022 46 10000 1.03 170 09:22 14.03.2022
3225 Clear 17 1020 47 10000 1.79 210 08:55 14.03.2022
3226 Clear 18 1023 42 10000 2.06 130 07:32 14.03.2022
3227 Clouds 19 1021 40 10000 2.68 120 05:46 14.03.2022
3228 Clouds 23 1024 29 10000 4.92 170 01:55 14.03.2022
3229 Clouds 23 1019 32 10000 5.14 170 01:28 14.03.2022
3230 Clear 26 1017 25 10000 3.58 150 22:44 13.03.2022
3231 Clear 26 1020 25 10000 2.57 170 21:31 13.03.2022
3232 Clear 26 1024 23 10000 2.06 170 20:56 13.03.2022
3233 Clear 24 1022 26 10000 3.09 130 20:31 13.03.2022
3234 Clear 24 1025 24 10000 3.09 90 19:49 13.03.2022
3235 Clear 22 1023 30 9656 3.13 55 19:28 13.03.2022
3236 Clear 21 1028 30 9656 1.54 100 18:59 13.03.2022
3237 Clear 20 1024 34 9656 1.54 100 18:35 13.03.2022
3238 Clear 17 1029 39 9656 1.54 290 17:46 13.03.2022
3239 Clear 15 1030 44 9656 0 0 17:19 13.03.2022
3240 Clear 14 1023 50 9656 0.45 329 16:30 13.03.2022
3241 Clear 11 1029 54 10000 2.57 80 15:47 13.03.2022
3242 Clear 12 1016 59 10000 2.06 20 14:56 13.03.2022
3243 Clear 9 1021 64 10000 2.57 60 13:45 13.03.2022
3244 Clear 11 1015 63 10000 0.89 77 12:55 13.03.2022
3245 Clear 11 1015 62 10000 0.21 221 11:52 13.03.2022
3246 Clear 10 1021 68 10000 3.09 80 11:32 13.03.2022
3247 Clear 11 1015 61 10000 1.34 86 10:47 13.03.2022
3248 Clear 10 1021 61 10000 1.54 70 10:22 13.03.2022
3249 Clear 10 1022 61 10000 2.06 60 09:40 13.03.2022
3250 Clear 11 1016 61 10000 1.34 77 08:45 13.03.2022
3251 Clear 10 1023 61 10000 3.6 60 07:41 13.03.2022
3252 Clear 11 1025 57 10000 5.14 290 05:40 13.03.2022
3253 Clouds 17 1020 43 9656 4.92 30 02:39 13.03.2022
3254 Clear 26 1017 27 9656 7.2 130 23:33 12.03.2022
3255 Clouds 24 1025 25 10000 4.92 160 21:53 12.03.2022
3256 Smoke 23 1020 30 8047 3.6 150 20:29 12.03.2022
3257 Clear 20 1028 32 9656 2.06 150 19:47 12.03.2022
3258 Clear 19 1027 33 9656 2.57 140 18:58 12.03.2022
3259 Clouds 17 1029 39 10000 2.06 50 18:22 12.03.2022
3260 Clouds 16 1029 44 10000 2.06 290 17:23 12.03.2022
3261 Clear 15 1024 52 10000 2.06 310 16:23 12.03.2022
3262 Clear 13 1023 58 10000 3.58 5 15:22 12.03.2022
3263 Clear 11 1023 60 10000 2.06 20 14:27 12.03.2022
3264 Clear 13 1021 43 10000 4.12 310 12:45 12.03.2022
3265 Clear 13 1025 38 10000 4.12 290 11:56 12.03.2022
3266 Clear 15 1021 36 10000 3.6 360 11:34 12.03.2022
3267 Clouds 15 1026 38 10000 3.58 360 10:52 12.03.2022
3268 Clear 15 1021 33 10000 3.09 40 09:44 12.03.2022
3269 Clear 17 1025 29 10000 3.6 50 08:53 12.03.2022
3270 Clear 18 1025 23 10000 0 0 06:53 12.03.2022
3271 Clear 24 1018 10 10000 4.63 220 02:34 12.03.2022
3272 Clouds 28 1021 8 10000 4.92 250 23:52 11.03.2022
3273 Clouds 28 1021 8 10000 4.92 220 22:52 11.03.2022
3274 Clear 27 1017 10 10000 5.66 260 21:35 11.03.2022
3275 Clouds 28 1023 7 10000 4.47 240 20:54 11.03.2022
3276 Clear 27 1018 9 10000 4.63 240 20:28 11.03.2022
3277 Clear 26 1019 12 10000 5.14 120 19:42 11.03.2022
3278 Clear 24 1024 14 10000 6.69 120 18:51 11.03.2022
3279 Clear 20 1021 23 10000 4.12 120 17:28 11.03.2022
3280 Clear 18 1021 34 10000 0.45 226 16:27 11.03.2022
3281 Clear 18 1010 38 10000 0.45 90 15:52 11.03.2022
3282 Clear 13 1020 44 10000 2.06 200 14:19 11.03.2022
3283 Clear 13 1019 45 10000 0.45 240 12:43 11.03.2022
3284 Clear 13 1019 45 10000 0 0 12:20 11.03.2022
3285 Clear 14 1019 43 10000 0 0 11:40 11.03.2022
3286 Clear 15 1018 37 10000 2.06 110 09:37 11.03.2022
3287 Clear 16 1020 34 10000 3.09 80 08:29 11.03.2022
3288 Clear 17 1017 30 10000 2.68 270 07:48 11.03.2022
3289 Clear 18 1025 25 10000 7.15 260 06:55 11.03.2022
3290 Clear 19 1019 29 10000 4.12 250 05:20 11.03.2022
3291 Clear 22 1016 26 10000 6.71 190 01:51 11.03.2022
3292 Clear 27 1020 13 10000 4.02 240 22:51 10.03.2022
3293 Dust 27 1015 15 10000 4.12 240 22:27 10.03.2022
3294 Dust 27 1016 14 10000 6.17 170 21:26 10.03.2022
3295 Dust 26 1017 15 10000 4.12 170 20:39 10.03.2022
3296 Clear 25 1018 17 10000 4.12 140 19:22 10.03.2022
3297 Clear 22 1019 24 10000 5.14 120 18:18 10.03.2022
3298 Clear 20 1024 29 10000 2.06 190 16:53 10.03.2022
3299 Clear 17 1019 36 10000 0.45 111 15:34 10.03.2022
3300 Clear 12 1018 48 10000 2.57 140 14:19 10.03.2022
3301 Clouds 14 1018 46 10000 3.6 110 12:43 10.03.2022
3302 Clouds 14 1017 43 10000 2.57 120 11:33 10.03.2022
3303 Clouds 16 1015 42 10000 4.92 150 09:54 10.03.2022
3304 Clear 16 1018 37 10000 4.12 110 08:39 10.03.2022
3305 Clear 19 1024 24 10000 3.09 150 05:33 10.03.2022
3306 Clear 21 1022 23 10000 7.72 210 03:22 10.03.2022
3307 Clouds 25 1020 19 10000 7.72 210 00:22 10.03.2022
3308 Clouds 27 1020 10 10000 7.72 250 22:32 09.03.2022
3309 Clear 24 1007 12 10000 5.72 182 21:47 09.03.2022
3310 Clear 23 1008 12 10000 4.04 179 20:50 09.03.2022
3311 Clear 25 1023 13 10000 4.63 160 18:58 09.03.2022
3312 Clouds 21 1025 19 10000 2.57 170 17:28 09.03.2022
3313 Clear 15 1015 27 10000 2.15 188 16:45 09.03.2022
3314 Clouds 17 1024 27 10000 3.09 190 15:41 09.03.2022
3315 Clear 11 1024 47 10000 0 0 14:23 09.03.2022
3316 Clear 15 1023 36 10000 2.06 170 13:25 09.03.2022
3317 Clear 14 1022 41 10000 1.54 160 12:20 09.03.2022
3318 Clear 14 1014 44 10000 1.97 196 11:45 09.03.2022
3319 Clear 8 1014 43 10000 1.91 209 10:50 09.03.2022
3320 Clear 16 1023 36 10000 3.6 150 09:25 09.03.2022
3321 Clear 16 1023 39 10000 2.57 130 08:43 09.03.2022
3322 Clear 20 1018 32 10000 4.92 180 05:36 09.03.2022
3323 Clouds 24 1020 25 10000 4.92 180 00:56 09.03.2022
3324 Clouds 25 1014 23 10000 5.14 180 23:37 08.03.2022
3325 Clouds 24 1015 24 10000 5.81 146 22:45 08.03.2022
3326 Clear 25 1013 29 10000 5.81 180 21:43 08.03.2022
3327 Clouds 25 1016 24 10000 6.17 180 21:18 08.03.2022
3328 Clear 24 1015 26 10000 4.92 180 19:59 08.03.2022
3329 Clear 23 1015 31 10000 4.92 180 18:53 08.03.2022
3330 Clear 21 1016 36 10000 4.92 160 17:51 08.03.2022
3331 Clear 19 1019 42 10000 3.09 210 16:35 08.03.2022
3332 Clear 14 1019 57 10000 1.54 180 14:23 08.03.2022
3333 Clear 14 1016 65 10000 1.79 50 12:44 08.03.2022
3334 Clear 14 1015 65 10000 2.06 50 12:19 08.03.2022
3335 Clear 14 1018 62 10000 2.06 60 11:41 08.03.2022
3336 Clouds 15 1018 62 10000 2.06 60 10:27 08.03.2022
3337 Clouds 16 1019 56 10000 2.06 220 08:28 08.03.2022
3338 Clouds 18 1019 49 10000 2.06 330 05:47 08.03.2022
3339 Clouds 23 1022 33 10000 7.2 80 01:48 08.03.2022
3340 Clouds 26 1017 21 10000 2.06 360 22:24 07.03.2022
3341 Clouds 25 1019 22 10000 3.09 100 21:35 07.03.2022
3342 Clouds 24 1017 26 10000 2.68 50 20:54 07.03.2022
3343 Clouds 24 1020 25 10000 3.09 50 20:22 07.03.2022
3344 Clouds 23 1021 27 9656 2.57 130 19:38 07.03.2022
3345 Clouds 23 1022 27 9656 1.79 332 18:47 07.03.2022
3346 Clouds 20 1020 36 10000 1.34 200 17:54 07.03.2022
3347 Clouds 19 1022 40 9656 1.03 170 16:56 07.03.2022
3348 Clouds 17 1022 43 9656 1.54 180 16:20 07.03.2022
3349 Clouds 15 1021 50 10000 1.54 80 14:19 07.03.2022
3350 Clouds 16 1020 47 10000 0 0 12:33 07.03.2022
3351 Clouds 17 1020 42 10000 2.57 230 10:39 07.03.2022
3352 Clouds 17 1018 43 10000 0.45 159 09:47 07.03.2022
3353 Clouds 19 1021 38 10000 2.06 170 06:35 07.03.2022
3354 Clouds 25 1018 25 9656 3.6 190 00:23 07.03.2022
3355 Clouds 26 1018 23 10000 2.57 180 23:41 06.03.2022
3356 Clouds 26 1016 23 10000 4.02 100 22:58 06.03.2022
3357 Clouds 26 1019 22 10000 4.12 100 22:24 06.03.2022
3358 Clouds 26 1019 22 10000 4.12 100 22:24 06.03.2022
3359 Clear 24 1018 27 10000 2.68 172 20:51 06.03.2022
3360 Clouds 24 1021 25 10000 4.02 52 20:26 06.03.2022
3361 Clear 23 1022 28 9656 3.09 340 19:23 06.03.2022
3362 Clear 21 1024 33 9656 2.06 100 18:25 06.03.2022
3363 Clear 18 1029 39 9656 2.06 100 17:21 06.03.2022
3364 Clear 17 1021 44 10000 1.54 60 16:44 06.03.2022
3365 Clear 17 1021 44 10000 1.54 60 16:44 06.03.2022
3366 Clear 17 1023 43 10000 1.54 60 16:18 06.03.2022
3367 Clear 15 1013 54 10000 0.45 159 14:57 06.03.2022
3368 Clear 12 1020 55 10000 2.06 80 14:38 06.03.2022
3369 Clear 13 1021 52 10000 1.54 280 13:36 06.03.2022
3370 Clear 14 1021 50 10000 1.54 270 12:35 06.03.2022
3371 Clear 14 1021 52 10000 0.45 169 11:21 06.03.2022
3372 Clear 15 1021 49 10000 1.03 230 10:28 06.03.2022
3373 Clear 17 1022 41 10000 1.54 220 08:32 06.03.2022
3374 Clouds 17 1020 40 10000 1.34 260 07:45 06.03.2022
3375 Clear 19 1022 38 10000 2.57 270 06:19 06.03.2022
3376 Clouds 23 1015 23 10000 4.92 110 00:53 06.03.2022
3377 Clouds 24 1018 21 10000 5.14 110 00:31 06.03.2022
3378 Clouds 25 1018 23 10000 3.6 200 23:23 05.03.2022
3379 Clouds 25 1016 21 10000 5.36 120 22:57 05.03.2022
3380 Clouds 25 1018 21 10000 5.66 120 22:23 05.03.2022
3381 Clouds 25 1019 20 10000 2.06 250 21:23 05.03.2022
3382 Clear 23 1018 29 10000 2.68 80 19:49 05.03.2022
3383 Clear 22 1021 33 10000 3.09 80 18:56 05.03.2022
3384 Clear 21 1022 37 10000 2.24 88 18:27 05.03.2022
3385 Clear 19 1020 43 10000 1.34 100 16:49 05.03.2022
3386 Clear 15 1022 50 10000 0.45 82 15:31 05.03.2022
3387 Clear 14 1012 56 10000 0.45 175 14:47 05.03.2022
3388 Clear 13 1019 56 10000 0 0 14:29 05.03.2022
3389 Clear 13 1021 52 10000 0.89 230 13:22 05.03.2022
3390 Clear 13 1018 50 10000 2.57 40 11:48 05.03.2022
3391 Clear 13 1018 50 10000 2.57 40 11:19 05.03.2022
3392 Clear 15 1021 44 10000 1.54 50 10:20 05.03.2022
3393 Clear 15 1021 43 10000 3.09 60 09:22 05.03.2022
3394 Clear 17 1022 37 10000 3.09 90 07:38 05.03.2022
3395 Clouds 19 1019 34 10000 2.24 170 05:43 05.03.2022
3396 Clouds 20 1020 32 10000 4.63 200 03:18 05.03.2022
3397 Clouds 25 1018 15 10000 4.63 60 23:37 04.03.2022
3398 Clear 26 1016 15 10000 4.47 90 22:42 04.03.2022
3399 Clouds 26 1019 13 10000 4.63 90 22:19 04.03.2022
3400 Clear 24 1027 19 10000 4.47 51 20:56 04.03.2022
3401 Clear 24 1021 20 9656 0.89 216 20:27 04.03.2022
3402 Clear 22 1023 27 8047 1.54 150 19:36 04.03.2022
3403 Clear 20 1024 33 8047 1.54 280 18:45 04.03.2022
3404 Clear 18 1022 40 8047 1.54 330 17:39 04.03.2022
3405 Clear 18 1014 45 9656 1.54 100 16:54 04.03.2022
3406 Clear 13 1024 48 9656 2.68 355 15:29 04.03.2022
3407 Clear 12 1020 52 9656 0.45 322 14:33 04.03.2022
3408 Clear 11 1019 53 10000 2.24 330 13:26 04.03.2022
3409 Clear 11 1019 53 10000 2.24 330 13:26 04.03.2022
3410 Clear 13 1019 52 10000 2.06 60 11:41 04.03.2022
3411 Clear 15 1011 51 10000 0.89 206 10:52 04.03.2022
3412 Clear 14 1019 52 10000 3.09 60 09:52 04.03.2022
3413 Clear 16 1023 42 10000 1.54 340 08:39 04.03.2022
3414 Clear 16 1023 35 10000 1.03 250 07:34 04.03.2022
3415 Clouds 21 1018 29 10000 3.58 180 03:56 04.03.2022
3416 Clouds 25 1017 46 9656 5.14 130 00:28 04.03.2022
3417 Clear 26 1018 14 8047 3.09 50 22:27 03.03.2022
3418 Clear 25 1019 17 8047 3.6 310 21:42 03.03.2022
3419 Clear 25 1020 17 8047 3.6 310 21:24 03.03.2022
3420 Clear 22 1019 25 10000 1.34 280 19:52 03.03.2022
3421 Clear 21 1022 27 8047 1.54 190 18:54 03.03.2022
3422 Clear 19 1023 27 8047 1.54 120 18:24 03.03.2022
3423 Clouds 17 1021 35 9656 2.68 61 17:30 03.03.2022
3424 Clouds 15 1021 39 9656 2.06 110 16:24 03.03.2022
3425 Clear 13 1020 44 9656 1.54 70 15:23 03.03.2022
3426 Clear 11 1020 50 9656 2.57 70 14:43 03.03.2022
3427 Clear 11 1019 50 10000 2.57 60 13:24 03.03.2022
3428 Clear 12 1019 48 10000 2.06 70 12:21 03.03.2022
3429 Clear 13 1019 44 10000 3.09 80 10:47 03.03.2022
3430 Clear 14 1019 46 10000 2.57 70 09:38 03.03.2022
3431 Clear 17 1020 38 10000 3.58 310 07:48 03.03.2022
3432 Clear 18 1020 33 10000 4.12 300 06:35 03.03.2022
3433 Clear 22 1019 28 10000 4.12 120 02:23 03.03.2022
3434 Clear 26 1018 8 10000 3.09 20 23:31 02.03.2022
3435 Clear 26 1016 8 10000 1.79 330 22:52 02.03.2022
3436 Clear 25 1020 7 10000 3.09 70 21:34 02.03.2022
3437 Clear 24 1021 8 10000 2.57 300 20:53 02.03.2022
3438 Clear 24 1019 10 10000 2.57 300 20:24 02.03.2022
3439 Clear 21 1023 14 10000 2.68 348 19:36 02.03.2022
3440 Clear 21 1022 18 10000 2.24 329 18:48 02.03.2022
3441 Clear 20 1024 18 10000 0.45 117 18:19 02.03.2022
3442 Clear 18 1022 23 10000 0.45 319 17:34 02.03.2022
3443 Clear 15 1022 27 10000 2.06 60 16:51 02.03.2022
3444 Clear 12 1014 38 10000 0.89 146 14:49 02.03.2022
3445 Clear 10 1020 35 10000 2.57 80 13:29 02.03.2022
3446 Clear 11 1020 34 10000 2.06 60 12:44 02.03.2022
3447 Clear 13 1013 33 10000 0.53 23 11:53 02.03.2022
3448 Clear 12 1020 32 10000 1.54 110 11:25 02.03.2022
3449 Clear 13 1020 30 10000 2.06 80 09:47 02.03.2022
3450 Clear 13 1020 31 10000 2.06 80 09:23 02.03.2022
3451 Clear 16 1021 27 10000 2.24 300 07:52 02.03.2022
3452 Clear 16 1019 23 10000 2.68 300 06:57 02.03.2022
3453 Clear 20 1025 14 10000 6.17 60 02:54 02.03.2022
3454 Clear 25 1018 7 10000 6.17 360 00:33 02.03.2022
3455 Clear 24 1017 10 10000 4.92 340 22:50 01.03.2022
3456 Clear 24 1019 11 10000 5.14 340 22:31 01.03.2022
3457 Clear 23 1021 12 10000 4.12 350 21:25 01.03.2022
3458 Clear 22 1022 12 10000 3.6 60 20:32 01.03.2022
3459 Clear 22 1023 14 10000 3.09 320 19:50 01.03.2022
3460 Clear 20 1024 20 10000 2.57 40 18:51 01.03.2022
3461 Clear 18 1024 25 9656 2.24 50 18:21 01.03.2022
3462 Clear 17 1023 34 9656 0.89 59 17:37 01.03.2022
3463 Clear 15 1023 41 9656 1.34 93 16:35 01.03.2022
3464 Clear 11 1022 44 10000 2.57 80 15:45 01.03.2022
3465 Clear 9 1022 49 10000 2.06 80 14:41 01.03.2022
3466 Clear 9 1022 49 10000 2.06 80 14:23 01.03.2022
3467 Clear 10 1021 48 10000 2.06 80 13:25 01.03.2022
3468 Clear 8 1027 49 10000 3.09 70 12:34 01.03.2022
3469 Clear 11 1021 44 10000 2.57 80 10:37 01.03.2022
3470 Clear 13 1022 28 10000 1.79 50 09:18 01.03.2022
3471 Clear 14 1022 22 10000 2.24 70 07:55 01.03.2022
3472 Clear 15 1024 18 10000 1.54 30 06:27 01.03.2022
3473 Clear 20 1025 9 10000 5.66 40 02:45 01.03.2022
3474 Clear 24 1020 8 10000 6.17 360 00:39 01.03.2022
3475 Clear 24 1020 6 10000 3.09 10 23:33 28.02.2022
3476 Clear 23 1021 12 10000 3.6 360 22:28 28.02.2022
3477 Clear 22 1022 14 10000 2.06 130 21:41 28.02.2022
3478 Clear 21 1023 14 10000 3.6 10 20:28 28.02.2022
3479 Clear 18 1025 26 8047 3.09 340 19:41 28.02.2022
3480 Clear 16 1024 40 10000 1.34 150 18:49 28.02.2022
3481 Clear 15 1024 49 6437 1.54 170 17:33 28.02.2022
3482 Clear 13 1018 60 10000 1.79 90 16:53 28.02.2022
3483 Mist 9 1024 76 1609 3.09 100 15:31 28.02.2022
3484 Mist 7 1023 79 4828 3.09 70 14:32 28.02.2022
3485 Clear 8 1022 81 10000 3.09 70 13:48 28.02.2022
3486 Clear 10 1015 72 10000 0.45 61 12:53 28.02.2022
3487 Clear 11 1014 66 10000 0.45 86 11:59 28.02.2022
3488 Clear 10 1021 67 10000 3.6 80 11:18 28.02.2022
3489 Clear 10 1021 67 10000 1.54 60 10:22 28.02.2022
3490 Clear 11 1025 60 10000 2.57 220 09:41 28.02.2022
3491 Clear 12 1023 56 10000 3.58 80 08:51 28.02.2022
3492 Clear 13 1023 61 10000 3.58 320 07:57 28.02.2022
3493 Clear 16 1022 34 10000 2.68 350 05:52 28.02.2022
3494 Clear 17 1024 20 10000 3.09 360 04:30 28.02.2022
3495 Clear 17 1024 20 10000 3.09 360 04:30 28.02.2022
3496 Clear 17 1024 20 10000 3.09 360 04:30 28.02.2022
3497 Clear 25 1019 8 10000 6.17 340 00:42 28.02.2022
3498 Clear 25 1020 8 10000 4.12 40 22:38 27.02.2022
3499 Clouds 24 1018 10 10000 5.81 350 21:58 27.02.2022
3500 Clear 24 1021 10 10000 6.17 350 21:36 27.02.2022
3501 Clear 23 1022 10 10000 5.14 360 20:41 27.02.2022
3502 Clear 23 1022 10 10000 5.14 360 20:18 27.02.2022
3503 Clear 22 1024 14 10000 3.09 20 19:36 27.02.2022
3504 Clear 22 1024 14 10000 3.09 20 19:18 27.02.2022
3505 Clouds 20 1015 29 10000 1.34 61 17:57 27.02.2022
3506 Clear 18 1023 33 10000 2.06 350 17:34 27.02.2022
3507 Clear 15 1026 43 10000 2.06 50 16:22 27.02.2022
3508 Clear 11 1022 57 10000 2.57 80 14:28 27.02.2022
3509 Clear 12 1021 51 10000 2.57 70 12:35 27.02.2022
3510 Clear 13 1021 47 10000 1.54 60 11:36 27.02.2022
3511 Clear 13 1021 42 10000 2.06 40 10:36 27.02.2022
3512 Clear 14 1021 44 10000 1.54 40 09:58 27.02.2022
3513 Clear 14 1024 39 10000 2.68 300 09:23 27.02.2022
3514 Clear 16 1024 34 10000 3.09 300 08:44 27.02.2022
3515 Clear 19 1024 31 10000 2.57 360 05:43 27.02.2022
3516 Clouds 21 1023 22 10000 4.63 10 03:26 27.02.2022
3517 Clouds 24 1018 19 10000 4.02 5 23:51 26.02.2022
3518 Clouds 24 1021 19 10000 6.17 20 22:42 26.02.2022
3519 Clouds 24 1022 24 10000 5.14 360 21:27 26.02.2022
3520 Clear 23 1023 28 9656 2.06 60 20:41 26.02.2022
3521 Clear 22 1024 33 9656 1.54 50 19:55 26.02.2022
3522 Clear 22 1024 35 9656 1.54 50 19:33 26.02.2022
3523 Clear 20 1025 44 8047 1.34 150 18:33 26.02.2022
3524 Clear 17 1026 54 8047 2.06 80 17:34 26.02.2022
3525 Clear 15 1025 66 8047 3.09 80 16:39 26.02.2022
3526 Clear 12 1022 76 8047 2.06 80 15:37 26.02.2022
3527 Clear 11 1022 77 8047 2.06 80 15:18 26.02.2022
3528 Clear 11 1022 82 9656 2.06 50 14:41 26.02.2022
3529 Clear 12 1014 76 10000 0.45 68 13:51 26.02.2022
3530 Clouds 13 1013 74 10000 2.24 73 12:53 26.02.2022
3531 Clouds 13 1013 73 10000 0.89 346 11:50 26.02.2022
3532 Clear 12 1021 77 10000 1.54 90 11:25 26.02.2022
3533 Clouds 14 1024 65 10000 2.57 60 09:44 26.02.2022
3534 Clouds 15 1024 58 10000 2.06 80 08:28 26.02.2022
3535 Clouds 18 1023 47 10000 6.17 30 04:23 26.02.2022
3536 Clouds 25 1016 18 10000 4.47 80 23:52 25.02.2022
3537 Clouds 25 1019 16 8047 3.6 130 22:34 25.02.2022
3538 Clear 24 1021 18 6437 3.6 60 21:32 25.02.2022
3539 Clear 23 1021 24 6437 3.58 70 20:51 25.02.2022
3540 Clear 22 1022 28 6437 3.6 70 20:25 25.02.2022
3541 Clear 18 1025 43 9656 3.09 120 17:57 25.02.2022
3542 Clouds 15 1022 60 10000 2.24 100 16:54 25.02.2022
3543 Clouds 15 1014 58 10000 1.79 344 15:55 25.02.2022
3544 Clear 13 1024 44 9656 1.54 100 15:23 25.02.2022
3545 Clear 14 1013 54 10000 0.89 319 14:55 25.02.2022
3546 Clear 12 1020 46 9656 0.45 9 14:24 25.02.2022
3547 Clear 12 1019 45 10000 0.45 342 13:30 25.02.2022
3548 Clear 12 1019 45 10000 2.57 80 12:21 25.02.2022
3549 Clear 13 1018 45 10000 3.09 70 11:21 25.02.2022
3550 Clear 15 1018 43 10000 2.57 70 10:23 25.02.2022
3551 Clear 16 1019 40 10000 2.24 210 09:45 25.02.2022
3552 Clear 17 1022 31 10000 2.57 260 08:22 25.02.2022
3553 Clear 19 1020 40 10000 2.24 190 06:56 25.02.2022
3554 Clouds 20 1022 35 10000 2.57 180 05:41 25.02.2022
3555 Clear 21 1017 33 10000 3.58 160 02:43 25.02.2022
3556 Clouds 26 1018 13 10000 3.09 80 22:37 24.02.2022
3557 Clear 25 1016 11 10000 4.02 90 21:50 24.02.2022
3558 Clear 25 1019 9 9656 4.12 90 21:30 24.02.2022
3559 Clear 24 1020 11 9656 3.6 60 20:44 24.02.2022
3560 Clear 24 1021 15 9656 2.06 100 19:32 24.02.2022
3561 Clear 20 1022 25 9656 1.79 40 18:21 24.02.2022
3562 Clear 20 1011 33 10000 0.89 57 17:58 24.02.2022
3563 Clear 17 1023 34 9656 2.06 80 17:20 24.02.2022
3564 Clear 14 1020 44 10000 3.09 80 16:28 24.02.2022
3565 Clear 12 1019 44 10000 3.09 70 15:43 24.02.2022
3566 Clear 11 1019 46 10000 2.57 70 14:45 24.02.2022
3567 Clear 14 1010 44 10000 0.41 128 13:59 24.02.2022
3568 Clear 11 1018 46 10000 3.09 60 13:38 24.02.2022
3569 Clear 13 1017 40 10000 2.06 70 11:41 24.02.2022
3570 Clear 14 1017 38 10000 3.09 60 10:32 24.02.2022
3571 Clear 17 1018 36 10000 2.68 260 08:43 24.02.2022
3572 Clear 18 1021 25 10000 3.6 280 07:22 24.02.2022
3573 Clear 20 1021 23 10000 2.06 360 05:40 24.02.2022
3574 Clear 28 1016 5 10000 3.58 326 00:31 24.02.2022
3575 Clear 27 1017 7 10000 3.09 340 22:22 23.02.2022
3576 Clear 27 1019 11 10000 2.06 60 20:48 23.02.2022
3577 Clear 25 1020 12 10000 3.6 360 20:28 23.02.2022
3578 Clear 23 1022 20 10000 4.12 40 19:35 23.02.2022
3579 Clear 22 1023 28 8047 1.54 300 18:27 23.02.2022
3580 Clear 18 1023 41 8047 1.79 34 16:33 23.02.2022
3581 Clear 13 1019 55 10000 2.57 70 14:22 23.02.2022
3582 Clear 14 1018 54 10000 2.57 60 12:36 23.02.2022
3583 Clear 15 1018 53 10000 1.54 60 11:23 23.02.2022
3584 Clear 16 1021 47 10000 2.57 70 10:23 23.02.2022
3585 Clear 18 1019 47 10000 1.79 80 08:55 23.02.2022
3586 Clear 19 1020 40 10000 2.24 30 07:55 23.02.2022
3587 Clouds 21 1021 37 10000 5.14 30 03:29 23.02.2022
3588 Clouds 27 1018 16 10000 2.57 240 00:18 23.02.2022
3589 Clouds 27 1018 16 10000 1.54 50 23:34 22.02.2022
3590 Clear 26 1019 18 10000 4.12 10 22:28 22.02.2022
3591 Clear 25 1019 18 10000 3.09 340 21:45 22.02.2022
3592 Clear 25 1020 18 10000 3.09 340 21:21 22.02.2022
3593 Clear 24 1018 20 10000 0.89 31 20:47 22.02.2022
3594 Clear 24 1021 21 10000 1.34 279 20:28 22.02.2022
3595 Clear 23 1022 26 10000 2.68 31 19:34 22.02.2022
3596 Clear 22 1023 27 10000 1.34 14 18:50 22.02.2022
3597 Clear 19 1024 26 10000 0.45 80 17:36 22.02.2022
3598 Clear 18 1021 30 10000 0.89 69 16:58 22.02.2022
3599 Clear 17 1024 29 10000 0 0 16:26 22.02.2022
3600 Clear 14 1021 35 10000 1.03 80 15:36 22.02.2022
3601 Clear 9 1028 49 10000 2.57 70 14:37 22.02.2022
3602 Clear 14 1019 37 10000 0.45 203 11:41 22.02.2022
3603 Clear 15 1021 31 10000 0 0 10:22 22.02.2022
3604 Clear 18 1022 26 10000 1.03 190 07:41 22.02.2022
3605 Clear 18 1022 25 10000 1.03 190 07:23 22.02.2022
3606 Clouds 22 1009 24 10000 2.59 205 02:51 22.02.2022
3607 Clouds 26 1018 17 10000 5.66 70 00:44 22.02.2022
3608 Clouds 26 1018 19 10000 5.14 230 22:38 21.02.2022
3609 Clouds 25 1020 18 10000 3.6 40 21:24 21.02.2022
3610 Clear 24 1021 22 10000 2.24 67 20:19 21.02.2022
3611 Clear 22 1023 36 10000 1.54 200 18:40 21.02.2022
3612 Clear 16 1021 49 10000 2.06 70 16:40 21.02.2022
3613 Clear 12 1020 60 10000 0.45 142 14:24 21.02.2022
3614 Clear 13 1020 58 10000 1.34 190 13:56 21.02.2022
3615 Clear 14 1020 58 10000 0.26 228 12:58 21.02.2022
3616 Clear 13 1022 58 10000 0 0 12:22 21.02.2022
3617 Clear 15 1022 52 10000 2.06 220 10:35 21.02.2022
3618 Clear 16 1023 49 10000 0.45 229 08:31 21.02.2022
3619 Clouds 24 1020 27 9656 1.54 140 00:56 21.02.2022
3620 Clouds 22 1021 30 9656 4.12 120 22:40 20.02.2022
3621 Clear 24 1020 33 10000 2.24 360 21:54 20.02.2022
3622 Clouds 22 1023 34 9656 2.57 360 21:25 20.02.2022
3623 Clear 21 1021 36 10000 2.24 255 20:50 20.02.2022
3624 Clouds 21 1024 37 9656 2.06 320 20:21 20.02.2022
3625 Clear 20 1025 40 9656 1.79 46 19:21 20.02.2022
3626 Clear 19 1026 41 9656 0.45 246 18:42 20.02.2022
3627 Clear 19 1026 41 9656 1.34 81 18:23 20.02.2022
3628 Clear 16 1026 52 9656 1.54 60 17:30 20.02.2022
3629 Clear 11 1022 70 10000 3.09 70 15:29 20.02.2022
3630 Clear 10 1021 76 10000 2.06 80 14:33 20.02.2022
3631 Clear 11 1021 73 10000 3.58 70 12:51 20.02.2022
3632 Clear 13 1013 67 10000 0.89 87 11:56 20.02.2022
3633 Clear 13 1013 67 10000 0.89 87 11:56 20.02.2022
3634 Clear 13 1020 63 10000 2.06 80 10:21 20.02.2022
3635 Clear 13 1021 59 10000 2.24 70 09:46 20.02.2022
3636 Clear 17 1024 48 10000 3.6 290 06:30 20.02.2022
3637 Clouds 25 1019 23 10000 4.63 130 00:32 20.02.2022
3638 Clouds 26 1019 18 10000 3.09 280 23:33 19.02.2022
3639 Clouds 26 1020 17 10000 2.06 90 22:24 19.02.2022
3640 Clear 25 1018 19 10000 2.68 190 21:47 19.02.2022
3641 Clear 25 1022 22 9656 3.6 60 20:41 19.02.2022
3642 Clear 22 1023 30 8047 2.06 120 19:35 19.02.2022
3643 Clear 21 1024 35 8047 1.54 180 18:41 19.02.2022
3644 Clear 18 1024 43 8047 1.79 355 17:57 19.02.2022
3645 Clear 16 1025 55 8047 0 0 17:21 19.02.2022
3646 Clear 15 1014 67 10000 0.45 123 15:59 19.02.2022
3647 Clear 13 1013 73 10000 0.89 78 14:55 19.02.2022
3648 Clear 13 1012 72 10000 1.34 81 13:58 19.02.2022
3649 Clear 15 1011 64 10000 0.89 77 11:53 19.02.2022
3650 Clear 14 1019 63 10000 3.09 80 10:54 19.02.2022
3651 Clear 16 1019 50 10000 0.45 180 08:57 19.02.2022
3652 Clouds 17 1020 44 10000 2.68 320 06:48 19.02.2022
3653 Clouds 26 1017 23 10000 4.12 190 00:38 19.02.2022
3654 Clouds 26 1018 22 10000 4.12 130 22:24 18.02.2022
3655 Clear 25 1019 24 10000 3.09 100 21:22 18.02.2022
3656 Clear 24 1022 25 10000 2.06 70 20:18 18.02.2022
3657 Clear 20 1024 32 9656 2.06 90 18:51 18.02.2022
3658 Clear 20 1024 32 9656 2.24 318 18:29 18.02.2022
3659 Clear 18 1021 36 10000 1.79 70 17:56 18.02.2022
3660 Clear 15 1021 46 10000 2.06 60 16:19 18.02.2022
3661 Clear 11 1020 58 10000 2.57 70 14:19 18.02.2022
3662 Clear 13 1012 55 10000 0.45 119 13:45 18.02.2022
3663 Clear 14 1012 53 10000 1.35 16 12:48 18.02.2022
3664 Clear 14 1019 48 10000 1.54 40 11:56 18.02.2022
3665 Clear 14 1022 45 10000 1.54 300 10:42 18.02.2022
3666 Clear 17 1023 43 10000 1.03 70 07:21 18.02.2022
3667 Clouds 18 1020 36 10000 2.24 360 05:52 18.02.2022
3668 Clear 18 1022 35 10000 2.57 360 05:34 18.02.2022
3669 Clear 24 1018 18 10000 2.24 360 21:59 17.02.2022
3670 Clear 24 1021 18 10000 2.57 360 21:33 17.02.2022
3671 Clear 24 1022 20 10000 1.79 131 20:42 17.02.2022
3672 Clear 23 1020 24 10000 1.34 150 19:54 17.02.2022
3673 Clear 22 1023 28 9656 1.54 140 18:57 17.02.2022
3674 Clear 20 1024 32 10000 1.54 130 18:18 17.02.2022
3675 Clear 15 1021 44 10000 2.06 70 16:43 17.02.2022
3676 Clear 15 1014 47 10000 0.45 88 15:50 17.02.2022
3677 Clear 11 1020 53 10000 0 0 14:29 17.02.2022
3678 Clear 12 1019 48 10000 0 0 13:30 17.02.2022
3679 Clear 13 1021 49 10000 0.45 221 11:36 17.02.2022
3680 Clear 15 1019 41 10000 0.92 231 09:58 17.02.2022
3681 Clear 18 1022 36 10000 2.57 270 06:44 17.02.2022
3682 Clouds 24 1019 23 10000 3.6 250 23:23 16.02.2022
3683 Clouds 24 1020 23 10000 4.12 360 22:27 16.02.2022
3684 Clouds 23 1022 23 10000 2.57 70 20:21 16.02.2022
3685 Clear 21 1022 35 10000 2.24 80 18:50 16.02.2022
3686 Clouds 20 1025 40 10000 2.06 80 17:54 16.02.2022
3687 Clear 16 1025 52 10000 1.54 230 15:58 16.02.2022
3688 Clear 13 1024 63 10000 2.06 190 15:21 16.02.2022
3689 Clear 13 1023 61 10000 1.03 200 13:38 16.02.2022
3690 Clear 13 1023 61 10000 0.45 234 12:21 16.02.2022
3691 Clouds 14 1022 57 10000 2.24 70 11:35 16.02.2022
3692 Clouds 15 1023 57 10000 2.57 70 10:34 16.02.2022
3693 Clouds 16 1021 50 10000 2.68 300 08:58 16.02.2022
3694 Clouds 17 1022 46 10000 2.24 5 06:43 16.02.2022
3695 Clouds 20 1018 38 10000 5.36 180 23:45 15.02.2022
3696 Clouds 22 1020 30 10000 3.58 194 22:34 15.02.2022
3697 Clouds 21 1020 32 10000 1.34 340 21:49 15.02.2022
3698 Clouds 22 1022 30 10000 1.54 340 21:29 15.02.2022
3699 Clouds 22 1023 30 9656 2.06 360 20:56 15.02.2022
3700 Clouds 19 1022 42 10000 1.34 120 19:59 15.02.2022
3701 Clouds 18 1025 43 9656 1.54 120 19:26 15.02.2022
3702 Clear 17 1026 50 9656 10.29 40 18:24 15.02.2022
3703 Clouds 16 1024 59 10000 1.79 71 17:52 15.02.2022
3704 Clear 15 1026 60 9656 1.79 75 17:26 15.02.2022
3705 Clear 11 1023 80 10000 2.57 70 15:34 15.02.2022
3706 Clouds 10 1024 81 10000 2.06 60 13:29 15.02.2022
3707 Clouds 11 1022 75 10000 1.05 14 12:59 15.02.2022
3708 Clouds 12 1024 67 10000 4.12 310 11:40 15.02.2022
3709 Clouds 13 1022 67 10000 2.24 270 09:54 15.02.2022
3710 Clouds 14 1023 68 10000 2.68 40 06:59 15.02.2022
3711 Clouds 14 1025 66 10000 3.09 40 06:19 15.02.2022
3712 Rain 20 1021 35 9656 4.12 330 23:34 14.02.2022
3713 Clouds 21 1020 35 10000 3.58 30 21:55 14.02.2022
3714 Clouds 20 1021 37 10000 1.34 190 20:50 14.02.2022
3715 Clear 19 1025 40 9656 1.03 190 19:45 14.02.2022
3716 Clear 19 1025 40 9656 1.03 190 19:45 14.02.2022
3717 Clear 19 1025 41 9656 1.34 104 19:26 14.02.2022
3718 Clear 16 1026 47 9656 1.54 180 18:23 14.02.2022
3719 Clear 13 1027 54 9656 0.45 330 17:27 14.02.2022
3720 Clear 10 1027 63 9656 1.54 60 16:25 14.02.2022
3721 Clouds 7 1025 77 10000 2.57 80 14:39 14.02.2022
3722 Clouds 7 1024 74 10000 2.57 60 13:34 14.02.2022
3723 Clouds 8 1018 74 10000 1.34 72 12:55 14.02.2022
3724 Clouds 9 1018 73 10000 0.89 98 11:55 14.02.2022
3725 Clouds 8 1025 70 10000 3.6 80 11:18 14.02.2022
3726 Clouds 10 1022 65 10000 2.68 300 09:19 14.02.2022
3727 Clouds 10 1027 64 10000 2.24 345 07:33 14.02.2022
3728 Clouds 10 1027 64 10000 2.24 345 07:33 14.02.2022
3729 Clouds 11 1028 60 10000 2.57 300 06:32 14.02.2022
3730 Clouds 18 1023 40 10000 2.06 170 22:43 13.02.2022
3731 Clouds 18 1023 40 10000 2.06 170 22:25 13.02.2022
3732 Clouds 19 1024 39 10000 3.09 130 21:36 13.02.2022
3733 Clouds 18 1025 40 10000 1.54 160 20:42 13.02.2022
3734 Clouds 16 1024 46 10000 1.79 170 19:51 13.02.2022
3735 Clouds 16 1027 45 10000 1.54 190 18:54 13.02.2022
3736 Clouds 15 1027 48 10000 1.79 300 18:35 13.02.2022
3737 Clouds 11 1028 61 10000 2.57 360 16:39 13.02.2022
3738 Clouds 9 1027 64 10000 4.12 20 15:27 13.02.2022
3739 Clouds 10 1026 65 10000 5.14 360 14:37 13.02.2022
3740 Clouds 11 1023 69 10000 3.58 290 12:52 13.02.2022
3741 Clouds 10 1025 68 10000 3.6 290 12:18 13.02.2022
3742 Clouds 10 1026 67 10000 4.12 310 10:38 13.02.2022
3743 Clouds 11 1024 62 10000 4.92 350 09:49 13.02.2022
3744 Clouds 12 1025 57 10000 5.81 350 07:53 13.02.2022
3745 Clouds 18 1020 28 10000 4.12 40 00:49 13.02.2022
3746 Clouds 18 1019 27 10000 4.12 40 00:20 13.02.2022
3747 Clouds 20 1019 27 10000 5.14 260 22:34 12.02.2022
3748 Clouds 20 1019 27 10000 3.58 254 21:40 12.02.2022
3749 Clouds 19 1020 26 10000 2.06 310 20:52 12.02.2022
3750 Clouds 19 1021 24 10000 3.09 270 19:48 12.02.2022
3751 Clouds 18 1021 24 10000 2.68 240 18:53 12.02.2022
3752 Clouds 18 1023 22 10000 3.09 240 18:35 12.02.2022
3753 Clouds 16 1023 20 10000 4.12 100 17:37 12.02.2022
3754 Clouds 14 1023 23 10000 0.45 135 16:43 12.02.2022
3755 Clouds 13 1020 24 10000 1.79 200 15:52 12.02.2022
3756 Clouds 12 1019 29 10000 0.89 260 14:55 12.02.2022
3757 Clouds 12 1021 28 10000 1.03 260 14:25 12.02.2022
3758 Clouds 12 1019 27 10000 0 0 11:20 12.02.2022
3759 Clouds 12 1019 27 10000 2.06 120 10:28 12.02.2022
3760 Clouds 12 1020 32 10000 1.03 90 09:33 12.02.2022
3761 Clouds 13 1018 23 10000 0.89 340 08:46 12.02.2022
3762 Clouds 15 1018 22 10000 4.92 160 06:46 12.02.2022
3763 Clouds 16 1019 31 10000 5.14 170 04:38 12.02.2022
3764 Clouds 17 1017 30 10000 5.14 180 02:19 12.02.2022
3765 Clouds 21 1015 21 10000 7.72 250 23:20 11.02.2022
3766 Clouds 20 1015 21 10000 7.2 260 22:20 11.02.2022
3767 Clouds 21 1016 18 10000 4.12 270 21:18 11.02.2022
3768 Clear 20 1017 18 10000 7.72 280 20:26 11.02.2022
3769 Clear 19 1019 19 10000 2.06 200 19:28 11.02.2022
3770 Clear 18 1020 24 10000 2.57 90 18:29 11.02.2022
3771 Clear 16 1020 32 10000 1.54 180 17:26 11.02.2022
3772 Clear 14 1020 37 10000 2.06 150 16:37 11.02.2022
3773 Clear 11 1020 48 10000 2.57 110 15:18 11.02.2022
3774 Clear 9 1019 52 10000 0 0 14:37 11.02.2022
3775 Clear 9 1019 52 10000 0 0 14:19 11.02.2022
3776 Clear 9 1018 52 10000 0.89 124 13:40 11.02.2022
3777 Clear 10 1018 49 10000 0 0 12:37 11.02.2022
3778 Clear 10 1018 42 10000 0 0 10:31 11.02.2022
3779 Clear 11 1019 39 10000 0 0 09:31 11.02.2022
3780 Clear 12 1017 39 10000 2.57 180 08:31 11.02.2022
3781 Clear 13 1019 34 10000 5.14 160 07:40 11.02.2022
3782 Clouds 17 1017 36 10000 5.14 180 02:40 11.02.2022
3783 Clouds 17 1017 35 10000 5.14 180 02:20 11.02.2022
3784 Clouds 19 1014 34 10000 6.69 120 23:40 10.02.2022
3785 Clouds 20 1015 32 10000 4.02 180 21:55 10.02.2022
3786 Clouds 20 1017 31 10000 4.12 180 21:35 10.02.2022
3787 Clouds 19 1016 33 10000 3.58 190 20:48 10.02.2022
3788 Clouds 18 1017 34 10000 6.71 150 19:49 10.02.2022
3789 Clouds 18 1020 33 10000 6.71 150 19:20 10.02.2022
3790 Clouds 16 1020 40 10000 6.17 150 17:43 10.02.2022
3791 Clouds 14 1020 44 10000 4.12 190 17:20 10.02.2022
3792 Clear 13 1020 45 10000 1.54 90 16:23 10.02.2022
3793 Clear 10 1020 56 10000 2.06 50 15:34 10.02.2022
3794 Clear 11 1011 61 10000 0.89 165 14:49 10.02.2022
3795 Clear 9 1017 61 10000 2.06 70 14:30 10.02.2022
3796 Clear 9 1017 62 10000 1.03 70 13:33 10.02.2022
3797 Clear 9 1017 62 10000 1.03 70 13:33 10.02.2022
3798 Clear 9 1016 61 10000 2.06 60 12:51 10.02.2022
3799 Clear 10 1018 54 10000 0.45 53 11:44 10.02.2022
3800 Clear 10 1018 54 10000 0 0 11:25 10.02.2022
3801 Clear 11 1019 53 10000 0 0 10:19 10.02.2022
3802 Clear 11 1019 51 10000 1.03 110 09:25 10.02.2022
3803 Clouds 13 1020 47 10000 2.06 130 07:40 10.02.2022
3804 Clouds 15 1018 42 10000 1.79 180 05:53 10.02.2022
3805 Clouds 18 1021 36 10000 4.02 170 01:58 10.02.2022
3806 Clouds 19 1015 38 10000 4.47 190 00:51 10.02.2022
3807 Clouds 19 1017 36 10000 4.63 190 00:29 10.02.2022
3808 Clouds 19 1017 36 10000 5.14 140 23:28 09.02.2022
3809 Clouds 20 1018 26 10000 5.14 280 22:38 09.02.2022
3810 Clouds 20 1016 25 10000 1.34 100 21:56 09.02.2022
3811 Clouds 19 1019 25 10000 1.54 100 21:32 09.02.2022
3812 Clear 19 1017 28 10000 2.68 108 20:53 09.02.2022
3813 Clouds 18 1020 29 10000 2.57 60 20:31 09.02.2022
3814 Clear 18 1018 34 10000 1.79 20 19:59 09.02.2022
3815 Clouds 18 1021 34 10000 2.06 20 19:38 09.02.2022
3816 Clear 14 1020 58 9656 1.54 60 17:39 09.02.2022
3817 Clear 12 1020 66 9656 2.06 70 16:53 09.02.2022
3818 Clear 12 1014 69 10000 0.89 84 15:52 09.02.2022
3819 Mist 8 1019 82 6437 2.06 80 14:42 09.02.2022
3820 Clear 9 1018 82 9656 1.54 60 12:28 09.02.2022
3821 Clear 11 1012 72 10000 0.89 331 10:55 09.02.2022
3822 Clear 9 1018 83 9656 0.89 319 10:30 09.02.2022
3823 Clear 10 1019 81 9656 2.57 70 09:40 09.02.2022
3824 Clear 10 1019 81 9656 2.57 70 09:19 09.02.2022
3825 Clouds 11 1026 71 10000 1.34 100 07:55 09.02.2022
3826 Clouds 12 1021 65 10000 2.57 40 05:30 09.02.2022
3827 Clouds 13 1024 62 10000 3.6 40 03:50 09.02.2022
3828 Clouds 18 1018 40 10000 3.09 110 00:53 09.02.2022
3829 Rain 17 1017 39 10000 2.57 360 23:33 08.02.2022
3830 Rain 18 1015 41 10000 3.6 20 22:47 08.02.2022
3831 Rain 18 1015 46 8047 2.24 9 22:21 08.02.2022
3832 Thunderstorm 16 1016 51 4828 2.06 320 21:42 08.02.2022
3833 Clouds 19 1019 39 8047 4.12 50 21:21 08.02.2022
3834 Clouds 19 1019 38 8047 3.09 220 20:44 08.02.2022
3835 Clouds 18 1021 44 6437 2.06 220 19:46 08.02.2022
3836 Clear 15 1020 55 6437 3.09 80 18:38 08.02.2022
3837 Clouds 13 1023 64 6437 2.06 110 17:42 08.02.2022
3838 Clouds 10 1023 75 6437 3.09 40 16:30 08.02.2022
3839 Clouds 9 1022 80 6437 2.57 60 15:30 08.02.2022
3840 Clouds 9 1022 80 6437 2.57 60 15:30 08.02.2022
3841 Mist 8 1022 81 6437 2.06 80 14:36 08.02.2022
3842 Mist 9 1021 78 6437 1.54 50 13:20 08.02.2022
3843 Haze 9 1019 79 6437 2.06 60 11:33 08.02.2022
3844 Clouds 10 1012 81 10000 3.58 337 10:23 08.02.2022
3845 Clouds 10 1012 81 10000 3.58 337 10:23 08.02.2022
3846 Clouds 10 1012 81 10000 2.68 350 09:44 08.02.2022
3847 Clouds 11 1012 80 10000 0.45 350 07:51 08.02.2022
3848 Clouds 13 1012 77 10000 3.58 336 05:40 08.02.2022
3849 Clouds 13 1012 77 10000 1.79 13 04:39 08.02.2022
3850 Clouds 13 1012 76 10000 2.36 16 04:21 08.02.2022
3851 Clouds 14 1011 72 10000 1.34 317 03:36 08.02.2022
3852 Clouds 15 1010 69 10000 0.89 20 03:18 08.02.2022
3853 Clouds 15 1010 69 10000 0.89 20 02:58 08.02.2022
3854 Clouds 15 1010 68 10000 1.79 355 02:36 08.02.2022
3855 Clouds 16 1017 54 10000 2.68 200 02:18 08.02.2022
3856 Clouds 18 1019 45 10000 3.09 200 01:43 08.02.2022
3857 Clouds 18 1018 45 10000 3.09 200 01:24 08.02.2022
3858 Clouds 17 1016 48 10000 3.58 180 00:53 08.02.2022
3859 Clouds 17 1015 73 10000 4.12 170 23:54 07.02.2022
3860 Clouds 17 1015 73 10000 4.12 170 23:36 07.02.2022
3861 Clouds 17 1015 50 9656 4.12 170 23:18 07.02.2022
3862 Clouds 19 1018 43 10000 5.14 160 22:19 07.02.2022
3863 Clouds 19 1016 38 10000 2.68 180 21:53 07.02.2022
3864 Clouds 20 1019 34 10000 3.09 180 21:29 07.02.2022
3865 Clouds 21 1017 34 10000 1.79 160 20:56 07.02.2022
3866 Clouds 21 1020 32 10000 2.06 160 20:38 07.02.2022
3867 Clouds 20 1018 37 10000 1.79 130 19:49 07.02.2022
3868 Clouds 20 1021 37 10000 2.06 130 19:31 07.02.2022
3869 Clouds 18 1012 52 10000 1.34 74 17:52 07.02.2022
3870 Clear 15 1023 53 10000 2.06 50 16:52 07.02.2022
3871 Clouds 15 1012 63 10000 0.45 53 15:49 07.02.2022
3872 Clouds 12 1012 67 10000 0.89 343 14:48 07.02.2022
3873 Clear 10 1018 71 10000 0.89 344 13:28 07.02.2022
3874 Clear 11 1018 71 10000 2.06 30 12:38 07.02.2022
3875 Clouds 12 1010 70 10000 0.89 355 11:55 07.02.2022
3876 Clear 11 1018 67 10000 0.89 339 11:33 07.02.2022
3877 Clouds 12 1018 61 10000 2.06 198 10:47 07.02.2022
3878 Clear 12 1020 61 10000 0 0 10:28 07.02.2022
3879 Clouds 13 1018 59 10000 1.34 90 09:52 07.02.2022
3880 Clear 13 1020 57 10000 1.34 90 09:18 07.02.2022
3881 Clear 14 1021 54 10000 0 0 08:20 07.02.2022
3882 Clear 15 1021 51 10000 2.24 170 06:35 07.02.2022
3883 Clouds 15 1019 51 10000 1.79 160 05:47 07.02.2022
3884 Clouds 17 1018 47 10000 4.92 290 02:56 07.02.2022
3885 Clouds 18 1019 40 9656 4.92 190 00:42 07.02.2022
3886 Clouds 20 1018 35 9656 7.15 220 23:42 06.02.2022
3887 Clouds 21 1016 33 10000 2.68 30 22:47 06.02.2022
3888 Clouds 21 1017 30 10000 2.24 360 21:51 06.02.2022
3889 Clouds 21 1020 29 10000 2.24 360 21:26 06.02.2022
3890 Clouds 21 1018 29 10000 4.02 50 20:52 06.02.2022
3891 Clouds 21 1021 31 10000 0.45 24 20:24 06.02.2022
3892 Clear 20 1021 35 10000 0.89 141 19:30 06.02.2022
3893 Clear 18 1023 44 10000 0.45 41 18:35 06.02.2022
3894 Clear 17 1024 47 10000 2.24 320 17:54 06.02.2022
3895 Clear 14 1023 54 10000 0.45 161 16:52 06.02.2022
3896 Clear 14 1023 55 10000 0 0 16:30 06.02.2022
3897 Clear 12 1020 66 10000 0.89 86 15:47 06.02.2022
3898 Clear 12 1020 66 10000 0.89 164 15:25 06.02.2022
3899 Clear 10 1020 74 10000 2.57 60 14:25 06.02.2022
3900 Clear 11 1020 68 10000 1.54 90 13:24 06.02.2022
3901 Clear 11 1022 69 10000 0.45 211 12:34 06.02.2022
3902 Clear 12 1019 68 10000 0 0 11:19 06.02.2022
3903 Clouds 13 1020 65 10000 1.34 40 09:48 06.02.2022
3904 Clouds 13 1023 60 10000 1.79 70 08:46 06.02.2022
3905 Clouds 14 1023 64 10000 0 0 07:36 06.02.2022
3906 Clouds 14 1023 62 10000 1.79 50 05:29 06.02.2022
3907 Clouds 16 1021 60 10000 2.68 280 02:26 06.02.2022
3908 Clouds 20 1020 35 10000 4.92 220 00:51 06.02.2022
3909 Clouds 20 1020 34 10000 4.92 220 00:24 06.02.2022
3910 Clouds 20 1019 35 10000 2.68 180 21:59 05.02.2022
3911 Clouds 18 1023 39 9656 2.68 180 20:48 05.02.2022
3912 Clouds 18 1023 39 9656 2.68 180 20:23 05.02.2022
3913 Clouds 17 1024 44 8047 1.79 80 19:44 05.02.2022
3914 Clouds 15 1025 48 8047 1.79 40 18:48 05.02.2022
3915 Clouds 12 1023 59 8047 0.45 71 17:37 05.02.2022
3916 Clear 8 1023 73 8047 0.45 51 16:33 05.02.2022
3917 Clear 7 1023 76 8047 1.34 72 15:31 05.02.2022
3918 Clouds 8 1014 72 10000 0.89 90 13:57 05.02.2022
3919 Clouds 7 1021 75 10000 3.13 83 12:46 05.02.2022
3920 Clouds 10 1020 68 10000 0.89 70 11:47 05.02.2022
3921 Clouds 11 1023 61 10000 3.58 90 10:44 05.02.2022
3922 Clouds 12 1023 58 10000 2.24 80 09:51 05.02.2022
3923 Clear 14 1021 52 10000 1.79 5 08:51 05.02.2022
3924 Clouds 15 1024 45 10000 2.24 30 07:32 05.02.2022
3925 Clouds 15 1022 42 10000 2.24 30 06:55 05.02.2022
3926 Clouds 20 1026 28 10000 4.92 170 02:43 05.02.2022
3927 Clouds 21 1020 30 10000 4.92 170 01:18 05.02.2022
3928 Clouds 23 1019 24 10000 4.92 140 00:36 05.02.2022
3929 Clouds 23 1019 22 10000 4.92 360 23:33 04.02.2022
3930 Clouds 23 1017 24 10000 4.92 160 22:50 04.02.2022
3931 Clouds 23 1020 22 10000 1.79 220 21:36 04.02.2022
3932 Clouds 23 1020 22 10000 1.79 220 21:18 04.02.2022
3933 Clouds 22 1021 24 10000 1.54 0 20:37 04.02.2022
3934 Clouds 21 1022 29 10000 1.34 40 19:19 04.02.2022
3935 Clear 16 1023 43 10000 1.79 50 16:44 04.02.2022
3936 Clear 13 1019 54 10000 0.45 123 15:33 04.02.2022
3937 Clear 12 1019 59 10000 1.03 200 14:47 04.02.2022
3938 Clear 12 1018 59 10000 1.79 240 12:43 04.02.2022
3939 Clouds 13 1020 53 10000 1.79 220 11:45 04.02.2022
3940 Clear 14 1018 53 10000 1.79 140 10:56 04.02.2022
3941 Clouds 14 1020 53 10000 1.79 140 10:22 04.02.2022
3942 Clouds 15 1021 49 10000 1.79 140 08:30 04.02.2022
3943 Clouds 18 1024 42 10000 3.58 180 03:47 04.02.2022
3944 Clouds 19 1018 42 10000 3.58 190 02:36 04.02.2022
3945 Clouds 23 1015 29 10000 5.36 130 23:40 03.02.2022
3946 Clear 24 1013 24 10000 4.02 140 22:51 03.02.2022
3947 Clear 24 1013 20 10000 3.58 140 21:52 03.02.2022
3948 Clear 23 1017 20 10000 3.58 140 21:29 03.02.2022
3949 Clear 23 1018 23 10000 2.24 250 20:22 03.02.2022
3950 Clear 23 1018 23 10000 2.24 250 20:22 03.02.2022
3951 Clear 22 1019 24 10000 1.34 60 19:42 03.02.2022
3952 Clear 21 1019 29 10000 1.34 300 18:56 03.02.2022
3953 Clear 19 1009 37 10000 0.45 59 17:59 03.02.2022
3954 Clear 16 1017 43 10000 0.45 88 16:55 03.02.2022
3955 Clear 12 1019 55 10000 1.34 230 15:28 03.02.2022
3956 Clear 12 1017 56 10000 0.45 168 13:45 03.02.2022
3957 Clear 13 1014 56 10000 0.45 126 11:47 03.02.2022
3958 Clear 15 1015 50 10000 3.58 110 08:56 03.02.2022
3959 Clouds 15 1017 49 10000 3.58 120 07:41 03.02.2022
3960 Clouds 22 1010 36 10000 7.6 130 00:47 03.02.2022
3961 Clouds 22 1018 33 10000 7.6 130 00:22 03.02.2022
3962 Clouds 24 1013 26 10000 5.81 130 22:38 02.02.2022
3963 Clear 24 1010 21 10000 4.47 110 21:46 02.02.2022
3964 Clear 24 1013 21 10000 4.47 110 21:28 02.02.2022
3965 Clear 23 1014 23 10000 1.34 113 20:24 02.02.2022
3966 Clear 21 1013 28 10000 1.79 160 19:46 02.02.2022
3967 Clear 20 1014 33 10000 1.34 140 18:56 02.02.2022
3968 Clear 20 1017 35 10000 1.34 140 18:24 02.02.2022
3969 Clear 17 1017 42 10000 1.34 70 17:20 02.02.2022
3970 Clear 16 1017 44 10000 1.79 70 16:54 02.02.2022
3971 Clear 10 1013 64 10000 2.06 60 14:42 02.02.2022
3972 Clear 12 1015 56 10000 0.45 113 12:30 02.02.2022
3973 Clear 12 1012 56 10000 1.79 240 11:48 02.02.2022
3974 Clear 12 1015 55 10000 1.79 240 11:30 02.02.2022
3975 Clear 15 1016 45 10000 1.79 130 08:29 02.02.2022
3976 Clouds 20 1013 34 10000 4.47 180 01:46 02.02.2022
3977 Clear 24 1013 21 10000 2.68 260 22:29 01.02.2022
3978 Clear 23 1012 23 10000 6.71 210 20:50 01.02.2022
3979 Clear 21 1017 24 10000 5.36 220 18:55 01.02.2022
3980 Clear 16 1016 39 10000 1.34 190 16:46 01.02.2022
3981 Clear 16 1018 39 10000 1.34 190 16:19 01.02.2022
3982 Clear 12 1006 55 10000 1.18 210 12:56 01.02.2022
3983 Clear 13 1005 53 10000 1.11 209 11:51 01.02.2022
3984 Clear 15 1015 42 10000 1.79 250 08:51 01.02.2022
3985 Clouds 19 1016 32 10000 4.92 240 02:20 01.02.2022
3986 Clouds 23 1015 26 10000 4.92 280 23:37 31.01.2022
3987 Clouds 23 1015 25 10000 4.92 250 22:33 31.01.2022
3988 Clouds 22 1016 26 10000 4.92 220 21:34 31.01.2022
3989 Clouds 22 1018 27 10000 4.92 240 20:34 31.01.2022
3990 Clear 21 1016 31 10000 4.92 240 19:52 31.01.2022
3991 Clear 20 1020 32 10000 4.02 240 18:31 31.01.2022
3992 Clear 19 1018 39 10000 1.79 230 17:55 31.01.2022
3993 Clear 16 1018 49 10000 3.13 254 16:58 31.01.2022
3994 Clear 16 1021 51 10000 0.89 248 16:20 31.01.2022
3995 Clear 13 1009 69 10000 0.45 167 14:49 31.01.2022
3996 Clear 12 1017 66 10000 1.79 220 12:57 31.01.2022
3997 Clouds 12 1019 65 10000 1.79 220 12:37 31.01.2022
3998 Clear 14 1018 62 10000 0.89 230 10:58 31.01.2022
3999 Clear 13 1020 63 10000 0.89 230 10:38 31.01.2022
4000 Clear 15 1020 58 10000 1.79 260 09:36 31.01.2022
4001 Clear 15 1018 59 10000 0.45 179 08:54 31.01.2022
4002 Clouds 15 1021 57 10000 0 0 08:20 31.01.2022
4003 Clouds 15 1021 56 10000 0.89 180 07:29 31.01.2022
4004 Clear 17 1021 49 10000 1.34 180 05:24 31.01.2022
4005 Clouds 23 1018 25 10000 1.79 20 23:37 30.01.2022
4006 Clouds 22 1019 28 10000 3.58 40 22:31 30.01.2022
4007 Clouds 22 1020 27 10000 1.34 50 21:44 30.01.2022
4008 Clouds 22 1020 28 10000 1.34 50 21:22 30.01.2022
4009 Clear 21 1019 31 10000 4.02 310 20:51 30.01.2022
4010 Clouds 21 1021 30 10000 4.02 310 20:30 30.01.2022
4011 Clear 20 1020 37 10000 3.58 80 19:54 30.01.2022
4012 Clear 19 1024 40 9656 2.24 100 18:51 30.01.2022
4013 Clear 19 1024 43 9656 2.24 100 18:21 30.01.2022
4014 Clear 16 1025 51 9656 1.79 80 17:30 30.01.2022
4015 Clear 14 1022 60 8047 1.34 84 16:42 30.01.2022
4016 Clear 14 1022 61 8047 0.45 39 16:22 30.01.2022
4017 Clear 14 1022 61 8047 0.45 39 16:22 30.01.2022
4018 Clear 12 1022 63 9656 2.06 80 15:54 30.01.2022
4019 Clear 11 1021 68 10000 0.89 96 15:32 30.01.2022
4020 Clear 11 1013 72 10000 0.45 155 14:47 30.01.2022
4021 Clear 10 1020 71 10000 0 0 13:37 30.01.2022
4022 Clear 11 1022 67 10000 1.34 80 12:41 30.01.2022
4023 Clear 12 1022 65 10000 0 0 10:38 30.01.2022
4024 Clouds 13 1020 65 10000 2.24 70 09:57 30.01.2022
4025 Clear 12 1023 63 10000 2.24 70 09:21 30.01.2022
4026 Clouds 15 1021 58 10000 1.79 280 07:57 30.01.2022
4027 Clouds 18 1023 47 10000 4.47 100 02:44 30.01.2022
4028 Clouds 19 1020 43 10000 3.58 170 01:52 30.01.2022
4029 Clouds 22 1017 34 10000 0.89 68 23:45 29.01.2022
4030 Clouds 22 1020 32 9656 2.68 40 22:37 29.01.2022
4031 Clear 21 1021 39 9656 1.79 190 21:27 29.01.2022
4032 Clear 19 1020 41 10000 1.79 265 20:48 29.01.2022
4033 Clear 18 1022 44 10000 1.79 90 19:47 29.01.2022
4034 Clear 17 1025 44 10000 2.24 130 19:29 29.01.2022
4035 Clear 15 1026 50 10000 1.34 140 18:39 29.01.2022
4036 Clear 13 1024 55 10000 1.54 210 17:42 29.01.2022
4037 Clouds 12 1024 59 10000 0.89 78 16:42 29.01.2022
4038 Clear 9 1023 65 10000 2.68 90 14:52 29.01.2022
4039 Clear 9 1023 68 10000 1.79 270 13:46 29.01.2022
4040 Clouds 9 1025 67 10000 1.79 270 13:26 29.01.2022
4041 Clouds 9 1024 64 10000 2.24 60 12:40 29.01.2022
4042 Clouds 9 1024 67 10000 1.79 280 11:38 29.01.2022
4043 Clouds 9 1025 67 10000 2.24 300 10:25 29.01.2022
4044 Clouds 10 1026 65 10000 4.02 30 07:24 29.01.2022
4045 Dust 17 1021 49 10000 4.92 30 01:35 29.01.2022
4046 Clouds 22 1019 28 10000 4.02 20 00:31 29.01.2022
4047 Clouds 23 1019 27 10000 2.68 50 23:22 28.01.2022
4048 Clouds 22 1020 31 10000 2.68 80 22:42 28.01.2022
4049 Clouds 22 1020 31 10000 2.68 80 22:18 28.01.2022
4050 Clouds 21 1022 36 9656 2.24 60 20:40 28.01.2022
4051 Clouds 20 1023 40 8047 1.79 20 19:51 28.01.2022
4052 Clear 18 1024 44 8047 1.79 60 18:49 28.01.2022
4053 Clear 17 1024 48 9656 2.24 80 17:45 28.01.2022
4054 Clear 12 1020 66 10000 1.34 57 15:45 28.01.2022
4055 Clear 11 1019 69 10000 0.89 138 14:18 28.01.2022
4056 Clear 12 1018 69 10000 0.45 142 12:33 28.01.2022
4057 Clear 12 1018 68 10000 0 0 11:38 28.01.2022
4058 Clear 13 1018 66 10000 0 0 10:21 28.01.2022
4059 Clear 14 1021 60 10000 0 0 09:44 28.01.2022
4060 Clear 16 1022 54 10000 1.34 150 07:39 28.01.2022
4061 Clear 17 1021 51 10000 1.79 110 05:23 28.01.2022
4062 Clouds 19 1017 45 10000 4.92 160 03:47 28.01.2022
4063 Clouds 20 1019 42 10000 4.02 160 02:23 28.01.2022
4064 Clouds 22 1018 37 10000 4.47 120 01:33 28.01.2022
4065 Clouds 23 1018 27 10000 1.79 300 23:30 27.01.2022
4066 Clouds 23 1016 29 10000 2.24 80 21:50 27.01.2022
4067 Clouds 23 1019 27 10000 2.24 80 21:30 27.01.2022
4068 Clouds 23 1019 27 10000 2.24 80 21:30 27.01.2022
4069 Clouds 22 1017 32 10000 1.79 60 20:44 27.01.2022
4070 Clear 20 1022 37 10000 1.79 100 19:21 27.01.2022
4071 Clear 19 1023 43 10000 1.79 130 17:56 27.01.2022
4072 Clouds 12 1022 60 10000 1.34 50 15:18 27.01.2022
4073 Clouds 11 1019 69 10000 2.06 80 13:36 27.01.2022
4074 Clouds 11 1019 68 10000 0.45 123 12:45 27.01.2022
4075 Clouds 12 1021 62 10000 0 0 10:24 27.01.2022
4076 Clouds 14 1027 54 10000 1.79 190 08:57 27.01.2022
4077 Clear 14 1022 56 10000 1.79 190 08:31 27.01.2022
4078 Clouds 16 1019 49 10000 1.79 180 05:59 27.01.2022
4079 Clouds 19 1019 42 10000 4.47 180 02:43 27.01.2022
4080 Clouds 23 1017 28 10000 4.92 120 23:32 26.01.2022
4081 Clear 22 1024 26 10000 2.68 40 21:59 26.01.2022
4082 Clouds 22 1018 29 10000 2.68 40 21:35 26.01.2022
4083 Clouds 21 1019 31 10000 3.58 110 20:36 26.01.2022
4084 Clouds 21 1019 31 10000 3.58 110 20:36 26.01.2022
4085 Clouds 21 1024 29 10000 4.02 90 19:59 26.01.2022
4086 Clouds 19 1021 35 10000 3.58 120 19:20 26.01.2022
4087 Clear 18 1020 40 10000 1.79 170 18:45 26.01.2022
4088 Clear 15 1027 47 10000 1.79 80 17:50 26.01.2022
4089 Clouds 15 1020 51 10000 0.45 60 17:22 26.01.2022
4090 Clear 13 1023 58 10000 1.79 100 16:31 26.01.2022
4091 Clear 12 1026 62 10000 1.34 90 15:49 26.01.2022
4092 Clear 12 1010 65 10000 2.57 60 13:58 26.01.2022
4093 Clouds 12 1023 62 10000 1.79 260 11:48 26.01.2022
4094 Clouds 12 1019 62 10000 0.45 184 10:27 26.01.2022
4095 Clouds 13 1020 58 10000 0 0 09:45 26.01.2022
4096 Clear 14 1020 55 10000 0.89 105 07:37 26.01.2022
4097 Clouds 20 1014 36 10000 4.92 180 01:53 26.01.2022
4098 Clear 23 1021 23 10000 4.92 230 23:54 25.01.2022
4099 Clear 22 1013 29 10000 5.81 240 22:56 25.01.2022
4100 Clouds 22 1016 27 10000 5.81 240 22:21 25.01.2022
4101 Clear 21 1022 28 10000 5.81 260 21:52 25.01.2022
4102 Clouds 20 1018 32 10000 4.92 210 20:46 25.01.2022
4103 Clouds 20 1018 32 10000 4.92 210 20:22 25.01.2022
4104 Clear 19 1025 34 10000 4.92 210 19:46 25.01.2022
4105 Clouds 18 1021 39 10000 1.79 310 18:24 25.01.2022
4106 Clouds 15 1021 50 10000 1.79 80 17:42 25.01.2022
4107 Clouds 14 1018 58 10000 0.45 213 16:35 25.01.2022
4108 Clouds 12 1020 59 10000 1.79 270 15:47 25.01.2022
4109 Clouds 12 1020 59 10000 1.79 270 15:28 25.01.2022
4110 Clear 11 1017 62 10000 0.89 240 14:57 25.01.2022
4111 Clear 11 1018 62 10000 0.45 218 13:28 25.01.2022
4112 Clouds 13 1018 57 10000 0.89 180 10:35 25.01.2022
4113 Clear 13 1018 56 10000 1.79 80 08:34 25.01.2022
4114 Clouds 14 1019 53 10000 0 0 07:28 25.01.2022
4115 Clouds 15 1019 50 10000 2.68 230 06:29 25.01.2022
4116 Clouds 16 1018 47 10000 4.02 170 04:22 25.01.2022
4117 Clouds 19 1014 37 10000 7.6 150 23:37 24.01.2022
4118 Clouds 19 1014 37 10000 7.6 150 23:18 24.01.2022
4119 Clouds 20 1020 32 10000 8.94 180 22:59 24.01.2022
4120 Clouds 20 1014 36 10000 8.94 180 22:41 24.01.2022
4121 Clouds 21 1011 33 10000 0.89 191 21:49 24.01.2022
4122 Clouds 21 1012 31 10000 0.45 12 21:27 24.01.2022
4123 Clouds 21 1017 32 10000 2.24 220 20:29 24.01.2022
4124 Clouds 20 1018 35 10000 2.24 220 19:39 24.01.2022
4125 Clouds 20 1018 36 10000 2.24 220 19:19 24.01.2022
4126 Clouds 18 1020 43 10000 2.24 170 17:44 24.01.2022
4127 Clouds 17 1020 51 10000 2.24 180 17:23 24.01.2022
4128 Clouds 16 1020 52 10000 0.45 153 16:33 24.01.2022
4129 Clouds 15 1024 55 10000 0 0 15:52 24.01.2022
4130 Clouds 11 1020 67 10000 0 0 14:27 24.01.2022
4131 Clouds 11 1018 66 10000 2.68 110 12:36 24.01.2022
4132 Clouds 12 1024 62 10000 1.79 90 11:59 24.01.2022
4133 Clouds 12 1019 60 10000 0.89 73 10:25 24.01.2022
4134 Clouds 13 1017 60 10000 1.34 200 09:47 24.01.2022
4135 Clear 14 1019 56 10000 2.24 180 08:19 24.01.2022
4136 Clouds 19 1022 37 10000 5.81 150 02:51 24.01.2022
4137 Clouds 20 1017 38 10000 6.71 110 01:28 24.01.2022
4138 Clouds 21 1017 33 10000 4.92 150 00:34 24.01.2022
4139 Clouds 22 1017 33 10000 4.02 220 23:47 23.01.2022
4140 Clouds 22 1018 32 9656 4.02 100 22:21 23.01.2022
4141 Clouds 21 1019 35 9656 2.68 40 21:42 23.01.2022
4142 Clouds 21 1019 35 9656 2.68 40 21:24 23.01.2022
4143 Clouds 19 1020 39 8047 0.89 117 20:29 23.01.2022
4144 Clouds 17 1022 48 8047 1.79 50 19:21 23.01.2022
4145 Clouds 16 1023 50 8047 1.79 50 18:44 23.01.2022
4146 Clear 13 1024 66 6437 1.34 50 17:28 23.01.2022
4147 Clear 11 1021 75 6437 1.79 61 16:38 23.01.2022
4148 Clouds 10 1013 80 10000 0.89 79 14:56 23.01.2022
4149 Clear 8 1019 86 9656 1.34 79 14:19 23.01.2022
4150 Clouds 10 1012 78 10000 1.1 18 12:49 23.01.2022
4151 Clear 9 1019 82 10000 1.79 79 12:21 23.01.2022
4152 Clouds 11 1011 77 10000 1.79 93 11:51 23.01.2022
4153 Clear 10 1019 80 10000 0.89 71 11:18 23.01.2022
4154 Clear 11 1019 74 10000 0.45 9 10:26 23.01.2022
4155 Clear 11 1022 70 10000 1.34 90 09:37 23.01.2022
4156 Clear 10 1026 71 10000 2.68 70 08:51 23.01.2022
4157 Clear 16 1022 48 10000 2.24 240 05:37 23.01.2022
4158 Clouds 19 1019 39 10000 4.02 120 01:46 23.01.2022
4159 Clouds 19 1019 38 10000 4.02 120 01:23 23.01.2022
4160 Clouds 20 1019 32 10000 1.79 94 00:23 23.01.2022
4161 Clouds 21 1019 30 10000 1.79 100 23:19 22.01.2022
4162 Clouds 20 1019 29 10000 1.79 100 22:34 22.01.2022
4163 Clouds 21 1020 30 10000 1.79 150 21:19 22.01.2022
4164 Clouds 19 1020 38 10000 1.79 60 19:49 22.01.2022
4165 Clouds 18 1023 38 10000 1.79 31 18:45 22.01.2022
4166 Clouds 16 1028 48 10000 1.79 90 17:56 22.01.2022
4167 Clouds 16 1023 49 10000 1.79 90 17:35 22.01.2022
4168 Clouds 14 1021 57 10000 0.89 72 16:55 22.01.2022
4169 Clouds 12 1028 62 10000 0.45 254 15:49 22.01.2022
4170 Clouds 11 1027 66 10000 0.12 179 14:57 22.01.2022
4171 Clouds 11 1026 71 10000 0 0 13:36 22.01.2022
4172 Rain 12 1019 61 10000 0.89 165 12:48 22.01.2022
4173 Rain 12 1021 60 10000 0.89 160 12:28 22.01.2022
4174 Clouds 12 1025 51 10000 2.24 160 10:56 22.01.2022
4175 Clouds 11 1021 64 10000 2.24 60 10:28 22.01.2022
4176 Clouds 13 1027 62 10000 2.68 110 09:57 22.01.2022
4177 Clouds 14 1026 58 10000 2.68 110 08:51 22.01.2022
4178 Clouds 14 1022 57 10000 2.24 120 07:29 22.01.2022
4179 Clouds 15 1025 51 10000 8.05 140 04:52 22.01.2022
4180 Clouds 15 1025 51 10000 8.05 140 04:52 22.01.2022
4181 Clouds 18 1019 41 10000 5.81 190 01:34 22.01.2022
4182 Clouds 19 1018 35 10000 5.81 200 23:35 21.01.2022
4183 Clouds 20 1018 31 10000 8.94 160 22:20 21.01.2022
4184 Clouds 20 1019 32 10000 6.71 170 20:20 21.01.2022
4185 Clouds 18 1021 42 10000 4.92 160 18:36 21.01.2022
4186 Clouds 17 1022 50 9656 1.79 220 17:28 21.01.2022
4187 Clouds 13 1021 69 9656 0.89 70 15:30 21.01.2022
4188 Clouds 12 1020 72 9656 2.24 150 13:29 21.01.2022
4189 Clouds 12 1019 70 9656 2.68 91 12:37 21.01.2022
4190 Clouds 12 1019 67 9656 1.34 355 11:27 21.01.2022
4191 Clouds 12 1019 67 9656 1.34 60 10:19 21.01.2022
4192 Clouds 13 1020 64 9656 0.45 331 08:24 21.01.2022
4193 Clouds 15 1026 54 10000 5.81 40 04:49 21.01.2022
4194 Clouds 15 1026 54 10000 5.81 40 04:49 21.01.2022
4195 Clouds 22 1017 25 10000 4.47 120 23:35 20.01.2022
4196 Clouds 22 1018 23 10000 4.47 120 22:24 20.01.2022
4197 Clouds 21 1019 24 10000 2.68 150 21:43 20.01.2022
4198 Clouds 20 1020 25 9656 2.68 100 20:43 20.01.2022
4199 Clouds 19 1021 31 8047 1.34 70 19:20 20.01.2022
4200 Clouds 18 1022 33 8047 2.24 160 18:44 20.01.2022
4201 Clouds 15 1023 46 9656 2.24 100 16:58 20.01.2022
4202 Clouds 13 1022 50 10000 2.24 130 15:43 20.01.2022
4203 Clouds 13 1012 57 10000 0.37 68 15:19 20.01.2022
4204 Clouds 13 1019 52 10000 2.24 80 13:41 20.01.2022
4205 Clouds 13 1019 50 10000 2.24 80 12:35 20.01.2022
4206 Clouds 13 1019 49 10000 2.24 80 11:50 20.01.2022
4207 Clouds 14 1019 48 10000 2.24 80 10:40 20.01.2022
4208 Clouds 14 1022 46 10000 2.24 80 09:37 20.01.2022
4209 Clouds 14 1026 41 10000 0.61 352 08:32 20.01.2022
4210 Clouds 15 1025 53 10000 3.58 40 05:32 20.01.2022
4211 Clouds 21 1018 23 10000 1.79 100 23:28 19.01.2022
4212 Clouds 22 1018 22 9656 1.34 50 22:24 19.01.2022
4213 Clouds 21 1019 25 9656 1.79 10 21:23 19.01.2022
4214 Clouds 20 1020 29 9656 1.34 360 20:49 19.01.2022
4215 Clear 19 1022 34 9656 0 0 19:45 19.01.2022
4216 Clear 18 1023 41 8047 1.79 80 18:29 19.01.2022
4217 Clear 15 1021 52 8047 0.45 85 17:45 19.01.2022
4218 Clear 13 1021 58 9656 2.06 80 16:47 19.01.2022
4219 Clouds 10 1019 68 10000 0.45 159 14:42 19.01.2022
4220 Clouds 12 1012 63 10000 0.65 185 12:43 19.01.2022
4221 Clouds 11 1018 64 10000 2.06 70 11:41 19.01.2022
4222 Clouds 12 1021 59 10000 1.34 200 10:23 19.01.2022
4223 Clear 12 1021 59 10000 0.45 107 09:34 19.01.2022
4224 Clouds 15 1022 52 10000 1.79 120 06:45 19.01.2022
4225 Clouds 18 1019 39 10000 5.36 140 02:38 19.01.2022
4226 Clouds 21 1019 28 9656 1.79 320 23:19 18.01.2022
4227 Clouds 21 1019 29 9656 2.24 330 22:19 18.01.2022
4228 Clear 19 1026 32 10000 2.24 70 20:58 18.01.2022
4229 Clear 18 1027 36 10000 1.34 140 19:54 18.01.2022
4230 Clear 18 1027 36 9656 1.34 140 19:36 18.01.2022
4231 Clear 17 1014 53 10000 2.68 96 18:51 18.01.2022
4232 Clear 16 1024 50 8047 0.45 138 17:58 18.01.2022
4233 Clear 12 1021 64 8047 0.89 94 16:40 18.01.2022
4234 Clear 9 1021 75 9656 2.57 80 15:41 18.01.2022
4235 Clear 8 1020 76 9656 1.34 77 15:21 18.01.2022
4236 Clear 10 1019 74 10000 0.45 228 12:33 18.01.2022
4237 Clear 11 1012 72 10000 0.43 121 10:47 18.01.2022
4238 Clear 12 1012 73 10000 0.62 47 08:49 18.01.2022
4239 Clear 6 1018 54 10000 0.83 25 07:49 18.01.2022
4240 Rain 17 1020 40 10000 5.81 130 02:33 18.01.2022
4241 Clouds 20 1019 33 9656 2.24 360 23:38 17.01.2022
4242 Clouds 20 1019 30 10000 2.24 360 22:26 17.01.2022
4243 Clouds 19 1020 36 9656 1.34 140 21:33 17.01.2022
4244 Clouds 19 1022 40 10000 3.58 60 20:24 17.01.2022
4245 Clouds 15 1024 59 9656 0 0 18:30 17.01.2022
4246 Clouds 13 1024 69 9656 1.34 80 17:25 17.01.2022
4247 Clouds 12 1021 76 10000 0.45 49 16:35 17.01.2022
4248 Mist 10 1023 80 9656 1.34 50 15:18 17.01.2022
4249 Clouds 10 1024 81 10000 1.34 120 14:43 17.01.2022
4250 Clouds 10 1022 84 10000 1.79 80 13:20 17.01.2022
4251 Clouds 11 1023 80 10000 0.69 205 12:55 17.01.2022
4252 Clouds 10 1026 87 10000 1.79 70 11:48 17.01.2022
4253 Clouds 11 1022 89 10000 1.79 60 10:21 17.01.2022
4254 Clouds 11 1022 89 10000 1.79 60 10:21 17.01.2022
4255 Clouds 12 1024 79 10000 1.79 70 09:34 17.01.2022
4256 Clouds 12 1023 79 10000 0 0 07:23 17.01.2022
4257 Clouds 12 1020 78 10000 2.68 80 02:55 17.01.2022
4258 Clouds 13 1023 77 10000 4.92 270 00:55 17.01.2022
4259 Clouds 21 1019 38 6437 1.79 40 22:22 16.01.2022
4260 Clouds 17 1026 48 6437 1.79 320 20:35 16.01.2022
4261 Haze 13 1028 67 4023 2.06 80 18:51 16.01.2022
4262 Haze 12 1029 71 3219 3.09 70 17:59 16.01.2022
4263 Clouds 12 1014 72 10000 1.79 98 16:59 16.01.2022
4264 Mist 10 1021 84 1609 1.34 83 16:31 16.01.2022
4265 Fog 7 1019 90 805 0.89 52 14:31 16.01.2022
4266 Fog 8 1018 85 201 1.34 76 13:45 16.01.2022
4267 Fog 9 1018 80 8047 1.34 351 12:46 16.01.2022
4268 Clear 10 1018 73 10000 0.89 348 11:41 16.01.2022
4269 Clouds 10 1025 71 10000 0.45 5 10:53 16.01.2022
4270 Clouds 10 1026 71 10000 0.89 344 09:59 16.01.2022
4271 Clouds 11 1019 69 10000 1.68 6 09:40 16.01.2022
4272 Clear 11 1021 70 10000 0 0 09:22 16.01.2022
4273 Clear 14 1021 54 10000 0.45 303 07:25 16.01.2022
4274 Clouds 20 1018 31 10000 2.68 350 00:38 16.01.2022
4275 Clouds 21 1018 29 10000 4.02 30 23:34 15.01.2022
4276 Clouds 20 1019 30 10000 5.81 20 21:23 15.01.2022
4277 Clouds 20 1018 31 10000 4.92 40 20:56 15.01.2022
4278 Clouds 20 1021 30 9656 4.92 40 20:36 15.01.2022
4279 Clear 19 1022 35 9656 1.79 305 19:28 15.01.2022
4280 Clear 17 1022 40 9656 0.45 302 18:28 15.01.2022
4281 Clear 15 1013 50 8047 0.45 67 16:49 15.01.2022
4282 Clear 10 1019 62 10000 0.45 148 15:38 15.01.2022
4283 Clear 9 1018 67 10000 1.54 80 13:29 15.01.2022
4284 Clear 11 1020 62 10000 0.45 169 11:33 15.01.2022
4285 Clear 12 1025 58 10000 1.34 200 09:46 15.01.2022
4286 Clear 15 1020 46 10000 2.24 130 05:26 15.01.2022
4287 Clear 22 1018 10 10000 2.68 350 23:40 14.01.2022
4288 Clear 21 1020 18 10000 1.34 200 21:19 14.01.2022
4289 Clear 21 1021 22 10000 1.34 200 20:37 14.01.2022
4290 Clear 21 1025 20 10000 2.68 310 19:55 14.01.2022
4291 Clear 18 1023 37 9656 1.79 10 18:42 14.01.2022
4292 Clear 15 1023 46 9656 1.34 70 17:52 14.01.2022
4293 Clear 13 1021 56 9656 0.89 149 16:43 14.01.2022
4294 Clear 13 1021 56 9656 0.89 149 16:43 14.01.2022
4295 Clear 9 1021 67 10000 0.45 84 15:33 14.01.2022
4296 Clear 8 1021 68 9656 2.06 120 14:28 14.01.2022
4297 Clear 11 1013 66 9656 1.34 71 12:58 14.01.2022
4298 Clouds 11 1013 65 10000 0.45 75 11:52 14.01.2022
4299 Clouds 12 1013 64 10000 1.34 75 10:39 14.01.2022
4300 Clear 13 1023 50 10000 1.79 300 08:53 14.01.2022
4301 Clear 14 1024 48 10000 0 0 07:32 14.01.2022
4302 Clouds 18 1022 34 10000 4.02 360 02:27 14.01.2022
4303 Clouds 20 1021 25 10000 4.02 340 00:22 14.01.2022
4304 Clear 20 1020 27 10000 5.81 20 21:47 13.01.2022
4305 Clear 20 1022 26 10000 5.81 20 21:29 13.01.2022
4306 Clear 18 1023 30 10000 2.24 60 19:47 13.01.2022
4307 Clear 18 1025 30 10000 2.24 60 19:29 13.01.2022
4308 Clear 18 1026 32 9656 0.89 240 18:40 13.01.2022
4309 Clear 12 1024 53 10000 0.45 54 16:53 13.01.2022
4310 Clear 9 1024 63 10000 2.57 90 15:39 13.01.2022
4311 Clear 9 1024 64 10000 0.45 49 15:21 13.01.2022
4312 Clear 8 1023 71 10000 1.54 60 13:29 13.01.2022
4313 Clear 10 1023 67 10000 0.89 327 10:49 13.01.2022
4314 Clear 12 1026 60 10000 0.89 250 09:23 13.01.2022
4315 Clear 12 1027 60 10000 1.34 270 08:29 13.01.2022
4316 Clouds 13 1031 50 10000 1.79 350 07:58 13.01.2022
4317 Clear 13 1027 54 10000 1.79 350 07:19 13.01.2022
4318 Clear 15 1027 47 10000 1.34 40 05:20 13.01.2022
4319 Clear 16 1029 41 10000 4.92 20 03:48 13.01.2022
4320 Clear 19 1024 28 10000 4.92 20 01:38 13.01.2022
4321 Clouds 21 1027 33 10000 4.02 50 23:53 12.01.2022
4322 Clear 21 1027 24 10000 4.02 50 23:34 12.01.2022
4323 Clear 21 1027 22 10000 2.68 310 22:22 12.01.2022
4324 Clouds 20 1022 34 10000 3.58 30 21:43 12.01.2022
4325 Clear 20 1024 34 9656 3.58 30 21:18 12.01.2022
4326 Clear 19 1025 38 8047 4.02 350 20:44 12.01.2022
4327 Clear 17 1027 47 8047 2.24 140 18:52 12.01.2022
4328 Clear 15 1028 55 8047 1.79 60 18:18 12.01.2022
4329 Clear 11 1027 70 8047 1.34 71 16:52 12.01.2022
4330 Clear 8 1027 81 9656 2.57 90 15:38 12.01.2022
4331 Mist 7 1026 84 9656 0.45 75 14:39 12.01.2022
4332 Clouds 8 1019 81 10000 0.89 84 12:57 12.01.2022
4333 Clouds 9 1031 70 10000 1.79 130 09:48 12.01.2022
4334 Clouds 10 1032 66 10000 3.58 260 07:57 12.01.2022
4335 Clouds 10 1028 68 10000 3.58 260 07:33 12.01.2022
4336 Clouds 16 1024 47 10000 0.89 303 02:38 12.01.2022
4337 Clouds 17 1025 44 10000 2.24 360 23:27 11.01.2022
4338 Clouds 17 1026 46 10000 2.68 290 22:39 11.01.2022
4339 Clouds 17 1026 46 10000 2.68 290 22:18 11.01.2022
4340 Clouds 15 1028 54 10000 2.24 260 20:40 11.01.2022
4341 Clouds 13 1030 61 9656 2.24 270 19:35 11.01.2022
4342 Clouds 11 1028 68 10000 2.68 20 17:54 11.01.2022
4343 Clouds 10 1030 72 10000 2.24 320 16:40 11.01.2022
4344 Clouds 10 1030 72 10000 2.24 320 16:40 11.01.2022
4345 Clouds 10 1030 72 10000 2.24 320 16:18 11.01.2022
4346 Clouds 9 1033 76 10000 2.68 320 14:53 11.01.2022
4347 Clouds 9 1029 76 10000 2.68 320 14:34 11.01.2022
4348 Clouds 9 1032 76 10000 2.24 320 13:52 11.01.2022
4349 Clouds 9 1028 76 10000 2.24 320 13:28 11.01.2022
4350 Clouds 9 1028 76 10000 4.02 320 12:34 11.01.2022
4351 Clear 10 1028 72 10000 4.92 300 10:32 11.01.2022
4352 Clouds 11 1033 66 10000 4.02 300 07:55 11.01.2022
4353 Clouds 13 1028 61 10000 7.15 20 04:28 11.01.2022
4354 Clouds 18 1024 49 10000 8.05 40 00:27 11.01.2022
4355 Clouds 19 1024 45 10000 7.15 360 23:39 10.01.2022
4356 Clouds 18 1024 45 10000 4.92 30 22:39 10.01.2022
4357 Clouds 18 1024 44 10000 4.92 30 22:18 10.01.2022
4358 Clouds 19 1025 40 10000 1.79 300 21:33 10.01.2022
4359 Clouds 18 1032 39 10000 3.58 70 20:59 10.01.2022
4360 Clouds 18 1027 42 9656 3.58 70 20:41 10.01.2022
4361 Clouds 18 1027 43 9656 3.58 70 20:19 10.01.2022
4362 Clouds 15 1028 52 9656 1.79 320 19:38 10.01.2022
4363 Clouds 15 1028 53 9656 1.79 320 19:19 10.01.2022
4364 Clouds 15 1028 53 9656 1.79 320 19:19 10.01.2022
4365 Clouds 14 1029 54 9656 1.79 320 18:46 10.01.2022
4366 Clouds 12 1027 66 9656 2.24 14 16:48 10.01.2022
4367 Clouds 11 1030 66 9656 2.68 280 16:26 10.01.2022
4368 Clouds 10 1029 70 9656 4.02 310 14:44 10.01.2022
4369 Clouds 10 1028 71 10000 2.24 300 13:35 10.01.2022
4370 Clouds 11 1032 57 10000 2.24 280 11:56 10.01.2022
4371 Clouds 12 1032 46 10000 3.58 30 10:49 10.01.2022
4372 Clear 12 1027 48 10000 1.79 260 09:37 10.01.2022
4373 Clear 15 1031 41 10000 3.58 360 05:52 10.01.2022
4374 Clouds 20 1024 21 10000 7.15 10 02:38 10.01.2022
4375 Clouds 21 1023 28 10000 2.68 360 01:21 10.01.2022
4376 Clouds 22 1022 23 10000 4.92 360 00:21 10.01.2022
4377 Clouds 22 1027 19 10000 4.02 360 22:47 09.01.2022
4378 Clouds 22 1023 21 10000 4.02 360 22:21 09.01.2022
4379 Clouds 21 1023 23 10000 4.92 360 21:41 09.01.2022
4380 Clouds 21 1023 23 10000 4.92 360 21:22 09.01.2022
4381 Clear 21 1025 29 10000 1.34 43 20:47 09.01.2022
4382 Clear 20 1025 29 10000 0.45 161 20:28 09.01.2022
4383 Clouds 19 1026 34 9656 1.79 90 19:41 09.01.2022
4384 Clouds 19 1026 36 9656 1.79 90 19:21 09.01.2022
4385 Clouds 17 1025 47 10000 0.89 290 18:41 09.01.2022
4386 Clouds 16 1027 48 10000 1.34 322 18:23 09.01.2022
4387 Clouds 14 1028 57 10000 2.68 90 17:30 09.01.2022
4388 Clouds 15 1018 58 10000 0.45 103 16:50 09.01.2022
4389 Clouds 13 1017 64 10000 0.64 22 15:51 09.01.2022
4390 Clouds 10 1024 70 10000 0.45 96 15:32 09.01.2022
4391 Clouds 9 1023 74 10000 1.03 120 14:39 09.01.2022
4392 Clouds 10 1023 72 10000 1.54 100 13:49 09.01.2022
4393 Clouds 10 1022 73 10000 0.45 180 12:26 09.01.2022
4394 Clouds 12 1014 68 10000 0.45 158 11:45 09.01.2022
4395 Clouds 12 1030 58 10000 1.34 230 09:55 09.01.2022
4396 Clouds 12 1025 59 10000 1.34 230 09:29 09.01.2022
4397 Clouds 12 1026 59 10000 1.79 240 08:18 09.01.2022
4398 Clouds 19 1026 42 10000 4.92 160 01:31 09.01.2022
4399 Clouds 20 1026 24 10000 4.12 220 00:53 09.01.2022
4400 Clouds 21 1020 25 10000 1.79 20 23:37 08.01.2022
4401 Clouds 21 1018 30 10000 4.02 120 22:58 08.01.2022
4402 Clouds 21 1018 30 10000 4.02 120 22:58 08.01.2022
4403 Clouds 21 1022 25 10000 2.24 350 21:32 08.01.2022
4404 Clouds 21 1020 28 10000 2.24 320 20:44 08.01.2022
4405 Clouds 21 1023 28 9656 2.24 320 20:23 08.01.2022
4406 Clear 20 1024 32 9656 0.45 87 19:46 08.01.2022
4407 Clear 17 1025 41 8047 0.89 96 17:49 08.01.2022
4408 Clear 14 1023 52 9656 0.45 149 16:57 08.01.2022
4409 Clear 12 1022 54 10000 1.54 70 15:37 08.01.2022
4410 Clouds 10 1021 61 9656 2.06 220 14:38 08.01.2022
4411 Clear 11 1019 57 10000 1.54 270 12:36 08.01.2022
4412 Clouds 11 1019 57 10000 3.09 70 10:46 08.01.2022
4413 Clouds 11 1019 57 10000 3.09 70 10:24 08.01.2022
4414 Clouds 13 1021 46 10000 1.79 280 09:34 08.01.2022
4415 Clouds 15 1022 42 10000 2.68 210 07:18 08.01.2022
4416 Rain 19 1024 33 10000 7.6 280 01:52 08.01.2022
4417 Rain 20 1021 33 9656 2.68 180 00:25 08.01.2022
4418 Clouds 21 1018 30 9656 4.47 150 22:39 07.01.2022
4419 Clouds 21 1020 32 9656 1.79 100 20:40 07.01.2022
4420 Clouds 20 1021 36 9656 2.24 150 19:39 07.01.2022
4421 Clouds 20 1022 37 9656 0 0 18:53 07.01.2022
4422 Clouds 20 1022 38 9656 0.45 90 18:30 07.01.2022
4423 Clouds 15 1023 50 9656 0.45 86 17:25 07.01.2022
4424 Clouds 13 1020 60 10000 1.34 56 16:22 07.01.2022
4425 Clouds 12 1010 65 10000 0.91 39 13:53 07.01.2022
4426 Clouds 11 1018 66 10000 0 0 13:18 07.01.2022
4427 Clouds 11 1018 66 10000 0 0 12:35 07.01.2022
4428 Clouds 15 1018 56 10000 1.03 250 07:31 07.01.2022
4429 Rain 17 1016 46 10000 0.89 329 02:54 07.01.2022
4430 Thunderstorm 18 1007 46 8047 8.49 333 01:52 07.01.2022
4431 Thunderstorm 18 1023 39 8047 10.8 310 01:27 07.01.2022
4432 Rain 21 1013 34 9656 2.24 336 00:57 07.01.2022
4433 Clouds 23 1012 26 10000 1.34 320 22:46 06.01.2022
4434 Clouds 24 1016 24 9656 2.24 280 21:23 06.01.2022
4435 Clear 23 1017 29 9656 1.79 40 20:20 06.01.2022
4436 Clear 22 1018 31 9656 2.68 110 19:41 06.01.2022
4437 Clear 18 1025 40 8047 0.89 108 17:53 06.01.2022
4438 Clear 18 1020 43 8047 1.34 74 17:34 06.01.2022
4439 Clear 15 1017 51 8047 1.34 77 16:40 06.01.2022
4440 Clear 12 1017 57 9656 0.45 113 15:45 06.01.2022
4441 Clear 12 1017 58 9656 2.06 70 15:24 06.01.2022
4442 Clear 11 1016 62 6437 2.06 110 14:21 06.01.2022
4443 Clear 11 1015 62 8047 2.57 70 13:47 06.01.2022
4444 Clear 13 1007 65 10000 0.45 147 12:43 06.01.2022
4445 Clouds 13 1007 64 10000 0.9 189 11:42 06.01.2022
4446 Clouds 13 1007 64 10000 0.9 189 11:42 06.01.2022
4447 Clear 12 1015 61 8047 0 0 11:22 06.01.2022
4448 Clouds 15 1024 51 10000 1.19 184 08:51 06.01.2022
4449 Clouds 24 1013 19 10000 2.68 40 00:43 06.01.2022
4450 Clouds 24 1015 18 9656 2.24 20 23:36 05.01.2022
4451 Clouds 25 1022 15 10000 2.68 340 22:54 05.01.2022
4452 Clear 25 1016 17 9656 2.68 340 22:30 05.01.2022
4453 Clouds 24 1015 18 10000 1.79 310 21:47 05.01.2022
4454 Clear 24 1023 19 10000 1.34 200 20:50 05.01.2022
4455 Clear 22 1025 24 10000 0.89 180 19:59 05.01.2022
4456 Clear 21 1021 30 8047 0.89 84 18:38 05.01.2022
4457 Clear 17 1022 35 8047 1.34 190 17:23 05.01.2022
4458 Clear 14 1028 44 8047 0 0 16:38 05.01.2022
4459 Clear 10 1019 57 9656 0.45 157 15:20 05.01.2022
4460 Clear 12 1010 59 10000 0.58 195 13:51 05.01.2022
4461 Clear 10 1018 59 9656 2.06 70 12:51 05.01.2022
4462 Clear 12 1019 52 10000 2.06 60 09:30 05.01.2022
4463 Clear 15 1022 46 10000 1.34 200 07:42 05.01.2022
4464 Clear 18 1026 39 10000 1.79 100 04:58 05.01.2022
4465 Clear 24 1017 18 10000 2.68 110 00:44 05.01.2022
4466 Clear 24 1020 16 8047 1.34 260 23:27 04.01.2022
4467 Clear 23 1020 19 8047 1.34 340 22:40 04.01.2022
4468 Clear 22 1021 26 8047 2.68 320 21:18 04.01.2022
4469 Clear 19 1025 39 8047 2.68 80 19:19 04.01.2022
4470 Clear 16 1026 52 8047 0.89 55 17:39 04.01.2022
4471 Clear 13 1024 62 8047 2.06 130 16:42 04.01.2022
4472 Clear 12 1024 65 8047 2.06 130 16:23 04.01.2022
4473 Clear 11 1017 74 10000 0.89 101 14:53 04.01.2022
4474 Clear 10 1023 72 8047 0.45 101 14:34 04.01.2022
4475 Clear 10 1023 77 8047 1.54 50 13:27 04.01.2022
4476 Clear 11 1025 71 8047 2.24 50 10:41 04.01.2022
4477 Clear 13 1016 67 9656 1.54 80 09:20 04.01.2022
4478 Clear 13 1026 66 10000 1.79 80 08:28 04.01.2022
4479 Clear 19 1023 41 10000 2.24 330 02:28 04.01.2022
4480 Clear 21 1022 36 9656 1.34 110 00:40 04.01.2022
4481 Clear 21 1023 37 8047 1.79 20 23:18 03.01.2022
4482 Clear 19 1029 42 10000 1.79 80 21:50 03.01.2022
4483 Clear 19 1024 43 6437 1.79 80 21:32 03.01.2022
4484 Clear 16 1024 57 6437 0.89 65 19:47 03.01.2022
4485 Haze 14 1033 58 4828 3.09 50 18:47 03.01.2022
4486 Haze 14 1032 58 4828 2.68 50 18:24 03.01.2022
4487 Clear 14 1025 57 10000 1.26 40 16:58 03.01.2022
4488 Clear 8 1030 81 10000 4.02 80 14:56 03.01.2022
4489 Mist 8 1030 81 8047 4.02 80 14:30 03.01.2022
4490 Clouds 8 1029 87 10000 3.58 70 12:39 03.01.2022
4491 Clouds 9 1029 81 10000 2.24 70 11:35 03.01.2022
4492 Clouds 10 1025 76 10000 0.89 50 10:26 03.01.2022
4493 Clouds 10 1031 71 10000 0 0 08:47 03.01.2022
4494 Clear 11 1026 72 10000 3.58 290 07:34 03.01.2022
4495 Clear 22 1024 33 10000 8.94 30 23:55 02.01.2022
4496 Clouds 24 1019 25 10000 4.92 360 23:20 02.01.2022
4497 Clouds 24 1019 24 10000 4.02 360 22:43 02.01.2022
4498 Clear 23 1026 23 10000 4.92 20 21:39 02.01.2022
4499 Clear 22 1021 26 10000 4.02 40 20:31 02.01.2022
4500 Clear 21 1028 26 10000 2.68 320 19:53 02.01.2022
4501 Clear 21 1028 26 10000 2.68 320 19:26 02.01.2022
4502 Clear 19 1029 27 10000 0 0 18:38 02.01.2022
4503 Clear 19 1029 27 10000 0 0 18:38 02.01.2022
4504 Clear 17 1022 37 10000 0.89 76 17:43 02.01.2022
4505 Clear 16 1030 33 10000 0 0 17:22 02.01.2022
4506 Clear 16 1014 48 10000 0.89 64 16:53 02.01.2022
4507 Clear 11 1029 46 10000 2.06 80 16:23 02.01.2022
4508 Clear 7 1027 53 10000 1.54 80 14:21 02.01.2022
4509 Clear 10 1018 57 10000 2.57 70 12:39 02.01.2022
4510 Clear 12 1010 55 10000 0.21 197 11:57 02.01.2022
4511 Clear 9 1025 61 10000 0 0 11:20 02.01.2022
4512 Clear 11 1017 56 10000 1.54 60 10:37 02.01.2022
4513 Clear 13 1026 50 10000 0.06 308 08:42 02.01.2022
4514 Clear 20 1020 23 10000 1.79 360 03:25 02.01.2022
4515 Clear 24 1023 14 10000 2.68 30 23:58 01.01.2022
4516 Clear 24 1018 17 9656 2.68 30 23:39 01.01.2022
4517 Clear 24 1018 20 8047 2.68 90 22:45 01.01.2022
4518 Clear 23 1023 18 8047 2.68 90 22:19 01.01.2022
4519 Clear 22 1019 25 6437 1.34 50 21:43 01.01.2022
4520 Clear 21 1026 28 10000 1.96 30 20:52 01.01.2022
4521 Clear 20 1021 36 6437 0.89 54 19:55 01.01.2022
4522 Smoke 18 1027 42 4023 2.68 100 18:58 01.01.2022
4523 Smoke 17 1012 53 3219 2.24 69 17:56 01.01.2022
4524 Smoke 11 1028 58 3219 2.06 70 16:35 01.01.2022
4525 Clear 13 1012 66 10000 0.68 174 15:57 01.01.2022
4526 Smoke 9 1019 68 4023 0.45 65 14:57 01.01.2022
4527 Clear 8 1026 71 8047 2.06 90 13:42 01.01.2022
4528 Clear 10 1025 66 8047 0 0 12:43 01.01.2022
4529 Clear 11 1017 66 8047 0 0 11:47 01.01.2022
4530 Clear 12 1020 63 8047 1.79 230 11:19 01.01.2022
4531 Clear 13 1025 54 10000 1.34 240 09:49 01.01.2022
4532 Clear 13 1025 54 9656 1.34 240 09:21 01.01.2022
4533 Clear 14 1020 54 10000 1.79 210 08:24 01.01.2022
4534 Clear 14 1025 50 10000 2.68 150 07:41 01.01.2022
4535 Clear 14 1025 50 10000 3.58 150 06:45 01.01.2022
4536 Clear 16 1020 47 10000 2.68 120 05:26 01.01.2022
4537 Clear 17 1019 46 10000 2.68 140 04:37 01.01.2022
4538 Clear 23 1017 25 10000 3.58 60 00:41 01.01.2022
4539 Clear 24 1022 29 10000 1.34 120 22:59 31.12.2021
4540 Clear 23 1023 14 10000 1.34 310 21:51 31.12.2021
4541 Clear 21 1019 26 8047 2.24 350 20:28 31.12.2021
4542 Clear 20 1021 30 6437 1.79 80 19:28 31.12.2021
4543 Clear 18 1015 18 10000 0.84 163 18:30 31.12.2021
4544 Clear 16 1022 40 6437 0.45 136 17:37 31.12.2021
4545 Clear 16 1022 40 6437 0.45 136 17:18 31.12.2021
4546 Smoke 13 1019 49 9656 0.89 73 16:19 31.12.2021
4547 Clear 13 1011 53 9656 0.45 144 15:53 31.12.2021
4548 Clear 8 1026 61 10000 0 0 15:28 31.12.2021
4549 Clear 9 1018 62 10000 0.45 165 14:41 31.12.2021
4550 Clear 11 1010 58 10000 1.22 187 13:58 31.12.2021
4551 Clear 8 1025 66 10000 2.57 80 13:23 31.12.2021
4552 Clear 10 1017 62 10000 0 0 12:33 31.12.2021
4553 Clear 10 1017 60 10000 2.06 50 11:42 31.12.2021
4554 Clear 13 1009 54 10000 0.78 183 10:58 31.12.2021
4555 Clear 11 1025 58 10000 0 0 10:29 31.12.2021
4556 Clear 13 1027 47 10000 0 0 09:35 31.12.2021
4557 Clear 14 1025 44 10000 1.79 200 08:56 31.12.2021
4558 Clear 14 1020 46 10000 1.79 200 08:25 31.12.2021
4559 Clear 15 1026 41 10000 0 0 06:39 31.12.2021
4560 Clear 24 1022 20 9656 0 0 23:23 30.12.2021
4561 Clear 24 1018 22 9656 1.34 360 22:32 30.12.2021
4562 Clear 23 1024 20 10000 1.28 89 21:41 30.12.2021
4563 Clear 23 1019 23 9656 0 0 21:22 30.12.2021
4564 Clear 22 1020 24 8047 1.34 220 20:43 30.12.2021
4565 Clear 22 1020 24 8047 1.34 220 20:23 30.12.2021
4566 Clear 19 1024 29 6437 2.68 50 19:36 30.12.2021
4567 Clear 17 1027 31 8047 1.34 100 18:29 30.12.2021
4568 Clear 16 1020 36 9656 0.45 62 17:38 30.12.2021
4569 Clear 11 1028 43 10000 0 0 15:55 30.12.2021
4570 Clear 4 1019 37 10000 0.72 105 15:36 30.12.2021
4571 Clear 8 1019 52 10000 0.89 159 14:37 30.12.2021
4572 Clear 13 1018 45 10000 0.79 160 13:32 30.12.2021
4573 Clear 13 1017 45 10000 0.42 116 11:59 30.12.2021
4574 Clear 12 1010 50 10000 2.57 60 10:50 30.12.2021
4575 Clear 13 1010 50 10000 1.54 40 09:54 30.12.2021
4576 Clear 12 1026 43 10000 1.79 170 08:49 30.12.2021
4577 Clear 18 1023 31 10000 5.81 140 06:51 30.12.2021
4578 Clear 18 1023 31 10000 5.81 140 03:41 30.12.2021
4579 Clear 18 1018 32 10000 5.81 140 02:38 30.12.2021
4580 Smoke 24 1022 11 10000 4.92 150 23:41 29.12.2021
4581 Smoke 24 1022 11 10000 4.92 190 22:59 29.12.2021
4582 Clear 24 1017 19 10000 4.92 110 22:18 29.12.2021
4583 Clear 23 1024 18 10000 2.68 140 21:27 29.12.2021
4584 Clear 22 1018 21 10000 2.68 140 20:31 29.12.2021
4585 Clear 21 1019 24 10000 0.89 69 19:44 29.12.2021
4586 Clear 19 1021 32 10000 1.79 170 18:45 29.12.2021
4587 Clear 16 1022 44 10000 1.34 120 17:53 29.12.2021
4588 Clear 16 1022 45 10000 1.34 120 17:27 29.12.2021
4589 Clear 16 1022 45 10000 1.34 120 17:27 29.12.2021
4590 Clear 12 1019 59 10000 1.34 93 16:23 29.12.2021
4591 Clear 12 1018 56 10000 0.89 173 15:42 29.12.2021
4592 Clear 10 1018 66 10000 1.28 191 13:55 29.12.2021
4593 Clear 11 1019 67 10000 1.79 220 12:36 29.12.2021
4594 Clear 11 1019 69 10000 0.89 336 11:27 29.12.2021
4595 Clear 13 1024 58 10000 2.68 130 09:56 29.12.2021
4596 Clear 14 1025 58 10000 2.24 140 07:51 29.12.2021
4597 Clear 15 1019 57 10000 4.02 140 06:38 29.12.2021
4598 Clear 15 1016 58 10000 4.02 110 05:59 29.12.2021
4599 Clear 15 1019 57 10000 4.02 110 05:36 29.12.2021
4600 Clear 19 1017 47 10000 5.36 120 02:40 29.12.2021
4601 Clear 22 1015 35 10000 4.02 160 00:22 29.12.2021
4602 Clear 22 1015 33 9656 5.36 100 23:34 28.12.2021
4603 Clear 23 1015 29 9656 6.71 130 22:42 28.12.2021
4604 Clear 23 1015 28 9656 6.71 130 22:24 28.12.2021
4605 Clear 23 1016 29 9656 3.58 50 21:36 28.12.2021
4606 Clear 21 1017 33 8047 4.02 140 20:36 28.12.2021
4607 Clear 20 1018 39 6437 1.34 220 19:22 28.12.2021
4608 Clear 18 1016 49 6437 1.54 130 18:37 28.12.2021
4609 Haze 17 1008 56 6437 2.68 37 17:59 28.12.2021
4610 Haze 13 1017 64 6437 0.89 133 16:34 28.12.2021
4611 Clear 14 1009 64 10000 0.45 77 15:49 28.12.2021
4612 Mist 11 1017 70 8047 1.54 80 15:20 28.12.2021
4613 Clear 11 1008 69 10000 0.89 152 14:47 28.12.2021
4614 Clear 10 1016 76 8047 0 0 14:21 28.12.2021
4615 Haze 11 1016 76 8047 0.89 142 13:42 28.12.2021
4616 Haze 11 1015 76 8047 0.45 187 13:24 28.12.2021
4617 Clear 11 1015 73 8047 2.06 60 12:49 28.12.2021
4618 Clear 12 1018 75 9656 0 0 11:33 28.12.2021
4619 Clouds 14 1019 71 9656 0.89 198 08:30 28.12.2021
4620 Clouds 16 1019 66 9656 1.79 140 06:41 28.12.2021
4621 Clear 25 1016 9 10000 1.79 120 23:43 27.12.2021
4622 Clear 25 1022 9 10000 1.82 62 22:59 27.12.2021
4623 Clear 25 1018 12 9656 1.79 100 21:38 27.12.2021
4624 Clear 24 1024 17 10000 2.24 110 20:57 27.12.2021
4625 Clear 23 1024 17 8047 1.34 30 19:58 27.12.2021
4626 Clear 21 1020 23 8047 1.34 120 19:39 27.12.2021
4627 Clear 19 1021 31 9656 0.45 98 18:23 27.12.2021
4628 Clear 18 1022 32 9656 1.34 350 17:46 27.12.2021
4629 Clear 12 1028 43 10000 2.06 70 16:40 27.12.2021
4630 Clear 8 1018 41 10000 0.89 195 15:52 27.12.2021
4631 Smoke 9 1018 49 10000 0 0 14:32 27.12.2021
4632 Clear 10 1018 54 10000 0.45 88 13:39 27.12.2021
4633 Clear 10 1018 50 10000 0.89 157 12:19 27.12.2021
4634 Clear 11 1017 46 10000 0 0 10:31 27.12.2021
4635 Clear 13 1010 39 10000 0.45 169 09:47 27.12.2021
4636 Clear 15 1022 30 10000 0.45 185 07:38 27.12.2021
4637 Clear 15 1022 32 10000 0 0 07:20 27.12.2021
4638 Clear 21 1024 26 10000 4.02 70 02:18 27.12.2021
4639 Clear 26 1023 7 10000 4.02 360 23:58 26.12.2021
4640 Clear 26 1023 7 10000 4.02 360 23:35 26.12.2021
4641 Clear 24 1025 9 10000 2.24 70 21:59 26.12.2021
4642 Clear 23 1026 9 10000 1.79 310 20:54 26.12.2021
4643 Clear 23 1026 9 10000 2.24 340 19:47 26.12.2021
4644 Clear 23 1026 9 10000 2.24 340 19:47 26.12.2021
4645 Clear 18 1029 20 10000 1.34 150 18:24 26.12.2021
4646 Clear 11 1029 30 10000 1.54 100 16:20 26.12.2021
4647 Clear 6 1028 42 10000 2.57 70 14:27 26.12.2021
4648 Clear 7 1028 39 10000 2.06 70 13:40 26.12.2021
4649 Clear 7 1028 39 10000 2.06 70 13:19 26.12.2021
4650 Clear 7 1028 39 10000 2.06 60 12:32 26.12.2021
4651 Clear 10 1028 32 10000 1.03 60 10:32 26.12.2021
4652 Clear 11 1028 28 10000 2.57 80 09:19 26.12.2021
4653 Clear 12 1028 26 10000 2.57 70 08:43 26.12.2021
4654 Clear 15 1028 22 10000 1.79 280 07:49 26.12.2021
4655 Clear 25 1024 8 10000 6.17 10 01:27 26.12.2021
4656 Clear 26 1023 10 10000 4.02 30 23:54 25.12.2021
4657 Clear 26 1023 10 10000 4.02 30 23:27 25.12.2021
4658 Clear 25 1024 12 10000 4.92 10 22:26 25.12.2021
4659 Clear 25 1025 13 10000 5.81 40 20:57 25.12.2021
4660 Smoke 21 1028 22 8047 1.34 290 19:26 25.12.2021
4661 Smoke 21 1028 22 8047 1.34 330 18:55 25.12.2021
4662 Smoke 17 1029 34 6437 1.54 130 17:37 25.12.2021
4663 Smoke 12 1029 47 6437 1.54 60 16:36 25.12.2021
4664 Smoke 8 1029 57 8047 3.09 70 15:18 25.12.2021
4665 Smoke 8 1028 57 9656 0 0 13:30 25.12.2021
4666 Clear 5 1018 45 10000 0.85 354 11:51 25.12.2021
4667 Smoke 11 1027 46 10000 2.57 60 09:54 25.12.2021
4668 Smoke 11 1027 46 10000 2.57 60 09:34 25.12.2021
4669 Clear 19 1027 27 10000 4.92 20 04:34 25.12.2021
4670 Clear 24 1024 15 10000 4.02 330 01:23 25.12.2021
4671 Clear 25 1016 14 10000 0 0 23:40 24.12.2021
4672 Clear 22 1028 19 10000 2.24 360 19:46 24.12.2021
4673 Clear 22 1028 19 10000 2.24 360 19:23 24.12.2021
4674 Clear 16 1029 25 10000 0 0 16:57 24.12.2021
4675 Clear 11 1030 35 10000 0 0 16:22 24.12.2021
4676 Clear 10 1030 37 10000 2.06 70 15:48 24.12.2021
4677 Clear 2 1020 38 10000 0.24 160 14:47 24.12.2021
4678 Clear 7 1028 39 10000 2.06 70 14:26 24.12.2021
4679 Clear 7 1028 42 10000 2.06 70 13:41 24.12.2021
4680 Clear 13 1019 42 10000 0.27 234 12:48 24.12.2021
4681 Clear 8 1028 39 10000 0 0 12:20 24.12.2021
4682 Clear 8 1028 39 10000 2.06 60 11:29 24.12.2021
4683 Clear 8 1028 39 10000 1.54 70 10:59 24.12.2021
4684 Clear 8 1028 39 10000 1.54 70 10:28 24.12.2021
4685 Clear 11 1029 32 10000 2.06 70 08:26 24.12.2021
4686 Clear 12 1029 30 10000 2.06 80 07:50 24.12.2021
4687 Clear 18 1027 13 10000 4.02 360 03:21 24.12.2021
4688 Clear 23 1026 11 10000 4.02 360 00:19 24.12.2021
4689 Clear 23 1026 11 10000 2.68 40 23:23 23.12.2021
4690 Clear 23 1026 9 10000 1.34 80 22:40 23.12.2021
4691 Clear 23 1026 9 10000 1.34 80 22:20 23.12.2021
4692 Clear 22 1027 7 10000 2.68 70 21:34 23.12.2021
4693 Clear 21 1028 13 9656 2.24 360 20:20 23.12.2021
4694 Clear 19 1030 19 9656 1.79 10 18:53 23.12.2021
4695 Clear 16 1030 29 10000 1.34 90 17:57 23.12.2021
4696 Clear 14 1030 33 10000 1.34 80 16:57 23.12.2021
4697 Clear 10 1031 40 10000 2.06 100 16:25 23.12.2021
4698 Clear 6 1030 56 10000 1.54 50 15:32 23.12.2021
4699 Clear 6 1030 56 10000 2.06 50 14:54 23.12.2021
4700 Clear 4 1029 60 10000 2.57 70 14:36 23.12.2021
4701 Clear 5 1029 60 10000 4.12 80 13:19 23.12.2021
4702 Clear 13 1019 31 10000 0.18 54 10:54 23.12.2021
4703 Clear 10 1028 43 10000 2.57 50 09:47 23.12.2021
4704 Clear 10 1028 43 10000 2.57 50 09:19 23.12.2021
4705 Clear 13 1020 28 10000 2.24 240 06:59 23.12.2021
4706 Clear 17 1027 16 10000 2.24 340 04:35 23.12.2021
4707 Clear 22 1025 10 10000 3.58 30 23:26 22.12.2021
4708 Clear 22 1025 13 10000 2.24 20 22:48 22.12.2021
4709 Clear 22 1026 12 10000 2.24 280 21:57 22.12.2021
4710 Clear 22 1026 12 10000 2.24 280 21:29 22.12.2021
4711 Clear 21 1019 18 10000 1.79 280 20:50 22.12.2021
4712 Clear 21 1022 18 10000 1.79 280 20:30 22.12.2021
4713 Clear 19 1023 21 10000 1.34 92 19:32 22.12.2021
4714 Clear 17 1014 43 9656 2.57 90 17:50 22.12.2021
4715 Clear 12 1022 56 10000 0.89 89 16:40 22.12.2021
4716 Clear 7 1029 66 10000 2.06 100 15:42 22.12.2021
4717 Clear 8 1020 67 10000 2.06 60 13:37 22.12.2021
4718 Clear 9 1020 67 10000 0.45 330 12:41 22.12.2021
4719 Clear 11 1019 58 10000 1.34 77 10:36 22.12.2021
4720 Clear 11 1020 58 10000 0.45 183 09:39 22.12.2021
4721 Clouds 14 1024 44 10000 1.79 300 07:30 22.12.2021
4722 Clear 16 1028 38 10000 1.79 340 05:50 22.12.2021
4723 Clear 16 1023 39 10000 1.79 340 05:26 22.12.2021
4724 Clear 17 1027 42 10000 2.68 330 04:52 22.12.2021
4725 Clear 17 1022 37 10000 2.68 330 04:29 22.12.2021
4726 Clouds 17 1021 39 10000 5.36 60 03:33 22.12.2021
4727 Clouds 21 1016 34 10000 2.24 260 00:50 22.12.2021
4728 Clouds 21 1018 31 9656 1.79 10 23:25 21.12.2021
4729 Clouds 22 1019 32 8047 1.34 60 22:28 21.12.2021
4730 Clouds 21 1019 34 8047 1.79 320 21:44 21.12.2021
4731 Clouds 20 1020 35 8047 1.79 320 21:23 21.12.2021
4732 Clouds 18 1021 44 8047 2.24 110 20:21 21.12.2021
4733 Clouds 18 1019 48 8047 0.45 113 19:43 21.12.2021
4734 Clouds 16 1023 52 8047 0.89 150 18:48 21.12.2021
4735 Clouds 16 1024 54 8047 0.89 150 18:21 21.12.2021
4736 Clouds 16 1021 58 8047 0.89 92 17:42 21.12.2021
4737 Clouds 12 1024 67 8047 1.79 70 16:26 21.12.2021
4738 Clouds 9 1029 76 9656 2.06 70 15:24 21.12.2021
4739 Clouds 11 1012 75 10000 0.89 79 13:50 21.12.2021
4740 Clouds 10 1019 75 10000 0.89 76 13:30 21.12.2021
4741 Clouds 13 1011 71 10000 0.45 76 11:49 21.12.2021
4742 Clouds 12 1018 67 10000 2.57 70 10:24 21.12.2021
4743 Clouds 13 1022 60 10000 0.45 315 09:27 21.12.2021
4744 Clouds 13 1027 58 10000 1.79 60 07:59 21.12.2021
4745 Clouds 14 1019 61 10000 0.45 348 07:29 21.12.2021
4746 Clouds 14 1019 60 10000 1.34 343 06:50 21.12.2021
4747 Clouds 18 1025 42 10000 2.68 20 02:51 21.12.2021
4748 Clouds 20 1016 42 10000 2.24 30 23:59 20.12.2021
4749 Clouds 20 1019 40 8047 2.24 30 23:29 20.12.2021
4750 Clouds 20 1019 38 9656 1.34 60 22:30 20.12.2021
4751 Clouds 19 1017 43 10000 2.68 310 21:47 20.12.2021
4752 Clouds 19 1020 44 6437 2.68 310 21:23 20.12.2021
4753 Clouds 18 1021 49 6437 1.34 350 20:44 20.12.2021
4754 Clouds 18 1010 56 10000 0.89 302 19:53 20.12.2021
4755 Clouds 17 1019 56 6437 0.45 90 19:31 20.12.2021
4756 Clouds 17 1011 59 10000 0.89 39 18:54 20.12.2021
4757 Clouds 16 1012 65 10000 0.89 49 17:53 20.12.2021
4758 Clouds 15 1024 64 6437 0.45 74 17:25 20.12.2021
4759 Clouds 14 1021 70 8047 3.09 70 16:40 20.12.2021
4760 Clouds 15 1012 72 10000 0.45 74 15:51 20.12.2021
4761 Clouds 13 1011 76 10000 0.45 73 14:51 20.12.2021
4762 Clouds 12 1025 71 10000 0.89 306 12:53 20.12.2021
4763 Clouds 13 1020 69 10000 0.89 260 11:19 20.12.2021
4764 Clouds 13 1027 71 10000 2.24 90 09:48 20.12.2021
4765 Clouds 13 1022 71 10000 2.24 90 09:29 20.12.2021
4766 Clouds 14 1020 68 10000 1.79 50 08:42 20.12.2021
4767 Clouds 14 1029 62 10000 2.68 40 07:50 20.12.2021
4768 Clouds 14 1024 65 10000 2.68 40 07:29 20.12.2021
4769 Clouds 16 1023 58 10000 2.68 310 04:24 20.12.2021
4770 Clouds 21 1024 37 10000 4.02 180 23:58 19.12.2021
4771 Clouds 21 1020 40 9656 4.92 180 22:45 19.12.2021
4772 Clouds 21 1026 35 10000 2.24 220 21:50 19.12.2021
4773 Clouds 21 1020 39 9656 2.24 220 21:29 19.12.2021
4774 Clouds 20 1020 43 9656 1.34 60 20:31 19.12.2021
4775 Clouds 19 1028 45 10000 1.79 310 19:49 19.12.2021
4776 Clouds 18 1028 48 6437 0 0 18:59 19.12.2021
4777 Clouds 17 1021 57 6437 0.89 89 18:29 19.12.2021
4778 Clouds 19 1019 46 10000 0.73 118 17:51 19.12.2021
4779 Clouds 15 1024 57 8047 1.34 60 17:18 19.12.2021
4780 Clouds 14 1024 60 8047 1.34 80 16:26 19.12.2021
4781 Clouds 11 1021 69 9656 0.45 185 15:31 19.12.2021
4782 Clouds 12 1013 69 10000 0.89 186 14:59 19.12.2021
4783 Clouds 11 1020 72 10000 0.45 158 14:36 19.12.2021
4784 Clouds 11 1019 72 9656 1.54 70 13:22 19.12.2021
4785 Clouds 11 1019 70 9656 0.89 65 12:34 19.12.2021
4786 Clouds 12 1019 68 9656 0.45 128 11:44 19.12.2021
4787 Clouds 13 1011 66 10000 0.52 64 10:59 19.12.2021
4788 Clouds 12 1019 67 10000 0.45 343 10:25 19.12.2021
4789 Clouds 13 1019 65 10000 2.06 310 09:26 19.12.2021
4790 Clouds 14 1019 56 10000 0.59 27 07:50 19.12.2021
4791 Clear 16 1021 51 10000 0.89 142 04:45 19.12.2021
4792 Clouds 18 1024 42 10000 4.02 200 00:56 19.12.2021
4793 Clouds 18 1019 44 10000 4.02 200 00:28 19.12.2021
4794 Clouds 21 1018 37 9656 2.68 90 22:36 18.12.2021
4795 Rain 22 1025 30 10000 3.58 60 21:54 18.12.2021
4796 Clouds 22 1019 34 8047 3.58 60 21:35 18.12.2021
4797 Clouds 21 1020 36 8047 0.89 113 20:44 18.12.2021
4798 Clouds 21 1025 36 8047 0.45 61 19:54 18.12.2021
4799 Clouds 20 1022 42 8047 1.79 140 19:20 18.12.2021
4800 Clouds 17 1023 49 6437 2.24 100 18:20 18.12.2021
4801 Clouds 18 1012 55 10000 0.45 330 17:47 18.12.2021
4802 Clear 15 1023 56 8047 1.34 60 16:25 18.12.2021
4803 Clear 13 1022 61 8047 1.79 260 15:26 18.12.2021
4804 Clouds 12 1018 70 9656 0.45 179 14:32 18.12.2021
4805 Clouds 12 1021 67 9656 1.34 170 13:20 18.12.2021
4806 Clouds 13 1021 64 9656 0.89 155 11:21 18.12.2021
4807 Clouds 15 1022 57 10000 4.02 150 09:39 18.12.2021
4808 Clouds 15 1022 56 10000 1.79 50 08:43 18.12.2021
4809 Clouds 15 1022 56 10000 1.79 50 08:19 18.12.2021
4810 Clouds 19 1019 42 10000 4.47 150 02:20 18.12.2021
4811 Clouds 21 1018 34 10000 4.02 80 00:27 18.12.2021
4812 Clouds 21 1017 33 10000 2.68 90 23:39 17.12.2021
4813 Clouds 22 1024 36 10000 2.24 220 21:56 17.12.2021
4814 Clouds 22 1025 24 10000 1.34 260 20:58 17.12.2021
4815 Smoke 22 1019 27 10000 1.34 260 20:38 17.12.2021
4816 Clouds 20 1021 36 9656 1.34 70 19:18 17.12.2021
4817 Clouds 20 1021 39 9656 3.58 90 18:38 17.12.2021
4818 Clear 17 1022 45 9656 1.34 60 17:26 17.12.2021
4819 Clear 15 1019 52 9656 2.06 70 16:44 17.12.2021
4820 Clear 13 1019 56 10000 0.45 72 16:21 17.12.2021
4821 Clear 10 1018 64 10000 2.06 60 15:20 17.12.2021
4822 Clouds 12 1010 64 10000 0.45 92 14:38 17.12.2021
4823 Clear 14 1026 44 10000 0.45 174 12:46 17.12.2021
4824 Clear 14 1026 44 10000 0.45 193 11:27 17.12.2021
4825 Clear 14 1026 44 10000 0.49 158 09:59 17.12.2021
4826 Clear 14 1026 44 10000 0.62 163 08:58 17.12.2021
4827 Clear 14 1025 45 10000 0 0 08:20 17.12.2021
4828 Clear 17 1021 39 10000 2.24 330 05:41 17.12.2021
4829 Clouds 19 1023 42 10000 4.92 110 02:52 17.12.2021
4830 Clouds 23 1017 25 10000 0.89 292 23:20 16.12.2021
4831 Clouds 23 1018 23 10000 2.68 320 22:24 16.12.2021
4832 Clouds 23 1018 23 10000 2.68 320 22:23 16.12.2021
4833 Clouds 23 1018 23 10000 2.68 320 22:23 16.12.2021
4834 Clouds 22 1024 22 9656 1.79 50 21:47 16.12.2021
4835 Clouds 22 1019 24 9656 1.79 50 21:20 16.12.2021
4836 Clear 21 1021 28 9656 1.79 60 20:27 16.12.2021
4837 Clear 20 1022 31 8047 3.58 40 19:36 16.12.2021
4838 Clear 20 1023 33 8047 3.58 70 18:38 16.12.2021
4839 Clear 17 1028 45 8047 0.89 57 17:49 16.12.2021
4840 Clear 17 1013 55 10000 0.89 49 17:19 16.12.2021
4841 Clear 13 1028 54 9656 1.34 70 16:20 16.12.2021
4842 Clear 12 1012 69 10000 0.24 337 14:50 16.12.2021
4843 Clear 13 1027 58 10000 1.79 90 12:57 16.12.2021
4844 Clear 13 1027 58 10000 1.79 90 11:19 16.12.2021
4845 Clear 13 1027 58 10000 1.79 90 10:48 16.12.2021
4846 Clear 13 1027 58 10000 1.79 90 09:59 16.12.2021
4847 Clear 15 1023 53 10000 2.24 270 07:21 16.12.2021
4848 Clear 16 1012 55 10000 0.45 300 06:19 16.12.2021
4849 Clear 22 1017 29 10000 1.79 360 00:54 16.12.2021
4850 Clear 22 1025 26 10000 1.34 260 23:22 15.12.2021
4851 Clear 22 1020 27 9656 1.34 260 22:29 15.12.2021
4852 Clear 22 1021 27 9656 2.24 10 21:52 15.12.2021
4853 Clear 22 1021 28 9656 2.24 10 21:26 15.12.2021
4854 Clear 20 1030 37 10000 2.24 290 19:55 15.12.2021
4855 Clear 20 1024 39 8047 2.24 290 19:36 15.12.2021
4856 Clear 17 1025 52 8047 0.89 90 18:36 15.12.2021
4857 Clear 16 1030 55 8047 1.34 70 17:49 15.12.2021
4858 Clear 15 1026 62 8047 2.24 100 17:28 15.12.2021
4859 Mist 12 1023 74 9656 0.45 338 16:26 15.12.2021
4860 Clear 12 1016 74 10000 0.45 63 15:45 15.12.2021
4861 Mist 10 1023 79 9656 2.06 60 15:27 15.12.2021
4862 Mist 9 1023 84 10000 0.89 112 14:18 15.12.2021
4863 Clouds 10 1022 80 10000 2.06 80 12:24 15.12.2021
4864 Clear 13 1031 66 10000 1.79 300 10:25 15.12.2021
4865 Clear 13 1031 66 10000 1.79 300 08:54 15.12.2021
4866 Clouds 14 1024 63 10000 2.68 320 06:45 15.12.2021
4867 Clear 22 1026 34 10000 1.79 110 00:52 15.12.2021
4868 Clear 23 1022 25 10000 1.79 110 23:41 14.12.2021
4869 Clear 22 1022 27 10000 2.68 90 22:48 14.12.2021
4870 Clear 22 1028 28 10000 2.68 70 21:51 14.12.2021
4871 Clear 20 1024 36 9656 1.79 120 20:27 14.12.2021
4872 Clear 18 1025 43 8047 2.68 300 19:40 14.12.2021
4873 Clear 17 1027 49 8047 1.34 90 18:44 14.12.2021
4874 Clear 17 1031 49 8047 0.89 355 17:58 14.12.2021
4875 Clear 17 1031 49 8047 0.89 355 17:58 14.12.2021
4876 Clear 15 1028 56 8047 1.34 100 17:27 14.12.2021
4877 Clear 14 1028 60 8047 1.79 110 16:38 14.12.2021
4878 Clouds 11 1016 75 10000 0.89 79 14:52 14.12.2021
4879 Clear 10 1023 73 10000 1.54 60 13:31 14.12.2021
4880 Clouds 12 1015 75 10000 1.34 75 11:57 14.12.2021
4881 Clear 10 1023 74 10000 1.34 80 11:23 14.12.2021
4882 Clouds 11 1031 62 10000 1.34 70 09:56 14.12.2021
4883 Clouds 12 1026 65 10000 1.34 70 09:35 14.12.2021
4884 Clouds 13 1026 63 10000 1.79 100 08:23 14.12.2021
4885 Clouds 14 1026 60 10000 1.79 300 07:43 14.12.2021
4886 Clouds 19 1024 40 10000 2.68 360 02:25 14.12.2021
4887 Clouds 23 1027 30 10000 2.24 90 22:50 13.12.2021
4888 Clouds 22 1028 28 10000 2.68 100 21:52 13.12.2021
4889 Clouds 21 1030 30 10000 2.68 30 20:59 13.12.2021
4890 Clouds 21 1025 33 10000 2.68 30 20:34 13.12.2021
4891 Clouds 20 1023 35 10000 1.79 80 19:52 13.12.2021
4892 Clouds 17 1027 51 9656 0.45 134 17:56 13.12.2021
4893 Clouds 16 1027 56 9656 0.89 60 17:23 13.12.2021
4894 Clouds 12 1024 73 10000 0.45 154 15:50 13.12.2021
4895 Clouds 11 1024 74 10000 0.45 152 15:19 13.12.2021
4896 Clear 10 1022 74 10000 0.45 65 13:38 13.12.2021
4897 Clear 11 1025 68 10000 1.79 80 12:42 13.12.2021
4898 Clouds 10 1029 71 10000 1.34 100 11:54 13.12.2021
4899 Clear 11 1024 71 10000 1.34 100 11:35 13.12.2021
4900 Clear 12 1021 70 10000 3.09 60 10:43 13.12.2021
4901 Clouds 14 1029 58 10000 1.79 300 08:52 13.12.2021
4902 Clouds 15 1025 58 10000 2.24 310 07:38 13.12.2021
4903 Clouds 16 1025 55 10000 1.79 100 05:34 13.12.2021
4904 Clouds 21 1021 33 10000 0.89 30 00:43 13.12.2021
4905 Clouds 22 1021 32 9656 1.79 245 22:22 12.12.2021
4906 Clouds 21 1022 33 9656 1.79 10 21:35 12.12.2021
4907 Smoke 17 1025 50 8047 1.34 340 19:40 12.12.2021
4908 Smoke 17 1025 51 8047 3.58 80 18:35 12.12.2021
4909 Smoke 14 1026 59 6437 1.79 70 17:25 12.12.2021
4910 Smoke 12 1026 66 6437 1.34 80 16:27 12.12.2021
4911 Smoke 10 1023 74 6437 0.89 313 15:41 12.12.2021
4912 Smoke 10 1023 76 6437 0.89 60 15:22 12.12.2021
4913 Mist 9 1022 79 6437 2.06 80 14:30 12.12.2021
4914 Mist 9 1022 79 6437 2.06 80 14:30 12.12.2021
4915 Clouds 11 1014 73 10000 0.45 205 12:56 12.12.2021
4916 Clear 10 1021 77 9656 0.89 208 12:26 12.12.2021
4917 Clouds 11 1013 72 10000 0.45 331 11:44 12.12.2021
4918 Clear 12 1012 70 9656 1.34 348 10:56 12.12.2021
4919 Clear 11 1020 73 9656 0.89 332 10:22 12.12.2021
4920 Clouds 12 1028 62 10000 2.68 270 08:54 12.12.2021
4921 Smoke 13 1024 62 10000 4.47 300 07:31 12.12.2021
4922 Clouds 14 1029 54 10000 2.24 350 05:56 12.12.2021
4923 Clouds 15 1027 44 10000 4.02 340 04:55 12.12.2021
4924 Clear 19 1024 25 10000 4.92 20 02:58 12.12.2021
4925 Clear 23 1018 19 10000 2.68 330 23:31 11.12.2021
4926 Clear 23 1018 19 10000 2.68 330 22:22 11.12.2021
4927 Clouds 22 1017 21 10000 2.24 350 21:51 11.12.2021
4928 Clear 21 1020 21 10000 2.24 30 20:24 11.12.2021
4929 Clear 20 1021 28 8047 1.79 30 19:21 11.12.2021
4930 Clear 18 1027 34 8047 1.79 100 18:51 11.12.2021
4931 Clouds 18 1022 35 6437 1.79 100 18:19 11.12.2021
4932 Clouds 16 1012 51 6437 2.06 80 16:59 11.12.2021
4933 Clouds 5 1018 29 10000 0.86 35 15:48 11.12.2021
4934 Clouds 12 1010 64 10000 0.45 178 14:54 11.12.2021
4935 Clouds 13 1009 62 10000 0.45 162 12:49 11.12.2021
4936 Clear 13 1009 58 9656 1.54 90 11:24 11.12.2021
4937 Clouds 14 1026 44 10000 2.24 80 09:45 11.12.2021
4938 Clear 14 1021 49 10000 2.24 80 07:32 11.12.2021
4939 Clear 23 1023 20 10000 1.34 40 00:51 11.12.2021
4940 Clouds 23 1023 20 10000 2.24 50 23:49 10.12.2021
4941 Clear 23 1017 22 9656 2.24 50 23:18 10.12.2021
4942 Clouds 23 1016 26 10000 3.58 150 21:52 10.12.2021
4943 Clouds 22 1017 28 10000 2.68 120 20:56 10.12.2021
4944 Clear 20 1021 32 8047 3.58 80 19:20 10.12.2021
4945 Clear 18 1028 40 6437 1.34 15 17:54 10.12.2021
4946 Clear 15 1021 51 6437 1.34 75 16:55 10.12.2021
4947 Clouds 6 1020 43 10000 0.41 334 15:51 10.12.2021
4948 Clouds 11 1020 64 8047 0.45 96 15:29 10.12.2021
4949 Clear 13 1012 64 10000 0.45 185 14:59 10.12.2021
4950 Clear 12 1012 66 10000 0.59 191 13:51 10.12.2021
4951 Clouds 11 1019 66 8047 0.45 78 13:25 10.12.2021
4952 Clear 12 1019 61 9656 0 0 12:23 10.12.2021
4953 Clear 12 1018 61 9656 0 0 11:28 10.12.2021
4954 Clouds 13 1027 47 10000 1.34 70 09:54 10.12.2021
4955 Clear 15 1022 45 10000 2.24 280 08:30 10.12.2021
4956 Clouds 16 1028 48 10000 1.34 355 05:56 10.12.2021
4957 Clear 19 1025 42 9656 2.68 120 02:47 10.12.2021
4958 Clear 23 1024 27 8047 1.79 280 23:46 09.12.2021
4959 Clear 24 1026 27 10000 1.79 200 22:59 09.12.2021
4960 Clear 24 1020 24 8047 1.79 200 22:24 09.12.2021
4961 Clear 22 1027 29 10000 1.79 240 21:49 09.12.2021
4962 Clear 21 1019 28 10000 2.68 340 20:41 09.12.2021
4963 Clear 21 1023 30 8047 1.34 340 20:20 09.12.2021
4964 Clear 21 1023 32 6437 1.34 340 19:21 09.12.2021
4965 Clear 19 1024 37 6437 1.34 110 18:35 09.12.2021
4966 Clear 18 1021 45 6437 1.54 120 17:51 09.12.2021
4967 Clear 17 1024 44 6437 1.34 120 17:25 09.12.2021
4968 Clear 15 1022 52 6437 0.45 138 16:51 09.12.2021
4969 Clear 12 1021 58 8047 0.89 103 15:31 09.12.2021
4970 Clear 11 1020 63 10000 0.45 121 14:44 09.12.2021
4971 Clear 11 1019 63 10000 2.06 80 13:18 09.12.2021
4972 Clear 11 1019 64 10000 0 0 12:34 09.12.2021
4973 Clear 14 1010 100 10000 0.45 125 10:50 09.12.2021
4974 Clear 16 1022 45 10000 0 0 08:38 09.12.2021
4975 Clear 17 1022 43 10000 1.79 260 06:19 09.12.2021
4976 Clear 21 1020 32 10000 5.36 140 02:49 09.12.2021
4977 Clear 24 1019 27 9656 1.79 290 23:42 08.12.2021
4978 Clear 24 1019 27 9656 1.79 290 23:20 08.12.2021
4979 Clear 24 1017 24 10000 1.79 50 22:45 08.12.2021
4980 Clear 23 1020 22 8047 1.79 180 21:39 08.12.2021
4981 Clear 22 1027 24 10000 1.34 360 20:59 08.12.2021
4982 Clear 21 1029 32 10000 1.79 90 19:58 08.12.2021
4983 Clear 21 1023 33 8047 1.79 90 19:33 08.12.2021
4984 Clear 20 1024 37 6437 0.89 130 18:31 08.12.2021
4985 Clear 18 1025 41 6437 1.79 90 17:26 08.12.2021
4986 Clouds 14 1022 51 9656 0.45 90 15:47 08.12.2021
4987 Clouds 13 1022 51 9656 0.89 82 15:23 08.12.2021
4988 Clouds 11 1021 59 8047 3.09 70 14:26 08.12.2021
4989 Clouds 15 1011 53 9656 0.89 144 10:54 08.12.2021
4990 Clouds 13 1019 56 10000 2.06 60 10:28 08.12.2021
4991 Clouds 14 1027 54 10000 1.79 70 08:54 08.12.2021
4992 Clouds 16 1022 41 10000 1.34 360 07:21 08.12.2021
4993 Clear 22 1019 27 10000 4.92 140 01:40 08.12.2021
4994 Clear 26 1018 15 10000 0.89 90 23:33 07.12.2021
4995 Clear 25 1019 20 9656 1.79 260 21:26 07.12.2021
4996 Clear 24 1026 23 10000 1.79 360 20:54 07.12.2021
4997 Clear 23 1025 28 8047 1.34 170 19:50 07.12.2021
4998 Clear 19 1023 41 8047 1.79 355 18:39 07.12.2021
4999 Clear 16 1023 50 8047 0.89 58 17:27 07.12.2021
5000 Clear 16 1023 50 8047 0.89 58 17:27 07.12.2021
5001 Clear 16 1020 54 8047 0.89 82 16:57 07.12.2021
5002 Clear 14 1020 60 9656 0.89 155 16:28 07.12.2021
5003 Clear 13 1012 69 10000 0.45 126 14:50 07.12.2021
5004 Clear 12 1012 69 10000 0.71 142 13:46 07.12.2021
5005 Clear 12 1011 68 10000 0.45 180 12:46 07.12.2021
5006 Clear 12 1019 64 10000 2.06 60 11:25 07.12.2021
5007 Clouds 14 1023 54 10000 1.34 270 09:44 07.12.2021
5008 Clear 15 1029 54 10000 0.45 5 07:54 07.12.2021
5009 Clouds 17 1029 45 10000 2.24 330 05:55 07.12.2021
5010 Clouds 17 1023 48 10000 2.24 330 05:27 07.12.2021
5011 Clear 24 1025 17 8047 3.58 20 23:41 06.12.2021
5012 Clear 23 1020 19 8047 2.68 330 22:44 06.12.2021
5013 Clear 23 1021 19 8047 2.68 330 22:18 06.12.2021
5014 Clouds 22 1021 24 8047 1.79 180 21:37 06.12.2021
5015 Clouds 21 1022 30 8047 1.34 170 20:33 06.12.2021
5016 Clouds 20 1024 41 8047 2.68 100 19:27 06.12.2021
5017 Clouds 19 1022 43 10000 1.79 330 18:57 06.12.2021
5018 Clouds 18 1025 45 8047 0.89 130 17:55 06.12.2021
5019 Clouds 18 1025 46 8047 0.89 130 17:34 06.12.2021
5020 Clouds 13 1023 60 8047 0.45 83 16:21 06.12.2021
5021 Clouds 12 1014 69 10000 0.45 143 14:51 06.12.2021
5022 Clouds 10 1021 68 9656 1.54 50 13:45 06.12.2021
5023 Clouds 11 1020 70 9656 2.06 80 12:39 06.12.2021
5024 Clouds 12 1023 61 9656 0 0 10:31 06.12.2021
5025 Clouds 15 1020 54 10000 0.81 170 07:59 06.12.2021
5026 Clouds 17 1019 49 10000 4.02 140 03:52 06.12.2021
5027 Clouds 23 1019 27 10000 2.68 80 22:28 05.12.2021
5028 Clouds 22 1020 30 10000 0.45 38 21:26 05.12.2021
5029 Clear 22 1018 32 10000 1.34 340 20:58 05.12.2021
5030 Clouds 21 1021 32 10000 1.34 340 20:18 05.12.2021
5031 Clouds 20 1022 36 10000 2.24 130 19:26 05.12.2021
5032 Clouds 19 1022 41 10000 2.24 100 18:37 05.12.2021
5033 Clear 16 1024 46 10000 2.24 130 17:53 05.12.2021
5034 Clear 16 1024 47 10000 2.24 130 17:34 05.12.2021
5035 Clear 13 1021 56 10000 0.45 81 16:41 05.12.2021
5036 Clear 13 1021 58 10000 0.45 163 16:22 05.12.2021
5037 Clear 11 1013 69 10000 0.45 128 14:48 05.12.2021
5038 Clear 9 1020 70 10000 0.45 155 14:30 05.12.2021
5039 Clear 10 1020 70 10000 1.54 70 13:37 05.12.2021
5040 Clear 4 1019 62 10000 0.75 186 12:47 05.12.2021
5041 Clear 10 1019 69 10000 0 0 12:29 05.12.2021
5042 Clear 11 1022 69 10000 1.34 60 11:47 05.12.2021
5043 Clear 11 1020 65 10000 1.54 60 10:44 05.12.2021
5044 Clear 13 1012 63 10000 0.45 159 09:51 05.12.2021
5045 Clear 15 1024 54 10000 3.58 300 06:31 05.12.2021
5046 Clear 20 1021 31 10000 4.02 330 02:25 05.12.2021
5047 Clear 24 1020 17 10000 1.79 310 23:25 04.12.2021
5048 Clear 22 1026 21 10000 4.02 50 21:52 04.12.2021
5049 Clear 21 1022 24 10000 3.58 20 20:47 04.12.2021
5050 Clear 19 1029 32 10000 1.79 60 19:54 04.12.2021
5051 Clear 19 1024 31 9656 1.79 60 19:31 04.12.2021
5052 Clear 16 1029 41 9656 2.68 20 17:58 04.12.2021
5053 Clear 16 1025 43 9656 2.68 20 17:36 04.12.2021
5054 Clear 14 1022 52 9656 0.89 58 16:47 04.12.2021
5055 Clear 12 1022 58 10000 0.45 42 16:29 04.12.2021
5056 Clear 8 1021 71 10000 0.45 157 14:23 04.12.2021
5057 Clear 12 1013 57 10000 0.45 78 11:45 04.12.2021
5058 Clear 10 1020 64 10000 2.06 70 11:25 04.12.2021
5059 Clear 10 1019 60 10000 2.06 80 10:42 04.12.2021
5060 Clear 12 1026 54 10000 1.79 100 08:42 04.12.2021
5061 Clouds 17 1028 39 10000 2.68 310 05:47 04.12.2021
5062 Clouds 18 1023 36 10000 4.02 320 04:41 04.12.2021
5063 Clouds 22 1025 15 10000 1.79 90 23:49 03.12.2021
5064 Clouds 22 1025 15 10000 1.79 90 23:49 03.12.2021
5065 Clouds 23 1020 17 10000 1.79 350 22:57 03.12.2021
5066 Clouds 23 1020 17 10000 1.79 350 22:38 03.12.2021
5067 Clouds 22 1021 19 9656 2.68 200 21:25 03.12.2021
5068 Clouds 22 1021 19 9656 1.79 20 20:44 03.12.2021
5069 Clouds 20 1023 28 9656 0.89 150 19:36 03.12.2021
5070 Clouds 16 1025 39 8047 1.34 30 18:26 03.12.2021
5071 Clouds 15 1029 41 8047 2.24 80 17:58 03.12.2021
5072 Clear 8 1021 65 10000 0.45 79 14:23 03.12.2021
5073 Clear 11 1013 64 10000 0.45 76 12:52 03.12.2021
5074 Clear 10 1020 65 10000 0.89 153 11:25 03.12.2021
5075 Clear 10 1029 57 10000 1.57 8 09:57 03.12.2021
5076 Clear 13 1024 48 10000 2.24 300 08:25 03.12.2021
5077 Clear 14 1024 46 10000 4.02 280 07:38 03.12.2021
5078 Clouds 20 1022 24 10000 2.24 360 02:24 03.12.2021
5079 Clear 22 1026 17 10000 4.47 30 00:47 03.12.2021
5080 Clear 23 1021 19 10000 1.79 50 23:46 02.12.2021
5081 Clear 22 1022 20 10000 1.34 330 21:42 02.12.2021
5082 Clear 21 1029 19 10000 4.47 30 20:57 02.12.2021
5083 Clear 21 1024 21 10000 4.47 30 20:38 02.12.2021
5084 Clear 19 1025 25 10000 0.89 340 19:25 02.12.2021
5085 Clear 17 1027 31 10000 2.24 100 17:43 02.12.2021
5086 Clear 14 1024 46 10000 0.45 59 15:42 02.12.2021
5087 Clear 13 1016 50 10000 1.82 2 14:59 02.12.2021
5088 Clear 10 1023 52 10000 2.57 60 14:33 02.12.2021
5089 Clear 10 1030 46 10000 0.45 319 12:52 02.12.2021
5090 Clear 11 1025 46 10000 0 0 12:18 02.12.2021
5091 Clear 14 1025 41 10000 1.79 300 09:41 02.12.2021
5092 Clear 15 1030 43 10000 2.24 320 08:55 02.12.2021
5093 Clouds 18 1030 27 10000 4.02 360 04:54 02.12.2021
5094 Clouds 21 1026 22 10000 8.49 40 00:53 02.12.2021
5095 Clouds 24 1020 23 10000 2.68 10 23:28 01.12.2021
5096 Smoke 24 1020 24 10000 3.58 310 22:24 01.12.2021
5097 Clouds 22 1028 24 10000 3.58 20 20:53 01.12.2021
5098 Clouds 21 1029 32 10000 2.68 350 19:57 01.12.2021
5099 Clouds 21 1024 34 10000 2.68 350 19:28 01.12.2021
5100 Clouds 18 1023 44 10000 0.45 57 17:50 01.12.2021
5101 Clouds 16 1026 47 10000 0.89 87 16:50 01.12.2021
5102 Clouds 13 1014 68 10000 1.03 7 14:54 01.12.2021
5103 Clouds 10 1021 70 10000 2.57 60 13:46 01.12.2021
5104 Clouds 11 1020 64 10000 1.54 60 12:50 01.12.2021
5105 Clouds 12 1023 59 10000 1.34 100 10:43 01.12.2021
5106 Clouds 13 1020 58 10000 0 0 09:25 01.12.2021
5107 Clouds 14 1021 56 10000 1.34 349 08:30 01.12.2021
5108 Clouds 15 1024 52 10000 1.79 260 07:34 01.12.2021
5109 Clouds 16 1023 48 10000 1.34 290 06:59 01.12.2021
5110 Clouds 19 1020 42 10000 4.92 50 03:46 01.12.2021
5111 Clouds 21 1025 37 10000 1.79 340 01:59 01.12.2021
5112 Clouds 23 1024 20 10000 1.79 50 23:55 30.11.2021
5113 Clouds 23 1019 23 10000 1.79 50 23:25 30.11.2021
5114 Clouds 22 1020 27 9656 3.58 30 21:40 30.11.2021
5115 Clouds 21 1019 31 10000 1.79 360 20:45 30.11.2021
5116 Clear 21 1021 30 9656 1.79 360 20:19 30.11.2021
5117 Clear 20 1023 37 8047 1.79 90 19:38 30.11.2021
5118 Clear 19 1024 42 8047 1.34 220 18:37 30.11.2021
5119 Clear 15 1014 64 10000 0.89 173 16:50 30.11.2021
5120 Clear 13 1014 71 10000 0.89 51 15:44 30.11.2021
5121 Clear 9 1021 83 9656 0.45 81 14:20 30.11.2021
5122 Clear 9 1021 83 10000 0.89 78 13:27 30.11.2021
5123 Clear 11 1012 78 10000 0.89 90 12:46 30.11.2021
5124 Clear 11 1012 77 10000 0.89 101 11:50 30.11.2021
5125 Clear 10 1020 81 10000 1.34 79 11:25 30.11.2021
5126 Clear 10 1021 81 10000 1.34 85 10:34 30.11.2021
5127 Clear 10 1029 76 10000 2.24 90 08:53 30.11.2021
5128 Clear 11 1021 74 10000 1.79 84 08:31 30.11.2021
5129 Clouds 14 1013 67 10000 0.45 38 07:48 30.11.2021
5130 Clouds 18 1022 44 10000 4.92 30 02:41 30.11.2021
5131 Clouds 20 1020 33 10000 4.02 90 01:42 30.11.2021
5132 Clouds 22 1019 27 9656 1.79 10 00:33 30.11.2021
5133 Clear 23 1020 25 9656 2.68 10 23:25 29.11.2021
5134 Clear 23 1025 23 10000 1.34 50 22:57 29.11.2021
5135 Clear 23 1020 25 8047 1.34 50 22:34 29.11.2021
5136 Clear 22 1020 29 8047 1.79 310 21:39 29.11.2021
5137 Clear 22 1020 29 8047 1.79 310 21:18 29.11.2021
5138 Clear 20 1022 38 6437 0.89 220 20:40 29.11.2021
5139 Clear 20 1022 42 6437 1.34 310 19:56 29.11.2021
5140 Clear 18 1023 48 6437 1.34 90 19:36 29.11.2021
5141 Clear 18 1023 48 6437 1.34 90 19:36 29.11.2021
5142 Clouds 19 1018 42 10000 1.51 15 18:52 29.11.2021
5143 Clouds 18 1020 48 10000 1.4 18 17:55 29.11.2021
5144 Clouds 16 1022 56 10000 1.52 27 17:20 29.11.2021
5145 Clouds 14 1022 63 10000 1.53 28 16:29 29.11.2021
5146 Clouds 14 1022 63 10000 1.52 28 15:52 29.11.2021
5147 Clouds 13 1022 69 10000 1.52 29 14:43 29.11.2021
5148 Clouds 12 1022 72 10000 1.42 26 13:34 29.11.2021
5149 Clouds 13 1022 72 10000 1.57 33 12:42 29.11.2021
5150 Clouds 13 1021 73 10000 1.66 24 11:41 29.11.2021
5151 Clouds 13 1021 74 10000 2.03 19 10:58 29.11.2021
5152 Clouds 12 1030 71 9656 1.54 60 09:36 29.11.2021
5153 Clouds 13 1031 71 10000 3.09 310 06:21 29.11.2021
5154 Clouds 18 1027 45 10000 5.14 40 02:28 29.11.2021
5155 Clouds 22 1025 28 9656 2.06 310 00:43 29.11.2021
5156 Clouds 23 1025 28 9656 2.06 90 23:44 28.11.2021
5157 Clouds 23 1025 28 9656 2.06 90 23:24 28.11.2021
5158 Clouds 22 1013 28 10000 1.8 6 21:52 28.11.2021
5159 Clouds 22 1026 30 9656 1.54 210 21:23 28.11.2021
5160 Clouds 21 1027 37 9656 2.06 60 20:34 28.11.2021
5161 Clouds 19 1029 45 6437 1.54 70 19:28 28.11.2021
5162 Clouds 19 1030 45 6437 2.57 330 18:35 28.11.2021
5163 Clouds 18 1030 48 6437 1.54 280 17:56 28.11.2021
5164 Clouds 16 1030 55 6437 1.54 130 17:32 28.11.2021
5165 Clouds 14 1030 58 6437 1.54 110 16:44 28.11.2021
5166 Clouds 12 1030 66 6437 2.06 60 16:22 28.11.2021
5167 Clouds 10 1030 76 8047 2.06 60 15:32 28.11.2021
5168 Clouds 4 1020 57 10000 0.29 39 14:48 28.11.2021
5169 Clear 9 1028 81 8047 2.06 60 13:22 28.11.2021
5170 Clear 13 1019 59 10000 0.12 94 12:48 28.11.2021
5171 Clouds 11 1028 71 9656 2.06 40 11:18 28.11.2021
5172 Clouds 11 1028 76 9656 2.06 60 10:22 28.11.2021
5173 Clouds 12 1028 66 10000 3.09 50 09:38 28.11.2021
5174 Clear 15 1018 54 10000 0.86 180 07:59 28.11.2021
5175 Clear 22 1024 24 9656 3.09 130 00:20 28.11.2021
5176 Clear 22 1025 28 8047 2.06 160 21:20 27.11.2021
5177 Clouds 21 1015 26 10000 1.18 48 19:47 27.11.2021
5178 Clear 15 1029 63 6437 1.54 120 17:27 27.11.2021
5179 Haze 8 1029 87 4828 3.6 80 15:58 27.11.2021
5180 Mist 8 1028 81 4828 2.57 70 14:26 27.11.2021
5181 Clouds 12 1020 68 10000 0.43 171 12:57 27.11.2021
5182 Clouds 12 1019 69 10000 0.14 70 10:52 27.11.2021
5183 Clear 10 1027 81 9656 2.06 50 09:53 27.11.2021
5184 Clouds 13 1019 67 10000 0.31 6 08:44 27.11.2021
5185 Clouds 13 1020 67 10000 0.67 5 06:34 27.11.2021
5186 Clouds 17 1016 48 10000 1.39 95 01:59 27.11.2021
5187 Clear 20 1013 33 10000 1.54 141 23:39 26.11.2021
5188 Clouds 20 1025 40 9656 1.54 360 22:25 26.11.2021
5189 Clouds 20 1026 40 9656 2.06 320 21:38 26.11.2021
5190 Clouds 20 1026 40 9656 2.06 320 21:18 26.11.2021
5191 Clouds 19 1027 42 9656 3.09 240 20:30 26.11.2021
5192 Clear 19 1017 35 10000 1.08 340 19:54 26.11.2021
5193 Clouds 17 1029 48 10000 1.54 100 18:44 26.11.2021
5194 Clouds 15 1031 58 10000 3.6 320 17:24 26.11.2021
5195 Clouds 15 1031 55 9656 3.09 320 16:29 26.11.2021
5196 Clouds 11 1030 71 9656 2.06 20 14:25 26.11.2021
5197 Clouds 12 1023 74 10000 1.79 290 13:31 26.11.2021
5198 Clouds 13 1023 69 10000 2.68 300 10:43 26.11.2021
5199 Clouds 13 1020 73 10000 0.45 349 09:41 26.11.2021
5200 Clouds 14 1029 67 10000 4.02 300 08:49 26.11.2021
5201 Clouds 14 1024 69 10000 4.02 300 08:19 26.11.2021
5202 Clouds 16 1020 59 10000 0.45 291 06:29 26.11.2021
5203 Clouds 17 1023 53 10000 2.68 320 04:52 26.11.2021
5204 Clouds 17 1022 52 10000 4.92 30 03:32 26.11.2021
5205 Clouds 22 1016 37 10000 0.45 21 23:29 25.11.2021
5206 Clouds 21 1026 37 10000 1.79 130 21:58 25.11.2021
5207 Clouds 21 1022 40 8047 1.34 50 20:41 25.11.2021
5208 Clouds 19 1023 47 8047 1.79 120 19:21 25.11.2021
5209 Clouds 19 1021 54 6437 0.89 51 18:19 25.11.2021
5210 Clouds 17 1022 58 8047 1.34 50 17:27 25.11.2021
5211 Clouds 14 1022 65 8047 1.34 56 16:41 25.11.2021
5212 Clouds 15 1013 68 10000 0.89 65 15:58 25.11.2021
5213 Mist 11 1020 75 8047 0 0 14:24 25.11.2021
5214 Clouds 13 1011 73 10000 0.69 100 12:55 25.11.2021
5215 Clouds 12 1019 80 10000 0.89 161 11:56 25.11.2021
5216 Clouds 13 1019 77 10000 1.54 50 10:34 25.11.2021
5217 Clouds 14 1023 64 10000 1.34 60 06:36 25.11.2021
5218 Clouds 18 1009 45 10000 2.68 60 02:56 25.11.2021
5219 Clouds 21 1019 36 10000 4.02 250 23:40 24.11.2021
5220 Clouds 22 1019 35 9656 4.02 250 22:29 24.11.2021
5221 Clouds 22 1017 38 10000 1.34 280 21:48 24.11.2021
5222 Clouds 22 1020 34 9656 1.34 280 21:21 24.11.2021
5223 Clouds 22 1027 30 9656 1.34 220 20:26 24.11.2021
5224 Clouds 21 1022 43 9656 1.34 70 19:36 24.11.2021
5225 Clouds 20 1023 63 8047 1.79 100 18:19 24.11.2021
5226 Clouds 16 1023 63 8047 1.34 68 16:21 24.11.2021
5227 Clouds 12 1023 77 9656 1.34 70 14:57 24.11.2021
5228 Clouds 11 1020 87 9656 0.89 79 14:21 24.11.2021
5229 Clouds 11 1019 83 9656 1.34 105 13:34 24.11.2021
5230 Clouds 13 1017 79 10000 1.34 60 11:26 24.11.2021
5231 Clouds 12 1027 81 10000 0.89 100 10:55 24.11.2021
5232 Clouds 13 1021 80 10000 0.89 100 10:35 24.11.2021
5233 Clouds 13 1022 79 10000 3.58 80 09:29 24.11.2021
5234 Clouds 15 1022 66 10000 2.24 290 07:41 24.11.2021
5235 Clouds 17 1022 60 10000 2.24 240 05:38 24.11.2021
5236 Clouds 18 1021 54 10000 2.24 110 03:32 24.11.2021
5237 Clouds 20 1020 43 10000 1.34 40 23:33 23.11.2021
5238 Clouds 20 1020 42 10000 1.34 110 22:39 23.11.2021
5239 Clouds 20 1018 44 10000 1.79 110 21:45 23.11.2021
5240 Clouds 20 1022 45 10000 1.34 280 20:23 23.11.2021
5241 Clouds 19 1023 48 10000 1.34 330 19:33 23.11.2021
5242 Clouds 19 1024 48 10000 3.58 40 18:34 23.11.2021
5243 Clouds 16 1025 60 10000 1.34 50 17:41 23.11.2021
5244 Clouds 14 1025 63 10000 1.79 50 16:37 23.11.2021
5245 Clouds 13 1025 69 10000 0.89 242 15:27 23.11.2021
5246 Clouds 13 1022 73 10000 1.79 320 14:54 23.11.2021
5247 Clouds 12 1024 73 10000 1.79 20 13:20 23.11.2021
5248 Clouds 13 1024 72 10000 4.02 320 10:28 23.11.2021
5249 Clouds 13 1024 72 10000 4.02 320 10:28 23.11.2021
5250 Clouds 13 1012 73 10000 4.02 330 09:48 23.11.2021
5251 Clouds 14 1025 69 10000 4.92 360 08:41 23.11.2021
5252 Clouds 16 1029 60 10000 7.15 340 04:53 23.11.2021
5253 Clouds 15 1029 58 10000 4.92 30 03:35 23.11.2021
5254 Clouds 20 1026 42 10000 4.92 340 23:41 22.11.2021
5255 Clouds 20 1026 42 10000 4.92 340 23:20 22.11.2021
5256 Clouds 21 1027 37 10000 7.15 280 22:30 22.11.2021
5257 Clouds 21 1028 37 10000 2.24 30 21:45 22.11.2021
5258 Clouds 21 1028 37 10000 2.24 30 21:21 22.11.2021
5259 Clouds 21 1029 40 10000 2.68 320 20:42 22.11.2021
5260 Clouds 18 1031 52 10000 3.58 270 19:21 22.11.2021
5261 Clouds 17 1031 55 9656 1.79 250 18:41 22.11.2021
5262 Clouds 17 1031 55 9656 1.79 250 18:21 22.11.2021
5263 Clouds 14 1032 67 9656 4.02 10 16:41 22.11.2021
5264 Clouds 13 1030 76 9656 1.79 90 15:32 22.11.2021
5265 Clouds 12 1029 81 10000 1.79 80 12:51 22.11.2021
5266 Clouds 13 1028 76 10000 1.79 110 11:39 22.11.2021
5267 Clouds 13 1029 71 10000 2.68 60 10:26 22.11.2021
5268 Clouds 15 1029 62 10000 2.24 280 08:43 22.11.2021
5269 Clouds 15 1029 62 10000 2.24 280 08:43 22.11.2021
5270 Clouds 15 1029 62 10000 2.24 280 08:24 22.11.2021
5271 Clouds 19 1026 48 10000 4.02 80 01:39 22.11.2021
5272 Clouds 22 1025 28 10000 0 0 23:21 21.11.2021
5273 Clouds 22 1025 28 10000 4.02 70 22:43 21.11.2021
5274 Clouds 22 1026 33 10000 1.54 0 20:55 21.11.2021
5275 Clouds 22 1026 33 10000 1.54 0 20:34 21.11.2021
5276 Clouds 18 1029 55 10000 1.79 10 18:55 21.11.2021
5277 Clear 18 1029 55 8047 1.79 30 17:56 21.11.2021
5278 Clear 16 1030 63 9656 0 0 17:35 21.11.2021
5279 Clouds 12 1029 81 10000 1.34 100 14:56 21.11.2021
5280 Clouds 12 1029 81 10000 1.34 100 14:38 21.11.2021
5281 Clouds 12 1028 76 10000 1.79 70 12:59 21.11.2021
5282 Clouds 12 1028 76 10000 1.79 70 12:25 21.11.2021
5283 Clouds 13 1028 76 10000 2.68 60 11:37 21.11.2021
5284 Clouds 13 1028 82 10000 2.24 60 10:19 21.11.2021
5285 Clouds 14 1028 67 10000 1.79 320 09:45 21.11.2021
5286 Clouds 14 1029 67 10000 0 0 08:32 21.11.2021
5287 Clear 14 1029 71 10000 1.34 60 07:52 21.11.2021
5288 Clouds 15 1024 65 10000 2.24 360 06:28 21.11.2021
5289 Clouds 16 1024 62 10000 2.68 290 05:41 21.11.2021
5290 Clouds 16 1023 62 10000 7.15 40 03:22 21.11.2021
5291 Clouds 17 1023 56 10000 7.15 20 02:55 21.11.2021
5292 Clouds 20 1021 36 10000 2.68 340 01:28 21.11.2021
5293 Clouds 21 1021 33 10000 2.68 110 00:43 21.11.2021
5294 Clouds 22 1021 32 10000 1.79 220 22:35 20.11.2021
5295 Clouds 21 1022 35 10000 2.24 170 21:32 20.11.2021
5296 Clear 19 1024 44 9656 1.34 150 19:58 20.11.2021
5297 Clear 17 1025 52 9656 1.34 210 18:45 20.11.2021
5298 Clouds 15 1026 57 10000 2.24 280 18:23 20.11.2021
5299 Clouds 14 1027 64 10000 1.34 77 17:22 20.11.2021
5300 Clouds 10 1026 79 10000 2.68 80 15:23 20.11.2021
5301 Clouds 10 1026 80 10000 1.79 50 14:39 20.11.2021
5302 Clouds 10 1026 80 10000 1.79 50 14:20 20.11.2021
5303 Clouds 10 1029 81 10000 1.79 110 11:56 20.11.2021
5304 Clouds 11 1030 76 10000 2.68 290 09:58 20.11.2021
5305 Clouds 12 1024 73 10000 2.68 300 08:43 20.11.2021
5306 Clouds 12 1031 71 10000 2.24 330 06:50 20.11.2021
5307 Clouds 12 1026 69 10000 2.68 300 05:18 20.11.2021
5308 Clouds 12 1030 71 10000 2.68 300 04:49 20.11.2021
5309 Clouds 16 1021 58 10000 5.81 40 00:43 20.11.2021
5310 Clouds 16 1023 56 10000 5.81 40 00:18 20.11.2021
5311 Clouds 17 1028 51 10000 5.81 350 22:54 19.11.2021
5312 Clouds 17 1024 54 10000 4.02 330 21:29 19.11.2021
5313 Clouds 16 1025 57 10000 4.92 30 20:43 19.11.2021
5314 Clouds 16 1025 58 10000 4.92 30 20:25 19.11.2021
5315 Clouds 16 1027 58 10000 4.92 360 19:46 19.11.2021
5316 Clouds 16 1032 55 10000 2.68 20 18:48 19.11.2021
5317 Clouds 15 1028 62 10000 2.68 20 17:45 19.11.2021
5318 Clouds 14 1028 69 10000 4.02 360 16:43 19.11.2021
5319 Clouds 13 1027 70 9656 2.68 360 15:22 19.11.2021
5320 Clouds 13 1030 66 10000 2.68 330 11:54 19.11.2021
5321 Clouds 13 1026 69 9656 1.34 320 10:25 19.11.2021
5322 Clouds 13 1026 65 10000 2.24 340 08:39 19.11.2021
5323 Clear 14 1026 58 10000 1.34 20 06:29 19.11.2021
5324 Clear 15 1025 54 10000 4.92 20 04:19 19.11.2021
5325 Clouds 22 1018 19 10000 1.1 28 23:55 18.11.2021
5326 Clear 22 1021 19 10000 0 0 23:29 18.11.2021
5327 Clouds 22 1022 19 10000 3.58 50 21:21 18.11.2021
5328 Clouds 21 1023 18 10000 1.79 200 20:46 18.11.2021
5329 Clouds 21 1023 19 10000 1.79 200 20:23 18.11.2021
5330 Clouds 21 1023 22 10000 1.34 30 19:42 18.11.2021
5331 Clouds 18 1025 32 8047 2.24 100 18:38 18.11.2021
5332 Clouds 17 1029 36 8047 0.45 74 17:52 18.11.2021
5333 Clouds 17 1025 38 8047 0.45 91 17:31 18.11.2021
5334 Clouds 14 1022 46 9656 0.89 161 16:42 18.11.2021
5335 Clouds 10 1021 58 10000 2.06 80 15:23 18.11.2021
5336 Clouds 10 1020 61 10000 2.06 60 13:21 18.11.2021
5337 Clouds 10 1019 60 10000 2.06 50 11:45 18.11.2021
5338 Clouds 10 1019 62 10000 2.06 50 11:26 18.11.2021
5339 Clouds 10 1019 61 10000 1.34 81 10:44 18.11.2021
5340 Clear 12 1026 46 10000 1.79 80 08:49 18.11.2021
5341 Clear 14 1023 46 10000 1.34 50 07:19 18.11.2021
5342 Clear 14 1026 44 10000 3.58 320 05:46 18.11.2021
5343 Clouds 20 1020 33 10000 5.81 120 01:27 18.11.2021
5344 Clouds 22 1017 28 10000 1.34 150 23:46 17.11.2021
5345 Clouds 22 1019 24 9656 1.34 280 22:40 17.11.2021
5346 Clouds 22 1019 24 9656 1.34 280 22:20 17.11.2021
5347 Clear 23 1019 23 9656 1.79 150 21:36 17.11.2021
5348 Clouds 20 1021 26 10000 0.89 139 20:18 17.11.2021
5349 Clear 17 1024 36 10000 2.68 150 17:36 17.11.2021
5350 Clear 14 1022 48 10000 0.45 101 16:45 17.11.2021
5351 Clouds 11 1013 59 10000 0.23 77 13:49 17.11.2021
5352 Clouds 11 1012 60 10000 2.06 70 12:39 17.11.2021
5353 Clear 10 1019 59 10000 0.45 163 11:28 17.11.2021
5354 Clouds 11 1027 53 10000 1.79 224 09:58 17.11.2021
5355 Clear 12 1019 53 10000 0.45 171 09:23 17.11.2021
5356 Clouds 14 1023 46 10000 1.79 270 07:41 17.11.2021
5357 Clouds 18 1025 31 10000 3.58 170 02:56 17.11.2021
5358 Clouds 20 1017 23 10000 1.79 130 00:46 17.11.2021
5359 Clouds 21 1018 20 10000 1.34 250 22:41 16.11.2021
5360 Clear 20 1022 24 10000 2.24 40 20:20 16.11.2021
5361 Clear 19 1028 25 10000 1.79 100 19:57 16.11.2021
5362 Clear 18 1028 27 10000 0.89 57 18:53 16.11.2021
5363 Clear 18 1024 30 10000 0.45 74 18:29 16.11.2021
5364 Clear 15 1025 42 9656 1.34 120 17:31 16.11.2021
5365 Clear 12 1025 51 10000 0.89 60 16:31 16.11.2021
5366 Clear 11 1023 56 10000 1.54 80 15:48 16.11.2021
5367 Clear 10 1015 68 10000 0.45 84 13:49 16.11.2021
5368 Clear 9 1022 63 10000 0.89 37 11:22 16.11.2021
5369 Clear 11 1015 60 10000 0.89 78 09:45 16.11.2021
5370 Clear 11 1025 53 10000 0.45 42 08:25 16.11.2021
5371 Clouds 12 1025 59 10000 1.79 310 07:31 16.11.2021
5372 Clear 19 1022 22 10000 7.15 20 01:20 16.11.2021
5373 Clouds 21 1022 17 10000 0.45 55 22:48 15.11.2021
5374 Clouds 21 1022 17 10000 0.89 224 22:21 15.11.2021
5375 Clear 21 1026 16 10000 1.79 330 21:52 15.11.2021
5376 Clear 21 1023 19 10000 1.79 330 21:26 15.11.2021
5377 Clear 17 1023 26 10000 0.89 88 19:41 15.11.2021
5378 Clear 15 1027 43 6437 2.24 40 18:18 15.11.2021
5379 Mist 8 1033 93 1609 1.54 70 16:19 15.11.2021
5380 Clear 5 1024 52 10000 2.06 8 15:40 15.11.2021
5381 Fog 6 1031 93 201 2.06 60 15:20 15.11.2021
5382 Fog 7 1030 93 805 3.09 80 13:22 15.11.2021
5383 Clear 9 1029 81 10000 2.24 100 10:57 15.11.2021
5384 Clear 10 1029 66 10000 2.68 70 09:27 15.11.2021
5385 Clouds 13 1030 58 10000 2.68 300 07:45 15.11.2021
5386 Clouds 15 1029 47 10000 2.68 20 04:46 15.11.2021
5387 Clouds 20 1021 32 10000 4.02 90 23:37 14.11.2021
5388 Clouds 20 1021 33 10000 1.79 130 22:34 14.11.2021
5389 Clear 17 1028 45 9656 1.79 90 19:53 14.11.2021
5390 Clear 15 1025 49 9656 1.79 60 19:18 14.11.2021
5391 Clear 15 1031 47 10000 1.34 19 18:54 14.11.2021
5392 Clouds 15 1026 51 9656 0.89 37 18:36 14.11.2021
5393 Clouds 15 1026 50 9656 2.68 71 18:18 14.11.2021
5394 Clouds 14 1031 50 9656 2.24 50 17:55 14.11.2021
5395 Clouds 13 1025 63 9656 0.89 63 17:37 14.11.2021
5396 Clouds 12 1027 63 9656 1.34 310 17:19 14.11.2021
5397 Clear 11 1019 68 10000 1.34 35 16:45 14.11.2021
5398 Clouds 10 1027 75 6437 2.24 80 16:19 14.11.2021
5399 Clouds 9 1026 78 6437 1.79 90 15:22 14.11.2021
5400 Clear 11 1018 73 10000 1.34 249 14:49 14.11.2021
5401 Clouds 9 1023 81 9656 0.89 355 14:28 14.11.2021
5402 Clouds 10 1017 78 9656 0.45 77 13:54 14.11.2021
5403 Clouds 8 1023 83 9656 0.45 62 13:35 14.11.2021
5404 Clear 8 1023 83 10000 0.45 88 12:27 14.11.2021
5405 Clear 8 1022 81 10000 0.89 350 11:41 14.11.2021
5406 Clouds 9 1025 76 10000 2.68 60 10:41 14.11.2021
5407 Clouds 10 1028 71 10000 2.68 280 09:47 14.11.2021
5408 Clouds 10 1030 71 10000 4.02 330 08:53 14.11.2021
5409 Clouds 12 1031 62 10000 4.02 280 06:54 14.11.2021
5410 Clouds 19 1022 32 10000 5.81 360 23:34 13.11.2021
5411 Clouds 18 1023 32 10000 4.92 10 22:25 13.11.2021
5412 Clear 19 1028 36 10000 4.47 360 21:50 13.11.2021
5413 Clouds 19 1023 31 10000 4.47 360 21:20 13.11.2021
5414 Clouds 16 1026 40 10000 2.24 320 19:38 13.11.2021
5415 Clouds 14 1027 49 10000 5.36 20 18:33 13.11.2021
5416 Clouds 14 1027 49 10000 5.36 20 18:33 13.11.2021
5417 Clear 13 1032 54 10000 3.58 10 17:55 13.11.2021
5418 Clouds 11 1028 63 10000 4.02 30 16:37 13.11.2021
5419 Clouds 10 1027 66 10000 3.58 320 15:20 13.11.2021
5420 Clouds 10 1026 67 10000 2.68 310 14:20 13.11.2021
5421 Clouds 10 1026 67 10000 3.58 310 13:18 13.11.2021
5422 Clouds 10 1025 71 10000 2.24 300 12:22 13.11.2021
5423 Clouds 10 1025 70 10000 3.58 300 11:33 13.11.2021
5424 Clear 11 1025 70 10000 2.24 310 10:44 13.11.2021
5425 Clear 11 1030 71 10000 3.58 320 09:56 13.11.2021
5426 Clear 11 1025 72 10000 3.58 320 09:34 13.11.2021
5427 Clear 12 1030 66 10000 2.68 320 08:56 13.11.2021
5428 Clear 12 1025 69 10000 2.68 320 08:22 13.11.2021
5429 Clear 14 1023 62 10000 4.02 40 04:43 13.11.2021
5430 Clear 14 1025 61 10000 4.02 40 04:25 13.11.2021
5431 Clear 21 1020 24 10000 4.02 340 00:39 13.11.2021
5432 Clear 21 1018 21 10000 4.92 20 22:44 12.11.2021
5433 Clear 20 1021 21 10000 3.58 310 21:32 12.11.2021
5434 Clear 18 1021 26 10000 1.34 360 19:45 12.11.2021
5435 Clear 18 1024 26 10000 1.34 360 19:27 12.11.2021
5436 Clear 17 1025 34 10000 1.34 45 18:21 12.11.2021
5437 Clear 12 1025 59 10000 1.34 80 16:23 12.11.2021
5438 Clear 11 1025 64 10000 2.68 70 15:31 12.11.2021
5439 Clear 10 1023 61 10000 1.79 10 11:32 12.11.2021
5440 Clear 9 1028 66 10000 1.79 60 10:50 12.11.2021
5441 Clear 11 1023 52 10000 1.79 360 09:36 12.11.2021
5442 Clear 12 1023 54 10000 1.79 60 08:38 12.11.2021
5443 Clouds 19 1020 31 10000 7.15 40 02:25 12.11.2021
5444 Clouds 23 1017 20 10000 5.81 20 23:39 11.11.2021
5445 Clouds 23 1017 22 10000 2.24 360 22:30 11.11.2021
5446 Clouds 22 1018 26 10000 4.92 60 21:27 11.11.2021
5447 Clouds 21 1019 27 10000 4.92 360 20:38 11.11.2021
5448 Clear 21 1020 30 9656 3.58 330 18:56 11.11.2021
5449 Clear 19 1018 39 9656 1.34 65 17:43 11.11.2021
5450 Clouds 16 1019 49 10000 1.34 329 16:40 11.11.2021
5451 Clouds 13 1010 57 10000 0.45 196 14:46 11.11.2021
5452 Clouds 11 1018 67 10000 0 0 14:28 11.11.2021
5453 Clouds 11 1017 66 10000 2.57 70 13:37 11.11.2021
5454 Clouds 13 1009 62 10000 0.57 194 12:48 11.11.2021
5455 Clear 12 1019 66 10000 0 0 10:36 11.11.2021
5456 Clouds 13 1019 63 10000 0.45 166 09:33 11.11.2021
5457 Clouds 15 1020 60 10000 0 0 07:38 11.11.2021
5458 Clouds 17 1024 48 10000 1.79 110 03:58 11.11.2021
5459 Clear 23 1014 19 10000 1.79 50 22:59 10.11.2021
5460 Clear 23 1017 19 8047 1.79 50 22:22 10.11.2021
5461 Clear 23 1017 25 8047 2.68 50 21:21 10.11.2021
5462 Clear 21 1016 28 10000 1.79 140 20:45 10.11.2021
5463 Clear 21 1017 39 10000 2.24 90 19:46 10.11.2021
5464 Clear 17 1019 57 8047 1.54 140 17:51 10.11.2021
5465 Clear 13 1020 71 8047 2.24 71 16:34 10.11.2021
5466 Mist 10 1019 86 1609 0.89 78 14:52 10.11.2021
5467 Fog 9 1019 100 805 0.89 88 13:41 10.11.2021
5468 Clear 12 1011 80 10000 0.89 79 12:47 10.11.2021
5469 Clear 11 1021 80 10000 1.79 70 10:39 10.11.2021
5470 Clear 13 1020 82 10000 2.24 80 08:45 10.11.2021
5471 Clear 13 1023 69 10000 0.89 330 07:32 10.11.2021
5472 Clear 13 1023 69 10000 0.89 330 07:32 10.11.2021
5473 Clear 15 1023 63 10000 3.58 290 06:26 10.11.2021
5474 Clouds 16 1028 51 10000 4.92 300 05:51 10.11.2021
5475 Clouds 23 1025 18 10000 2.68 280 23:53 09.11.2021
5476 Clouds 22 1027 27 10000 3.58 30 21:48 09.11.2021
5477 Clear 22 1022 29 6437 2.24 50 20:32 09.11.2021
5478 Clear 19 1024 43 6437 1.79 30 19:25 09.11.2021
5479 Mist 15 1023 64 4828 1.34 61 17:37 09.11.2021
5480 Fog 11 1023 84 1207 0.45 68 15:45 09.11.2021
5481 Clouds 10 1015 84 10000 1.34 82 14:29 09.11.2021
5482 Fog 9 1023 88 10000 1.34 88 12:53 09.11.2021
5483 Clouds 11 1031 76 10000 2.24 70 11:42 09.11.2021
5484 Clouds 11 1031 76 10000 2.24 70 10:44 09.11.2021
5485 Clouds 11 1031 76 10000 2.24 70 09:24 09.11.2021
5486 Clear 13 1015 69 10000 0.89 86 08:25 09.11.2021
5487 Clouds 15 1023 58 10000 4.02 290 05:47 09.11.2021
5488 Clouds 20 1013 51 10000 0.89 342 02:23 09.11.2021
5489 Clouds 20 1012 44 10000 1.34 9 01:45 09.11.2021
5490 Clouds 23 1027 25 10000 1.79 80 23:58 08.11.2021
5491 Clouds 23 1027 25 10000 1.79 80 22:49 08.11.2021
5492 Clouds 23 1027 25 10000 1.79 80 21:55 08.11.2021
5493 Clouds 23 1026 26 10000 1.79 80 20:55 08.11.2021
5494 Clear 20 1024 34 9656 3.58 340 19:51 08.11.2021
5495 Clouds 17 1032 55 10000 1.34 90 18:30 08.11.2021
5496 Clear 13 1027 74 8047 1.34 100 16:22 08.11.2021
5497 Clouds 13 1015 76 10000 1.36 30 15:25 08.11.2021
5498 Clouds 12 1015 81 10000 0.45 71 14:40 08.11.2021
5499 Clouds 11 1015 82 10000 1.18 38 13:33 08.11.2021
5500 Clouds 12 1015 82 10000 1.34 80 11:56 08.11.2021
5501 Clouds 12 1015 78 10000 1.79 103 10:52 08.11.2021
5502 Clouds 14 1021 62 10000 4.02 290 09:44 08.11.2021
5503 Clouds 14 1021 62 10000 4.02 290 08:54 08.11.2021
5504 Clouds 14 1023 67 10000 4.02 290 07:35 08.11.2021
5505 Clouds 16 1029 55 10000 4.92 360 04:42 08.11.2021
5506 Clouds 16 1021 58 10000 4.92 360 03:28 08.11.2021
5507 Clouds 22 1027 24 10000 2.24 340 23:46 07.11.2021
5508 Clouds 22 1027 24 10000 2.24 340 21:54 07.11.2021
5509 Clouds 22 1022 27 10000 2.24 340 21:20 07.11.2021
5510 Clear 21 1023 28 10000 2.68 310 19:40 07.11.2021
5511 Clear 17 1025 48 9656 1.34 240 18:22 07.11.2021
5512 Clear 14 1030 62 9656 1.34 170 16:54 07.11.2021
5513 Clouds 13 1016 71 10000 0.45 84 15:54 07.11.2021
5514 Clear 9 1023 85 10000 1.34 68 14:29 07.11.2021
5515 Clouds 11 1015 79 10000 1.34 81 13:35 07.11.2021
5516 Clouds 9 1030 81 10000 1.79 70 11:43 07.11.2021
5517 Clouds 12 1014 70 10000 0.45 342 09:52 07.11.2021
5518 Clouds 15 1029 54 10000 2.68 50 08:31 07.11.2021
5519 Clear 18 1026 42 10000 5.81 360 02:41 07.11.2021
5520 Clouds 22 1026 14 10000 2.68 280 23:38 06.11.2021
5521 Clouds 22 1027 17 10000 3.58 40 22:48 06.11.2021
5522 Clouds 22 1022 19 10000 3.58 40 21:33 06.11.2021
5523 Clouds 20 1028 22 10000 2.24 310 20:50 06.11.2021
5524 Clouds 19 1013 30 10000 0.89 311 18:56 06.11.2021
5525 Clouds 15 1030 48 10000 0 0 16:47 06.11.2021
5526 Clouds 15 1030 48 10000 0 0 16:47 06.11.2021
5527 Clouds 15 1030 48 10000 0 0 16:47 06.11.2021
5528 Clouds 15 1030 48 10000 0 0 16:47 06.11.2021
5529 Clouds 11 1025 64 10000 1.79 70 15:20 06.11.2021
5530 Clouds 11 1014 70 10000 0.45 78 13:38 06.11.2021
5531 Clear 12 1013 68 10000 0.45 71 12:28 06.11.2021
5532 Clouds 13 1027 50 10000 1.79 100 09:33 06.11.2021
5533 Clear 15 1014 57 10000 1.79 339 07:55 06.11.2021
5534 Clouds 20 1026 40 10000 4.47 360 02:36 06.11.2021
5535 Clouds 21 1020 28 10000 4.02 20 23:37 05.11.2021
5536 Clouds 21 1026 28 10000 3.58 360 22:34 05.11.2021
5537 Clouds 21 1026 28 10000 3.58 360 21:50 05.11.2021
5538 Clouds 20 1022 32 10000 1.79 360 20:20 05.11.2021
5539 Clouds 19 1022 36 9656 2.68 60 19:48 05.11.2021
5540 Clouds 18 1012 41 10000 1.79 5 18:40 05.11.2021
5541 Clouds 15 1024 58 8047 1.79 340 17:28 05.11.2021
5542 Mist 11 1021 76 8047 0.45 207 15:38 05.11.2021
5543 Clouds 11 1012 80 10000 0.89 70 13:37 05.11.2021
5544 Clouds 15 1027 51 10000 2.68 20 11:27 05.11.2021
5545 Clouds 15 1027 51 10000 2.68 20 08:40 05.11.2021
5546 Clouds 15 1027 51 10000 2.68 20 07:39 05.11.2021
5547 Clouds 15 1022 56 10000 2.68 20 05:32 05.11.2021
5548 Clouds 17 1020 49 10000 7.15 60 02:26 05.11.2021
5549 Clouds 21 1022 23 10000 4.92 20 00:51 05.11.2021
5550 Clouds 22 1018 24 10000 4.02 340 23:23 04.11.2021
5551 Clouds 22 1018 23 10000 4.02 40 22:19 04.11.2021
5552 Clouds 22 1025 21 10000 4.47 50 21:35 04.11.2021
5553 Clouds 22 1024 21 9656 4.47 50 20:50 04.11.2021
5554 Clouds 21 1020 26 9656 2.68 110 20:22 04.11.2021
5555 Clouds 20 1018 27 10000 1.79 20 19:47 04.11.2021
5556 Clouds 19 1027 32 9656 2.24 360 18:44 04.11.2021
5557 Clouds 19 1011 36 10000 0.89 38 17:54 04.11.2021
5558 Clouds 16 1027 38 9656 0.45 346 16:47 04.11.2021
5559 Clouds 11 1018 59 10000 3.09 90 14:38 04.11.2021
5560 Clouds 14 1009 52 10000 0.45 93 12:32 04.11.2021
5561 Clouds 14 1021 42 10000 2.68 70 09:37 04.11.2021
5562 Clouds 14 1027 47 10000 2.24 60 08:31 04.11.2021
5563 Clouds 14 1026 47 10000 2.24 60 07:34 04.11.2021
5564 Clouds 20 1020 21 10000 3.58 330 02:37 04.11.2021
5565 Clouds 23 1015 20 10000 2.68 90 22:50 03.11.2021
5566 Clouds 23 1025 18 10000 2.68 20 21:49 03.11.2021
5567 Clouds 23 1025 18 10000 2.68 20 21:30 03.11.2021
5568 Clear 23 1019 19 9656 2.68 20 20:35 03.11.2021
5569 Clouds 20 1027 22 10000 2.24 70 19:58 03.11.2021
5570 Clear 20 1026 23 9656 2.24 70 18:57 03.11.2021
5571 Clouds 18 1023 32 9656 1.34 120 18:23 03.11.2021
5572 Clouds 17 1023 36 9656 0.45 355 17:36 03.11.2021
5573 Clouds 13 1020 48 10000 0.45 109 16:26 03.11.2021
5574 Clouds 15 1012 50 10000 1.54 80 15:43 03.11.2021
5575 Clouds 11 1011 61 10000 0.89 80 13:57 03.11.2021
5576 Clouds 12 1011 57 10000 1.44 15 11:59 03.11.2021
5577 Clouds 12 1011 56 10000 0.45 63 11:25 03.11.2021
5578 Clouds 13 1011 53 10000 0.45 160 10:46 03.11.2021
5579 Clouds 14 1012 47 10000 2.57 60 09:30 03.11.2021
5580 Clouds 12 1029 50 10000 2.24 60 08:22 03.11.2021
5581 Clouds 15 1013 49 10000 0.45 346 07:39 03.11.2021
5582 Clouds 17 1021 30 10000 2.24 30 04:45 03.11.2021
5583 Clouds 19 1027 19 10000 7.15 20 02:28 03.11.2021
5584 Clouds 23 1026 17 10000 2.68 10 23:51 02.11.2021
5585 Clouds 23 1020 18 10000 2.68 30 22:35 02.11.2021
5586 Clouds 22 1019 20 10000 4.02 50 21:29 02.11.2021
5587 Clear 22 1023 20 10000 4.02 50 20:33 02.11.2021
5588 Clear 21 1023 21 10000 4.02 50 19:51 02.11.2021
5589 Clouds 21 1012 29 10000 3.58 286 18:59 02.11.2021
5590 Clouds 19 1014 29 10000 1.34 12 17:59 02.11.2021
5591 Clouds 18 1014 30 10000 0.45 53 17:38 02.11.2021
5592 Clouds 17 1014 45 10000 2.68 350 16:30 02.11.2021
5593 Clouds 12 1030 54 10000 0.89 60 15:30 02.11.2021
5594 Clouds 12 1022 55 10000 0.89 60 14:22 02.11.2021
5595 Clouds 12 1013 54 10000 1.66 12 13:27 02.11.2021
5596 Clouds 12 1030 54 10000 0.89 60 12:39 02.11.2021
5597 Clouds 12 1030 54 10000 0.89 60 11:33 02.11.2021
5598 Clouds 12 1030 54 10000 0.89 60 10:51 02.11.2021
5599 Clouds 12 1030 54 10000 0.89 60 10:26 02.11.2021
5600 Clouds 15 1015 38 10000 3.58 300 08:43 02.11.2021
5601 Clouds 15 1030 38 10000 3.58 300 06:50 02.11.2021
5602 Clouds 18 1023 27 10000 4.92 40 03:34 02.11.2021
5603 Clouds 20 1022 24 10000 4.47 360 02:18 02.11.2021
5604 Clouds 23 1020 30 9656 4.02 10 22:44 01.11.2021
5605 Clouds 21 1028 32 10000 2.24 90 20:52 01.11.2021
5606 Clouds 21 1022 35 9656 2.24 90 20:33 01.11.2021
5607 Clouds 21 1019 40 10000 0.89 140 19:48 01.11.2021
5608 Clouds 19 1030 45 10000 2.24 80 18:58 01.11.2021
5609 Clear 19 1029 45 10000 2.24 80 18:20 01.11.2021
5610 Clear 17 1025 50 10000 1.34 50 17:19 01.11.2021
5611 Clouds 16 1021 52 10000 0.45 323 16:43 01.11.2021
5612 Clouds 16 1012 51 10000 0.45 34 15:46 01.11.2021
5613 Clouds 14 1023 63 10000 2.24 70 15:20 01.11.2021
5614 Clouds 13 1020 59 10000 1.79 344 14:41 01.11.2021
5615 Clouds 13 1023 62 10000 1.79 80 14:19 01.11.2021
5616 Clouds 13 1028 76 10000 1.79 60 13:18 01.11.2021
5617 Clouds 13 1028 76 10000 1.79 60 11:56 01.11.2021
5618 Clouds 13 1014 76 10000 1.79 60 10:23 01.11.2021
5619 Clouds 16 1010 54 10000 0.45 190 08:53 01.11.2021
5620 Clouds 17 1010 52 10000 0.45 329 07:47 01.11.2021
5621 Clouds 16 1028 51 10000 2.24 140 05:53 01.11.2021
5622 Clouds 17 1019 50 10000 0.89 63 03:40 01.11.2021
5623 Clouds 23 1012 25 10000 1.79 340 23:59 31.10.2021
5624 Clouds 22 1027 24 10000 2.24 320 21:31 31.10.2021
5625 Clouds 22 1027 24 10000 2.24 320 20:25 31.10.2021
5626 Clouds 21 1026 27 10000 1.79 260 18:46 31.10.2021
5627 Clouds 18 1028 42 10000 1.34 340 18:23 31.10.2021
5628 Clouds 17 1019 50 10000 0.89 101 16:48 31.10.2021
5629 Clouds 14 1018 64 10000 0.89 63 15:18 31.10.2021
5630 Clouds 12 1017 66 10000 0.45 172 13:27 31.10.2021
5631 Clear 14 1008 58 10000 0.31 344 12:25 31.10.2021
5632 Clear 15 1007 57 10000 0.45 217 10:51 31.10.2021
5633 Clear 13 1026 71 10000 1.79 60 09:43 31.10.2021
5634 Clear 13 1026 71 10000 1.79 60 08:47 31.10.2021
5635 Clouds 17 1026 45 10000 2.24 70 04:54 31.10.2021
5636 Clouds 23 1023 18 10000 5.81 30 00:36 31.10.2021
5637 Clouds 21 1027 30 10000 1.34 330 22:27 30.10.2021
5638 Clouds 21 1027 30 10000 1.34 330 21:29 30.10.2021
5639 Clear 21 1026 30 10000 3.58 280 19:57 30.10.2021
5640 Clouds 17 1022 61 9656 1.79 130 17:51 30.10.2021
5641 Clouds 13 1009 77 10000 1.34 80 15:49 30.10.2021
5642 Clouds 17 1028 55 10000 2.24 340 13:59 30.10.2021
5643 Clouds 17 1028 55 10000 2.24 340 13:38 30.10.2021
5644 Clouds 17 1028 55 10000 2.24 340 13:20 30.10.2021
5645 Clouds 17 1028 55 10000 2.24 340 11:50 30.10.2021
5646 Clouds 17 1028 55 10000 2.24 340 10:57 30.10.2021
5647 Clouds 17 1028 55 10000 2.24 340 08:59 30.10.2021
5648 Clouds 17 1028 55 10000 2.24 340 07:57 30.10.2021
5649 Clouds 17 1028 55 10000 2.24 340 07:57 30.10.2021
5650 Clouds 17 1018 59 10000 2.24 10 05:48 30.10.2021
5651 Clouds 20 1014 49 10000 1.79 360 03:28 30.10.2021
5652 Clouds 22 1017 40 6437 2.68 120 23:22 29.10.2021
5653 Clouds 21 1018 46 6437 1.34 50 22:35 29.10.2021
5654 Clouds 21 1020 49 6437 2.24 320 21:19 29.10.2021
5655 Clouds 20 1021 55 6437 2.24 50 20:33 29.10.2021
5656 Mist 19 1022 57 4828 0.45 205 19:30 29.10.2021
5657 Mist 17 1023 68 4023 1.34 140 18:18 29.10.2021
5658 Mist 13 1023 83 2414 1.79 100 16:20 29.10.2021
5659 Mist 14 1021 81 4828 1.79 350 13:23 29.10.2021
5660 Clouds 13 1018 87 10000 1.79 70 10:49 29.10.2021
5661 Haze 14 1018 87 8047 0.45 180 10:31 29.10.2021
5662 Thunderstorm 17 1019 63 10000 4.47 360 02:47 29.10.2021
5663 Thunderstorm 21 1017 52 10000 8.94 140 00:35 29.10.2021
5664 Clouds 24 1017 37 10000 3.58 30 22:34 28.10.2021
5665 Clouds 23 1018 40 10000 2.68 80 21:20 28.10.2021
5666 Clouds 22 1019 44 10000 1.34 90 20:19 28.10.2021
5667 Clouds 21 1020 50 9656 2.24 60 18:47 28.10.2021
5668 Clear 19 1006 54 10000 1.26 30 17:52 28.10.2021
5669 Clear 16 1016 72 10000 0.89 70 16:39 28.10.2021
5670 Clouds 14 1015 79 10000 0.45 89 14:43 28.10.2021
5671 Clouds 14 1015 75 10000 0 0 13:33 28.10.2021
5672 Clouds 16 1004 79 10000 0.45 165 12:50 28.10.2021
5673 Clouds 16 1003 78 10000 0.45 205 11:51 28.10.2021
5674 Clouds 17 1003 69 10000 0.89 154 10:47 28.10.2021
5675 Clear 17 1018 73 10000 0.45 308 09:37 28.10.2021
5676 Clear 18 1018 70 10000 0.45 171 08:37 28.10.2021
5677 Clouds 19 1016 64 10000 0.45 173 07:41 28.10.2021
5678 Clouds 21 1013 57 10000 4.92 60 03:51 28.10.2021
5679 Clouds 27 1022 26 10000 1.79 190 22:57 27.10.2021
5680 Clouds 27 1015 29 10000 1.79 190 22:26 27.10.2021
5681 Clouds 26 1016 31 10000 1.79 210 21:32 27.10.2021
5682 Clouds 25 1014 32 10000 1.79 180 20:46 27.10.2021
5683 Clear 23 1018 39 10000 1.79 170 19:48 27.10.2021
5684 Clouds 22 1015 44 10000 1.79 130 18:56 27.10.2021
5685 Clouds 22 1019 44 10000 1.79 130 18:37 27.10.2021
5686 Clouds 18 1019 57 10000 1.34 200 16:26 27.10.2021
5687 Clouds 15 1019 72 10000 1.34 200 15:28 27.10.2021
5688 Clouds 15 1018 73 10000 1.34 230 14:38 27.10.2021
5689 Clouds 16 1018 69 10000 1.79 170 11:19 27.10.2021
5690 Clouds 16 1015 72 10000 1.34 150 10:56 27.10.2021
5691 Clouds 16 1019 72 10000 2.68 130 09:28 27.10.2021
5692 Clouds 18 1016 65 10000 4.02 120 07:51 27.10.2021
5693 Clear 19 1020 58 10000 2.24 130 06:34 27.10.2021
5694 Clouds 24 1016 39 10000 8.05 150 01:29 27.10.2021
5695 Clouds 24 1021 36 10000 7.15 140 00:55 27.10.2021
5696 Clouds 27 1023 28 10000 4.92 200 23:56 26.10.2021
5697 Clear 27 1024 26 10000 4.02 160 22:55 26.10.2021
5698 Clouds 26 1017 30 10000 4.02 160 22:27 26.10.2021
5699 Clear 27 1003 37 10000 2.68 91 21:51 26.10.2021
5700 Clear 24 1006 45 10000 0.89 321 19:59 26.10.2021
5701 Clear 23 1006 48 10000 1.79 63 19:22 26.10.2021
5702 Clear 21 1008 56 10000 0.45 22 18:30 26.10.2021
5703 Clouds 17 1009 68 10000 1.79 83 15:53 26.10.2021
5704 Clouds 14 1022 72 10000 0 0 14:18 26.10.2021
5705 Clouds 14 1021 71 10000 0.89 236 11:23 26.10.2021
5706 Clouds 15 1022 71 10000 0 0 09:27 26.10.2021
5707 Clouds 17 1022 58 10000 2.24 300 07:23 26.10.2021
5708 Clouds 22 1019 41 10000 4.92 210 00:31 26.10.2021
5709 Clouds 23 1016 41 10000 5.81 210 23:48 25.10.2021
5710 Clouds 22 1019 41 10000 5.81 210 22:35 25.10.2021
5711 Clouds 22 1017 48 10000 2.68 230 21:47 25.10.2021
5712 Clouds 21 1021 51 9656 2.68 190 20:48 25.10.2021
5713 Clouds 21 1022 53 9656 1.79 120 19:44 25.10.2021
5714 Clouds 19 1019 61 9656 1.79 55 19:24 25.10.2021
5715 Clouds 19 1019 65 9656 0.89 42 18:42 25.10.2021
5716 Clouds 17 1019 73 10000 0.45 57 17:42 25.10.2021
5717 Clouds 14 1021 78 10000 1.79 90 15:24 25.10.2021
5718 Clouds 14 1016 81 10000 3.09 70 12:39 25.10.2021
5719 Clouds 14 1024 82 10000 0.89 60 11:25 25.10.2021
5720 Clouds 16 1019 70 10000 1.79 360 09:22 25.10.2021
5721 Clouds 17 1019 69 10000 0.89 300 07:20 25.10.2021
5722 Clouds 17 1021 69 10000 1.34 300 05:21 25.10.2021
5723 Clouds 20 1013 59 10000 4.92 100 00:52 25.10.2021
5724 Clouds 21 1016 52 10000 4.92 100 00:34 25.10.2021
5725 Clouds 22 1016 47 10000 1.79 70 23:42 24.10.2021
5726 Clouds 22 1016 44 10000 1.34 345 22:39 24.10.2021
5727 Clouds 22 1016 45 10000 0.89 5 22:20 24.10.2021
5728 Clouds 21 1018 50 10000 1.79 60 21:33 24.10.2021
5729 Clouds 21 1018 53 10000 2.68 60 20:39 24.10.2021
5730 Clouds 19 1019 56 10000 1.79 80 19:47 24.10.2021
5731 Clouds 18 1020 60 10000 0.89 350 18:29 24.10.2021
5732 Clouds 18 1019 63 10000 0.89 310 17:45 24.10.2021
5733 Clouds 16 1016 71 10000 0.89 36 15:56 24.10.2021
5734 Clouds 15 1018 72 10000 0 0 15:19 24.10.2021
5735 Clouds 15 1017 68 10000 2.24 80 13:19 24.10.2021
5736 Clouds 15 1025 72 10000 3.58 130 11:56 24.10.2021
5737 Clouds 16 1018 71 10000 3.58 130 11:26 24.10.2021
5738 Clouds 16 1018 68 10000 4.02 140 10:28 24.10.2021
5739 Clouds 16 1016 71 8848 4.02 120 07:59 24.10.2021
5740 Clouds 22 1015 48 9656 5.81 140 01:26 24.10.2021
5741 Clouds 23 1012 39 10000 2.24 120 23:51 23.10.2021
5742 Clouds 22 1016 41 8047 2.68 100 22:32 23.10.2021
5743 Clouds 21 1018 52 6437 1.34 150 20:37 23.10.2021
5744 Mist 19 1008 62 4828 1.34 236 18:59 23.10.2021
5745 Haze 17 1021 67 4828 0.89 113 18:30 23.10.2021
5746 Mist 16 1018 72 4828 0.89 49 17:44 23.10.2021
5747 Fog 13 1017 84 805 0.45 323 16:38 23.10.2021
5748 Mist 13 1019 89 9656 1.79 110 14:35 23.10.2021
5749 Clouds 14 1017 75 10000 3.58 70 09:45 23.10.2021
5750 Clouds 20 1018 55 10000 5.36 330 00:28 23.10.2021
5751 Clouds 20 1018 55 10000 4.92 310 23:23 22.10.2021
5752 Clouds 19 1028 55 10000 4.02 360 20:55 22.10.2021
5753 Clouds 17 1029 63 10000 3.58 30 18:57 22.10.2021
5754 Clouds 16 1023 69 10000 2.68 360 17:44 22.10.2021
5755 Clouds 16 1027 68 10000 3.58 320 15:57 22.10.2021
5756 Clouds 15 1021 77 10000 2.24 10 14:30 22.10.2021
5757 Clouds 15 1021 77 10000 2.24 360 12:38 22.10.2021
5758 Clouds 15 1019 73 10000 2.24 270 10:50 22.10.2021
5759 Clouds 15 1020 74 10000 2.24 310 09:56 22.10.2021
5760 Clouds 15 1020 74 10000 2.24 310 09:56 22.10.2021
5761 Clouds 15 1023 73 10000 2.24 310 09:32 22.10.2021
5762 Clouds 16 1023 66 10000 2.68 330 07:26 22.10.2021
5763 Clouds 18 1028 59 10000 4.92 10 04:59 22.10.2021
5764 Clouds 20 1019 61 10000 2.68 360 00:31 22.10.2021
5765 Rain 19 1016 67 9656 0.89 38 23:48 21.10.2021
5766 Clouds 20 1020 57 10000 5.36 360 22:21 21.10.2021
5767 Clouds 21 1019 50 10000 1.34 20 20:55 21.10.2021
5768 Clouds 21 1022 49 10000 1.34 20 20:20 21.10.2021
5769 Clouds 20 1023 55 10000 3.58 50 19:30 21.10.2021
5770 Clouds 20 1023 55 10000 3.58 50 19:30 21.10.2021
5771 Clouds 20 1024 56 10000 2.68 60 18:52 21.10.2021
5772 Clouds 18 1024 58 10000 4.02 40 18:27 21.10.2021
5773 Clouds 18 1024 62 10000 4.02 30 17:42 21.10.2021
5774 Clouds 17 1023 66 10000 2.68 350 16:20 21.10.2021
5775 Clouds 16 1023 70 10000 2.68 20 15:21 21.10.2021
5776 Clouds 16 1019 71 10000 2.24 30 14:49 21.10.2021
5777 Clouds 15 1022 77 10000 1.79 50 13:27 21.10.2021
5778 Clouds 16 1021 70 10000 0.45 350 11:35 21.10.2021
5779 Clouds 17 1022 66 10000 2.68 340 09:23 21.10.2021
5780 Clouds 17 1023 65 10000 4.02 310 07:31 21.10.2021
5781 Clouds 18 1022 62 10000 4.92 360 05:33 21.10.2021
5782 Clouds 24 1025 38 10000 2 62 23:56 20.10.2021
5783 Clouds 23 1020 44 8047 1.34 40 22:21 20.10.2021
5784 Clouds 22 1018 48 10000 2.68 80 21:45 20.10.2021
5785 Clouds 20 1029 56 10000 1.34 80 20:57 20.10.2021
5786 Haze 21 1023 56 4828 1.34 80 20:36 20.10.2021
5787 Haze 20 1027 56 4828 1.34 50 19:59 20.10.2021
5788 Haze 18 1028 67 4828 2.68 60 18:59 20.10.2021
5789 Mist 17 1024 70 4023 4.02 110 17:54 20.10.2021
5790 Clouds 16 1010 73 10000 0.89 43 15:54 20.10.2021
5791 Clouds 14 1018 82 10000 3.58 80 12:50 20.10.2021
5792 Clouds 16 1021 65 10000 0.45 350 09:30 20.10.2021
5793 Clouds 18 1021 69 10000 2.24 60 05:24 20.10.2021
5794 Clouds 23 1023 25 10000 4.47 330 00:53 20.10.2021
5795 Clouds 23 1017 26 10000 4.47 330 00:26 20.10.2021
5796 Clouds 23 1018 29 10000 1.79 100 22:21 19.10.2021
5797 Clouds 23 1019 28 10000 2.68 110 21:28 19.10.2021
5798 Clouds 23 1020 35 10000 0 0 20:26 19.10.2021
5799 Clouds 22 1021 36 10000 0.45 287 19:46 19.10.2021
5800 Clouds 20 1021 41 10000 2.24 290 19:23 19.10.2021
5801 Clouds 19 1022 51 10000 1.79 100 18:23 19.10.2021
5802 Clouds 19 1022 51 10000 1.79 100 18:23 19.10.2021
5803 Clouds 17 1009 64 10000 0.45 97 16:25 19.10.2021
5804 Clear 12 1018 75 10000 0.89 76 15:25 19.10.2021
5805 Clear 12 1017 75 10000 0.89 87 14:31 19.10.2021
5806 Clouds 14 1008 74 10000 0.45 14 13:49 19.10.2021
5807 Clouds 13 1020 71 10000 2.68 80 11:37 19.10.2021
5808 Clouds 15 1021 68 10000 4.02 300 10:39 19.10.2021
5809 Clouds 16 1028 63 10000 3.58 310 08:59 19.10.2021
5810 Clouds 17 1028 55 10000 0.89 10 07:56 19.10.2021
5811 Clouds 23 1018 35 10000 2.68 20 00:28 19.10.2021
5812 Clouds 23 1024 31 10000 3.58 30 23:56 18.10.2021
5813 Clouds 23 1019 32 10000 3.58 30 23:21 18.10.2021
5814 Clouds 23 1025 33 10000 4.47 80 22:54 18.10.2021
5815 Clouds 22 1025 35 10000 4.47 110 21:58 18.10.2021
5816 Clouds 20 1019 44 10000 1.34 76 20:46 18.10.2021
5817 Clouds 20 1022 48 10000 1.79 50 20:20 18.10.2021
5818 Clouds 18 1024 55 9656 1.79 80 19:31 18.10.2021
5819 Clouds 17 1028 59 9656 1.79 80 18:58 18.10.2021
5820 Mist 12 1021 83 8047 1.79 66 16:30 18.10.2021
5821 Clouds 10 1020 84 10000 1.34 225 14:33 18.10.2021
5822 Clouds 12 1012 80 10000 0.45 81 11:44 18.10.2021
5823 Clouds 13 1024 73 10000 0.45 282 09:42 18.10.2021
5824 Clouds 14 1025 73 10000 4.02 300 06:39 18.10.2021
5825 Clouds 18 1029 55 10000 5.81 20 23:52 17.10.2021
5826 Clouds 17 1024 60 10000 4.47 20 22:23 17.10.2021
5827 Clouds 18 1024 56 10000 4.02 20 21:42 17.10.2021
5828 Clouds 18 1031 55 10000 1.79 20 20:49 17.10.2021
5829 Clouds 17 1032 55 10000 2.68 60 19:56 17.10.2021
5830 Clouds 17 1026 57 10000 2.68 60 19:37 17.10.2021
5831 Clouds 16 1032 59 10000 2.68 50 18:28 17.10.2021
5832 Clouds 13 1031 76 10000 2.68 350 15:57 17.10.2021
5833 Clouds 14 1025 73 10000 4.02 360 14:38 17.10.2021
5834 Clouds 14 1031 71 10000 4.92 360 13:59 17.10.2021
5835 Clouds 14 1025 74 10000 4.92 360 13:30 17.10.2021
5836 Clouds 14 1024 78 10000 2.68 340 11:27 17.10.2021
5837 Clouds 14 1031 76 10000 2.68 360 09:56 17.10.2021
5838 Clouds 15 1022 77 10000 4.92 10 07:43 17.10.2021
5839 Clouds 19 1028 42 10000 7.15 60 02:57 17.10.2021
5840 Clouds 21 1021 34 10000 4.92 30 00:30 17.10.2021
5841 Clouds 22 1018 32 10000 4.92 20 22:46 16.10.2021
5842 Clouds 21 1023 39 10000 5.81 20 20:36 16.10.2021
5843 Clouds 19 1018 48 10000 5.81 10 19:59 16.10.2021
5844 Clouds 19 1020 48 10000 5.81 10 19:40 16.10.2021
5845 Clouds 19 1020 49 10000 5.81 10 19:18 16.10.2021
5846 Clouds 18 1025 52 10000 4.02 330 18:44 16.10.2021
5847 Clouds 18 1025 54 10000 4.02 330 18:22 16.10.2021
5848 Clouds 16 1024 63 10000 2.68 50 17:31 16.10.2021
5849 Clouds 16 1024 64 10000 1.79 300 16:18 16.10.2021
5850 Clouds 14 1019 70 10000 2.24 340 12:50 16.10.2021
5851 Clear 15 1022 67 10000 3.58 360 11:24 16.10.2021
5852 Clouds 17 1029 59 10000 1.79 360 08:57 16.10.2021
5853 Clouds 24 1017 34 10000 7.15 30 01:37 16.10.2021
5854 Clouds 25 1016 27 10000 7.15 340 00:29 16.10.2021
5855 Clouds 26 1016 25 10000 7.15 330 23:25 15.10.2021
5856 Clear 25 1017 26 10000 5.81 10 22:20 15.10.2021
5857 Clear 24 1017 27 10000 5.36 10 21:40 15.10.2021
5858 Clouds 23 1026 31 10000 3.58 50 20:54 15.10.2021
5859 Clear 23 1019 33 10000 3.58 50 20:22 15.10.2021
5860 Clear 22 1020 37 9656 0.89 330 19:19 15.10.2021
5861 Clear 20 1020 50 8047 0.89 230 18:21 15.10.2021
5862 Clear 17 1005 64 10000 1.34 70 15:46 15.10.2021
5863 Clear 14 1018 72 10000 2.68 70 14:18 15.10.2021
5864 Clear 15 1017 71 10000 2.68 60 11:54 15.10.2021
5865 Clear 16 1025 63 10000 1.79 70 10:58 15.10.2021
5866 Clear 16 1017 65 10000 1.79 70 10:22 15.10.2021
5867 Clouds 20 1019 54 10000 4.02 340 07:33 15.10.2021
5868 Clouds 22 1017 51 10000 4.92 30 04:26 15.10.2021
5869 Clouds 27 1015 24 10000 1.79 340 00:22 15.10.2021
5870 Clouds 26 1012 27 10000 1.79 20 22:54 14.10.2021
5871 Clouds 26 1015 27 10000 1.79 20 22:18 14.10.2021
5872 Clouds 26 1017 24 10000 2.24 360 21:37 14.10.2021
5873 Clouds 23 1018 37 10000 2.68 80 20:20 14.10.2021
5874 Clouds 23 1015 44 10000 2.68 290 19:43 14.10.2021
5875 Clear 21 1019 51 10000 1.34 80 18:26 14.10.2021
5876 Clouds 20 1005 60 10000 0.89 15 16:57 14.10.2021
5877 Clouds 17 1016 64 10000 2.06 60 16:21 14.10.2021
5878 Clouds 15 1018 72 10000 2.68 100 14:44 14.10.2021
5879 Clouds 15 1018 72 10000 2.68 100 14:24 14.10.2021
5880 Clouds 15 1018 71 10000 1.34 80 12:35 14.10.2021
5881 Clouds 16 1025 67 10000 1.34 70 10:46 14.10.2021
5882 Clouds 18 1026 67 10000 2.24 50 07:39 14.10.2021
5883 Clouds 22 1024 37 10000 4.02 150 03:51 14.10.2021
5884 Clouds 27 1021 14 10000 7.15 130 00:31 14.10.2021
5885 Clouds 27 1016 23 10000 4.02 70 22:32 13.10.2021
5886 Clouds 25 1024 27 10000 0 0 21:35 13.10.2021
5887 Clouds 24 1026 31 10000 1.34 100 20:23 13.10.2021
5888 Clouds 22 1020 36 10000 1.34 50 19:19 13.10.2021
5889 Clouds 22 1020 37 10000 1.34 150 18:37 13.10.2021
5890 Clouds 18 1006 56 10000 0.45 165 15:54 13.10.2021
5891 Clouds 15 1005 65 10000 0.45 197 14:46 13.10.2021
5892 Clouds 13 1015 65 10000 3.09 70 14:23 13.10.2021
5893 Clouds 15 1018 60 10000 0 0 12:24 13.10.2021
5894 Clouds 15 1018 60 10000 0.89 40 11:35 13.10.2021
5895 Clouds 17 1019 39 10000 1.34 310 09:26 13.10.2021
5896 Clouds 19 1019 42 10000 2.24 100 07:48 13.10.2021
5897 Clear 24 1002 28 10000 0.89 146 02:51 13.10.2021
5898 Clear 24 1016 24 10000 6.71 130 02:19 13.10.2021
5899 Clear 26 1016 25 10000 2.68 90 23:31 12.10.2021
5900 Clear 26 1013 27 10000 4.02 100 22:48 12.10.2021
5901 Clear 26 1017 28 10000 4.02 100 22:23 12.10.2021
5902 Clear 24 1014 37 10000 4.12 80 20:50 12.10.2021
5903 Clear 23 1019 38 10000 4.02 80 20:24 12.10.2021
5904 Clear 22 1025 40 9656 1.34 50 18:58 12.10.2021
5905 Clear 20 1021 57 9656 1.34 90 18:23 12.10.2021
5906 Clear 19 1006 61 10000 1.34 97 16:47 12.10.2021
5907 Clear 17 1020 68 10000 1.79 70 16:19 12.10.2021
5908 Clear 15 1016 75 10000 0.48 121 14:51 12.10.2021
5909 Clear 14 1019 75 10000 2.68 70 13:45 12.10.2021
5910 Clear 16 1018 65 10000 0.45 153 12:44 12.10.2021
5911 Clouds 17 1014 63 10000 0.52 168 10:45 12.10.2021
5912 Clear 17 1019 60 10000 0 0 09:20 12.10.2021
5913 Clouds 19 1004 59 10000 0.1 199 08:00 12.10.2021
5914 Clouds 20 1019 54 10000 4.02 290 06:42 12.10.2021
5915 Clouds 20 1017 54 10000 1.79 270 04:35 12.10.2021
5916 Clouds 27 1014 39 10000 2.68 110 01:30 12.10.2021
5917 Clouds 27 1015 31 10000 2.68 50 23:41 11.10.2021
5918 Clear 26 1012 34 10000 1.79 90 22:59 11.10.2021
5919 Clouds 26 1016 33 10000 1.79 90 22:29 11.10.2021
5920 Clouds 25 1018 40 10000 2.68 110 21:19 11.10.2021
5921 Clouds 23 1015 51 10000 0.45 138 19:46 11.10.2021
5922 Clear 23 1005 55 10000 1.79 169 18:59 11.10.2021
5923 Clouds 21 1020 54 10000 1.79 80 18:18 11.10.2021
5924 Smoke 17 1016 65 10000 2.06 60 16:39 11.10.2021
5925 Clear 17 1005 67 10000 0.45 65 15:52 11.10.2021
5926 Smoke 15 1015 70 10000 0.45 69 15:32 11.10.2021
5927 Clear 15 1015 71 10000 0.45 182 14:46 11.10.2021
5928 Clear 15 1018 69 10000 2.24 240 13:38 11.10.2021
5929 Clear 15 1018 68 10000 1.34 213 12:20 11.10.2021
5930 Clouds 16 1025 63 10000 0.45 113 10:48 11.10.2021
5931 Clouds 17 1015 59 10000 0.89 110 09:44 11.10.2021
5932 Clouds 19 1019 49 10000 0.89 200 07:30 11.10.2021
5933 Clouds 24 1015 41 10000 7.6 110 01:42 11.10.2021
5934 Clouds 25 1022 36 10000 5.81 120 00:52 11.10.2021
5935 Clouds 25 1015 37 10000 5.81 120 00:28 11.10.2021
5936 Clear 26 1014 30 10000 1.34 200 21:57 10.10.2021
5937 Clouds 25 1018 31 10000 1.34 200 21:32 10.10.2021
5938 Clouds 23 1026 38 10000 1.79 60 20:48 10.10.2021
5939 Clouds 23 1019 38 10000 1.79 60 20:21 10.10.2021
5940 Clouds 23 1025 38 10000 4.02 90 19:59 10.10.2021
5941 Clouds 23 1020 39 10000 4.02 90 19:37 10.10.2021
5942 Clear 21 1020 47 10000 1.34 100 18:37 10.10.2021
5943 Clear 18 1021 64 10000 0.45 53 16:57 10.10.2021
5944 Clouds 15 1017 73 10000 2.24 240 15:47 10.10.2021
5945 Clear 14 1020 77 10000 0.45 199 14:42 10.10.2021
5946 Clear 14 1020 80 10000 2.24 60 13:34 10.10.2021
5947 Clear 15 1019 70 10000 1.79 100 12:35 10.10.2021
5948 Clear 17 1020 65 10000 2.24 120 10:44 10.10.2021
5949 Clear 17 1021 68 10000 1.79 170 09:31 10.10.2021
5950 Clouds 18 1027 67 10000 2.68 240 08:54 10.10.2021
5951 Clouds 18 1021 67 10000 2.24 180 07:28 10.10.2021
5952 Clouds 21 1018 54 10000 2.24 160 03:20 10.10.2021
5953 Clouds 25 1024 36 10000 2.68 100 00:58 10.10.2021
5954 Clouds 25 1017 38 10000 2.68 100 00:29 10.10.2021
5955 Clouds 24 1025 38 10000 3.58 70 22:53 09.10.2021
5956 Clouds 23 1025 43 9656 3.58 30 21:47 09.10.2021
5957 Clouds 23 1020 44 9656 3.58 30 21:28 09.10.2021
5958 Clear 21 1022 52 8047 2.24 290 19:45 09.10.2021
5959 Clouds 19 1023 56 8047 1.79 280 19:19 09.10.2021
5960 Clouds 18 1020 65 8047 0.45 26 18:33 09.10.2021
5961 Clouds 16 1023 73 6437 1.79 260 17:20 09.10.2021
5962 Clouds 15 1023 78 6437 1.79 20 16:19 09.10.2021
5963 Clouds 15 1018 78 10000 1.79 310 13:45 09.10.2021
5964 Clouds 14 1021 81 9656 0.89 80 12:40 09.10.2021
5965 Clouds 14 1027 82 10000 1.34 90 11:48 09.10.2021
5966 Clouds 15 1019 78 10000 2.24 345 10:42 09.10.2021
5967 Clouds 15 1022 74 10000 1.34 80 09:40 09.10.2021
5968 Clouds 16 1022 71 10000 3.58 300 08:30 09.10.2021
5969 Clouds 16 1022 71 10000 3.58 300 08:30 09.10.2021
5970 Clouds 16 1028 67 10000 2.68 300 07:48 09.10.2021
5971 Clouds 18 1021 66 10000 5.81 300 05:29 09.10.2021
5972 Clouds 21 1025 49 10000 4.02 110 02:59 09.10.2021
5973 Clouds 21 1019 51 10000 4.02 110 02:39 09.10.2021
5974 Clouds 23 1018 44 10000 4.92 40 23:41 08.10.2021
5975 Clouds 22 1026 43 10000 4.02 70 22:54 08.10.2021
5976 Clouds 22 1019 44 10000 4.02 70 22:23 08.10.2021
5977 Clouds 20 1028 40 10000 4.02 50 20:55 08.10.2021
5978 Clouds 18 1028 40 10000 1.79 30 18:54 08.10.2021
5979 Clouds 16 1023 59 10000 1.79 350 17:34 08.10.2021
5980 Clouds 14 1020 62 10000 2.68 310 16:51 08.10.2021
5981 Clouds 14 1023 60 10000 2.68 310 16:23 08.10.2021
5982 Clouds 13 1019 69 10000 2.24 310 13:57 08.10.2021
5983 Clouds 14 1019 64 10000 2.68 20 12:48 08.10.2021
5984 Clouds 14 1022 64 10000 1.34 342 11:31 08.10.2021
5985 Clouds 14 1023 64 10000 2.68 310 10:41 08.10.2021
5986 Clouds 15 1023 65 10000 4.02 310 09:18 08.10.2021
5987 Clouds 23 1025 43 10000 2.24 80 23:55 07.10.2021
5988 Clouds 23 1019 45 10000 2.24 80 23:18 07.10.2021
5989 Clouds 22 1018 52 10000 2.24 120 21:45 07.10.2021
5990 Clouds 21 1021 53 9656 2.24 120 21:20 07.10.2021
5991 Clouds 20 1011 62 10000 2.54 23 19:57 07.10.2021
5992 Clouds 18 1023 63 9656 1.79 280 19:28 07.10.2021
5993 Clouds 17 1024 68 9656 1.34 320 18:22 07.10.2021
5994 Clouds 16 1024 74 8047 1.34 290 17:18 07.10.2021
5995 Clouds 13 1023 86 9656 2.24 110 15:34 07.10.2021
5996 Clouds 13 1020 85 10000 1.79 50 13:47 07.10.2021
5997 Clouds 13 1022 86 10000 1.79 50 13:28 07.10.2021
5998 Clouds 13 1022 86 10000 2.24 60 12:40 07.10.2021
5999 Clouds 14 1028 87 10000 0.89 20 10:49 07.10.2021
6000 Clouds 14 1022 87 10000 0.89 20 10:19 07.10.2021
6001 Clouds 15 1028 87 10000 2.68 20 08:56 07.10.2021
6002 Clouds 15 1023 87 10000 2.68 20 08:35 07.10.2021
6003 Clouds 15 1020 90 10000 1.34 260 07:42 07.10.2021
6004 Clouds 15 1029 87 10000 1.79 260 06:57 07.10.2021
6005 Rain 19 1020 61 10000 2.68 10 02:24 07.10.2021
6006 Clouds 19 1016 59 10000 2.68 320 23:40 06.10.2021
6007 Clouds 19 1018 60 10000 2.24 250 22:46 06.10.2021
6008 Clouds 18 1021 61 10000 2.24 250 21:49 06.10.2021
6009 Clouds 17 1022 68 10000 1.79 60 20:35 06.10.2021
6010 Clouds 16 1020 71 10000 1.79 80 19:46 06.10.2021
6011 Clouds 16 1023 73 10000 2.68 20 18:34 06.10.2021
6012 Clouds 15 1028 77 10000 2.24 30 16:54 06.10.2021
6013 Clouds 14 1022 81 10000 2.24 70 15:26 06.10.2021
6014 Clouds 15 1018 78 10000 2.24 50 13:54 06.10.2021
6015 Clouds 15 1027 77 10000 2.24 360 12:57 06.10.2021
6016 Clouds 15 1021 78 10000 2.24 360 12:39 06.10.2021
6017 Clouds 15 1021 78 10000 2.24 360 12:20 06.10.2021
6018 Clouds 15 1028 82 10000 1.34 351 09:58 06.10.2021
6019 Clouds 15 1022 82 10000 0.45 301 09:38 06.10.2021
6020 Clouds 15 1022 82 10000 1.79 290 08:42 06.10.2021
6021 Clouds 16 1023 77 10000 2.24 360 06:48 06.10.2021
6022 Clouds 16 1022 83 10000 2.24 30 05:26 06.10.2021
6023 Thunderstorm 18 1017 73 6437 7.15 50 00:26 06.10.2021
6024 Clouds 21 1024 49 10000 4.92 40 23:52 05.10.2021
6025 Clouds 21 1024 49 10000 4.92 40 23:52 05.10.2021
6026 Clouds 21 1024 49 10000 4.92 40 23:32 05.10.2021
6027 Clouds 21 1025 49 10000 4.02 40 22:44 05.10.2021
6028 Clouds 21 1026 49 10000 1.79 50 21:58 05.10.2021
6029 Clouds 21 1026 49 10000 1.79 50 21:58 05.10.2021
6030 Clouds 21 1026 49 10000 1.79 50 21:36 05.10.2021
6031 Clouds 21 1027 49 10000 4.02 330 20:39 05.10.2021
6032 Clouds 21 1020 51 10000 4.02 330 20:20 05.10.2021
6033 Clouds 20 1021 55 10000 4.02 350 19:27 05.10.2021
6034 Clouds 19 1021 59 10000 2.68 50 18:46 05.10.2021
6035 Clouds 16 1021 72 10000 2.68 10 16:36 05.10.2021
6036 Clouds 15 1020 76 10000 3.58 20 14:30 05.10.2021
6037 Clouds 16 1019 74 10000 4.02 40 13:33 05.10.2021
6038 Clouds 16 1019 74 10000 1.79 20 12:36 05.10.2021
6039 Clouds 16 1016 74 10000 1.79 350 11:59 05.10.2021
6040 Clouds 16 1020 73 10000 1.79 330 10:39 05.10.2021
6041 Clouds 17 1021 67 10000 4.02 350 08:44 05.10.2021
6042 Clouds 19 1025 55 10000 6.71 360 03:55 05.10.2021
6043 Clouds 19 1013 61 10000 3.85 32 23:53 04.10.2021
6044 Clouds 22 1026 43 10000 2.68 50 21:58 04.10.2021
6045 Clouds 19 1028 59 10000 1.34 355 18:55 04.10.2021
6046 Clouds 18 1028 63 10000 2.24 90 17:59 04.10.2021
6047 Clouds 16 1021 74 10000 2.24 40 16:22 04.10.2021
6048 Clouds 15 1021 82 10000 2.24 20 15:31 04.10.2021
6049 Clouds 15 1020 83 10000 2.68 20 14:42 04.10.2021
6050 Clouds 15 1017 81 10000 1.34 360 13:48 04.10.2021
6051 Clouds 15 1019 80 10000 1.34 360 13:23 04.10.2021
6052 Clouds 16 1019 80 10000 2.24 10 11:35 04.10.2021
6053 Clouds 16 1026 77 10000 2.24 340 10:48 04.10.2021
6054 Clouds 16 1019 80 10000 1.79 10 09:48 04.10.2021
6055 Clouds 16 1020 79 10000 3.58 330 08:33 04.10.2021
6056 Clouds 16 1020 83 10000 4.92 360 06:51 04.10.2021
6057 Clouds 23 1022 43 10000 5.81 30 23:43 03.10.2021
6058 Clouds 23 1017 43 10000 2.24 240 22:33 03.10.2021
6059 Clouds 23 1017 43 10000 2.24 240 22:33 03.10.2021
6060 Clouds 22 1018 50 10000 2.68 30 21:36 03.10.2021
6061 Clouds 22 1024 50 10000 4.02 10 20:54 03.10.2021
6062 Clouds 19 1027 63 10000 1.79 331 19:56 03.10.2021
6063 Clouds 19 1021 67 9656 1.79 260 18:31 03.10.2021
6064 Clouds 16 1021 77 10000 1.79 351 17:41 03.10.2021
6065 Clouds 15 1017 86 10000 2.24 320 15:45 03.10.2021
6066 Clouds 15 1019 87 10000 2.24 300 14:39 03.10.2021
6067 Clouds 15 1019 87 8047 2.68 300 13:40 03.10.2021
6068 Clouds 15 1019 87 8047 2.68 300 13:20 03.10.2021
6069 Clouds 15 1026 87 10000 1.79 290 11:49 03.10.2021
6070 Clouds 15 1020 88 9656 2.24 300 10:33 03.10.2021
6071 Thunderstorm 16 1020 83 8047 1.79 220 07:39 03.10.2021
6072 Clouds 23 1022 49 10000 4.92 120 00:26 03.10.2021
6073 Clouds 23 1024 40 9656 0 0 22:23 02.10.2021
6074 Clouds 21 1026 52 8047 0 0 20:50 02.10.2021
6075 Clouds 20 1018 60 10000 0.45 54 18:59 02.10.2021
6076 Clouds 20 1022 62 8047 0 0 18:31 02.10.2021
6077 Clouds 19 1022 65 9656 0 0 17:38 02.10.2021
6078 Clouds 16 1022 75 10000 0 0 16:46 02.10.2021
6079 Clouds 14 1021 86 10000 1.34 243 14:42 02.10.2021
6080 Mist 14 1019 88 6437 1.34 70 15:38 30.09.2021
6081 Mist 15 1019 85 6437 1.34 140 14:42 30.09.2021
6082 Clouds 17 1026 67 10000 2.68 230 12:22 30.09.2021
6083 Clouds 17 1026 67 10000 2.68 230 11:29 30.09.2021
6084 Clouds 17 1027 67 10000 2.68 230 10:26 30.09.2021
6085 Clouds 17 1005 78 10000 1.34 149 08:32 30.09.2021
6086 Clouds 17 1006 77 10000 0.45 167 07:57 30.09.2021
6087 Clouds 17 1020 70 10000 2.68 230 05:25 30.09.2021
6088 Thunderstorm 19 1022 68 10000 8.49 130 02:33 30.09.2021
6089 Clouds 20 1024 52 10000 5.81 100 00:35 30.09.2021
6090 Clouds 24 1012 43 10000 2.24 10 22:59 29.09.2021
6091 Clouds 22 1025 49 10000 4.02 100 21:54 29.09.2021
6092 Clouds 23 1004 51 10000 0.89 63 20:40 29.09.2021
6093 Clouds 23 1004 51 10000 0.45 140 20:20 29.09.2021
6094 Clouds 20 1020 56 9656 1.79 50 19:24 29.09.2021
6095 Clouds 21 1006 58 10000 0.45 23 18:18 29.09.2021
6096 Clouds 18 1007 69 10000 1.34 75 16:56 29.09.2021
6097 Clouds 14 1025 87 10000 0.89 50 16:28 29.09.2021
6098 Clouds 14 1025 87 10000 0.89 50 15:35 29.09.2021
6099 Clouds 14 1016 83 10000 0.89 50 14:37 29.09.2021
6100 Clouds 14 1024 86 9656 0.89 50 13:33 29.09.2021
6101 Clear 14 1021 81 10000 1.34 60 12:38 29.09.2021
6102 Clouds 16 1026 82 10000 1.79 60 11:20 29.09.2021
6103 Clouds 16 1005 75 10000 0.45 232 10:28 29.09.2021
6104 Clouds 16 1026 82 10000 1.79 60 09:41 29.09.2021
6105 Clouds 16 1025 82 10000 1.79 60 07:51 29.09.2021
6106 Clouds 16 1020 77 10000 1.79 60 06:27 29.09.2021
6107 Clouds 19 1013 55 10000 0.89 351 00:28 29.09.2021
6108 Clouds 25 1022 34 10000 4.02 140 22:26 28.09.2021
6109 Clouds 25 1017 37 10000 4.02 140 21:54 28.09.2021
6110 Clouds 24 1004 48 10000 2.24 157 21:19 28.09.2021
6111 Clouds 21 1025 52 9656 2.68 60 19:49 28.09.2021
6112 Clouds 21 1025 52 9656 2.68 60 19:27 28.09.2021
6113 Clouds 19 1017 65 8047 0.89 15 18:41 28.09.2021
6114 Clouds 19 1017 65 8047 0.89 15 18:40 28.09.2021
6115 Clouds 17 1008 72 10000 0.45 98 16:43 28.09.2021
6116 Clouds 14 1018 82 10000 2.24 70 14:53 28.09.2021
6117 Clouds 14 1027 87 10000 2.24 70 13:25 28.09.2021
6118 Clouds 14 1020 85 8047 2.24 70 12:24 28.09.2021
6119 Clouds 14 1020 85 8047 2.24 70 12:24 28.09.2021
6120 Clouds 15 1028 82 10000 2.24 80 11:47 28.09.2021
6121 Clouds 15 1028 82 10000 2.24 80 11:25 28.09.2021
6122 Clouds 16 1007 76 10000 0.44 328 10:26 28.09.2021
6123 Clouds 15 1022 82 10000 2.24 80 09:25 28.09.2021
6124 Clouds 15 1021 82 10000 2.24 80 08:43 28.09.2021
6125 Clouds 15 1021 82 10000 2.24 80 07:49 28.09.2021
6126 Clouds 17 1028 67 10000 3.58 330 06:23 28.09.2021
6127 Clouds 21 1024 49 10000 5.36 140 01:30 28.09.2021
6128 Clouds 23 1025 43 10000 5.81 220 00:28 28.09.2021
6129 Clouds 21 1015 57 10000 5.81 220 23:48 27.09.2021
6130 Clouds 23 1025 43 10000 5.81 220 23:23 27.09.2021
6131 Clouds 22 1028 46 10000 1.34 20 22:20 27.09.2021
6132 Clouds 22 1028 46 10000 1.34 20 20:54 27.09.2021
6133 Clouds 22 1021 46 10000 1.34 20 20:24 27.09.2021
6134 Clouds 22 1026 47 10000 2.24 60 19:36 27.09.2021
6135 Clouds 21 1008 61 10000 1.34 141 18:52 27.09.2021
6136 Clouds 21 1008 61 10000 1.34 141 18:52 27.09.2021
6137 Clouds 19 1009 69 10000 1.79 61 17:36 27.09.2021
6138 Clouds 15 1029 87 10000 0.89 70 16:53 27.09.2021
6139 Clouds 15 1019 84 10000 0.89 70 15:46 27.09.2021
6140 Clouds 15 1019 85 10000 0.89 70 15:27 27.09.2021
6141 Clouds 15 1029 87 10000 0.89 70 13:35 27.09.2021
6142 Clouds 15 1029 87 10000 0.89 70 12:20 27.09.2021
6143 Clouds 15 1029 87 10000 0.89 70 10:48 27.09.2021
6144 Clouds 15 1023 87 10000 0.89 70 09:38 27.09.2021
6145 Rain 16 1028 82 9656 4.92 230 06:37 27.09.2021
6146 Clouds 19 1020 57 10000 3.58 60 03:31 27.09.2021
6147 Clouds 23 1017 46 10000 2.68 320 23:41 26.09.2021
6148 Clouds 22 1028 46 10000 2.68 320 21:55 26.09.2021
6149 Clouds 22 1026 46 6437 2.68 320 21:26 26.09.2021
6150 Clouds 20 1024 52 8047 1.34 120 20:24 26.09.2021
6151 Clouds 20 1027 52 8047 1.34 120 19:53 26.09.2021
6152 Clouds 21 1010 60 10000 1.34 341 19:25 26.09.2021
6153 Clouds 21 1010 60 10000 1.34 341 19:25 26.09.2021
6154 Clouds 19 1011 64 10000 1.79 79 18:34 26.09.2021
6155 Clouds 17 1011 69 10000 0.45 257 17:37 26.09.2021
6156 Clouds 16 1020 69 10000 2.24 310 17:18 26.09.2021
6157 Clouds 16 1020 70 10000 2.24 310 16:22 26.09.2021
6158 Clouds 15 1019 71 10000 2.24 310 15:22 26.09.2021
6159 Clouds 15 1019 71 10000 2.24 310 14:18 26.09.2021
6160 Clouds 15 1028 67 10000 2.24 310 13:42 26.09.2021
6161 Clouds 15 1019 71 10000 2.24 310 12:26 26.09.2021
6162 Clouds 15 1019 71 10000 2.24 310 11:53 26.09.2021
6163 Clouds 15 1019 71 10000 2.24 310 10:59 26.09.2021
6164 Clouds 16 1028 63 10000 3.58 280 09:38 26.09.2021
6165 Clouds 16 1022 66 10000 3.58 280 08:30 26.09.2021
6166 Rain 20 1023 57 10000 5.36 10 00:28 26.09.2021
6167 Rain 20 1025 56 9656 8.49 50 23:43 25.09.2021
6168 Clouds 24 1005 42 10000 1.79 16 22:39 25.09.2021
6169 Clouds 23 1006 46 10000 0.89 50 22:18 25.09.2021
6170 Clouds 23 1006 46 10000 0.89 50 22:18 25.09.2021
6171 Clouds 22 1006 50 10000 0.89 55 21:40 25.09.2021
6172 Clouds 22 1007 52 10000 1.34 136 20:52 25.09.2021
6173 Clouds 21 1008 56 10000 0.45 174 19:33 25.09.2021
6174 Clouds 18 1009 66 10000 0.45 236 18:28 25.09.2021
6175 Clouds 15 1028 77 10000 0.45 312 17:21 25.09.2021
6176 Clouds 15 1018 76 10000 3.58 60 14:30 25.09.2021
6177 Clouds 15 1014 75 10000 3.58 60 13:54 25.09.2021
6178 Clouds 15 1014 74 10000 3.58 60 12:37 25.09.2021
6179 Clouds 15 1019 72 10000 3.58 60 10:42 25.09.2021
6180 Clouds 15 1028 72 10000 3.58 60 09:59 25.09.2021
6181 Clouds 15 1028 72 10000 3.58 60 08:55 25.09.2021
6182 Clouds 15 1026 72 10000 3.58 60 07:47 25.09.2021
6183 Clouds 24 1026 33 10000 3.58 40 00:52 25.09.2021
6184 Clouds 24 1019 36 10000 3.58 40 21:58 24.09.2021
6185 Clouds 23 1007 44 10000 0.45 61 21:32 24.09.2021
6186 Clouds 22 1007 46 10000 1.34 233 20:32 24.09.2021
6187 Clouds 21 1009 54 10000 1.34 80 19:29 24.09.2021
6188 Clouds 19 1010 63 10000 1.5 18 18:18 24.09.2021
6189 Clouds 18 1010 65 10000 1.34 65 17:42 24.09.2021
6190 Clouds 18 1010 67 10000 1.23 21 17:23 24.09.2021
6191 Clouds 13 1022 80 10000 1.34 80 15:38 24.09.2021
6192 Clouds 13 1021 84 10000 1.79 80 13:21 24.09.2021
6193 Clouds 13 1021 84 10000 1.79 80 13:21 24.09.2021
6194 Clouds 12 1021 84 10000 2.24 60 12:43 24.09.2021
6195 Clouds 12 1021 84 10000 2.24 60 12:25 24.09.2021
6196 Clouds 12 1018 90 10000 1.12 31 10:49 24.09.2021
6197 Clouds 14 1018 87 10000 1.37 8 08:59 24.09.2021
6198 Clouds 15 1019 82 10000 1.47 9 07:55 24.09.2021
6199 Clouds 15 1019 80 10000 1.43 3 06:59 24.09.2021
6200 Clear 18 1028 55 10000 4.12 20 05:22 24.09.2021
6201 Clouds 22 1025 43 10000 5.66 20 01:24 24.09.2021
6202 Clouds 21 1027 46 10000 2.06 310 22:37 23.09.2021
6203 Clouds 20 1015 54 10000 3.17 23 21:58 23.09.2021
6204 Clouds 20 1016 52 10000 2.95 21 20:52 23.09.2021
6205 Clouds 18 1029 55 10000 2.57 110 20:26 23.09.2021
6206 Clouds 16 1030 63 10000 1.03 340 18:27 23.09.2021
6207 Clouds 11 1030 93 10000 4.12 50 15:37 23.09.2021
6208 Clouds 11 1030 93 10000 4.12 50 15:18 23.09.2021
6209 Clouds 13 1021 79 10000 1.42 7 13:57 23.09.2021
6210 Clouds 12 1029 87 10000 3.09 70 13:23 23.09.2021
6211 Clouds 13 1020 79 10000 1.43 3 12:54 23.09.2021
6212 Clouds 14 1029 72 10000 2.57 360 12:24 23.09.2021
6213 Clouds 12 1020 79 10000 1.63 13 11:56 23.09.2021
6214 Clouds 14 1030 67 10000 2.57 10 10:28 23.09.2021
6215 Clouds 14 1020 74 10000 1.93 355 09:53 23.09.2021
6216 Clouds 15 1030 63 10000 5.14 310 08:42 23.09.2021
6217 Clouds 16 1030 59 10000 3.09 330 05:29 23.09.2021
6218 Clouds 22 1015 45 10000 6.36 25 23:48 22.09.2021
6219 Clouds 23 1029 35 10000 6.17 30 22:44 22.09.2021
6220 Clouds 23 1029 35 10000 6.17 30 22:18 22.09.2021
6221 Clouds 22 1030 40 10000 7.72 360 21:41 22.09.2021
6222 Clouds 21 1017 37 10000 5.37 35 20:57 22.09.2021
6223 Clouds 19 1031 45 10000 4.12 50 19:34 22.09.2021
6224 Clouds 21 1021 47 10000 3.68 18 18:46 22.09.2021
6225 Clouds 18 1032 55 10000 2.57 350 18:23 22.09.2021
6226 Clouds 15 1023 67 10000 2.78 12 16:41 22.09.2021
6227 Clouds 13 1024 78 10000 2.61 10 15:38 22.09.2021
6228 Clouds 15 1030 67 10000 2.57 320 14:25 22.09.2021
6229 Clouds 15 1030 72 10000 2.57 360 12:22 22.09.2021
6230 Clouds 13 1021 83 10000 2.19 1 10:57 22.09.2021
6231 Clouds 16 1031 63 10000 2.57 360 09:29 22.09.2021
6232 Clouds 17 1031 59 10000 2.57 340 08:35 22.09.2021
6233 Clouds 18 1031 52 10000 2.57 360 07:30 22.09.2021
6234 Clouds 18 1030 55 10000 4.12 20 06:19 22.09.2021
6235 Clouds 19 1030 52 10000 4.12 350 05:42 22.09.2021
6236 Clouds 18 1018 62 10000 2.67 29 03:53 22.09.2021
6237 Clouds 21 1026 43 10000 8.23 20 02:55 22.09.2021
6238 Clouds 25 1027 29 10000 2.06 10 23:31 21.09.2021
6239 Clouds 22 1014 35 10000 2.66 16 21:47 21.09.2021
6240 Clouds 22 1017 45 10000 2.17 25 20:28 21.09.2021
6241 Clouds 20 1031 60 8047 2.06 360 19:24 21.09.2021
6242 Clouds 20 1020 66 10000 1.17 26 18:19 21.09.2021
6243 Clouds 18 1030 77 6437 0 0 16:41 21.09.2021
6244 Clouds 13 1021 80 10000 0.4 27 15:56 21.09.2021
6245 Clouds 14 1020 86 10000 0.05 275 14:58 21.09.2021
6246 Clouds 13 1019 85 10000 0.32 204 13:58 21.09.2021
6247 Clouds 16 1028 82 9656 0 0 13:39 21.09.2021
6248 Clouds 16 1028 82 9656 3.09 50 12:44 21.09.2021
6249 Clouds 17 1028 67 10000 2.06 280 10:39 21.09.2021
6250 Clouds 16 1018 80 10000 0.19 180 08:57 21.09.2021
6251 Clouds 18 1029 63 10000 3.09 290 07:37 21.09.2021
6252 Clouds 18 1029 63 10000 3.09 290 07:37 21.09.2021
6253 Clouds 20 1014 60 10000 0.55 309 01:54 21.09.2021
6254 Clouds 18 1012 43 10000 1.25 78 22:54 20.09.2021
6255 Clouds 22 1027 40 10000 0 0 21:43 20.09.2021
6256 Clouds 22 1027 40 10000 0 0 21:24 20.09.2021
6257 Clouds 18 1016 47 10000 1.09 62 19:47 20.09.2021
6258 Clouds 17 1029 77 6437 0 0 17:54 20.09.2021
6259 Clouds 16 1019 76 10000 0.3 65 16:58 20.09.2021
6260 Clouds 15 1029 88 6437 1.54 60 16:23 20.09.2021
6261 Mist 14 1028 94 4828 1.54 340 15:36 20.09.2021
6262 Clouds 14 1027 94 8047 2.57 70 14:27 20.09.2021
6263 Clouds 14 1027 94 9656 0 0 12:44 20.09.2021
6264 Clouds 14 1027 94 9656 0 0 12:22 20.09.2021
6265 Clouds 14 1028 94 10000 2.06 90 10:52 20.09.2021
6266 Rain 14 1019 90 10000 0.76 8 09:51 20.09.2021
6267 Clouds 14 1029 94 10000 2.06 60 09:31 20.09.2021
6268 Clouds 14 1029 100 10000 2.57 70 08:35 20.09.2021
6269 Clouds 15 1029 88 10000 2.06 280 06:22 20.09.2021
6270 Clouds 15 1029 88 10000 2.06 280 06:22 20.09.2021
6271 Clouds 21 1025 56 10000 6.69 110 22:58 19.09.2021
6272 Clouds 19 1015 66 10000 1.86 102 21:50 19.09.2021
6273 Clouds 18 1016 68 10000 1.74 103 20:59 19.09.2021
6274 Clouds 21 1027 52 10000 4.63 140 19:54 19.09.2021
6275 Clouds 15 1020 85 10000 0.79 166 18:53 19.09.2021
6276 Clouds 17 1029 72 10000 1.54 270 17:42 19.09.2021
6277 Clouds 16 1028 77 10000 1.54 210 16:33 19.09.2021
6278 Clouds 14 1028 94 10000 0 0 15:31 19.09.2021
6279 Clouds 13 1019 94 9921 0.29 92 14:49 19.09.2021
6280 Clouds 13 1019 92 10000 0.44 82 13:52 19.09.2021
6281 Clouds 14 1018 92 10000 0.61 72 12:55 19.09.2021
6282 Rain 14 1018 93 10000 0.87 79 11:46 19.09.2021
6283 Rain 13 1028 94 10000 1.54 80 11:22 19.09.2021
6284 Rain 12 1028 94 3219 7.72 230 09:51 19.09.2021
6285 Rain 14 1028 94 8047 3.6 350 09:23 19.09.2021
6286 Rain 15 1028 94 8047 2.06 360 06:48 19.09.2021
6287 Rain 19 1024 59 10000 6.17 20 00:48 19.09.2021
6288 Clouds 21 1013 54 10000 2.79 31 22:58 18.09.2021
6289 Clouds 21 1014 50 10000 2.12 40 21:56 18.09.2021
6290 Clouds 26 1015 49 10000 1.81 33 20:46 18.09.2021
6291 Clouds 19 1029 59 10000 4.12 20 19:42 18.09.2021
6292 Clouds 19 1029 59 10000 4.12 20 19:22 18.09.2021
6293 Clouds 20 1018 59 10000 2.16 16 18:58 18.09.2021
6294 Clouds 18 1029 63 10000 2.57 360 18:29 18.09.2021
6295 Clouds 16 1029 77 10000 2.57 300 16:35 18.09.2021
6296 Clouds 14 1019 89 10000 1.23 13 13:53 18.09.2021
6297 Clouds 16 1028 77 10000 3.09 20 13:31 18.09.2021
6298 Clouds 15 1019 89 10000 0.92 0 12:52 18.09.2021
6299 Clouds 15 1018 89 10000 1.06 349 11:59 18.09.2021
6300 Clouds 16 1028 82 10000 2.57 320 11:29 18.09.2021
6301 Clouds 16 1028 88 10000 2.57 290 10:23 18.09.2021
6302 Clouds 16 1028 88 10000 3.6 330 09:23 18.09.2021
6303 Clouds 16 1029 88 10000 2.57 290 08:24 18.09.2021
6304 Rain 22 1012 57 10000 2.4 83 00:52 18.09.2021
6305 Clouds 24 1011 45 10000 2.7 86 23:55 17.09.2021
6306 Clouds 25 1011 41 10000 2.47 72 22:45 17.09.2021
6307 Clouds 24 1026 41 9656 1.54 260 22:22 17.09.2021
6308 Clouds 22 1028 53 9656 3.09 80 21:31 17.09.2021
6309 Clouds 21 1029 60 9656 1.54 230 19:31 17.09.2021
6310 Clouds 20 1029 64 9656 3.09 100 18:30 17.09.2021
6311 Clouds 16 1029 77 10000 2.06 270 16:34 17.09.2021
6312 Haze 16 1027 88 8047 2.06 100 14:34 17.09.2021
6313 Clouds 16 1027 88 9656 1.54 80 11:43 17.09.2021
6314 Clouds 17 1027 77 10000 1.54 260 09:40 17.09.2021
6315 Clouds 18 1027 72 10000 3.09 260 07:36 17.09.2021
6316 Rain 19 1025 63 10000 2.06 10 04:25 17.09.2021
6317 Rain 20 1023 60 10000 3.6 290 00:29 17.09.2021
6318 Clouds 23 1024 49 9656 7.2 60 22:41 16.09.2021
6319 Clouds 23 1024 49 9656 7.2 60 22:23 16.09.2021
6320 Smoke 23 1025 46 8047 0 0 21:27 16.09.2021
6321 Smoke 22 1026 53 6437 2.06 50 20:28 16.09.2021
6322 Smoke 21 1026 60 6437 1.03 100 18:28 16.09.2021
6323 Clouds 21 1016 54 10000 0.84 82 17:58 16.09.2021
6324 Smoke 16 1025 77 8047 0 0 15:31 16.09.2021
6325 Smoke 16 1025 77 6437 0 0 14:35 16.09.2021
6326 Clouds 11 1014 75 10000 0.68 167 12:59 16.09.2021
6327 Smoke 17 1024 77 6437 2.06 210 12:36 16.09.2021
6328 Clouds 15 1014 75 10000 0.75 164 11:46 16.09.2021
6329 Smoke 17 1025 77 6437 0 0 10:40 16.09.2021
6330 Smoke 17 1025 77 6437 0 0 10:18 16.09.2021
6331 Smoke 18 1025 72 9656 2.57 340 08:43 16.09.2021
6332 Clouds 15 1015 71 10000 1.29 179 07:46 16.09.2021
6333 Clouds 18 1015 70 10000 1.29 169 06:55 16.09.2021
6334 Smoke 19 1025 63 10000 2.57 140 06:31 16.09.2021
6335 Clouds 20 1011 64 10000 2.16 166 02:57 16.09.2021
6336 Clouds 24 1021 43 10000 7.72 110 00:45 16.09.2021
6337 Clouds 22 1008 40 10000 2.52 84 22:52 15.09.2021
6338 Clouds 24 1023 43 8047 6.17 100 21:56 15.09.2021
6339 Clouds 24 1023 43 8047 6.17 100 21:56 15.09.2021
6340 Clouds 24 1024 43 8047 2.06 20 21:30 15.09.2021
6341 Clouds 24 1024 43 8047 2.06 20 21:30 15.09.2021
6342 Clouds 24 1024 43 8047 2.06 20 21:30 15.09.2021
6343 Clouds 23 1025 49 8047 3.6 80 20:24 15.09.2021
6344 Clouds 21 1025 64 8047 2.06 120 19:29 15.09.2021
6345 Clouds 20 1026 64 9656 1.54 70 18:25 15.09.2021
6346 Clouds 18 1025 72 10000 0 0 17:26 15.09.2021
6347 Clouds 15 1025 82 9656 2.57 80 16:20 15.09.2021
6348 Clouds 11 1016 84 10000 0.11 175 14:46 15.09.2021
6349 Clouds 15 1025 82 10000 2.06 50 14:24 15.09.2021
6350 Clouds 15 1024 82 10000 1.03 60 13:40 15.09.2021
6351 Clouds 15 1024 82 10000 1.03 60 13:21 15.09.2021
6352 Clouds 14 1024 88 10000 2.06 60 12:21 15.09.2021
6353 Clouds 16 1024 77 10000 1.03 180 11:47 15.09.2021
6354 Clouds 15 1015 85 10000 0.6 180 10:56 15.09.2021
6355 Clouds 16 1025 72 10000 2.06 130 09:31 15.09.2021
6356 Clouds 16 1026 72 10000 2.57 100 08:41 15.09.2021
6357 Clouds 16 1016 82 10000 1.78 183 05:54 15.09.2021
6358 Clouds 22 1010 51 10000 2.4 173 23:55 14.09.2021
6359 Clouds 18 1011 48 10000 3.04 165 21:58 14.09.2021
6360 Clouds 18 1013 49 10000 2.64 158 20:56 14.09.2021
6361 Clouds 16 1014 53 10000 1.97 157 19:51 14.09.2021
6362 Clouds 20 1027 56 10000 2.57 140 17:53 14.09.2021
6363 Clouds 18 1027 68 10000 2.57 140 17:28 14.09.2021
6364 Clouds 15 1027 82 10000 2.57 130 15:39 14.09.2021
6365 Clouds 15 1026 82 10000 2.57 170 14:31 14.09.2021
6366 Clouds 15 1017 86 10000 1.32 175 12:46 14.09.2021
6367 Clouds 15 1017 85 10000 1.51 178 10:55 14.09.2021
6368 Clouds 14 1017 83 10000 1.3 182 09:51 14.09.2021
6369 Clouds 16 1027 82 10000 5.14 110 08:48 14.09.2021
6370 Clouds 17 1027 72 10000 3.6 120 06:38 14.09.2021
6371 Clouds 20 1024 64 10000 3.09 120 00:33 14.09.2021
6372 Rain 21 1025 56 10000 6.17 160 22:53 13.09.2021
6373 Clouds 22 1025 49 10000 5.66 140 22:24 13.09.2021
6374 Clouds 22 1013 56 10000 4.23 163 21:53 13.09.2021
6375 Clouds 21 1014 57 10000 3.21 166 20:51 13.09.2021
6376 Clouds 20 1027 60 10000 5.66 140 19:22 13.09.2021
6377 Clouds 19 1028 68 10000 2.57 100 18:43 13.09.2021
6378 Clouds 16 1019 90 10000 1.14 54 16:51 13.09.2021
6379 Clouds 15 1027 88 10000 4.12 70 15:31 13.09.2021
6380 Clouds 14 1017 90 10000 1.01 11 12:54 13.09.2021
6381 Clouds 14 1018 92 10000 1.76 7 10:58 13.09.2021
6382 Clouds 14 1018 92 10000 1.76 7 10:58 13.09.2021
6383 Clouds 16 1027 82 10000 3.09 340 09:40 13.09.2021
6384 Clouds 16 1017 83 10000 2.81 8 04:59 13.09.2021
6385 Clouds 26 1011 54 10000 4.01 25 23:41 12.09.2021
6386 Clouds 20 1025 52 10000 3.6 280 22:25 12.09.2021
6387 Clouds 20 1026 52 10000 3.09 290 21:37 12.09.2021
6388 Clouds 19 1027 55 10000 5.14 360 20:29 12.09.2021
6389 Clouds 20 1016 58 10000 2.59 12 19:51 12.09.2021
6390 Clouds 18 1028 59 10000 3.09 20 19:19 12.09.2021
6391 Clouds 17 1028 63 10000 1.03 210 18:29 12.09.2021
6392 Clouds 15 1027 77 10000 2.57 10 16:32 12.09.2021
6393 Clouds 14 1019 84 10000 1.34 3 14:54 12.09.2021
6394 Clouds 14 1026 77 10000 3.6 60 13:20 12.09.2021
6395 Clouds 15 1026 72 10000 2.57 10 11:31 12.09.2021
6396 Clouds 15 1027 72 10000 2.57 350 09:27 12.09.2021
6397 Clouds 16 1028 67 10000 4.12 350 08:37 12.09.2021
6398 Clouds 18 1014 65 10000 3.77 13 01:50 12.09.2021
6399 Clouds 20 1025 49 10000 5.14 20 23:20 11.09.2021
6400 Clouds 20 1026 45 10000 2.06 320 21:41 11.09.2021
6401 Clouds 19 1027 48 10000 4.63 270 20:31 11.09.2021
6402 Clouds 17 1028 51 10000 2.57 20 19:20 11.09.2021
6403 Clouds 15 1028 63 10000 3.09 360 17:29 11.09.2021
6404 Clouds 13 1021 76 10000 2.02 12 15:48 11.09.2021
6405 Clouds 14 1027 72 10000 1.54 330 13:33 11.09.2021
6406 Clouds 12 1019 81 10000 1.39 16 12:48 11.09.2021
6407 Clouds 14 1028 72 10000 3.6 310 11:18 11.09.2021
6408 Clouds 15 1029 63 10000 3.6 20 09:38 11.09.2021
6409 Clouds 14 1020 73 10000 2.18 356 07:45 11.09.2021
6410 Clouds 14 1020 72 10000 2.65 358 06:48 11.09.2021
6411 Clouds 21 1026 40 10000 4.63 330 23:23 10.09.2021
6412 Clouds 20 1027 40 10000 5.14 40 22:23 10.09.2021
6413 Clouds 21 1015 45 10000 3.39 8 21:48 10.09.2021
6414 Clouds 19 1017 47 10000 3.26 12 19:49 10.09.2021
6415 Clouds 17 1029 59 10000 4.63 20 18:26 10.09.2021
6416 Clouds 18 1020 71 10000 2.42 15 16:48 10.09.2021
6417 Clouds 14 1019 85 10000 2.01 8 13:55 10.09.2021
6418 Clouds 14 1018 83 10000 1.95 16 11:54 10.09.2021
6419 Clouds 16 1029 67 10000 2.57 360 08:36 10.09.2021
6420 Clouds 14 1020 79 10000 2.02 7 07:48 10.09.2021
6421 Clouds 22 1013 55 10000 3.01 49 00:42 10.09.2021
6422 Clouds 22 1026 43 10000 3.09 60 22:24 09.09.2021
6423 Clouds 21 1027 46 10000 5.14 10 21:39 09.09.2021
6424 Clouds 22 1014 47 10000 3.06 25 20:46 09.09.2021
6425 Clouds 19 1028 55 10000 4.63 60 18:58 09.09.2021
6426 Clouds 16 1018 65 10000 1.7 12 17:56 09.09.2021
6427 Clouds 15 1028 82 10000 2.06 290 16:40 09.09.2021
6428 Clouds 14 1027 88 9656 2.57 320 15:27 09.09.2021
6429 Clouds 13 1019 90 10000 1.13 15 12:48 09.09.2021
6430 Clouds 15 1027 88 10000 2.57 300 11:33 09.09.2021
6431 Clouds 15 1028 94 10000 1.54 320 09:39 09.09.2021
6432 Clouds 15 1028 94 10000 1.54 360 08:32 09.09.2021
6433 Rain 15 1028 94 6437 3.09 360 06:24 09.09.2021
6434 Clouds 22 1023 46 10000 3.09 280 01:31 09.09.2021
6435 Clouds 22 1023 46 10000 3.09 280 01:31 09.09.2021
6436 Clouds 22 1025 56 10000 2.06 40 22:34 08.09.2021
6437 Clouds 22 1014 47 10000 1.95 42 20:57 08.09.2021
6438 Clouds 18 1015 50 10000 1.91 36 19:48 08.09.2021
6439 Clouds 18 1016 58 10000 1.44 36 18:49 08.09.2021
6440 Clouds 18 1027 68 10000 2.06 260 18:27 08.09.2021
6441 Clouds 16 1027 77 8047 2.06 70 17:54 08.09.2021
6442 Clouds 16 1027 77 8047 1.54 110 16:27 08.09.2021
6443 Clouds 13 1018 91 10000 0.22 199 13:53 08.09.2021
6444 Clouds 13 1025 100 10000 0 0 12:42 08.09.2021
6445 Clouds 13 1025 100 10000 0 0 12:24 08.09.2021
6446 Clouds 13 1026 100 10000 0 0 11:26 08.09.2021
6447 Clouds 13 1027 100 10000 2.57 90 10:32 08.09.2021
6448 Clouds 13 1018 90 10000 0.7 182 09:57 08.09.2021
6449 Rain 14 1018 91 10000 0.88 184 07:47 08.09.2021
6450 Clouds 14 1028 94 8047 2.57 320 07:29 08.09.2021
6451 Thunderstorm 14 1025 94 3219 2.06 250 23:41 07.09.2021
6452 Thunderstorm 14 1025 94 3219 2.06 250 23:41 07.09.2021
6453 Rain 20 1024 56 10000 1.54 30 22:30 07.09.2021
6454 Clouds 22 1026 53 10000 1.54 240 20:50 07.09.2021
6455 Clouds 20 1027 63 10000 2.57 80 19:40 07.09.2021
6456 Clouds 17 1028 72 10000 2.06 360 18:37 07.09.2021
6457 Clouds 16 1027 82 10000 1.03 60 17:40 07.09.2021
6458 Clouds 14 1019 88 10000 0.5 124 15:57 07.09.2021
6459 Clouds 11 1019 91 10000 0.34 160 14:54 07.09.2021
6460 Clouds 13 1018 94 10000 0.73 25 13:52 07.09.2021
6461 Clouds 14 1027 94 10000 1.54 320 12:23 07.09.2021
6462 Rain 14 1017 93 10000 0.5 67 10:59 07.09.2021
6463 Rain 14 1017 93 10000 0.5 67 10:59 07.09.2021
6464 Rain 14 1028 94 6437 2.57 300 10:20 07.09.2021
6465 Rain 14 1029 94 6437 1.54 230 07:48 07.09.2021
6466 Rain 14 1028 94 6437 2.06 230 06:31 07.09.2021
6467 Thunderstorm 14 1025 94 4828 3.6 70 02:43 07.09.2021
6468 Thunderstorm 14 1025 94 4828 3.6 70 02:23 07.09.2021
6469 Clouds 22 1024 49 8047 3.09 210 00:21 07.09.2021
6470 Clouds 21 1024 49 8047 1.54 20 23:31 06.09.2021
6471 Clouds 19 1013 68 10000 1.75 190 22:53 06.09.2021
6472 Clouds 22 1025 49 8047 3.09 40 22:24 06.09.2021
6473 Clouds 22 1028 53 9656 1.03 180 20:36 06.09.2021
6474 Clouds 20 1029 60 9656 1.54 200 19:20 06.09.2021
6475 Clouds 19 1029 63 9656 0 0 18:36 06.09.2021
6476 Clouds 19 1029 63 9656 0 0 17:54 06.09.2021
6477 Clouds 15 1029 88 8047 2.57 80 16:23 06.09.2021
6478 Clouds 14 1028 94 8047 2.06 80 15:25 06.09.2021
6479 Clouds 15 1028 88 10000 2.57 100 13:44 06.09.2021
6480 Clouds 14 1018 92 10000 0.95 203 12:45 06.09.2021
6481 Clouds 15 1028 94 10000 2.57 320 10:36 06.09.2021
6482 Clouds 15 1018 92 10000 0.58 333 07:48 06.09.2021
6483 Thunderstorm 15 1027 94 10000 4.12 50 04:36 06.09.2021
6484 Thunderstorm 18 1025 82 10000 4.12 110 23:23 05.09.2021
6485 Thunderstorm 16 1025 88 8047 5.14 120 22:33 05.09.2021
6486 Clouds 23 1012 50 10000 1.42 74 21:56 05.09.2021
6487 Clouds 22 1026 49 8047 1.54 10 21:20 05.09.2021
6488 Clouds 21 1027 56 8047 1.54 170 19:45 05.09.2021
6489 Clouds 17 1018 69 10000 0.69 35 17:52 05.09.2021
6490 Clouds 15 1027 88 8047 3.09 60 16:33 05.09.2021
6491 Clouds 15 1026 88 8047 2.57 60 15:20 05.09.2021
6492 Clouds 13 1017 90 10000 0.94 30 12:44 05.09.2021
6493 Clouds 16 1026 77 10000 2.06 290 11:35 05.09.2021
6494 Clouds 16 1026 77 10000 2.06 280 10:40 05.09.2021
6495 Clouds 16 1026 72 10000 3.09 280 09:34 05.09.2021
6496 Clouds 16 1027 72 10000 3.6 300 08:34 05.09.2021
6497 Clouds 16 1017 81 10000 1.96 358 05:47 05.09.2021
6498 Clouds 22 1022 49 10000 6.17 150 00:39 05.09.2021
6499 Clouds 22 1022 53 10000 3.6 150 23:56 04.09.2021
6500 Clouds 24 1023 46 10000 3.6 50 23:24 04.09.2021
6501 Clouds 23 1024 46 10000 4.12 20 22:35 04.09.2021
6502 Clouds 22 1013 53 10000 1.69 51 20:58 04.09.2021
6503 Clouds 20 1026 56 10000 0 0 19:33 04.09.2021
6504 Clouds 17 1027 82 10000 1.03 60 17:25 04.09.2021
6505 Clouds 15 1026 88 9656 0 0 14:37 04.09.2021
6506 Clouds 15 1025 94 8047 3.09 280 11:37 04.09.2021
6507 Clouds 15 1025 94 8047 1.54 220 10:38 04.09.2021
6508 Clouds 16 1027 94 9656 0 0 07:43 04.09.2021
6509 Rain 17 1023 82 6437 0 0 00:50 04.09.2021
6510 Clouds 16 1011 65 10000 1.5 80 23:49 03.09.2021
6511 Clouds 19 1023 72 9656 6.17 240 23:20 03.09.2021
6512 Clouds 24 1011 49 10000 0.99 79 21:43 03.09.2021
6513 Clouds 24 1011 49 10000 0.99 79 21:43 03.09.2021
6514 Clouds 22 1013 52 10000 1.05 50 20:58 03.09.2021
6515 Clouds 20 1026 64 10000 2.57 80 20:28 03.09.2021
6516 Clouds 18 1027 72 9656 2.06 60 19:35 03.09.2021
6517 Clouds 18 1027 77 9656 1.54 90 18:21 03.09.2021
6518 Clouds 15 1026 88 10000 1.54 80 16:50 03.09.2021
6519 Clouds 14 1026 94 10000 2.06 80 15:39 03.09.2021
6520 Clouds 14 1025 88 10000 1.54 70 14:28 03.09.2021
6521 Clouds 14 1025 88 10000 1.54 70 14:28 03.09.2021
6522 Rain 14 1025 94 10000 2.06 220 11:21 03.09.2021
6523 Rain 15 1026 94 6437 2.06 100 09:21 03.09.2021
6524 Rain 14 1026 100 6437 3.09 80 08:18 03.09.2021
6525 Clouds 15 1026 94 8047 2.06 260 06:49 03.09.2021
6526 Clouds 20 1011 63 10000 0.39 272 23:56 02.09.2021
6527 Rain 19 1024 72 8047 0 0 22:21 02.09.2021
6528 Clouds 19 1025 68 8047 2.06 50 20:46 02.09.2021
6529 Clouds 17 1026 77 8047 1.54 60 18:27 02.09.2021
6530 Clouds 15 1025 88 8047 1.54 70 16:30 02.09.2021
6531 Clouds 14 1025 94 10000 1.54 60 15:30 02.09.2021
6532 Rain 14 1024 94 9656 0 0 13:33 02.09.2021
6533 Rain 14 1024 94 6437 2.06 160 11:43 02.09.2021
6534 Rain 15 1015 95 9805 0.57 18 10:53 02.09.2021
6535 Rain 15 1015 94 10000 0.84 1 08:57 02.09.2021
6536 Rain 15 1025 94 4828 2.57 40 07:22 02.09.2021
6537 Rain 15 1025 94 4828 2.57 40 07:22 02.09.2021
6538 Rain 16 1024 88 10000 3.6 270 05:31 02.09.2021
6539 Clouds 18 1022 68 10000 2.06 240 02:36 02.09.2021
6540 Clouds 18 1011 81 10000 0.84 193 01:49 02.09.2021
6541 Clouds 20 1023 64 10000 1.54 280 23:41 01.09.2021
6542 Clouds 20 1011 72 9157 1.01 126 22:44 01.09.2021
6543 Rain 19 1023 68 10000 1.03 200 21:58 01.09.2021
6544 Rain 20 1024 68 10000 2.06 190 21:29 01.09.2021
6545 Clouds 19 1025 68 10000 2.57 70 19:33 01.09.2021
6546 Clouds 18 1015 75 10000 1.05 184 17:51 01.09.2021
6547 Clouds 17 1015 79 10000 0.74 171 16:58 01.09.2021
6548 Clouds 16 1024 82 10000 0 0 16:35 01.09.2021
6549 Clouds 12 1014 90 10000 0.6 194 13:57 01.09.2021
6550 Clouds 14 1014 92 10000 0.27 193 11:47 01.09.2021
6551 Rain 15 1014 89 10000 0.11 31 09:49 01.09.2021
6552 Rain 14 1025 94 9656 3.6 260 08:19 01.09.2021
6553 Rain 16 1025 88 10000 2.06 100 06:42 01.09.2021
6554 Clouds 20 1022 56 10000 4.12 290 23:30 31.08.2021
6555 Clouds 23 1010 53 10000 1.05 55 21:57 31.08.2021
6556 Clouds 20 1013 63 10000 0.99 172 19:49 31.08.2021
6557 Clouds 18 1015 73 10000 1.02 189 18:59 31.08.2021
6558 Clouds 18 1025 72 9656 0 0 17:40 31.08.2021
6559 Clouds 18 1025 72 9656 0 0 17:21 31.08.2021
6560 Clouds 18 1025 72 9656 0 0 17:21 31.08.2021
6561 Clouds 15 1024 88 9656 1.54 60 16:28 31.08.2021
6562 Clouds 15 1015 88 10000 0.76 219 15:25 31.08.2021
6563 Clouds 14 1015 93 10000 1.22 163 11:46 31.08.2021
6564 Clouds 14 1015 93 10000 0.99 178 11:18 31.08.2021
6565 Clouds 13 1015 93 10000 0.99 178 10:42 31.08.2021
6566 Clouds 15 1025 88 10000 1.54 110 09:41 31.08.2021
6567 Clouds 13 1016 92 10000 0.82 165 07:48 31.08.2021
6568 Clouds 15 1017 93 8670 0.64 255 05:56 31.08.2021
6569 Rain 15 1023 88 10000 4.12 70 23:36 30.08.2021
6570 Thunderstorm 13 1023 94 8047 2.57 280 22:32 30.08.2021
6571 Clouds 22 1023 53 10000 5.14 140 21:35 30.08.2021
6572 Clouds 22 1025 53 10000 1.54 40 20:40 30.08.2021
6573 Clouds 20 1026 68 10000 0 0 19:33 30.08.2021
6574 Clouds 20 1026 64 10000 2.57 80 18:58 30.08.2021
6575 Clouds 18 1026 77 10000 0 0 17:49 30.08.2021
6576 Clouds 16 1026 88 10000 0 0 16:27 30.08.2021
6577 Clouds 15 1026 88 10000 1.54 250 15:40 30.08.2021
6578 Clouds 13 1017 91 10000 1.1 202 13:55 30.08.2021
6579 Clouds 14 1026 94 10000 2.06 110 12:57 30.08.2021
6580 Rain 16 1017 93 10000 0.55 111 10:42 30.08.2021
6581 Rain 16 1026 82 10000 1.54 340 03:24 30.08.2021
6582 Clouds 25 1025 38 10000 4.12 220 21:35 29.08.2021
6583 Clouds 24 1026 43 10000 4.12 160 20:46 29.08.2021
6584 Clouds 23 1027 43 10000 4.12 130 19:27 29.08.2021
6585 Clouds 17 1017 61 10000 0.47 235 17:58 29.08.2021
6586 Rain 16 1018 74 10000 0.75 186 15:54 29.08.2021
6587 Clouds 16 1026 72 10000 2.57 80 14:27 29.08.2021
6588 Clouds 13 1018 83 10000 1.35 186 13:55 29.08.2021
6589 Clouds 16 1026 72 10000 3.09 110 12:43 29.08.2021
6590 Clouds 14 1017 82 10000 1.56 199 11:54 29.08.2021
6591 Clouds 16 1026 77 10000 3.6 120 11:32 29.08.2021
6592 Clouds 17 1027 67 10000 2.06 120 10:46 29.08.2021
6593 Clouds 17 1027 67 10000 2.06 120 10:27 29.08.2021
6594 Clouds 17 1027 67 10000 2.06 120 10:27 29.08.2021
6595 Clouds 17 1027 63 10000 2.06 170 09:21 29.08.2021
6596 Clouds 19 1026 52 10000 5.14 170 03:26 29.08.2021
6597 Clouds 22 1026 46 10000 5.66 170 22:29 28.08.2021
6598 Clouds 21 1026 52 10000 4.63 150 20:30 28.08.2021
6599 Clouds 20 1027 60 10000 4.12 90 18:53 28.08.2021
6600 Clouds 18 1027 63 10000 2.57 140 18:21 28.08.2021
6601 Clouds 18 1027 63 10000 1.54 120 17:45 28.08.2021
6602 Clouds 16 1027 72 10000 1.54 120 16:21 28.08.2021
6603 Rain 15 1025 77 10000 3.09 120 14:43 28.08.2021
6604 Clouds 15 1025 82 10000 2.06 120 13:47 28.08.2021
6605 Clouds 14 1016 82 10000 0.98 161 12:46 28.08.2021
6606 Rain 14 1016 81 10000 0.92 133 11:58 28.08.2021
6607 Clouds 14 1016 81 10000 0.97 145 10:44 28.08.2021
6608 Rain 15 1026 72 10000 3.09 130 09:33 28.08.2021
6609 Clouds 14 1017 76 10000 1.84 155 07:25 28.08.2021
6610 Clouds 21 1013 57 10000 3.25 150 22:48 27.08.2021
6611 Clouds 18 1025 48 10000 2.06 90 21:26 27.08.2021
6612 Clouds 17 1025 55 10000 3.09 70 20:33 27.08.2021
6613 Rain 16 1026 63 10000 2.57 100 19:26 27.08.2021
6614 Clouds 14 1026 72 10000 2.06 50 18:38 27.08.2021
6615 Clouds 13 1026 76 10000 2.57 100 17:27 27.08.2021
6616 Clouds 14 1016 73 10000 1.13 70 15:57 27.08.2021
6617 Clouds 11 1024 87 10000 2.06 70 14:44 27.08.2021
6618 Clouds 12 1016 81 10000 1 42 12:55 27.08.2021
6619 Clouds 14 1024 72 10000 4.12 300 11:37 27.08.2021
6620 Clouds 14 1025 72 10000 3.09 280 10:44 27.08.2021
6621 Clouds 15 1025 67 10000 4.12 270 09:48 27.08.2021
6622 Clouds 15 1016 77 10000 2.16 13 08:48 27.08.2021
6623 Clouds 15 1017 71 10000 2.62 8 06:58 27.08.2021
6624 Clouds 17 1024 63 10000 6.17 20 05:28 27.08.2021
6625 Clouds 22 1022 40 10000 5.14 120 00:36 27.08.2021
6626 Clouds 23 1009 36 10000 3.92 53 22:49 26.08.2021
6627 Clouds 23 1023 35 10000 2.06 40 22:19 26.08.2021
6628 Clear 22 1024 30 10000 1.03 240 20:37 26.08.2021
6629 Clouds 18 1016 44 10000 2.89 17 18:51 26.08.2021
6630 Clouds 16 1026 59 10000 2.06 320 17:45 26.08.2021
6631 Clouds 15 1026 67 10000 3.09 280 16:34 26.08.2021
6632 Rain 14 1017 75 10000 2.47 5 15:55 26.08.2021
6633 Clouds 14 1017 83 10000 2.09 359 13:48 26.08.2021
6634 Clouds 13 1016 82 10000 2.25 7 12:54 26.08.2021
6635 Clouds 15 1026 72 10000 1.54 300 12:30 26.08.2021
6636 Clouds 16 1027 67 10000 4.12 330 10:21 26.08.2021
6637 Clouds 16 1028 63 10000 4.12 30 08:34 26.08.2021
6638 Clouds 16 1027 63 10000 7.2 360 06:18 26.08.2021
6639 Clouds 24 1024 38 10000 7.72 40 22:50 25.08.2021
6640 Clouds 22 1024 43 10000 9.77 10 22:32 25.08.2021
6641 Clouds 23 1025